<?xml version="1.0" encoding="UTF-8" standalone="no" ?>
<gpx xmlns="http://www.topografix.com/GPX/1/1" xmlns:xsi="http://www.w3.org/2001/XMLSchema-instance" xsi:schemaLocation="http://www.topografix.com/GPX/1/1 http://www.topografix.com/GPX/1/1/gpx.xsd" version="1.1" creator="VisuGPX - https://www.visugpx.com">
  <metadata>
    <name>nez de boeuf 65k écourtée</name>
    <desc><![CDATA[nez de boeuf 65k écourtée (retour par la route)
Dimanche 2/07/2017]]></desc>
  </metadata>
  <trk>
    <name><![CDATA[2017-07-02 08:36]]></name>
    <desc><![CDATA[<h1>OruxMaps</h1><br /><hr align="center" width="480" style="height: 2px; width: 517px"/><h2>Nom: 2017-07-02 08:36</h2><br /><p>Temps de départ: 07/02/2017 08:37</p><p>Temps d'arrivée: 07/02/2017 14:34</p><p>Distance: 51,2km (05:57)</p><p>Temps déplacement: 04:07</p><p>Vitesse moyenne: 8,6km/h</p><p>Vitesse moyenne: 12,4km/h</p><p>Vitess Max.: 44,2km/h</p><p>Altitude minimale: 43m</p><p>Altitude maximale: 139m</p><p>Vitesse d'élévation: 536,4m/h</p><p>Vitesse de descente: -646,8m/h</p><p>Gain Altitude: 1353m</p><p>Perte Altitude: -1349m</p><p>Temps d'élévation: 02:31</p><p>Temps de descente: 02:05</p><hr align="center" width="480" style="height: 2px; width: 517px"/>]]></desc>
    <trkseg>
      <trkpt lat="48.38472" lon="2.37842">
        <ele>56.98</ele>
        <time>2017-07-02T06:37:12Z</time>
      </trkpt>
      <trkpt lat="48.38466" lon="2.37849">
        <ele>57.09</ele>
        <time>2017-07-02T06:40:41Z</time>
      </trkpt>
      <trkpt lat="48.38455" lon="2.37854">
        <ele>57.9</ele>
        <time>2017-07-02T06:40:45Z</time>
      </trkpt>
      <trkpt lat="48.38449" lon="2.37857">
        <ele>58.65</ele>
        <time>2017-07-02T06:40:47Z</time>
      </trkpt>
      <trkpt lat="48.38443" lon="2.37858">
        <ele>59.16</ele>
        <time>2017-07-02T06:40:49Z</time>
      </trkpt>
      <trkpt lat="48.38433" lon="2.37858">
        <ele>57.55</ele>
        <time>2017-07-02T06:40:53Z</time>
      </trkpt>
      <trkpt lat="48.38428" lon="2.37859">
        <ele>56.74</ele>
        <time>2017-07-02T06:40:55Z</time>
      </trkpt>
      <trkpt lat="48.38421" lon="2.37859">
        <ele>55.68</ele>
        <time>2017-07-02T06:40:57Z</time>
      </trkpt>
      <trkpt lat="48.38412" lon="2.3786">
        <ele>54.8</ele>
        <time>2017-07-02T06:41:01Z</time>
      </trkpt>
      <trkpt lat="48.38407" lon="2.37859">
        <ele>54.56</ele>
        <time>2017-07-02T06:41:03Z</time>
      </trkpt>
      <trkpt lat="48.38401" lon="2.37858">
        <ele>54.3</ele>
        <time>2017-07-02T06:41:05Z</time>
      </trkpt>
      <trkpt lat="48.38396" lon="2.37857">
        <ele>54.12</ele>
        <time>2017-07-02T06:41:07Z</time>
      </trkpt>
      <trkpt lat="48.3839" lon="2.37858">
        <ele>53.94</ele>
        <time>2017-07-02T06:41:09Z</time>
      </trkpt>
      <trkpt lat="48.38383" lon="2.37857">
        <ele>54.58</ele>
        <time>2017-07-02T06:41:11Z</time>
      </trkpt>
      <trkpt lat="48.38378" lon="2.37855">
        <ele>55.17</ele>
        <time>2017-07-02T06:41:13Z</time>
      </trkpt>
      <trkpt lat="48.38372" lon="2.37852">
        <ele>55.69</ele>
        <time>2017-07-02T06:41:15Z</time>
      </trkpt>
      <trkpt lat="48.38366" lon="2.37852">
        <ele>56.34</ele>
        <time>2017-07-02T06:41:17Z</time>
      </trkpt>
      <trkpt lat="48.38362" lon="2.37851">
        <ele>56.83</ele>
        <time>2017-07-02T06:41:19Z</time>
      </trkpt>
      <trkpt lat="48.38356" lon="2.37851">
        <ele>57.07</ele>
        <time>2017-07-02T06:41:21Z</time>
      </trkpt>
      <trkpt lat="48.38349" lon="2.37851">
        <ele>57.23</ele>
        <time>2017-07-02T06:41:23Z</time>
      </trkpt>
      <trkpt lat="48.38342" lon="2.37849">
        <ele>57.32</ele>
        <time>2017-07-02T06:41:25Z</time>
      </trkpt>
      <trkpt lat="48.38333" lon="2.37847">
        <ele>57.48</ele>
        <time>2017-07-02T06:41:27Z</time>
      </trkpt>
      <trkpt lat="48.38327" lon="2.37848">
        <ele>57.4</ele>
        <time>2017-07-02T06:41:29Z</time>
      </trkpt>
      <trkpt lat="48.38318" lon="2.37846">
        <ele>57.21</ele>
        <time>2017-07-02T06:41:31Z</time>
      </trkpt>
      <trkpt lat="48.38311" lon="2.37841">
        <ele>57.05</ele>
        <time>2017-07-02T06:41:33Z</time>
      </trkpt>
      <trkpt lat="48.38304" lon="2.37834">
        <ele>56.9</ele>
        <time>2017-07-02T06:41:35Z</time>
      </trkpt>
      <trkpt lat="48.38303" lon="2.37818">
        <ele>57.35</ele>
        <time>2017-07-02T06:41:37Z</time>
      </trkpt>
      <trkpt lat="48.383" lon="2.37811">
        <ele>57.27</ele>
        <time>2017-07-02T06:41:39Z</time>
      </trkpt>
      <trkpt lat="48.38294" lon="2.37806">
        <ele>56.75</ele>
        <time>2017-07-02T06:41:43Z</time>
      </trkpt>
      <trkpt lat="48.38288" lon="2.37806">
        <ele>56.13</ele>
        <time>2017-07-02T06:41:49Z</time>
      </trkpt>
      <trkpt lat="48.3829" lon="2.37815">
        <ele>56.15</ele>
        <time>2017-07-02T06:42:01Z</time>
      </trkpt>
      <trkpt lat="48.38294" lon="2.37812">
        <ele>56.67</ele>
        <time>2017-07-02T06:44:17Z</time>
      </trkpt>
      <trkpt lat="48.38294" lon="2.3782">
        <ele>56.49</ele>
        <time>2017-07-02T06:44:47Z</time>
      </trkpt>
      <trkpt lat="48.38292" lon="2.37813">
        <ele>56.42</ele>
        <time>2017-07-02T06:45:05Z</time>
      </trkpt>
      <trkpt lat="48.3829" lon="2.37807">
        <ele>56.25</ele>
        <time>2017-07-02T06:46:37Z</time>
      </trkpt>
      <trkpt lat="48.38287" lon="2.37813">
        <ele>55.93</ele>
        <time>2017-07-02T06:47:07Z</time>
      </trkpt>
      <trkpt lat="48.38292" lon="2.37815">
        <ele>56.36</ele>
        <time>2017-07-02T06:47:41Z</time>
      </trkpt>
      <trkpt lat="48.38286" lon="2.37818">
        <ele>55.78</ele>
        <time>2017-07-02T06:48:03Z</time>
      </trkpt>
      <trkpt lat="48.38282" lon="2.37822">
        <ele>55.38</ele>
        <time>2017-07-02T06:48:07Z</time>
      </trkpt>
      <trkpt lat="48.38281" lon="2.3783">
        <ele>55.22</ele>
        <time>2017-07-02T06:48:09Z</time>
      </trkpt>
      <trkpt lat="48.38279" lon="2.37838">
        <ele>55.26</ele>
        <time>2017-07-02T06:48:11Z</time>
      </trkpt>
      <trkpt lat="48.38276" lon="2.37847">
        <ele>55.56</ele>
        <time>2017-07-02T06:48:13Z</time>
      </trkpt>
      <trkpt lat="48.38269" lon="2.37849">
        <ele>56.01</ele>
        <time>2017-07-02T06:48:15Z</time>
      </trkpt>
      <trkpt lat="48.38263" lon="2.37849">
        <ele>56.31</ele>
        <time>2017-07-02T06:48:17Z</time>
      </trkpt>
      <trkpt lat="48.38256" lon="2.37847">
        <ele>56.67</ele>
        <time>2017-07-02T06:48:19Z</time>
      </trkpt>
      <trkpt lat="48.38248" lon="2.37846">
        <ele>57.09</ele>
        <time>2017-07-02T06:48:21Z</time>
      </trkpt>
      <trkpt lat="48.38241" lon="2.37847">
        <ele>57.47</ele>
        <time>2017-07-02T06:48:23Z</time>
      </trkpt>
      <trkpt lat="48.38234" lon="2.37847">
        <ele>57.87</ele>
        <time>2017-07-02T06:48:25Z</time>
      </trkpt>
      <trkpt lat="48.38227" lon="2.37846">
        <ele>58.21</ele>
        <time>2017-07-02T06:48:27Z</time>
      </trkpt>
      <trkpt lat="48.3822" lon="2.37844">
        <ele>58.13</ele>
        <time>2017-07-02T06:48:29Z</time>
      </trkpt>
      <trkpt lat="48.38213" lon="2.37842">
        <ele>57.38</ele>
        <time>2017-07-02T06:48:31Z</time>
      </trkpt>
      <trkpt lat="48.38205" lon="2.37839">
        <ele>56.52</ele>
        <time>2017-07-02T06:48:33Z</time>
      </trkpt>
      <trkpt lat="48.38197" lon="2.37837">
        <ele>55.52</ele>
        <time>2017-07-02T06:48:35Z</time>
      </trkpt>
      <trkpt lat="48.38188" lon="2.37834">
        <ele>55.72</ele>
        <time>2017-07-02T06:48:37Z</time>
      </trkpt>
      <trkpt lat="48.3818" lon="2.3783">
        <ele>56.51</ele>
        <time>2017-07-02T06:48:39Z</time>
      </trkpt>
      <trkpt lat="48.38174" lon="2.37825">
        <ele>57.1</ele>
        <time>2017-07-02T06:48:41Z</time>
      </trkpt>
      <trkpt lat="48.38166" lon="2.37821">
        <ele>57.61</ele>
        <time>2017-07-02T06:48:43Z</time>
      </trkpt>
      <trkpt lat="48.3816" lon="2.37816">
        <ele>58.54</ele>
        <time>2017-07-02T06:48:45Z</time>
      </trkpt>
      <trkpt lat="48.38153" lon="2.3781">
        <ele>59.55</ele>
        <time>2017-07-02T06:48:47Z</time>
      </trkpt>
      <trkpt lat="48.38147" lon="2.37806">
        <ele>60.6</ele>
        <time>2017-07-02T06:48:49Z</time>
      </trkpt>
      <trkpt lat="48.38141" lon="2.37801">
        <ele>61.7</ele>
        <time>2017-07-02T06:48:51Z</time>
      </trkpt>
      <trkpt lat="48.38135" lon="2.37797">
        <ele>61.27</ele>
        <time>2017-07-02T06:48:53Z</time>
      </trkpt>
      <trkpt lat="48.38129" lon="2.37793">
        <ele>60.22</ele>
        <time>2017-07-02T06:48:55Z</time>
      </trkpt>
      <trkpt lat="48.38124" lon="2.3779">
        <ele>59.29</ele>
        <time>2017-07-02T06:48:57Z</time>
      </trkpt>
      <trkpt lat="48.38118" lon="2.37787">
        <ele>58.31</ele>
        <time>2017-07-02T06:48:59Z</time>
      </trkpt>
      <trkpt lat="48.38113" lon="2.37784">
        <ele>57.34</ele>
        <time>2017-07-02T06:49:01Z</time>
      </trkpt>
      <trkpt lat="48.38107" lon="2.37782">
        <ele>58.07</ele>
        <time>2017-07-02T06:49:03Z</time>
      </trkpt>
      <trkpt lat="48.38101" lon="2.3778">
        <ele>59.73</ele>
        <time>2017-07-02T06:49:05Z</time>
      </trkpt>
      <trkpt lat="48.38096" lon="2.37777">
        <ele>61.36</ele>
        <time>2017-07-02T06:49:07Z</time>
      </trkpt>
      <trkpt lat="48.3809" lon="2.37774">
        <ele>62.5</ele>
        <time>2017-07-02T06:49:09Z</time>
      </trkpt>
      <trkpt lat="48.38084" lon="2.37772">
        <ele>63.14</ele>
        <time>2017-07-02T06:49:11Z</time>
      </trkpt>
      <trkpt lat="48.38078" lon="2.37769">
        <ele>63.14</ele>
        <time>2017-07-02T06:49:13Z</time>
      </trkpt>
      <trkpt lat="48.38072" lon="2.37767">
        <ele>63.49</ele>
        <time>2017-07-02T06:49:15Z</time>
      </trkpt>
      <trkpt lat="48.38065" lon="2.37765">
        <ele>64.12</ele>
        <time>2017-07-02T06:49:17Z</time>
      </trkpt>
      <trkpt lat="48.38058" lon="2.37763">
        <ele>65.03</ele>
        <time>2017-07-02T06:49:19Z</time>
      </trkpt>
      <trkpt lat="48.38051" lon="2.37761">
        <ele>65.03</ele>
        <time>2017-07-02T06:49:21Z</time>
      </trkpt>
      <trkpt lat="48.38044" lon="2.37759">
        <ele>64.36</ele>
        <time>2017-07-02T06:49:23Z</time>
      </trkpt>
      <trkpt lat="48.38037" lon="2.37757">
        <ele>63.74</ele>
        <time>2017-07-02T06:49:25Z</time>
      </trkpt>
      <trkpt lat="48.3803" lon="2.37754">
        <ele>63.14</ele>
        <time>2017-07-02T06:49:27Z</time>
      </trkpt>
      <trkpt lat="48.38022" lon="2.37753">
        <ele>63.36</ele>
        <time>2017-07-02T06:49:29Z</time>
      </trkpt>
      <trkpt lat="48.38014" lon="2.37752">
        <ele>63.9</ele>
        <time>2017-07-02T06:49:31Z</time>
      </trkpt>
      <trkpt lat="48.38007" lon="2.37751">
        <ele>64.47</ele>
        <time>2017-07-02T06:49:33Z</time>
      </trkpt>
      <trkpt lat="48.38" lon="2.3775">
        <ele>64.97</ele>
        <time>2017-07-02T06:49:35Z</time>
      </trkpt>
      <trkpt lat="48.37994" lon="2.3775">
        <ele>65.23</ele>
        <time>2017-07-02T06:49:37Z</time>
      </trkpt>
      <trkpt lat="48.37987" lon="2.3775">
        <ele>65.46</ele>
        <time>2017-07-02T06:49:39Z</time>
      </trkpt>
      <trkpt lat="48.37981" lon="2.37751">
        <ele>65.55</ele>
        <time>2017-07-02T06:49:41Z</time>
      </trkpt>
      <trkpt lat="48.37974" lon="2.37752">
        <ele>65.67</ele>
        <time>2017-07-02T06:49:43Z</time>
      </trkpt>
      <trkpt lat="48.37968" lon="2.37756">
        <ele>65.14</ele>
        <time>2017-07-02T06:49:45Z</time>
      </trkpt>
      <trkpt lat="48.37961" lon="2.37759">
        <ele>64.63</ele>
        <time>2017-07-02T06:49:47Z</time>
      </trkpt>
      <trkpt lat="48.37954" lon="2.37762">
        <ele>64.05</ele>
        <time>2017-07-02T06:49:49Z</time>
      </trkpt>
      <trkpt lat="48.37948" lon="2.37763">
        <ele>63.66</ele>
        <time>2017-07-02T06:49:51Z</time>
      </trkpt>
      <trkpt lat="48.37917" lon="2.37771">
        <ele>63.23</ele>
        <time>2017-07-02T06:49:55Z</time>
      </trkpt>
      <trkpt lat="48.37912" lon="2.37772">
        <ele>64.38</ele>
        <time>2017-07-02T06:49:56Z</time>
      </trkpt>
      <trkpt lat="48.37893" lon="2.37779">
        <ele>69.27</ele>
        <time>2017-07-02T06:49:59Z</time>
      </trkpt>
      <trkpt lat="48.37882" lon="2.3778">
        <ele>70.87</ele>
        <time>2017-07-02T06:50:01Z</time>
      </trkpt>
      <trkpt lat="48.37872" lon="2.37782">
        <ele>71.69</ele>
        <time>2017-07-02T06:50:03Z</time>
      </trkpt>
      <trkpt lat="48.37863" lon="2.37783">
        <ele>72.92</ele>
        <time>2017-07-02T06:50:05Z</time>
      </trkpt>
      <trkpt lat="48.37852" lon="2.37783">
        <ele>73.21</ele>
        <time>2017-07-02T06:50:07Z</time>
      </trkpt>
      <trkpt lat="48.37843" lon="2.37783">
        <ele>73</ele>
        <time>2017-07-02T06:50:09Z</time>
      </trkpt>
      <trkpt lat="48.37829" lon="2.37788">
        <ele>72.44</ele>
        <time>2017-07-02T06:50:11Z</time>
      </trkpt>
      <trkpt lat="48.37817" lon="2.37787">
        <ele>73.33</ele>
        <time>2017-07-02T06:50:13Z</time>
      </trkpt>
      <trkpt lat="48.37808" lon="2.37789">
        <ele>73.59</ele>
        <time>2017-07-02T06:50:15Z</time>
      </trkpt>
      <trkpt lat="48.37796" lon="2.37794">
        <ele>73.19</ele>
        <time>2017-07-02T06:50:17Z</time>
      </trkpt>
      <trkpt lat="48.37787" lon="2.37796">
        <ele>73.01</ele>
        <time>2017-07-02T06:50:19Z</time>
      </trkpt>
      <trkpt lat="48.37777" lon="2.37798">
        <ele>72.93</ele>
        <time>2017-07-02T06:50:21Z</time>
      </trkpt>
      <trkpt lat="48.37771" lon="2.37795">
        <ele>72.38</ele>
        <time>2017-07-02T06:50:23Z</time>
      </trkpt>
      <trkpt lat="48.37763" lon="2.37795">
        <ele>71.7</ele>
        <time>2017-07-02T06:50:25Z</time>
      </trkpt>
      <trkpt lat="48.37755" lon="2.37797">
        <ele>70.74</ele>
        <time>2017-07-02T06:50:27Z</time>
      </trkpt>
      <trkpt lat="48.37744" lon="2.37798">
        <ele>69.48</ele>
        <time>2017-07-02T06:50:29Z</time>
      </trkpt>
      <trkpt lat="48.37735" lon="2.37799">
        <ele>68.16</ele>
        <time>2017-07-02T06:50:31Z</time>
      </trkpt>
      <trkpt lat="48.37725" lon="2.37801">
        <ele>66.6</ele>
        <time>2017-07-02T06:50:33Z</time>
      </trkpt>
      <trkpt lat="48.37716" lon="2.37805">
        <ele>65.61</ele>
        <time>2017-07-02T06:50:35Z</time>
      </trkpt>
      <trkpt lat="48.37708" lon="2.37808">
        <ele>65.41</ele>
        <time>2017-07-02T06:50:37Z</time>
      </trkpt>
      <trkpt lat="48.37701" lon="2.37808">
        <ele>65.75</ele>
        <time>2017-07-02T06:50:39Z</time>
      </trkpt>
      <trkpt lat="48.37694" lon="2.37808">
        <ele>66.01</ele>
        <time>2017-07-02T06:50:41Z</time>
      </trkpt>
      <trkpt lat="48.37686" lon="2.37807">
        <ele>66.84</ele>
        <time>2017-07-02T06:50:43Z</time>
      </trkpt>
      <trkpt lat="48.37677" lon="2.37809">
        <ele>66.4</ele>
        <time>2017-07-02T06:50:45Z</time>
      </trkpt>
      <trkpt lat="48.37667" lon="2.37814">
        <ele>64.76</ele>
        <time>2017-07-02T06:50:47Z</time>
      </trkpt>
      <trkpt lat="48.37655" lon="2.37816">
        <ele>65.08</ele>
        <time>2017-07-02T06:50:49Z</time>
      </trkpt>
      <trkpt lat="48.37646" lon="2.37825">
        <ele>64.3</ele>
        <time>2017-07-02T06:50:51Z</time>
      </trkpt>
      <trkpt lat="48.3764" lon="2.37822">
        <ele>66.04</ele>
        <time>2017-07-02T06:50:53Z</time>
      </trkpt>
      <trkpt lat="48.37631" lon="2.37822">
        <ele>64.83</ele>
        <time>2017-07-02T06:50:55Z</time>
      </trkpt>
      <trkpt lat="48.37623" lon="2.37819">
        <ele>64.58</ele>
        <time>2017-07-02T06:50:57Z</time>
      </trkpt>
      <trkpt lat="48.37617" lon="2.37818">
        <ele>64.17</ele>
        <time>2017-07-02T06:50:59Z</time>
      </trkpt>
      <trkpt lat="48.37611" lon="2.3782">
        <ele>62.62</ele>
        <time>2017-07-02T06:51:01Z</time>
      </trkpt>
      <trkpt lat="48.37604" lon="2.37824">
        <ele>62.97</ele>
        <time>2017-07-02T06:51:03Z</time>
      </trkpt>
      <trkpt lat="48.37596" lon="2.37828">
        <ele>63.61</ele>
        <time>2017-07-02T06:51:05Z</time>
      </trkpt>
      <trkpt lat="48.37588" lon="2.37831">
        <ele>65.04</ele>
        <time>2017-07-02T06:51:07Z</time>
      </trkpt>
      <trkpt lat="48.37579" lon="2.37834">
        <ele>65.88</ele>
        <time>2017-07-02T06:51:09Z</time>
      </trkpt>
      <trkpt lat="48.37569" lon="2.37835">
        <ele>66.28</ele>
        <time>2017-07-02T06:51:11Z</time>
      </trkpt>
      <trkpt lat="48.37559" lon="2.37834">
        <ele>66.88</ele>
        <time>2017-07-02T06:51:13Z</time>
      </trkpt>
      <trkpt lat="48.37551" lon="2.37834">
        <ele>67.88</ele>
        <time>2017-07-02T06:51:15Z</time>
      </trkpt>
      <trkpt lat="48.37544" lon="2.37835">
        <ele>69.06</ele>
        <time>2017-07-02T06:51:17Z</time>
      </trkpt>
      <trkpt lat="48.37538" lon="2.37833">
        <ele>70.24</ele>
        <time>2017-07-02T06:51:19Z</time>
      </trkpt>
      <trkpt lat="48.37533" lon="2.37834">
        <ele>71</ele>
        <time>2017-07-02T06:51:21Z</time>
      </trkpt>
      <trkpt lat="48.37531" lon="2.37841">
        <ele>70.47</ele>
        <time>2017-07-02T06:51:23Z</time>
      </trkpt>
      <trkpt lat="48.37533" lon="2.37851">
        <ele>69.1</ele>
        <time>2017-07-02T06:51:25Z</time>
      </trkpt>
      <trkpt lat="48.37533" lon="2.37868">
        <ele>67.96</ele>
        <time>2017-07-02T06:51:27Z</time>
      </trkpt>
      <trkpt lat="48.37534" lon="2.37879">
        <ele>67.85</ele>
        <time>2017-07-02T06:51:29Z</time>
      </trkpt>
      <trkpt lat="48.37535" lon="2.37891">
        <ele>67.72</ele>
        <time>2017-07-02T06:51:31Z</time>
      </trkpt>
      <trkpt lat="48.37533" lon="2.37903">
        <ele>67.7</ele>
        <time>2017-07-02T06:51:33Z</time>
      </trkpt>
      <trkpt lat="48.37532" lon="2.37911">
        <ele>67.74</ele>
        <time>2017-07-02T06:51:35Z</time>
      </trkpt>
      <trkpt lat="48.37529" lon="2.37916">
        <ele>67.91</ele>
        <time>2017-07-02T06:51:37Z</time>
      </trkpt>
      <trkpt lat="48.37524" lon="2.37919">
        <ele>67.92</ele>
        <time>2017-07-02T06:51:43Z</time>
      </trkpt>
      <trkpt lat="48.3752" lon="2.37924">
        <ele>67.82</ele>
        <time>2017-07-02T06:52:15Z</time>
      </trkpt>
      <trkpt lat="48.3752" lon="2.37931">
        <ele>67.62</ele>
        <time>2017-07-02T06:52:23Z</time>
      </trkpt>
      <trkpt lat="48.37518" lon="2.37945">
        <ele>67.39</ele>
        <time>2017-07-02T06:52:27Z</time>
      </trkpt>
      <trkpt lat="48.37512" lon="2.37955">
        <ele>68.68</ele>
        <time>2017-07-02T06:52:31Z</time>
      </trkpt>
      <trkpt lat="48.37508" lon="2.37966">
        <ele>70.03</ele>
        <time>2017-07-02T06:52:33Z</time>
      </trkpt>
      <trkpt lat="48.37503" lon="2.3797">
        <ele>70.64</ele>
        <time>2017-07-02T06:52:35Z</time>
      </trkpt>
      <trkpt lat="48.37499" lon="2.37976">
        <ele>70.78</ele>
        <time>2017-07-02T06:52:37Z</time>
      </trkpt>
      <trkpt lat="48.37489" lon="2.3798">
        <ele>71.86</ele>
        <time>2017-07-02T06:52:39Z</time>
      </trkpt>
      <trkpt lat="48.37485" lon="2.37985">
        <ele>72.57</ele>
        <time>2017-07-02T06:52:41Z</time>
      </trkpt>
      <trkpt lat="48.37482" lon="2.37993">
        <ele>73.17</ele>
        <time>2017-07-02T06:52:43Z</time>
      </trkpt>
      <trkpt lat="48.37468" lon="2.37998">
        <ele>76.15</ele>
        <time>2017-07-02T06:52:45Z</time>
      </trkpt>
      <trkpt lat="48.37459" lon="2.37997">
        <ele>76.77</ele>
        <time>2017-07-02T06:52:47Z</time>
      </trkpt>
      <trkpt lat="48.3745" lon="2.38002">
        <ele>77.55</ele>
        <time>2017-07-02T06:52:49Z</time>
      </trkpt>
      <trkpt lat="48.37444" lon="2.38004">
        <ele>77.89</ele>
        <time>2017-07-02T06:52:51Z</time>
      </trkpt>
      <trkpt lat="48.3744" lon="2.38011">
        <ele>77.82</ele>
        <time>2017-07-02T06:52:53Z</time>
      </trkpt>
      <trkpt lat="48.37432" lon="2.3802">
        <ele>77.51</ele>
        <time>2017-07-02T06:52:55Z</time>
      </trkpt>
      <trkpt lat="48.37427" lon="2.38028">
        <ele>76.98</ele>
        <time>2017-07-02T06:52:57Z</time>
      </trkpt>
      <trkpt lat="48.37425" lon="2.38034">
        <ele>76.3</ele>
        <time>2017-07-02T06:52:59Z</time>
      </trkpt>
      <trkpt lat="48.37425" lon="2.38041">
        <ele>75.56</ele>
        <time>2017-07-02T06:53:01Z</time>
      </trkpt>
      <trkpt lat="48.37416" lon="2.38049">
        <ele>74.56</ele>
        <time>2017-07-02T06:53:03Z</time>
      </trkpt>
      <trkpt lat="48.37409" lon="2.38055">
        <ele>72.99</ele>
        <time>2017-07-02T06:53:05Z</time>
      </trkpt>
      <trkpt lat="48.37403" lon="2.38063">
        <ele>71.42</ele>
        <time>2017-07-02T06:53:07Z</time>
      </trkpt>
      <trkpt lat="48.37397" lon="2.38071">
        <ele>69.66</ele>
        <time>2017-07-02T06:53:09Z</time>
      </trkpt>
      <trkpt lat="48.37391" lon="2.38079">
        <ele>67.83</ele>
        <time>2017-07-02T06:53:11Z</time>
      </trkpt>
      <trkpt lat="48.37385" lon="2.38089">
        <ele>66.85</ele>
        <time>2017-07-02T06:53:13Z</time>
      </trkpt>
      <trkpt lat="48.37382" lon="2.381">
        <ele>66.33</ele>
        <time>2017-07-02T06:53:15Z</time>
      </trkpt>
      <trkpt lat="48.37375" lon="2.38112">
        <ele>63.86</ele>
        <time>2017-07-02T06:53:17Z</time>
      </trkpt>
      <trkpt lat="48.3737" lon="2.3812">
        <ele>63.19</ele>
        <time>2017-07-02T06:53:19Z</time>
      </trkpt>
      <trkpt lat="48.37364" lon="2.38129">
        <ele>63.65</ele>
        <time>2017-07-02T06:53:21Z</time>
      </trkpt>
      <trkpt lat="48.37358" lon="2.38142">
        <ele>65.93</ele>
        <time>2017-07-02T06:53:23Z</time>
      </trkpt>
      <trkpt lat="48.37354" lon="2.38152">
        <ele>66.5</ele>
        <time>2017-07-02T06:53:25Z</time>
      </trkpt>
      <trkpt lat="48.37346" lon="2.3816">
        <ele>66.39</ele>
        <time>2017-07-02T06:53:27Z</time>
      </trkpt>
      <trkpt lat="48.37339" lon="2.3817">
        <ele>66.27</ele>
        <time>2017-07-02T06:53:29Z</time>
      </trkpt>
      <trkpt lat="48.37332" lon="2.38176">
        <ele>65.68</ele>
        <time>2017-07-02T06:53:31Z</time>
      </trkpt>
      <trkpt lat="48.37323" lon="2.38191">
        <ele>66.78</ele>
        <time>2017-07-02T06:53:33Z</time>
      </trkpt>
      <trkpt lat="48.37319" lon="2.38202">
        <ele>67.02</ele>
        <time>2017-07-02T06:53:35Z</time>
      </trkpt>
      <trkpt lat="48.37315" lon="2.38213">
        <ele>67.39</ele>
        <time>2017-07-02T06:53:37Z</time>
      </trkpt>
      <trkpt lat="48.37312" lon="2.38223">
        <ele>68.05</ele>
        <time>2017-07-02T06:53:39Z</time>
      </trkpt>
      <trkpt lat="48.37304" lon="2.38235">
        <ele>67.27</ele>
        <time>2017-07-02T06:53:41Z</time>
      </trkpt>
      <trkpt lat="48.37299" lon="2.38246">
        <ele>64.91</ele>
        <time>2017-07-02T06:53:43Z</time>
      </trkpt>
      <trkpt lat="48.37294" lon="2.38257">
        <ele>62.45</ele>
        <time>2017-07-02T06:53:45Z</time>
      </trkpt>
      <trkpt lat="48.37289" lon="2.38266">
        <ele>60.57</ele>
        <time>2017-07-02T06:53:47Z</time>
      </trkpt>
      <trkpt lat="48.37282" lon="2.38269">
        <ele>58.32</ele>
        <time>2017-07-02T06:53:49Z</time>
      </trkpt>
      <trkpt lat="48.37275" lon="2.38272">
        <ele>58</ele>
        <time>2017-07-02T06:53:51Z</time>
      </trkpt>
      <trkpt lat="48.3727" lon="2.38272">
        <ele>59.58</ele>
        <time>2017-07-02T06:53:53Z</time>
      </trkpt>
      <trkpt lat="48.37259" lon="2.38271">
        <ele>62.92</ele>
        <time>2017-07-02T06:53:55Z</time>
      </trkpt>
      <trkpt lat="48.37254" lon="2.38271">
        <ele>64.59</ele>
        <time>2017-07-02T06:53:57Z</time>
      </trkpt>
      <trkpt lat="48.37238" lon="2.38269">
        <ele>65.97</ele>
        <time>2017-07-02T06:53:59Z</time>
      </trkpt>
      <trkpt lat="48.37231" lon="2.38266">
        <ele>66.15</ele>
        <time>2017-07-02T06:54:01Z</time>
      </trkpt>
      <trkpt lat="48.37225" lon="2.38263">
        <ele>66.44</ele>
        <time>2017-07-02T06:54:03Z</time>
      </trkpt>
      <trkpt lat="48.37218" lon="2.3826">
        <ele>67.1</ele>
        <time>2017-07-02T06:54:05Z</time>
      </trkpt>
      <trkpt lat="48.37207" lon="2.38256">
        <ele>68.77</ele>
        <time>2017-07-02T06:54:07Z</time>
      </trkpt>
      <trkpt lat="48.37191" lon="2.38251">
        <ele>71.19</ele>
        <time>2017-07-02T06:54:11Z</time>
      </trkpt>
      <trkpt lat="48.37182" lon="2.38246">
        <ele>72.28</ele>
        <time>2017-07-02T06:54:13Z</time>
      </trkpt>
      <trkpt lat="48.37171" lon="2.38239">
        <ele>73.17</ele>
        <time>2017-07-02T06:54:15Z</time>
      </trkpt>
      <trkpt lat="48.37163" lon="2.38233">
        <ele>72.83</ele>
        <time>2017-07-02T06:54:17Z</time>
      </trkpt>
      <trkpt lat="48.37154" lon="2.38228">
        <ele>71.21</ele>
        <time>2017-07-02T06:54:19Z</time>
      </trkpt>
      <trkpt lat="48.37146" lon="2.38225">
        <ele>69.54</ele>
        <time>2017-07-02T06:54:21Z</time>
      </trkpt>
      <trkpt lat="48.37136" lon="2.38222">
        <ele>67.75</ele>
        <time>2017-07-02T06:54:23Z</time>
      </trkpt>
      <trkpt lat="48.37127" lon="2.38222">
        <ele>66.78</ele>
        <time>2017-07-02T06:54:25Z</time>
      </trkpt>
      <trkpt lat="48.37117" lon="2.38228">
        <ele>65.96</ele>
        <time>2017-07-02T06:54:27Z</time>
      </trkpt>
      <trkpt lat="48.37111" lon="2.38235">
        <ele>65.43</ele>
        <time>2017-07-02T06:54:29Z</time>
      </trkpt>
      <trkpt lat="48.37102" lon="2.38242">
        <ele>65.28</ele>
        <time>2017-07-02T06:54:31Z</time>
      </trkpt>
      <trkpt lat="48.37098" lon="2.38254">
        <ele>65.78</ele>
        <time>2017-07-02T06:54:33Z</time>
      </trkpt>
      <trkpt lat="48.37093" lon="2.38257">
        <ele>65.82</ele>
        <time>2017-07-02T06:54:47Z</time>
      </trkpt>
      <trkpt lat="48.37086" lon="2.38257">
        <ele>65.55</ele>
        <time>2017-07-02T06:54:49Z</time>
      </trkpt>
      <trkpt lat="48.37078" lon="2.38256">
        <ele>63.71</ele>
        <time>2017-07-02T06:54:51Z</time>
      </trkpt>
      <trkpt lat="48.37071" lon="2.38253">
        <ele>61.51</ele>
        <time>2017-07-02T06:54:53Z</time>
      </trkpt>
      <trkpt lat="48.37063" lon="2.38255">
        <ele>59.39</ele>
        <time>2017-07-02T06:54:55Z</time>
      </trkpt>
      <trkpt lat="48.37054" lon="2.38254">
        <ele>57.28</ele>
        <time>2017-07-02T06:54:57Z</time>
      </trkpt>
      <trkpt lat="48.37048" lon="2.38255">
        <ele>58.72</ele>
        <time>2017-07-02T06:54:59Z</time>
      </trkpt>
      <trkpt lat="48.37039" lon="2.38262">
        <ele>60.65</ele>
        <time>2017-07-02T06:55:01Z</time>
      </trkpt>
      <trkpt lat="48.37031" lon="2.38269">
        <ele>62.38</ele>
        <time>2017-07-02T06:55:03Z</time>
      </trkpt>
      <trkpt lat="48.37027" lon="2.38279">
        <ele>62.93</ele>
        <time>2017-07-02T06:55:05Z</time>
      </trkpt>
      <trkpt lat="48.37025" lon="2.38294">
        <ele>62.91</ele>
        <time>2017-07-02T06:55:07Z</time>
      </trkpt>
      <trkpt lat="48.3702" lon="2.38313">
        <ele>62.81</ele>
        <time>2017-07-02T06:55:09Z</time>
      </trkpt>
      <trkpt lat="48.37021" lon="2.3833">
        <ele>62.33</ele>
        <time>2017-07-02T06:55:11Z</time>
      </trkpt>
      <trkpt lat="48.37022" lon="2.38346">
        <ele>62.38</ele>
        <time>2017-07-02T06:55:13Z</time>
      </trkpt>
      <trkpt lat="48.37023" lon="2.38363">
        <ele>62.53</ele>
        <time>2017-07-02T06:55:15Z</time>
      </trkpt>
      <trkpt lat="48.37025" lon="2.38383">
        <ele>61.37</ele>
        <time>2017-07-02T06:55:17Z</time>
      </trkpt>
      <trkpt lat="48.37026" lon="2.38401">
        <ele>61.44</ele>
        <time>2017-07-02T06:55:19Z</time>
      </trkpt>
      <trkpt lat="48.37026" lon="2.38422">
        <ele>61.98</ele>
        <time>2017-07-02T06:55:21Z</time>
      </trkpt>
      <trkpt lat="48.37025" lon="2.38441">
        <ele>61.83</ele>
        <time>2017-07-02T06:55:23Z</time>
      </trkpt>
      <trkpt lat="48.37026" lon="2.3846">
        <ele>61.8</ele>
        <time>2017-07-02T06:55:25Z</time>
      </trkpt>
      <trkpt lat="48.37025" lon="2.38478">
        <ele>60.72</ele>
        <time>2017-07-02T06:55:27Z</time>
      </trkpt>
      <trkpt lat="48.37023" lon="2.38501">
        <ele>57.68</ele>
        <time>2017-07-02T06:55:29Z</time>
      </trkpt>
      <trkpt lat="48.37022" lon="2.38519">
        <ele>59.82</ele>
        <time>2017-07-02T06:55:31Z</time>
      </trkpt>
      <trkpt lat="48.37024" lon="2.38538">
        <ele>61.21</ele>
        <time>2017-07-02T06:55:33Z</time>
      </trkpt>
      <trkpt lat="48.37025" lon="2.38556">
        <ele>61.88</ele>
        <time>2017-07-02T06:55:35Z</time>
      </trkpt>
      <trkpt lat="48.37026" lon="2.38575">
        <ele>61.25</ele>
        <time>2017-07-02T06:55:37Z</time>
      </trkpt>
      <trkpt lat="48.37026" lon="2.38591">
        <ele>60.68</ele>
        <time>2017-07-02T06:55:39Z</time>
      </trkpt>
      <trkpt lat="48.37026" lon="2.38608">
        <ele>59.97</ele>
        <time>2017-07-02T06:55:41Z</time>
      </trkpt>
      <trkpt lat="48.37027" lon="2.38626">
        <ele>59.95</ele>
        <time>2017-07-02T06:55:43Z</time>
      </trkpt>
      <trkpt lat="48.37029" lon="2.38645">
        <ele>60.1</ele>
        <time>2017-07-02T06:55:45Z</time>
      </trkpt>
      <trkpt lat="48.37031" lon="2.38657">
        <ele>60.21</ele>
        <time>2017-07-02T06:55:47Z</time>
      </trkpt>
      <trkpt lat="48.3704" lon="2.38656">
        <ele>60.87</ele>
        <time>2017-07-02T06:55:49Z</time>
      </trkpt>
      <trkpt lat="48.37052" lon="2.38653">
        <ele>61.77</ele>
        <time>2017-07-02T06:55:51Z</time>
      </trkpt>
      <trkpt lat="48.37064" lon="2.38648">
        <ele>61.69</ele>
        <time>2017-07-02T06:55:53Z</time>
      </trkpt>
      <trkpt lat="48.37077" lon="2.38646">
        <ele>61.63</ele>
        <time>2017-07-02T06:55:55Z</time>
      </trkpt>
      <trkpt lat="48.37088" lon="2.38641">
        <ele>62.98</ele>
        <time>2017-07-02T06:55:57Z</time>
      </trkpt>
      <trkpt lat="48.37099" lon="2.38638">
        <ele>64.08</ele>
        <time>2017-07-02T06:55:59Z</time>
      </trkpt>
      <trkpt lat="48.3711" lon="2.38633">
        <ele>64.53</ele>
        <time>2017-07-02T06:56:01Z</time>
      </trkpt>
      <trkpt lat="48.3712" lon="2.38629">
        <ele>63.83</ele>
        <time>2017-07-02T06:56:03Z</time>
      </trkpt>
      <trkpt lat="48.37133" lon="2.38627">
        <ele>62.5</ele>
        <time>2017-07-02T06:56:05Z</time>
      </trkpt>
      <trkpt lat="48.37145" lon="2.38628">
        <ele>61.95</ele>
        <time>2017-07-02T06:56:07Z</time>
      </trkpt>
      <trkpt lat="48.37156" lon="2.38632">
        <ele>62.39</ele>
        <time>2017-07-02T06:56:09Z</time>
      </trkpt>
      <trkpt lat="48.37168" lon="2.38636">
        <ele>62.36</ele>
        <time>2017-07-02T06:56:11Z</time>
      </trkpt>
      <trkpt lat="48.37179" lon="2.38642">
        <ele>62.57</ele>
        <time>2017-07-02T06:56:13Z</time>
      </trkpt>
      <trkpt lat="48.37188" lon="2.38653">
        <ele>62.23</ele>
        <time>2017-07-02T06:56:15Z</time>
      </trkpt>
      <trkpt lat="48.37197" lon="2.38661">
        <ele>62</ele>
        <time>2017-07-02T06:56:17Z</time>
      </trkpt>
      <trkpt lat="48.37204" lon="2.3867">
        <ele>62.21</ele>
        <time>2017-07-02T06:56:19Z</time>
      </trkpt>
      <trkpt lat="48.37212" lon="2.38682">
        <ele>63.25</ele>
        <time>2017-07-02T06:56:21Z</time>
      </trkpt>
      <trkpt lat="48.37218" lon="2.38694">
        <ele>64.73</ele>
        <time>2017-07-02T06:56:23Z</time>
      </trkpt>
      <trkpt lat="48.37223" lon="2.38702">
        <ele>65.51</ele>
        <time>2017-07-02T06:56:25Z</time>
      </trkpt>
      <trkpt lat="48.37228" lon="2.38707">
        <ele>65.82</ele>
        <time>2017-07-02T06:56:29Z</time>
      </trkpt>
      <trkpt lat="48.37231" lon="2.38715">
        <ele>66.07</ele>
        <time>2017-07-02T06:56:33Z</time>
      </trkpt>
      <trkpt lat="48.37242" lon="2.38725">
        <ele>65.88</ele>
        <time>2017-07-02T06:56:37Z</time>
      </trkpt>
      <trkpt lat="48.37247" lon="2.38733">
        <ele>66.48</ele>
        <time>2017-07-02T06:56:39Z</time>
      </trkpt>
      <trkpt lat="48.37252" lon="2.38742">
        <ele>67.37</ele>
        <time>2017-07-02T06:56:41Z</time>
      </trkpt>
      <trkpt lat="48.37261" lon="2.3875">
        <ele>69.13</ele>
        <time>2017-07-02T06:56:43Z</time>
      </trkpt>
      <trkpt lat="48.37269" lon="2.38756">
        <ele>70.83</ele>
        <time>2017-07-02T06:56:45Z</time>
      </trkpt>
      <trkpt lat="48.37276" lon="2.38761">
        <ele>72.04</ele>
        <time>2017-07-02T06:56:47Z</time>
      </trkpt>
      <trkpt lat="48.37283" lon="2.38767">
        <ele>73.04</ele>
        <time>2017-07-02T06:56:49Z</time>
      </trkpt>
      <trkpt lat="48.37289" lon="2.38774">
        <ele>73.96</ele>
        <time>2017-07-02T06:56:51Z</time>
      </trkpt>
      <trkpt lat="48.37299" lon="2.38778">
        <ele>74.78</ele>
        <time>2017-07-02T06:56:53Z</time>
      </trkpt>
      <trkpt lat="48.37306" lon="2.38784">
        <ele>75.38</ele>
        <time>2017-07-02T06:56:55Z</time>
      </trkpt>
      <trkpt lat="48.37314" lon="2.3879">
        <ele>75.09</ele>
        <time>2017-07-02T06:56:57Z</time>
      </trkpt>
      <trkpt lat="48.37322" lon="2.38796">
        <ele>74.74</ele>
        <time>2017-07-02T06:56:59Z</time>
      </trkpt>
      <trkpt lat="48.37332" lon="2.388">
        <ele>73.99</ele>
        <time>2017-07-02T06:57:01Z</time>
      </trkpt>
      <trkpt lat="48.3734" lon="2.38803">
        <ele>73.22</ele>
        <time>2017-07-02T06:57:03Z</time>
      </trkpt>
      <trkpt lat="48.37348" lon="2.38808">
        <ele>72.35</ele>
        <time>2017-07-02T06:57:05Z</time>
      </trkpt>
      <trkpt lat="48.37357" lon="2.38813">
        <ele>71.31</ele>
        <time>2017-07-02T06:57:07Z</time>
      </trkpt>
      <trkpt lat="48.37366" lon="2.38817">
        <ele>70.69</ele>
        <time>2017-07-02T06:57:09Z</time>
      </trkpt>
      <trkpt lat="48.37375" lon="2.38825">
        <ele>70.37</ele>
        <time>2017-07-02T06:57:11Z</time>
      </trkpt>
      <trkpt lat="48.37383" lon="2.38828">
        <ele>70.05</ele>
        <time>2017-07-02T06:57:13Z</time>
      </trkpt>
      <trkpt lat="48.37392" lon="2.38834">
        <ele>68.68</ele>
        <time>2017-07-02T06:57:15Z</time>
      </trkpt>
      <trkpt lat="48.374" lon="2.38836">
        <ele>65.22</ele>
        <time>2017-07-02T06:57:17Z</time>
      </trkpt>
      <trkpt lat="48.37407" lon="2.38845">
        <ele>63.42</ele>
        <time>2017-07-02T06:57:19Z</time>
      </trkpt>
      <trkpt lat="48.37415" lon="2.38852">
        <ele>62.86</ele>
        <time>2017-07-02T06:57:21Z</time>
      </trkpt>
      <trkpt lat="48.37423" lon="2.38856">
        <ele>62.61</ele>
        <time>2017-07-02T06:57:23Z</time>
      </trkpt>
      <trkpt lat="48.37432" lon="2.38861">
        <ele>61.74</ele>
        <time>2017-07-02T06:57:25Z</time>
      </trkpt>
      <trkpt lat="48.3744" lon="2.38865">
        <ele>60.05</ele>
        <time>2017-07-02T06:57:27Z</time>
      </trkpt>
      <trkpt lat="48.3745" lon="2.3887">
        <ele>59.67</ele>
        <time>2017-07-02T06:57:29Z</time>
      </trkpt>
      <trkpt lat="48.37457" lon="2.38872">
        <ele>60.12</ele>
        <time>2017-07-02T06:57:31Z</time>
      </trkpt>
      <trkpt lat="48.37463" lon="2.38876">
        <ele>60.51</ele>
        <time>2017-07-02T06:57:33Z</time>
      </trkpt>
      <trkpt lat="48.37467" lon="2.38882">
        <ele>60.75</ele>
        <time>2017-07-02T06:57:35Z</time>
      </trkpt>
      <trkpt lat="48.37469" lon="2.38889">
        <ele>60.88</ele>
        <time>2017-07-02T06:57:37Z</time>
      </trkpt>
      <trkpt lat="48.37471" lon="2.38896">
        <ele>60.97</ele>
        <time>2017-07-02T06:57:39Z</time>
      </trkpt>
      <trkpt lat="48.37468" lon="2.38904">
        <ele>61.01</ele>
        <time>2017-07-02T06:57:41Z</time>
      </trkpt>
      <trkpt lat="48.37465" lon="2.38918">
        <ele>61.27</ele>
        <time>2017-07-02T06:57:43Z</time>
      </trkpt>
      <trkpt lat="48.37463" lon="2.38929">
        <ele>61.62</ele>
        <time>2017-07-02T06:57:45Z</time>
      </trkpt>
      <trkpt lat="48.37462" lon="2.38935">
        <ele>61.79</ele>
        <time>2017-07-02T06:57:47Z</time>
      </trkpt>
      <trkpt lat="48.37461" lon="2.38944">
        <ele>61.99</ele>
        <time>2017-07-02T06:57:49Z</time>
      </trkpt>
      <trkpt lat="48.37458" lon="2.38952">
        <ele>62.55</ele>
        <time>2017-07-02T06:57:51Z</time>
      </trkpt>
      <trkpt lat="48.37456" lon="2.38962">
        <ele>63.35</ele>
        <time>2017-07-02T06:57:53Z</time>
      </trkpt>
      <trkpt lat="48.37454" lon="2.3897">
        <ele>64.09</ele>
        <time>2017-07-02T06:57:55Z</time>
      </trkpt>
      <trkpt lat="48.37452" lon="2.38979">
        <ele>64.61</ele>
        <time>2017-07-02T06:57:57Z</time>
      </trkpt>
      <trkpt lat="48.37451" lon="2.38993">
        <ele>65.12</ele>
        <time>2017-07-02T06:58:01Z</time>
      </trkpt>
      <trkpt lat="48.3745" lon="2.39003">
        <ele>65.59</ele>
        <time>2017-07-02T06:58:03Z</time>
      </trkpt>
      <trkpt lat="48.37451" lon="2.39013">
        <ele>65.87</ele>
        <time>2017-07-02T06:58:05Z</time>
      </trkpt>
      <trkpt lat="48.37453" lon="2.39024">
        <ele>66.11</ele>
        <time>2017-07-02T06:58:07Z</time>
      </trkpt>
      <trkpt lat="48.37457" lon="2.39029">
        <ele>65.22</ele>
        <time>2017-07-02T06:58:09Z</time>
      </trkpt>
      <trkpt lat="48.37463" lon="2.39037">
        <ele>62.79</ele>
        <time>2017-07-02T06:58:11Z</time>
      </trkpt>
      <trkpt lat="48.3747" lon="2.39045">
        <ele>59.56</ele>
        <time>2017-07-02T06:58:13Z</time>
      </trkpt>
      <trkpt lat="48.37477" lon="2.39052">
        <ele>58.22</ele>
        <time>2017-07-02T06:58:15Z</time>
      </trkpt>
      <trkpt lat="48.37484" lon="2.39061">
        <ele>60.22</ele>
        <time>2017-07-02T06:58:17Z</time>
      </trkpt>
      <trkpt lat="48.3749" lon="2.39071">
        <ele>63.23</ele>
        <time>2017-07-02T06:58:19Z</time>
      </trkpt>
      <trkpt lat="48.37497" lon="2.3908">
        <ele>64.7</ele>
        <time>2017-07-02T06:58:21Z</time>
      </trkpt>
      <trkpt lat="48.37504" lon="2.39089">
        <ele>65.46</ele>
        <time>2017-07-02T06:58:23Z</time>
      </trkpt>
      <trkpt lat="48.37511" lon="2.391">
        <ele>66.13</ele>
        <time>2017-07-02T06:58:25Z</time>
      </trkpt>
      <trkpt lat="48.37516" lon="2.39112">
        <ele>67.29</ele>
        <time>2017-07-02T06:58:27Z</time>
      </trkpt>
      <trkpt lat="48.37523" lon="2.39125">
        <ele>68.14</ele>
        <time>2017-07-02T06:58:29Z</time>
      </trkpt>
      <trkpt lat="48.37526" lon="2.39138">
        <ele>69.15</ele>
        <time>2017-07-02T06:58:31Z</time>
      </trkpt>
      <trkpt lat="48.3753" lon="2.39153">
        <ele>70.26</ele>
        <time>2017-07-02T06:58:33Z</time>
      </trkpt>
      <trkpt lat="48.37535" lon="2.39163">
        <ele>70.6</ele>
        <time>2017-07-02T06:58:35Z</time>
      </trkpt>
      <trkpt lat="48.37541" lon="2.39173">
        <ele>70.49</ele>
        <time>2017-07-02T06:58:37Z</time>
      </trkpt>
      <trkpt lat="48.37548" lon="2.39182">
        <ele>70.43</ele>
        <time>2017-07-02T06:58:39Z</time>
      </trkpt>
      <trkpt lat="48.37555" lon="2.39192">
        <ele>70.75</ele>
        <time>2017-07-02T06:58:41Z</time>
      </trkpt>
      <trkpt lat="48.37565" lon="2.39197">
        <ele>70.45</ele>
        <time>2017-07-02T06:58:43Z</time>
      </trkpt>
      <trkpt lat="48.37573" lon="2.39204">
        <ele>70.31</ele>
        <time>2017-07-02T06:58:45Z</time>
      </trkpt>
      <trkpt lat="48.37581" lon="2.39211">
        <ele>70.3</ele>
        <time>2017-07-02T06:58:47Z</time>
      </trkpt>
      <trkpt lat="48.37588" lon="2.39223">
        <ele>70.61</ele>
        <time>2017-07-02T06:58:49Z</time>
      </trkpt>
      <trkpt lat="48.37596" lon="2.39231">
        <ele>70.02</ele>
        <time>2017-07-02T06:58:51Z</time>
      </trkpt>
      <trkpt lat="48.37604" lon="2.39243">
        <ele>70.24</ele>
        <time>2017-07-02T06:58:53Z</time>
      </trkpt>
      <trkpt lat="48.37608" lon="2.39259">
        <ele>70.8</ele>
        <time>2017-07-02T06:58:55Z</time>
      </trkpt>
      <trkpt lat="48.37615" lon="2.39273">
        <ele>70.5</ele>
        <time>2017-07-02T06:58:57Z</time>
      </trkpt>
      <trkpt lat="48.37618" lon="2.3929">
        <ele>70.43</ele>
        <time>2017-07-02T06:58:59Z</time>
      </trkpt>
      <trkpt lat="48.37622" lon="2.39306">
        <ele>70.62</ele>
        <time>2017-07-02T06:59:01Z</time>
      </trkpt>
      <trkpt lat="48.37625" lon="2.39323">
        <ele>71.78</ele>
        <time>2017-07-02T06:59:03Z</time>
      </trkpt>
      <trkpt lat="48.3763" lon="2.39336">
        <ele>72.49</ele>
        <time>2017-07-02T06:59:05Z</time>
      </trkpt>
      <trkpt lat="48.37635" lon="2.39348">
        <ele>73.24</ele>
        <time>2017-07-02T06:59:07Z</time>
      </trkpt>
      <trkpt lat="48.37641" lon="2.39359">
        <ele>73.49</ele>
        <time>2017-07-02T06:59:09Z</time>
      </trkpt>
      <trkpt lat="48.37646" lon="2.39374">
        <ele>73.86</ele>
        <time>2017-07-02T06:59:11Z</time>
      </trkpt>
      <trkpt lat="48.37652" lon="2.39383">
        <ele>73.99</ele>
        <time>2017-07-02T06:59:13Z</time>
      </trkpt>
      <trkpt lat="48.37656" lon="2.39393">
        <ele>74.39</ele>
        <time>2017-07-02T06:59:15Z</time>
      </trkpt>
      <trkpt lat="48.37662" lon="2.39404">
        <ele>74.54</ele>
        <time>2017-07-02T06:59:17Z</time>
      </trkpt>
      <trkpt lat="48.37667" lon="2.39414">
        <ele>74.7</ele>
        <time>2017-07-02T06:59:19Z</time>
      </trkpt>
      <trkpt lat="48.37671" lon="2.39426">
        <ele>74.61</ele>
        <time>2017-07-02T06:59:21Z</time>
      </trkpt>
      <trkpt lat="48.37676" lon="2.39437">
        <ele>74.25</ele>
        <time>2017-07-02T06:59:23Z</time>
      </trkpt>
      <trkpt lat="48.3768" lon="2.39447">
        <ele>74.26</ele>
        <time>2017-07-02T06:59:25Z</time>
      </trkpt>
      <trkpt lat="48.37685" lon="2.39457">
        <ele>74.22</ele>
        <time>2017-07-02T06:59:27Z</time>
      </trkpt>
      <trkpt lat="48.3769" lon="2.39463">
        <ele>74.02</ele>
        <time>2017-07-02T06:59:29Z</time>
      </trkpt>
      <trkpt lat="48.37695" lon="2.39472">
        <ele>73.96</ele>
        <time>2017-07-02T06:59:31Z</time>
      </trkpt>
      <trkpt lat="48.377" lon="2.3948">
        <ele>74.14</ele>
        <time>2017-07-02T06:59:33Z</time>
      </trkpt>
      <trkpt lat="48.37702" lon="2.39487">
        <ele>74.34</ele>
        <time>2017-07-02T06:59:35Z</time>
      </trkpt>
      <trkpt lat="48.37707" lon="2.39504">
        <ele>74.85</ele>
        <time>2017-07-02T06:59:37Z</time>
      </trkpt>
      <trkpt lat="48.37712" lon="2.39513">
        <ele>74.92</ele>
        <time>2017-07-02T06:59:39Z</time>
      </trkpt>
      <trkpt lat="48.37714" lon="2.39521">
        <ele>75.14</ele>
        <time>2017-07-02T06:59:41Z</time>
      </trkpt>
      <trkpt lat="48.37721" lon="2.39524">
        <ele>74.85</ele>
        <time>2017-07-02T06:59:43Z</time>
      </trkpt>
      <trkpt lat="48.37729" lon="2.39519">
        <ele>74.52</ele>
        <time>2017-07-02T06:59:45Z</time>
      </trkpt>
      <trkpt lat="48.3773" lon="2.39505">
        <ele>73.43</ele>
        <time>2017-07-02T06:59:47Z</time>
      </trkpt>
      <trkpt lat="48.37732" lon="2.39491">
        <ele>72.45</ele>
        <time>2017-07-02T06:59:49Z</time>
      </trkpt>
      <trkpt lat="48.37735" lon="2.39477">
        <ele>71.36</ele>
        <time>2017-07-02T06:59:51Z</time>
      </trkpt>
      <trkpt lat="48.37739" lon="2.39461">
        <ele>69.55</ele>
        <time>2017-07-02T06:59:53Z</time>
      </trkpt>
      <trkpt lat="48.37746" lon="2.39445">
        <ele>67.31</ele>
        <time>2017-07-02T06:59:55Z</time>
      </trkpt>
      <trkpt lat="48.37751" lon="2.3943">
        <ele>64.99</ele>
        <time>2017-07-02T06:59:57Z</time>
      </trkpt>
      <trkpt lat="48.37758" lon="2.39412">
        <ele>63.31</ele>
        <time>2017-07-02T06:59:59Z</time>
      </trkpt>
      <trkpt lat="48.37764" lon="2.39398">
        <ele>62.45</ele>
        <time>2017-07-02T07:00:01Z</time>
      </trkpt>
      <trkpt lat="48.37771" lon="2.39383">
        <ele>62.13</ele>
        <time>2017-07-02T07:00:03Z</time>
      </trkpt>
      <trkpt lat="48.37777" lon="2.39369">
        <ele>62.23</ele>
        <time>2017-07-02T07:00:05Z</time>
      </trkpt>
      <trkpt lat="48.37784" lon="2.39351">
        <ele>62.96</ele>
        <time>2017-07-02T07:00:07Z</time>
      </trkpt>
      <trkpt lat="48.37792" lon="2.39336">
        <ele>64.04</ele>
        <time>2017-07-02T07:00:09Z</time>
      </trkpt>
      <trkpt lat="48.37798" lon="2.39325">
        <ele>65.05</ele>
        <time>2017-07-02T07:00:11Z</time>
      </trkpt>
      <trkpt lat="48.37805" lon="2.39312">
        <ele>65.88</ele>
        <time>2017-07-02T07:00:13Z</time>
      </trkpt>
      <trkpt lat="48.37807" lon="2.39301">
        <ele>66.1</ele>
        <time>2017-07-02T07:00:17Z</time>
      </trkpt>
      <trkpt lat="48.3781" lon="2.39296">
        <ele>66.33</ele>
        <time>2017-07-02T07:00:19Z</time>
      </trkpt>
      <trkpt lat="48.37813" lon="2.39289">
        <ele>66.56</ele>
        <time>2017-07-02T07:00:21Z</time>
      </trkpt>
      <trkpt lat="48.37817" lon="2.39281">
        <ele>66.82</ele>
        <time>2017-07-02T07:00:23Z</time>
      </trkpt>
      <trkpt lat="48.37825" lon="2.39262">
        <ele>66.82</ele>
        <time>2017-07-02T07:00:25Z</time>
      </trkpt>
      <trkpt lat="48.37829" lon="2.39246">
        <ele>66.57</ele>
        <time>2017-07-02T07:00:27Z</time>
      </trkpt>
      <trkpt lat="48.37834" lon="2.39233">
        <ele>67.07</ele>
        <time>2017-07-02T07:00:29Z</time>
      </trkpt>
      <trkpt lat="48.37837" lon="2.39219">
        <ele>67.26</ele>
        <time>2017-07-02T07:00:31Z</time>
      </trkpt>
      <trkpt lat="48.37842" lon="2.39199">
        <ele>67.4</ele>
        <time>2017-07-02T07:00:33Z</time>
      </trkpt>
      <trkpt lat="48.37849" lon="2.39184">
        <ele>66.35</ele>
        <time>2017-07-02T07:00:35Z</time>
      </trkpt>
      <trkpt lat="48.37854" lon="2.3917">
        <ele>65.64</ele>
        <time>2017-07-02T07:00:37Z</time>
      </trkpt>
      <trkpt lat="48.37862" lon="2.3916">
        <ele>67.56</ele>
        <time>2017-07-02T07:00:39Z</time>
      </trkpt>
      <trkpt lat="48.3787" lon="2.39153">
        <ele>67.34</ele>
        <time>2017-07-02T07:00:41Z</time>
      </trkpt>
      <trkpt lat="48.37878" lon="2.39153">
        <ele>67.63</ele>
        <time>2017-07-02T07:00:43Z</time>
      </trkpt>
      <trkpt lat="48.37888" lon="2.39156">
        <ele>68.18</ele>
        <time>2017-07-02T07:00:45Z</time>
      </trkpt>
      <trkpt lat="48.37898" lon="2.39159">
        <ele>68.39</ele>
        <time>2017-07-02T07:00:47Z</time>
      </trkpt>
      <trkpt lat="48.37908" lon="2.39162">
        <ele>68.59</ele>
        <time>2017-07-02T07:00:49Z</time>
      </trkpt>
      <trkpt lat="48.37919" lon="2.3916">
        <ele>68.39</ele>
        <time>2017-07-02T07:00:51Z</time>
      </trkpt>
      <trkpt lat="48.37929" lon="2.39163">
        <ele>69.05</ele>
        <time>2017-07-02T07:00:53Z</time>
      </trkpt>
      <trkpt lat="48.37937" lon="2.39165">
        <ele>69.6</ele>
        <time>2017-07-02T07:00:55Z</time>
      </trkpt>
      <trkpt lat="48.37948" lon="2.39174">
        <ele>69.93</ele>
        <time>2017-07-02T07:00:57Z</time>
      </trkpt>
      <trkpt lat="48.37956" lon="2.39176">
        <ele>68.7</ele>
        <time>2017-07-02T07:00:59Z</time>
      </trkpt>
      <trkpt lat="48.37964" lon="2.39178">
        <ele>66.9</ele>
        <time>2017-07-02T07:01:01Z</time>
      </trkpt>
      <trkpt lat="48.37974" lon="2.39178">
        <ele>65.42</ele>
        <time>2017-07-02T07:01:03Z</time>
      </trkpt>
      <trkpt lat="48.37984" lon="2.3918">
        <ele>65.62</ele>
        <time>2017-07-02T07:01:05Z</time>
      </trkpt>
      <trkpt lat="48.37994" lon="2.3918">
        <ele>66.75</ele>
        <time>2017-07-02T07:01:07Z</time>
      </trkpt>
      <trkpt lat="48.38004" lon="2.39181">
        <ele>67.58</ele>
        <time>2017-07-02T07:01:09Z</time>
      </trkpt>
      <trkpt lat="48.38013" lon="2.39182">
        <ele>67.71</ele>
        <time>2017-07-02T07:01:11Z</time>
      </trkpt>
      <trkpt lat="48.3802" lon="2.39182">
        <ele>67.79</ele>
        <time>2017-07-02T07:01:13Z</time>
      </trkpt>
      <trkpt lat="48.38026" lon="2.39183">
        <ele>67.83</ele>
        <time>2017-07-02T07:01:15Z</time>
      </trkpt>
      <trkpt lat="48.38033" lon="2.39183">
        <ele>68.01</ele>
        <time>2017-07-02T07:01:17Z</time>
      </trkpt>
      <trkpt lat="48.38041" lon="2.39185">
        <ele>68.3</ele>
        <time>2017-07-02T07:01:19Z</time>
      </trkpt>
      <trkpt lat="48.38049" lon="2.39185">
        <ele>68.68</ele>
        <time>2017-07-02T07:01:21Z</time>
      </trkpt>
      <trkpt lat="48.38058" lon="2.39186">
        <ele>68.91</ele>
        <time>2017-07-02T07:01:23Z</time>
      </trkpt>
      <trkpt lat="48.38066" lon="2.39186">
        <ele>68.52</ele>
        <time>2017-07-02T07:01:25Z</time>
      </trkpt>
      <trkpt lat="48.38075" lon="2.39185">
        <ele>68.04</ele>
        <time>2017-07-02T07:01:27Z</time>
      </trkpt>
      <trkpt lat="48.38087" lon="2.39182">
        <ele>67.02</ele>
        <time>2017-07-02T07:01:29Z</time>
      </trkpt>
      <trkpt lat="48.38096" lon="2.39183">
        <ele>66.82</ele>
        <time>2017-07-02T07:01:31Z</time>
      </trkpt>
      <trkpt lat="48.38105" lon="2.39183">
        <ele>66.45</ele>
        <time>2017-07-02T07:01:33Z</time>
      </trkpt>
      <trkpt lat="48.38113" lon="2.39182">
        <ele>66.22</ele>
        <time>2017-07-02T07:01:35Z</time>
      </trkpt>
      <trkpt lat="48.38124" lon="2.39182">
        <ele>66.79</ele>
        <time>2017-07-02T07:01:37Z</time>
      </trkpt>
      <trkpt lat="48.38134" lon="2.3918">
        <ele>67.2</ele>
        <time>2017-07-02T07:01:39Z</time>
      </trkpt>
      <trkpt lat="48.38143" lon="2.39178">
        <ele>67.35</ele>
        <time>2017-07-02T07:01:41Z</time>
      </trkpt>
      <trkpt lat="48.38153" lon="2.39174">
        <ele>67.13</ele>
        <time>2017-07-02T07:01:43Z</time>
      </trkpt>
      <trkpt lat="48.38163" lon="2.39171">
        <ele>67.02</ele>
        <time>2017-07-02T07:01:45Z</time>
      </trkpt>
      <trkpt lat="48.38174" lon="2.39169">
        <ele>67.78</ele>
        <time>2017-07-02T07:01:47Z</time>
      </trkpt>
      <trkpt lat="48.38185" lon="2.39166">
        <ele>68.98</ele>
        <time>2017-07-02T07:01:49Z</time>
      </trkpt>
      <trkpt lat="48.38197" lon="2.39159">
        <ele>70.04</ele>
        <time>2017-07-02T07:01:51Z</time>
      </trkpt>
      <trkpt lat="48.38211" lon="2.39157">
        <ele>70.17</ele>
        <time>2017-07-02T07:01:53Z</time>
      </trkpt>
      <trkpt lat="48.38224" lon="2.39149">
        <ele>69.52</ele>
        <time>2017-07-02T07:01:55Z</time>
      </trkpt>
      <trkpt lat="48.38235" lon="2.39144">
        <ele>67.95</ele>
        <time>2017-07-02T07:01:57Z</time>
      </trkpt>
      <trkpt lat="48.38248" lon="2.39141">
        <ele>66.36</ele>
        <time>2017-07-02T07:01:59Z</time>
      </trkpt>
      <trkpt lat="48.38262" lon="2.39141">
        <ele>66.62</ele>
        <time>2017-07-02T07:02:01Z</time>
      </trkpt>
      <trkpt lat="48.38275" lon="2.39138">
        <ele>66.81</ele>
        <time>2017-07-02T07:02:03Z</time>
      </trkpt>
      <trkpt lat="48.38287" lon="2.39134">
        <ele>66.96</ele>
        <time>2017-07-02T07:02:05Z</time>
      </trkpt>
      <trkpt lat="48.38298" lon="2.39132">
        <ele>67.08</ele>
        <time>2017-07-02T07:02:07Z</time>
      </trkpt>
      <trkpt lat="48.38311" lon="2.39129">
        <ele>66.91</ele>
        <time>2017-07-02T07:02:09Z</time>
      </trkpt>
      <trkpt lat="48.38322" lon="2.39126">
        <ele>66.19</ele>
        <time>2017-07-02T07:02:11Z</time>
      </trkpt>
      <trkpt lat="48.38332" lon="2.39125">
        <ele>65.52</ele>
        <time>2017-07-02T07:02:13Z</time>
      </trkpt>
      <trkpt lat="48.38344" lon="2.39123">
        <ele>65.76</ele>
        <time>2017-07-02T07:02:15Z</time>
      </trkpt>
      <trkpt lat="48.38355" lon="2.39121">
        <ele>66.45</ele>
        <time>2017-07-02T07:02:17Z</time>
      </trkpt>
      <trkpt lat="48.38364" lon="2.39121">
        <ele>66.65</ele>
        <time>2017-07-02T07:02:19Z</time>
      </trkpt>
      <trkpt lat="48.38378" lon="2.39122">
        <ele>65.32</ele>
        <time>2017-07-02T07:02:21Z</time>
      </trkpt>
      <trkpt lat="48.38387" lon="2.39121">
        <ele>64.22</ele>
        <time>2017-07-02T07:02:23Z</time>
      </trkpt>
      <trkpt lat="48.38396" lon="2.39119">
        <ele>64.66</ele>
        <time>2017-07-02T07:02:25Z</time>
      </trkpt>
      <trkpt lat="48.38403" lon="2.39117">
        <ele>64.94</ele>
        <time>2017-07-02T07:02:27Z</time>
      </trkpt>
      <trkpt lat="48.38412" lon="2.39116">
        <ele>65.69</ele>
        <time>2017-07-02T07:02:29Z</time>
      </trkpt>
      <trkpt lat="48.38421" lon="2.39112">
        <ele>65.15</ele>
        <time>2017-07-02T07:02:31Z</time>
      </trkpt>
      <trkpt lat="48.38432" lon="2.3911">
        <ele>64.83</ele>
        <time>2017-07-02T07:02:33Z</time>
      </trkpt>
      <trkpt lat="48.38443" lon="2.39101">
        <ele>63.81</ele>
        <time>2017-07-02T07:02:35Z</time>
      </trkpt>
      <trkpt lat="48.38455" lon="2.39098">
        <ele>63.05</ele>
        <time>2017-07-02T07:02:37Z</time>
      </trkpt>
      <trkpt lat="48.38467" lon="2.39095">
        <ele>62.11</ele>
        <time>2017-07-02T07:02:39Z</time>
      </trkpt>
      <trkpt lat="48.38478" lon="2.3909">
        <ele>62.01</ele>
        <time>2017-07-02T07:02:41Z</time>
      </trkpt>
      <trkpt lat="48.3849" lon="2.39087">
        <ele>62.61</ele>
        <time>2017-07-02T07:02:43Z</time>
      </trkpt>
      <trkpt lat="48.385" lon="2.39082">
        <ele>62.88</ele>
        <time>2017-07-02T07:02:45Z</time>
      </trkpt>
      <trkpt lat="48.3851" lon="2.39078">
        <ele>63.21</ele>
        <time>2017-07-02T07:02:47Z</time>
      </trkpt>
      <trkpt lat="48.38519" lon="2.39071">
        <ele>63.38</ele>
        <time>2017-07-02T07:02:49Z</time>
      </trkpt>
      <trkpt lat="48.38527" lon="2.39067">
        <ele>63.77</ele>
        <time>2017-07-02T07:02:51Z</time>
      </trkpt>
      <trkpt lat="48.38535" lon="2.39064">
        <ele>64.2</ele>
        <time>2017-07-02T07:02:53Z</time>
      </trkpt>
      <trkpt lat="48.38544" lon="2.3906">
        <ele>64.93</ele>
        <time>2017-07-02T07:02:55Z</time>
      </trkpt>
      <trkpt lat="48.38552" lon="2.39059">
        <ele>65.68</ele>
        <time>2017-07-02T07:02:57Z</time>
      </trkpt>
      <trkpt lat="48.38562" lon="2.39058">
        <ele>64.24</ele>
        <time>2017-07-02T07:02:59Z</time>
      </trkpt>
      <trkpt lat="48.3857" lon="2.39056">
        <ele>61.25</ele>
        <time>2017-07-02T07:03:01Z</time>
      </trkpt>
      <trkpt lat="48.38581" lon="2.3905">
        <ele>58.45</ele>
        <time>2017-07-02T07:03:03Z</time>
      </trkpt>
      <trkpt lat="48.38592" lon="2.39047">
        <ele>59.68</ele>
        <time>2017-07-02T07:03:05Z</time>
      </trkpt>
      <trkpt lat="48.38599" lon="2.39055">
        <ele>60.36</ele>
        <time>2017-07-02T07:03:07Z</time>
      </trkpt>
      <trkpt lat="48.38609" lon="2.39051">
        <ele>62.21</ele>
        <time>2017-07-02T07:03:09Z</time>
      </trkpt>
      <trkpt lat="48.38618" lon="2.39047">
        <ele>61.61</ele>
        <time>2017-07-02T07:03:11Z</time>
      </trkpt>
      <trkpt lat="48.38625" lon="2.39043">
        <ele>60.69</ele>
        <time>2017-07-02T07:03:13Z</time>
      </trkpt>
      <trkpt lat="48.38634" lon="2.39038">
        <ele>59.42</ele>
        <time>2017-07-02T07:03:15Z</time>
      </trkpt>
      <trkpt lat="48.38643" lon="2.39039">
        <ele>58.77</ele>
        <time>2017-07-02T07:03:17Z</time>
      </trkpt>
      <trkpt lat="48.38652" lon="2.39038">
        <ele>57.8</ele>
        <time>2017-07-02T07:03:19Z</time>
      </trkpt>
      <trkpt lat="48.38662" lon="2.3904">
        <ele>56.9</ele>
        <time>2017-07-02T07:03:21Z</time>
      </trkpt>
      <trkpt lat="48.3867" lon="2.39045">
        <ele>56.81</ele>
        <time>2017-07-02T07:03:23Z</time>
      </trkpt>
      <trkpt lat="48.38681" lon="2.39047">
        <ele>57.58</ele>
        <time>2017-07-02T07:03:25Z</time>
      </trkpt>
      <trkpt lat="48.38692" lon="2.39049">
        <ele>58.35</ele>
        <time>2017-07-02T07:03:27Z</time>
      </trkpt>
      <trkpt lat="48.38702" lon="2.39048">
        <ele>58.11</ele>
        <time>2017-07-02T07:03:29Z</time>
      </trkpt>
      <trkpt lat="48.38712" lon="2.39051">
        <ele>57.97</ele>
        <time>2017-07-02T07:03:31Z</time>
      </trkpt>
      <trkpt lat="48.38725" lon="2.39048">
        <ele>57.25</ele>
        <time>2017-07-02T07:03:33Z</time>
      </trkpt>
      <trkpt lat="48.38736" lon="2.39045">
        <ele>57.52</ele>
        <time>2017-07-02T07:03:35Z</time>
      </trkpt>
      <trkpt lat="48.38749" lon="2.39037">
        <ele>57.62</ele>
        <time>2017-07-02T07:03:37Z</time>
      </trkpt>
      <trkpt lat="48.38761" lon="2.39033">
        <ele>57.76</ele>
        <time>2017-07-02T07:03:39Z</time>
      </trkpt>
      <trkpt lat="48.38774" lon="2.39032">
        <ele>58.19</ele>
        <time>2017-07-02T07:03:41Z</time>
      </trkpt>
      <trkpt lat="48.38787" lon="2.39029">
        <ele>59.06</ele>
        <time>2017-07-02T07:03:43Z</time>
      </trkpt>
      <trkpt lat="48.38797" lon="2.3903">
        <ele>60.17</ele>
        <time>2017-07-02T07:03:45Z</time>
      </trkpt>
      <trkpt lat="48.38807" lon="2.39027">
        <ele>61.19</ele>
        <time>2017-07-02T07:03:47Z</time>
      </trkpt>
      <trkpt lat="48.38813" lon="2.39026">
        <ele>62.11</ele>
        <time>2017-07-02T07:03:49Z</time>
      </trkpt>
      <trkpt lat="48.38821" lon="2.39032">
        <ele>63.37</ele>
        <time>2017-07-02T07:03:51Z</time>
      </trkpt>
      <trkpt lat="48.38827" lon="2.39034">
        <ele>64.27</ele>
        <time>2017-07-02T07:03:53Z</time>
      </trkpt>
      <trkpt lat="48.38835" lon="2.39033">
        <ele>65.05</ele>
        <time>2017-07-02T07:03:55Z</time>
      </trkpt>
      <trkpt lat="48.38844" lon="2.39032">
        <ele>64.12</ele>
        <time>2017-07-02T07:03:57Z</time>
      </trkpt>
      <trkpt lat="48.38856" lon="2.39033">
        <ele>63.05</ele>
        <time>2017-07-02T07:03:59Z</time>
      </trkpt>
      <trkpt lat="48.38868" lon="2.39034">
        <ele>62.49</ele>
        <time>2017-07-02T07:04:01Z</time>
      </trkpt>
      <trkpt lat="48.3888" lon="2.39034">
        <ele>62.21</ele>
        <time>2017-07-02T07:04:03Z</time>
      </trkpt>
      <trkpt lat="48.38893" lon="2.39036">
        <ele>62.27</ele>
        <time>2017-07-02T07:04:05Z</time>
      </trkpt>
      <trkpt lat="48.38906" lon="2.39038">
        <ele>62.77</ele>
        <time>2017-07-02T07:04:07Z</time>
      </trkpt>
      <trkpt lat="48.38918" lon="2.39043">
        <ele>63.7</ele>
        <time>2017-07-02T07:04:09Z</time>
      </trkpt>
      <trkpt lat="48.38929" lon="2.3905">
        <ele>65.24</ele>
        <time>2017-07-02T07:04:11Z</time>
      </trkpt>
      <trkpt lat="48.38938" lon="2.39063">
        <ele>67.04</ele>
        <time>2017-07-02T07:04:13Z</time>
      </trkpt>
      <trkpt lat="48.38948" lon="2.39079">
        <ele>69.24</ele>
        <time>2017-07-02T07:04:15Z</time>
      </trkpt>
      <trkpt lat="48.38957" lon="2.3909">
        <ele>69.24</ele>
        <time>2017-07-02T07:04:17Z</time>
      </trkpt>
      <trkpt lat="48.38966" lon="2.39105">
        <ele>69.06</ele>
        <time>2017-07-02T07:04:19Z</time>
      </trkpt>
      <trkpt lat="48.38973" lon="2.39121">
        <ele>69.03</ele>
        <time>2017-07-02T07:04:21Z</time>
      </trkpt>
      <trkpt lat="48.38981" lon="2.39135">
        <ele>69.05</ele>
        <time>2017-07-02T07:04:23Z</time>
      </trkpt>
      <trkpt lat="48.38992" lon="2.39142">
        <ele>69</ele>
        <time>2017-07-02T07:04:25Z</time>
      </trkpt>
      <trkpt lat="48.39003" lon="2.39153">
        <ele>68.79</ele>
        <time>2017-07-02T07:04:27Z</time>
      </trkpt>
      <trkpt lat="48.39011" lon="2.39167">
        <ele>68.18</ele>
        <time>2017-07-02T07:04:29Z</time>
      </trkpt>
      <trkpt lat="48.39024" lon="2.39185">
        <ele>68.53</ele>
        <time>2017-07-02T07:04:31Z</time>
      </trkpt>
      <trkpt lat="48.3904" lon="2.39193">
        <ele>68.25</ele>
        <time>2017-07-02T07:04:33Z</time>
      </trkpt>
      <trkpt lat="48.39051" lon="2.39205">
        <ele>68.55</ele>
        <time>2017-07-02T07:04:35Z</time>
      </trkpt>
      <trkpt lat="48.39063" lon="2.39214">
        <ele>68.73</ele>
        <time>2017-07-02T07:04:37Z</time>
      </trkpt>
      <trkpt lat="48.39074" lon="2.39222">
        <ele>69.7</ele>
        <time>2017-07-02T07:04:39Z</time>
      </trkpt>
      <trkpt lat="48.3908" lon="2.3923">
        <ele>70.67</ele>
        <time>2017-07-02T07:04:41Z</time>
      </trkpt>
      <trkpt lat="48.39089" lon="2.39239">
        <ele>70.74</ele>
        <time>2017-07-02T07:04:43Z</time>
      </trkpt>
      <trkpt lat="48.39097" lon="2.39246">
        <ele>69.64</ele>
        <time>2017-07-02T07:04:45Z</time>
      </trkpt>
      <trkpt lat="48.3911" lon="2.39262">
        <ele>66.75</ele>
        <time>2017-07-02T07:04:47Z</time>
      </trkpt>
      <trkpt lat="48.39117" lon="2.39262">
        <ele>65.57</ele>
        <time>2017-07-02T07:04:49Z</time>
      </trkpt>
      <trkpt lat="48.39124" lon="2.39258">
        <ele>64.4</ele>
        <time>2017-07-02T07:04:51Z</time>
      </trkpt>
      <trkpt lat="48.3913" lon="2.39258">
        <ele>63.4</ele>
        <time>2017-07-02T07:04:55Z</time>
      </trkpt>
      <trkpt lat="48.39136" lon="2.39261">
        <ele>62.13</ele>
        <time>2017-07-02T07:04:59Z</time>
      </trkpt>
      <trkpt lat="48.39136" lon="2.39274">
        <ele>61.67</ele>
        <time>2017-07-02T07:05:21Z</time>
      </trkpt>
      <trkpt lat="48.39135" lon="2.39285">
        <ele>62</ele>
        <time>2017-07-02T07:05:25Z</time>
      </trkpt>
      <trkpt lat="48.39132" lon="2.39292">
        <ele>62.69</ele>
        <time>2017-07-02T07:05:27Z</time>
      </trkpt>
      <trkpt lat="48.39133" lon="2.39301">
        <ele>62.89</ele>
        <time>2017-07-02T07:05:29Z</time>
      </trkpt>
      <trkpt lat="48.39135" lon="2.39313">
        <ele>64.08</ele>
        <time>2017-07-02T07:05:31Z</time>
      </trkpt>
      <trkpt lat="48.39141" lon="2.39321">
        <ele>65.48</ele>
        <time>2017-07-02T07:05:35Z</time>
      </trkpt>
      <trkpt lat="48.39146" lon="2.39332">
        <ele>67.5</ele>
        <time>2017-07-02T07:05:39Z</time>
      </trkpt>
      <trkpt lat="48.39152" lon="2.39346">
        <ele>68.17</ele>
        <time>2017-07-02T07:05:43Z</time>
      </trkpt>
      <trkpt lat="48.39152" lon="2.39358">
        <ele>68.76</ele>
        <time>2017-07-02T07:05:47Z</time>
      </trkpt>
      <trkpt lat="48.39148" lon="2.3937">
        <ele>69.32</ele>
        <time>2017-07-02T07:05:51Z</time>
      </trkpt>
      <trkpt lat="48.39148" lon="2.39382">
        <ele>70.15</ele>
        <time>2017-07-02T07:05:55Z</time>
      </trkpt>
      <trkpt lat="48.39151" lon="2.39388">
        <ele>70.84</ele>
        <time>2017-07-02T07:05:57Z</time>
      </trkpt>
      <trkpt lat="48.39156" lon="2.39397">
        <ele>71.45</ele>
        <time>2017-07-02T07:06:01Z</time>
      </trkpt>
      <trkpt lat="48.3916" lon="2.39406">
        <ele>71.82</ele>
        <time>2017-07-02T07:06:03Z</time>
      </trkpt>
      <trkpt lat="48.39163" lon="2.39416">
        <ele>72</ele>
        <time>2017-07-02T07:06:05Z</time>
      </trkpt>
      <trkpt lat="48.3916" lon="2.39424">
        <ele>71.85</ele>
        <time>2017-07-02T07:06:11Z</time>
      </trkpt>
      <trkpt lat="48.39162" lon="2.39431">
        <ele>71.66</ele>
        <time>2017-07-02T07:06:13Z</time>
      </trkpt>
      <trkpt lat="48.3916" lon="2.39437">
        <ele>71.61</ele>
        <time>2017-07-02T07:06:21Z</time>
      </trkpt>
      <trkpt lat="48.39164" lon="2.39448">
        <ele>71.34</ele>
        <time>2017-07-02T07:06:27Z</time>
      </trkpt>
      <trkpt lat="48.39167" lon="2.39462">
        <ele>71.62</ele>
        <time>2017-07-02T07:06:33Z</time>
      </trkpt>
      <trkpt lat="48.39167" lon="2.39469">
        <ele>71.87</ele>
        <time>2017-07-02T07:06:35Z</time>
      </trkpt>
      <trkpt lat="48.39171" lon="2.39478">
        <ele>71.94</ele>
        <time>2017-07-02T07:06:37Z</time>
      </trkpt>
      <trkpt lat="48.3918" lon="2.39482">
        <ele>71.54</ele>
        <time>2017-07-02T07:06:41Z</time>
      </trkpt>
      <trkpt lat="48.39187" lon="2.39484">
        <ele>71.3</ele>
        <time>2017-07-02T07:06:43Z</time>
      </trkpt>
      <trkpt lat="48.39193" lon="2.39487">
        <ele>71.15</ele>
        <time>2017-07-02T07:06:45Z</time>
      </trkpt>
      <trkpt lat="48.39193" lon="2.39499">
        <ele>71.96</ele>
        <time>2017-07-02T07:06:49Z</time>
      </trkpt>
      <trkpt lat="48.39197" lon="2.39517">
        <ele>74.04</ele>
        <time>2017-07-02T07:07:01Z</time>
      </trkpt>
      <trkpt lat="48.39201" lon="2.3953">
        <ele>74.96</ele>
        <time>2017-07-02T07:07:03Z</time>
      </trkpt>
      <trkpt lat="48.39209" lon="2.39548">
        <ele>73.91</ele>
        <time>2017-07-02T07:07:05Z</time>
      </trkpt>
      <trkpt lat="48.39217" lon="2.3956">
        <ele>72</ele>
        <time>2017-07-02T07:07:07Z</time>
      </trkpt>
      <trkpt lat="48.39223" lon="2.39564">
        <ele>70.58</ele>
        <time>2017-07-02T07:07:09Z</time>
      </trkpt>
      <trkpt lat="48.39228" lon="2.39576">
        <ele>70.48</ele>
        <time>2017-07-02T07:07:17Z</time>
      </trkpt>
      <trkpt lat="48.39229" lon="2.39585">
        <ele>70.49</ele>
        <time>2017-07-02T07:07:35Z</time>
      </trkpt>
      <trkpt lat="48.39231" lon="2.39599">
        <ele>70.57</ele>
        <time>2017-07-02T07:07:39Z</time>
      </trkpt>
      <trkpt lat="48.39231" lon="2.39607">
        <ele>70.92</ele>
        <time>2017-07-02T07:07:43Z</time>
      </trkpt>
      <trkpt lat="48.39225" lon="2.39612">
        <ele>72.69</ele>
        <time>2017-07-02T07:07:47Z</time>
      </trkpt>
      <trkpt lat="48.39222" lon="2.39605">
        <ele>73.09</ele>
        <time>2017-07-02T07:07:55Z</time>
      </trkpt>
      <trkpt lat="48.3922" lon="2.39598">
        <ele>73.63</ele>
        <time>2017-07-02T07:07:59Z</time>
      </trkpt>
      <trkpt lat="48.39213" lon="2.396">
        <ele>76.39</ele>
        <time>2017-07-02T07:08:05Z</time>
      </trkpt>
      <trkpt lat="48.39208" lon="2.39611">
        <ele>78.8</ele>
        <time>2017-07-02T07:08:09Z</time>
      </trkpt>
      <trkpt lat="48.39204" lon="2.39622">
        <ele>81.78</ele>
        <time>2017-07-02T07:08:13Z</time>
      </trkpt>
      <trkpt lat="48.39201" lon="2.3963">
        <ele>84.19</ele>
        <time>2017-07-02T07:08:17Z</time>
      </trkpt>
      <trkpt lat="48.39199" lon="2.3964">
        <ele>86.23</ele>
        <time>2017-07-02T07:08:21Z</time>
      </trkpt>
      <trkpt lat="48.39197" lon="2.39649">
        <ele>87.98</ele>
        <time>2017-07-02T07:08:25Z</time>
      </trkpt>
      <trkpt lat="48.39189" lon="2.3965">
        <ele>90.01</ele>
        <time>2017-07-02T07:08:29Z</time>
      </trkpt>
      <trkpt lat="48.39182" lon="2.39647">
        <ele>91.52</ele>
        <time>2017-07-02T07:08:33Z</time>
      </trkpt>
      <trkpt lat="48.39177" lon="2.39639">
        <ele>92.36</ele>
        <time>2017-07-02T07:08:37Z</time>
      </trkpt>
      <trkpt lat="48.39174" lon="2.39632">
        <ele>92.52</ele>
        <time>2017-07-02T07:08:41Z</time>
      </trkpt>
      <trkpt lat="48.39171" lon="2.39627">
        <ele>93.02</ele>
        <time>2017-07-02T07:08:45Z</time>
      </trkpt>
      <trkpt lat="48.39166" lon="2.3963">
        <ele>94.52</ele>
        <time>2017-07-02T07:09:01Z</time>
      </trkpt>
      <trkpt lat="48.39167" lon="2.39622">
        <ele>93.73</ele>
        <time>2017-07-02T07:09:45Z</time>
      </trkpt>
      <trkpt lat="48.39169" lon="2.39614">
        <ele>92.43</ele>
        <time>2017-07-02T07:10:53Z</time>
      </trkpt>
      <trkpt lat="48.39164" lon="2.39616">
        <ele>93.89</ele>
        <time>2017-07-02T07:11:15Z</time>
      </trkpt>
      <trkpt lat="48.39158" lon="2.39611">
        <ele>94.51</ele>
        <time>2017-07-02T07:11:21Z</time>
      </trkpt>
      <trkpt lat="48.39153" lon="2.39604">
        <ele>93.96</ele>
        <time>2017-07-02T07:11:25Z</time>
      </trkpt>
      <trkpt lat="48.39149" lon="2.39597">
        <ele>93.71</ele>
        <time>2017-07-02T07:11:29Z</time>
      </trkpt>
      <trkpt lat="48.39144" lon="2.3959">
        <ele>94.01</ele>
        <time>2017-07-02T07:11:33Z</time>
      </trkpt>
      <trkpt lat="48.3914" lon="2.39584">
        <ele>94.8</ele>
        <time>2017-07-02T07:11:37Z</time>
      </trkpt>
      <trkpt lat="48.39134" lon="2.3958">
        <ele>93.97</ele>
        <time>2017-07-02T07:11:41Z</time>
      </trkpt>
      <trkpt lat="48.39128" lon="2.39577">
        <ele>92.75</ele>
        <time>2017-07-02T07:11:45Z</time>
      </trkpt>
      <trkpt lat="48.39123" lon="2.39573">
        <ele>91.69</ele>
        <time>2017-07-02T07:11:49Z</time>
      </trkpt>
      <trkpt lat="48.39119" lon="2.39568">
        <ele>90.41</ele>
        <time>2017-07-02T07:11:53Z</time>
      </trkpt>
      <trkpt lat="48.39115" lon="2.39565">
        <ele>89.42</ele>
        <time>2017-07-02T07:11:57Z</time>
      </trkpt>
      <trkpt lat="48.39109" lon="2.3956">
        <ele>88.41</ele>
        <time>2017-07-02T07:12:03Z</time>
      </trkpt>
      <trkpt lat="48.39103" lon="2.39559">
        <ele>88.3</ele>
        <time>2017-07-02T07:12:07Z</time>
      </trkpt>
      <trkpt lat="48.39097" lon="2.39559">
        <ele>88.57</ele>
        <time>2017-07-02T07:12:11Z</time>
      </trkpt>
      <trkpt lat="48.39092" lon="2.39563">
        <ele>89.69</ele>
        <time>2017-07-02T07:12:15Z</time>
      </trkpt>
      <trkpt lat="48.39089" lon="2.3957">
        <ele>92.06</ele>
        <time>2017-07-02T07:12:19Z</time>
      </trkpt>
      <trkpt lat="48.39095" lon="2.39573">
        <ele>92.71</ele>
        <time>2017-07-02T07:12:25Z</time>
      </trkpt>
      <trkpt lat="48.39101" lon="2.39574">
        <ele>92.74</ele>
        <time>2017-07-02T07:12:29Z</time>
      </trkpt>
      <trkpt lat="48.39106" lon="2.39578">
        <ele>93.74</ele>
        <time>2017-07-02T07:12:33Z</time>
      </trkpt>
      <trkpt lat="48.3911" lon="2.39586">
        <ele>95.49</ele>
        <time>2017-07-02T07:12:37Z</time>
      </trkpt>
      <trkpt lat="48.39112" lon="2.39595">
        <ele>97.03</ele>
        <time>2017-07-02T07:12:41Z</time>
      </trkpt>
      <trkpt lat="48.39112" lon="2.39607">
        <ele>99.22</ele>
        <time>2017-07-02T07:12:45Z</time>
      </trkpt>
      <trkpt lat="48.39112" lon="2.3962">
        <ele>102.07</ele>
        <time>2017-07-02T07:12:49Z</time>
      </trkpt>
      <trkpt lat="48.39114" lon="2.39633">
        <ele>105.05</ele>
        <time>2017-07-02T07:12:53Z</time>
      </trkpt>
      <trkpt lat="48.39113" lon="2.39646">
        <ele>107</ele>
        <time>2017-07-02T07:12:57Z</time>
      </trkpt>
      <trkpt lat="48.39112" lon="2.39656">
        <ele>107.48</ele>
        <time>2017-07-02T07:13:01Z</time>
      </trkpt>
      <trkpt lat="48.39116" lon="2.39664">
        <ele>106.95</ele>
        <time>2017-07-02T07:13:05Z</time>
      </trkpt>
      <trkpt lat="48.39122" lon="2.39669">
        <ele>106.25</ele>
        <time>2017-07-02T07:13:09Z</time>
      </trkpt>
      <trkpt lat="48.39127" lon="2.39674">
        <ele>105.42</ele>
        <time>2017-07-02T07:13:13Z</time>
      </trkpt>
      <trkpt lat="48.3913" lon="2.39679">
        <ele>105.14</ele>
        <time>2017-07-02T07:13:17Z</time>
      </trkpt>
      <trkpt lat="48.39128" lon="2.39686">
        <ele>105.85</ele>
        <time>2017-07-02T07:13:23Z</time>
      </trkpt>
      <trkpt lat="48.3913" lon="2.39694">
        <ele>105.91</ele>
        <time>2017-07-02T07:13:27Z</time>
      </trkpt>
      <trkpt lat="48.39132" lon="2.39706">
        <ele>105.98</ele>
        <time>2017-07-02T07:13:31Z</time>
      </trkpt>
      <trkpt lat="48.39132" lon="2.39713">
        <ele>106.34</ele>
        <time>2017-07-02T07:13:33Z</time>
      </trkpt>
      <trkpt lat="48.39131" lon="2.3972">
        <ele>106.92</ele>
        <time>2017-07-02T07:13:35Z</time>
      </trkpt>
      <trkpt lat="48.3913" lon="2.39728">
        <ele>107.47</ele>
        <time>2017-07-02T07:13:37Z</time>
      </trkpt>
      <trkpt lat="48.39129" lon="2.39739">
        <ele>107.96</ele>
        <time>2017-07-02T07:13:41Z</time>
      </trkpt>
      <trkpt lat="48.39126" lon="2.39745">
        <ele>108.64</ele>
        <time>2017-07-02T07:13:43Z</time>
      </trkpt>
      <trkpt lat="48.39121" lon="2.39755">
        <ele>109.26</ele>
        <time>2017-07-02T07:13:47Z</time>
      </trkpt>
      <trkpt lat="48.39117" lon="2.39764">
        <ele>108.95</ele>
        <time>2017-07-02T07:13:51Z</time>
      </trkpt>
      <trkpt lat="48.39114" lon="2.39774">
        <ele>108.12</ele>
        <time>2017-07-02T07:13:55Z</time>
      </trkpt>
      <trkpt lat="48.39112" lon="2.39786">
        <ele>107.94</ele>
        <time>2017-07-02T07:13:59Z</time>
      </trkpt>
      <trkpt lat="48.39111" lon="2.39793">
        <ele>108.03</ele>
        <time>2017-07-02T07:14:01Z</time>
      </trkpt>
      <trkpt lat="48.39111" lon="2.398">
        <ele>108.11</ele>
        <time>2017-07-02T07:14:03Z</time>
      </trkpt>
      <trkpt lat="48.3911" lon="2.39807">
        <ele>108.35</ele>
        <time>2017-07-02T07:14:05Z</time>
      </trkpt>
      <trkpt lat="48.39107" lon="2.39819">
        <ele>109.36</ele>
        <time>2017-07-02T07:14:09Z</time>
      </trkpt>
      <trkpt lat="48.39107" lon="2.39826">
        <ele>109.67</ele>
        <time>2017-07-02T07:14:17Z</time>
      </trkpt>
      <trkpt lat="48.3911" lon="2.39831">
        <ele>109.16</ele>
        <time>2017-07-02T07:14:25Z</time>
      </trkpt>
      <trkpt lat="48.39109" lon="2.39839">
        <ele>109.58</ele>
        <time>2017-07-02T07:14:35Z</time>
      </trkpt>
      <trkpt lat="48.3911" lon="2.39848">
        <ele>109.71</ele>
        <time>2017-07-02T07:14:41Z</time>
      </trkpt>
      <trkpt lat="48.39112" lon="2.39857">
        <ele>109.66</ele>
        <time>2017-07-02T07:14:45Z</time>
      </trkpt>
      <trkpt lat="48.39115" lon="2.39867">
        <ele>109.58</ele>
        <time>2017-07-02T07:14:49Z</time>
      </trkpt>
      <trkpt lat="48.39119" lon="2.39874">
        <ele>109.34</ele>
        <time>2017-07-02T07:14:53Z</time>
      </trkpt>
      <trkpt lat="48.39122" lon="2.39881">
        <ele>109.09</ele>
        <time>2017-07-02T07:15:01Z</time>
      </trkpt>
      <trkpt lat="48.39125" lon="2.39891">
        <ele>109.14</ele>
        <time>2017-07-02T07:15:05Z</time>
      </trkpt>
      <trkpt lat="48.39128" lon="2.39902">
        <ele>108.69</ele>
        <time>2017-07-02T07:15:09Z</time>
      </trkpt>
      <trkpt lat="48.39129" lon="2.39913">
        <ele>108.65</ele>
        <time>2017-07-02T07:15:13Z</time>
      </trkpt>
      <trkpt lat="48.3913" lon="2.3992">
        <ele>108.4</ele>
        <time>2017-07-02T07:15:25Z</time>
      </trkpt>
      <trkpt lat="48.39133" lon="2.39926">
        <ele>107.67</ele>
        <time>2017-07-02T07:15:35Z</time>
      </trkpt>
      <trkpt lat="48.39139" lon="2.39929">
        <ele>106.57</ele>
        <time>2017-07-02T07:15:45Z</time>
      </trkpt>
      <trkpt lat="48.39141" lon="2.39939">
        <ele>105.79</ele>
        <time>2017-07-02T07:15:49Z</time>
      </trkpt>
      <trkpt lat="48.39142" lon="2.39949">
        <ele>105.25</ele>
        <time>2017-07-02T07:15:53Z</time>
      </trkpt>
      <trkpt lat="48.39143" lon="2.39958">
        <ele>104.87</ele>
        <time>2017-07-02T07:15:57Z</time>
      </trkpt>
      <trkpt lat="48.39143" lon="2.39969">
        <ele>104.66</ele>
        <time>2017-07-02T07:16:01Z</time>
      </trkpt>
      <trkpt lat="48.39144" lon="2.39981">
        <ele>104.39</ele>
        <time>2017-07-02T07:16:05Z</time>
      </trkpt>
      <trkpt lat="48.39148" lon="2.39991">
        <ele>103.74</ele>
        <time>2017-07-02T07:16:09Z</time>
      </trkpt>
      <trkpt lat="48.39153" lon="2.39996">
        <ele>103.02</ele>
        <time>2017-07-02T07:16:13Z</time>
      </trkpt>
      <trkpt lat="48.3916" lon="2.39994">
        <ele>102.14</ele>
        <time>2017-07-02T07:16:17Z</time>
      </trkpt>
      <trkpt lat="48.39165" lon="2.39989">
        <ele>101.6</ele>
        <time>2017-07-02T07:16:21Z</time>
      </trkpt>
      <trkpt lat="48.39167" lon="2.39981">
        <ele>101.68</ele>
        <time>2017-07-02T07:16:25Z</time>
      </trkpt>
      <trkpt lat="48.39166" lon="2.39973">
        <ele>102</ele>
        <time>2017-07-02T07:16:29Z</time>
      </trkpt>
      <trkpt lat="48.39163" lon="2.39965">
        <ele>102.24</ele>
        <time>2017-07-02T07:16:33Z</time>
      </trkpt>
      <trkpt lat="48.39158" lon="2.39957">
        <ele>102.77</ele>
        <time>2017-07-02T07:16:37Z</time>
      </trkpt>
      <trkpt lat="48.39153" lon="2.39943">
        <ele>103.43</ele>
        <time>2017-07-02T07:16:41Z</time>
      </trkpt>
      <trkpt lat="48.39152" lon="2.39931">
        <ele>103.7</ele>
        <time>2017-07-02T07:16:43Z</time>
      </trkpt>
      <trkpt lat="48.39152" lon="2.39917">
        <ele>103.79</ele>
        <time>2017-07-02T07:16:45Z</time>
      </trkpt>
      <trkpt lat="48.39152" lon="2.39903">
        <ele>102.9</ele>
        <time>2017-07-02T07:16:47Z</time>
      </trkpt>
      <trkpt lat="48.39152" lon="2.39892">
        <ele>102.3</ele>
        <time>2017-07-02T07:16:49Z</time>
      </trkpt>
      <trkpt lat="48.39153" lon="2.39874">
        <ele>101.58</ele>
        <time>2017-07-02T07:16:51Z</time>
      </trkpt>
      <trkpt lat="48.39153" lon="2.39861">
        <ele>101.41</ele>
        <time>2017-07-02T07:16:53Z</time>
      </trkpt>
      <trkpt lat="48.39153" lon="2.39847">
        <ele>101.2</ele>
        <time>2017-07-02T07:16:55Z</time>
      </trkpt>
      <trkpt lat="48.39153" lon="2.39836">
        <ele>100.91</ele>
        <time>2017-07-02T07:16:57Z</time>
      </trkpt>
      <trkpt lat="48.39154" lon="2.39822">
        <ele>100.54</ele>
        <time>2017-07-02T07:16:59Z</time>
      </trkpt>
      <trkpt lat="48.39155" lon="2.39811">
        <ele>99.99</ele>
        <time>2017-07-02T07:17:01Z</time>
      </trkpt>
      <trkpt lat="48.39156" lon="2.398">
        <ele>99.74</ele>
        <time>2017-07-02T07:17:03Z</time>
      </trkpt>
      <trkpt lat="48.39157" lon="2.3979">
        <ele>99.19</ele>
        <time>2017-07-02T07:17:05Z</time>
      </trkpt>
      <trkpt lat="48.39161" lon="2.39783">
        <ele>97.9</ele>
        <time>2017-07-02T07:17:07Z</time>
      </trkpt>
      <trkpt lat="48.39166" lon="2.39783">
        <ele>96.48</ele>
        <time>2017-07-02T07:17:09Z</time>
      </trkpt>
      <trkpt lat="48.39169" lon="2.39788">
        <ele>95.76</ele>
        <time>2017-07-02T07:17:11Z</time>
      </trkpt>
      <trkpt lat="48.39172" lon="2.39795">
        <ele>95.27</ele>
        <time>2017-07-02T07:17:13Z</time>
      </trkpt>
      <trkpt lat="48.39176" lon="2.39801">
        <ele>94.62</ele>
        <time>2017-07-02T07:17:15Z</time>
      </trkpt>
      <trkpt lat="48.3918" lon="2.39806">
        <ele>93.7</ele>
        <time>2017-07-02T07:17:17Z</time>
      </trkpt>
      <trkpt lat="48.39184" lon="2.3981">
        <ele>92.67</ele>
        <time>2017-07-02T07:17:19Z</time>
      </trkpt>
      <trkpt lat="48.39189" lon="2.39813">
        <ele>91.53</ele>
        <time>2017-07-02T07:17:21Z</time>
      </trkpt>
      <trkpt lat="48.39194" lon="2.39816">
        <ele>90.1</ele>
        <time>2017-07-02T07:17:23Z</time>
      </trkpt>
      <trkpt lat="48.392" lon="2.39819">
        <ele>88.19</ele>
        <time>2017-07-02T07:17:25Z</time>
      </trkpt>
      <trkpt lat="48.39206" lon="2.39822">
        <ele>86.27</ele>
        <time>2017-07-02T07:17:27Z</time>
      </trkpt>
      <trkpt lat="48.39213" lon="2.39825">
        <ele>84.14</ele>
        <time>2017-07-02T07:17:29Z</time>
      </trkpt>
      <trkpt lat="48.39231" lon="2.39827">
        <ele>79.02</ele>
        <time>2017-07-02T07:17:31Z</time>
      </trkpt>
      <trkpt lat="48.39243" lon="2.39828">
        <ele>75.71</ele>
        <time>2017-07-02T07:17:33Z</time>
      </trkpt>
      <trkpt lat="48.39244" lon="2.39838">
        <ele>75.98</ele>
        <time>2017-07-02T07:17:35Z</time>
      </trkpt>
      <trkpt lat="48.39242" lon="2.39848">
        <ele>77.28</ele>
        <time>2017-07-02T07:17:37Z</time>
      </trkpt>
      <trkpt lat="48.39242" lon="2.39857">
        <ele>77.95</ele>
        <time>2017-07-02T07:17:41Z</time>
      </trkpt>
      <trkpt lat="48.39238" lon="2.39867">
        <ele>79.79</ele>
        <time>2017-07-02T07:17:43Z</time>
      </trkpt>
      <trkpt lat="48.39238" lon="2.39875">
        <ele>80.2</ele>
        <time>2017-07-02T07:17:45Z</time>
      </trkpt>
      <trkpt lat="48.39236" lon="2.39886">
        <ele>81.33</ele>
        <time>2017-07-02T07:17:47Z</time>
      </trkpt>
      <trkpt lat="48.39233" lon="2.39898">
        <ele>82.37</ele>
        <time>2017-07-02T07:17:49Z</time>
      </trkpt>
      <trkpt lat="48.39232" lon="2.39915">
        <ele>83.08</ele>
        <time>2017-07-02T07:17:53Z</time>
      </trkpt>
      <trkpt lat="48.39234" lon="2.39929">
        <ele>83.02</ele>
        <time>2017-07-02T07:17:55Z</time>
      </trkpt>
      <trkpt lat="48.39234" lon="2.39939">
        <ele>83.46</ele>
        <time>2017-07-02T07:17:57Z</time>
      </trkpt>
      <trkpt lat="48.3924" lon="2.39947">
        <ele>81.73</ele>
        <time>2017-07-02T07:17:59Z</time>
      </trkpt>
      <trkpt lat="48.39245" lon="2.3995">
        <ele>80.4</ele>
        <time>2017-07-02T07:18:01Z</time>
      </trkpt>
      <trkpt lat="48.39255" lon="2.3995">
        <ele>77.94</ele>
        <time>2017-07-02T07:18:03Z</time>
      </trkpt>
      <trkpt lat="48.39265" lon="2.39953">
        <ele>76.64</ele>
        <time>2017-07-02T07:18:05Z</time>
      </trkpt>
      <trkpt lat="48.39278" lon="2.39955">
        <ele>74.78</ele>
        <time>2017-07-02T07:18:07Z</time>
      </trkpt>
      <trkpt lat="48.39287" lon="2.39957">
        <ele>74.24</ele>
        <time>2017-07-02T07:18:09Z</time>
      </trkpt>
      <trkpt lat="48.39293" lon="2.39963">
        <ele>74.29</ele>
        <time>2017-07-02T07:18:11Z</time>
      </trkpt>
      <trkpt lat="48.39297" lon="2.39967">
        <ele>74.22</ele>
        <time>2017-07-02T07:18:13Z</time>
      </trkpt>
      <trkpt lat="48.39303" lon="2.39968">
        <ele>73.91</ele>
        <time>2017-07-02T07:18:15Z</time>
      </trkpt>
      <trkpt lat="48.39312" lon="2.39974">
        <ele>74.33</ele>
        <time>2017-07-02T07:18:17Z</time>
      </trkpt>
      <trkpt lat="48.39319" lon="2.39977">
        <ele>74.87</ele>
        <time>2017-07-02T07:18:19Z</time>
      </trkpt>
      <trkpt lat="48.39328" lon="2.39977">
        <ele>75.15</ele>
        <time>2017-07-02T07:18:21Z</time>
      </trkpt>
      <trkpt lat="48.39337" lon="2.39982">
        <ele>75.43</ele>
        <time>2017-07-02T07:18:23Z</time>
      </trkpt>
      <trkpt lat="48.39344" lon="2.39989">
        <ele>75.18</ele>
        <time>2017-07-02T07:18:25Z</time>
      </trkpt>
      <trkpt lat="48.39353" lon="2.39989">
        <ele>74.34</ele>
        <time>2017-07-02T07:18:27Z</time>
      </trkpt>
      <trkpt lat="48.39358" lon="2.39989">
        <ele>73.89</ele>
        <time>2017-07-02T07:18:29Z</time>
      </trkpt>
      <trkpt lat="48.3936" lon="2.4">
        <ele>74.09</ele>
        <time>2017-07-02T07:18:33Z</time>
      </trkpt>
      <trkpt lat="48.39362" lon="2.40015">
        <ele>73.97</ele>
        <time>2017-07-02T07:18:37Z</time>
      </trkpt>
      <trkpt lat="48.39363" lon="2.40026">
        <ele>73.9</ele>
        <time>2017-07-02T07:18:39Z</time>
      </trkpt>
      <trkpt lat="48.39365" lon="2.40034">
        <ele>73.98</ele>
        <time>2017-07-02T07:18:41Z</time>
      </trkpt>
      <trkpt lat="48.39366" lon="2.40043">
        <ele>74.17</ele>
        <time>2017-07-02T07:18:43Z</time>
      </trkpt>
      <trkpt lat="48.39369" lon="2.40053">
        <ele>74.35</ele>
        <time>2017-07-02T07:18:47Z</time>
      </trkpt>
      <trkpt lat="48.39373" lon="2.40062">
        <ele>73.88</ele>
        <time>2017-07-02T07:18:51Z</time>
      </trkpt>
      <trkpt lat="48.3937" lon="2.40072">
        <ele>73.75</ele>
        <time>2017-07-02T07:18:57Z</time>
      </trkpt>
      <trkpt lat="48.39373" lon="2.40079">
        <ele>73.33</ele>
        <time>2017-07-02T07:19:51Z</time>
      </trkpt>
      <trkpt lat="48.39371" lon="2.40091">
        <ele>72.92</ele>
        <time>2017-07-02T07:19:59Z</time>
      </trkpt>
      <trkpt lat="48.39367" lon="2.40098">
        <ele>72.91</ele>
        <time>2017-07-02T07:20:01Z</time>
      </trkpt>
      <trkpt lat="48.39365" lon="2.40106">
        <ele>72.83</ele>
        <time>2017-07-02T07:20:07Z</time>
      </trkpt>
      <trkpt lat="48.3936" lon="2.4011">
        <ele>73.14</ele>
        <time>2017-07-02T07:20:11Z</time>
      </trkpt>
      <trkpt lat="48.39354" lon="2.40118">
        <ele>74.36</ele>
        <time>2017-07-02T07:20:13Z</time>
      </trkpt>
      <trkpt lat="48.39348" lon="2.40128">
        <ele>75.9</ele>
        <time>2017-07-02T07:20:17Z</time>
      </trkpt>
      <trkpt lat="48.39344" lon="2.40135">
        <ele>77.06</ele>
        <time>2017-07-02T07:20:19Z</time>
      </trkpt>
      <trkpt lat="48.39339" lon="2.4014">
        <ele>78.28</ele>
        <time>2017-07-02T07:20:21Z</time>
      </trkpt>
      <trkpt lat="48.39336" lon="2.40149">
        <ele>79.64</ele>
        <time>2017-07-02T07:20:27Z</time>
      </trkpt>
      <trkpt lat="48.39331" lon="2.40151">
        <ele>80.91</ele>
        <time>2017-07-02T07:20:29Z</time>
      </trkpt>
      <trkpt lat="48.39328" lon="2.40157">
        <ele>82.02</ele>
        <time>2017-07-02T07:20:35Z</time>
      </trkpt>
      <trkpt lat="48.39323" lon="2.40159">
        <ele>83.2</ele>
        <time>2017-07-02T07:20:37Z</time>
      </trkpt>
      <trkpt lat="48.39319" lon="2.40163">
        <ele>84.3</ele>
        <time>2017-07-02T07:20:41Z</time>
      </trkpt>
      <trkpt lat="48.39316" lon="2.40168">
        <ele>85.37</ele>
        <time>2017-07-02T07:20:45Z</time>
      </trkpt>
      <trkpt lat="48.39311" lon="2.40168">
        <ele>86.18</ele>
        <time>2017-07-02T07:20:47Z</time>
      </trkpt>
      <trkpt lat="48.39306" lon="2.40173">
        <ele>87.34</ele>
        <time>2017-07-02T07:21:01Z</time>
      </trkpt>
      <trkpt lat="48.393" lon="2.40176">
        <ele>89.05</ele>
        <time>2017-07-02T07:21:07Z</time>
      </trkpt>
      <trkpt lat="48.39296" lon="2.40182">
        <ele>90.14</ele>
        <time>2017-07-02T07:21:13Z</time>
      </trkpt>
      <trkpt lat="48.39291" lon="2.40191">
        <ele>91.09</ele>
        <time>2017-07-02T07:21:19Z</time>
      </trkpt>
      <trkpt lat="48.39294" lon="2.40196">
        <ele>90.79</ele>
        <time>2017-07-02T07:21:23Z</time>
      </trkpt>
      <trkpt lat="48.3929" lon="2.402">
        <ele>91.46</ele>
        <time>2017-07-02T07:21:27Z</time>
      </trkpt>
      <trkpt lat="48.39284" lon="2.402">
        <ele>92.2</ele>
        <time>2017-07-02T07:21:33Z</time>
      </trkpt>
      <trkpt lat="48.3928" lon="2.40209">
        <ele>92.72</ele>
        <time>2017-07-02T07:21:43Z</time>
      </trkpt>
      <trkpt lat="48.39278" lon="2.40215">
        <ele>92.99</ele>
        <time>2017-07-02T07:21:49Z</time>
      </trkpt>
      <trkpt lat="48.39273" lon="2.40218">
        <ele>93.51</ele>
        <time>2017-07-02T07:21:53Z</time>
      </trkpt>
      <trkpt lat="48.39269" lon="2.40222">
        <ele>93.98</ele>
        <time>2017-07-02T07:21:57Z</time>
      </trkpt>
      <trkpt lat="48.39264" lon="2.4023">
        <ele>94.74</ele>
        <time>2017-07-02T07:22:03Z</time>
      </trkpt>
      <trkpt lat="48.39261" lon="2.40235">
        <ele>95.37</ele>
        <time>2017-07-02T07:22:09Z</time>
      </trkpt>
      <trkpt lat="48.39257" lon="2.4024">
        <ele>96.29</ele>
        <time>2017-07-02T07:22:31Z</time>
      </trkpt>
      <trkpt lat="48.39251" lon="2.40252">
        <ele>97.94</ele>
        <time>2017-07-02T07:22:35Z</time>
      </trkpt>
      <trkpt lat="48.39248" lon="2.40264">
        <ele>99.53</ele>
        <time>2017-07-02T07:22:39Z</time>
      </trkpt>
      <trkpt lat="48.39249" lon="2.40272">
        <ele>99.99</ele>
        <time>2017-07-02T07:22:41Z</time>
      </trkpt>
      <trkpt lat="48.39244" lon="2.4028">
        <ele>102.3</ele>
        <time>2017-07-02T07:22:45Z</time>
      </trkpt>
      <trkpt lat="48.39239" lon="2.40285">
        <ele>104.21</ele>
        <time>2017-07-02T07:22:49Z</time>
      </trkpt>
      <trkpt lat="48.39241" lon="2.40295">
        <ele>104.48</ele>
        <time>2017-07-02T07:22:55Z</time>
      </trkpt>
      <trkpt lat="48.39239" lon="2.40307">
        <ele>106.05</ele>
        <time>2017-07-02T07:22:59Z</time>
      </trkpt>
      <trkpt lat="48.39231" lon="2.40324">
        <ele>108.23</ele>
        <time>2017-07-02T07:23:05Z</time>
      </trkpt>
      <trkpt lat="48.39232" lon="2.40332">
        <ele>108.41</ele>
        <time>2017-07-02T07:23:07Z</time>
      </trkpt>
      <trkpt lat="48.39236" lon="2.40343">
        <ele>108.05</ele>
        <time>2017-07-02T07:23:13Z</time>
      </trkpt>
      <trkpt lat="48.39237" lon="2.40351">
        <ele>108.17</ele>
        <time>2017-07-02T07:23:15Z</time>
      </trkpt>
      <trkpt lat="48.39239" lon="2.40361">
        <ele>108.26</ele>
        <time>2017-07-02T07:23:17Z</time>
      </trkpt>
      <trkpt lat="48.39243" lon="2.40366">
        <ele>107.46</ele>
        <time>2017-07-02T07:23:21Z</time>
      </trkpt>
      <trkpt lat="48.3924" lon="2.40374">
        <ele>108.62</ele>
        <time>2017-07-02T07:23:25Z</time>
      </trkpt>
      <trkpt lat="48.39237" lon="2.40381">
        <ele>109.92</ele>
        <time>2017-07-02T07:23:27Z</time>
      </trkpt>
      <trkpt lat="48.39235" lon="2.40392">
        <ele>110.99</ele>
        <time>2017-07-02T07:23:29Z</time>
      </trkpt>
      <trkpt lat="48.39237" lon="2.404">
        <ele>111.29</ele>
        <time>2017-07-02T07:23:31Z</time>
      </trkpt>
      <trkpt lat="48.39232" lon="2.40415">
        <ele>113.65</ele>
        <time>2017-07-02T07:23:35Z</time>
      </trkpt>
      <trkpt lat="48.39236" lon="2.40421">
        <ele>113.4</ele>
        <time>2017-07-02T07:23:37Z</time>
      </trkpt>
      <trkpt lat="48.39235" lon="2.40434">
        <ele>115.13</ele>
        <time>2017-07-02T07:23:41Z</time>
      </trkpt>
      <trkpt lat="48.39232" lon="2.40447">
        <ele>117.2</ele>
        <time>2017-07-02T07:23:45Z</time>
      </trkpt>
      <trkpt lat="48.3923" lon="2.40457">
        <ele>117.11</ele>
        <time>2017-07-02T07:23:51Z</time>
      </trkpt>
      <trkpt lat="48.3923" lon="2.40467">
        <ele>116.83</ele>
        <time>2017-07-02T07:23:53Z</time>
      </trkpt>
      <trkpt lat="48.39227" lon="2.40473">
        <ele>117.07</ele>
        <time>2017-07-02T07:23:55Z</time>
      </trkpt>
      <trkpt lat="48.39223" lon="2.4048">
        <ele>117.68</ele>
        <time>2017-07-02T07:23:57Z</time>
      </trkpt>
      <trkpt lat="48.39219" lon="2.40492">
        <ele>117.71</ele>
        <time>2017-07-02T07:24:03Z</time>
      </trkpt>
      <trkpt lat="48.39219" lon="2.40502">
        <ele>117.55</ele>
        <time>2017-07-02T07:24:07Z</time>
      </trkpt>
      <trkpt lat="48.39219" lon="2.40512">
        <ele>117.72</ele>
        <time>2017-07-02T07:24:09Z</time>
      </trkpt>
      <trkpt lat="48.39222" lon="2.4052">
        <ele>117.74</ele>
        <time>2017-07-02T07:24:11Z</time>
      </trkpt>
      <trkpt lat="48.39221" lon="2.40528">
        <ele>118.03</ele>
        <time>2017-07-02T07:24:13Z</time>
      </trkpt>
      <trkpt lat="48.39216" lon="2.40536">
        <ele>117.41</ele>
        <time>2017-07-02T07:24:15Z</time>
      </trkpt>
      <trkpt lat="48.39211" lon="2.40542">
        <ele>117.1</ele>
        <time>2017-07-02T07:24:17Z</time>
      </trkpt>
      <trkpt lat="48.39206" lon="2.40549">
        <ele>116.74</ele>
        <time>2017-07-02T07:24:19Z</time>
      </trkpt>
      <trkpt lat="48.39203" lon="2.40556">
        <ele>116.39</ele>
        <time>2017-07-02T07:24:21Z</time>
      </trkpt>
      <trkpt lat="48.392" lon="2.40562">
        <ele>116.53</ele>
        <time>2017-07-02T07:24:23Z</time>
      </trkpt>
      <trkpt lat="48.39196" lon="2.40566">
        <ele>116.86</ele>
        <time>2017-07-02T07:24:25Z</time>
      </trkpt>
      <trkpt lat="48.39193" lon="2.4058">
        <ele>117.18</ele>
        <time>2017-07-02T07:24:29Z</time>
      </trkpt>
      <trkpt lat="48.39195" lon="2.40589">
        <ele>117.37</ele>
        <time>2017-07-02T07:24:31Z</time>
      </trkpt>
      <trkpt lat="48.39191" lon="2.40598">
        <ele>118.43</ele>
        <time>2017-07-02T07:24:33Z</time>
      </trkpt>
      <trkpt lat="48.39183" lon="2.40602">
        <ele>119.6</ele>
        <time>2017-07-02T07:24:35Z</time>
      </trkpt>
      <trkpt lat="48.39178" lon="2.40615">
        <ele>120.89</ele>
        <time>2017-07-02T07:24:39Z</time>
      </trkpt>
      <trkpt lat="48.39174" lon="2.40626">
        <ele>121.87</ele>
        <time>2017-07-02T07:24:41Z</time>
      </trkpt>
      <trkpt lat="48.39166" lon="2.40637">
        <ele>123.87</ele>
        <time>2017-07-02T07:24:45Z</time>
      </trkpt>
      <trkpt lat="48.39159" lon="2.40637">
        <ele>123.64</ele>
        <time>2017-07-02T07:24:47Z</time>
      </trkpt>
      <trkpt lat="48.39159" lon="2.40647">
        <ele>123.2</ele>
        <time>2017-07-02T07:24:51Z</time>
      </trkpt>
      <trkpt lat="48.39156" lon="2.40656">
        <ele>122.63</ele>
        <time>2017-07-02T07:24:53Z</time>
      </trkpt>
      <trkpt lat="48.39156" lon="2.40666">
        <ele>122.03</ele>
        <time>2017-07-02T07:24:57Z</time>
      </trkpt>
      <trkpt lat="48.39161" lon="2.40672">
        <ele>121.54</ele>
        <time>2017-07-02T07:25:01Z</time>
      </trkpt>
      <trkpt lat="48.39169" lon="2.40678">
        <ele>120.49</ele>
        <time>2017-07-02T07:25:03Z</time>
      </trkpt>
      <trkpt lat="48.39177" lon="2.40681">
        <ele>118.85</ele>
        <time>2017-07-02T07:25:05Z</time>
      </trkpt>
      <trkpt lat="48.39184" lon="2.40682">
        <ele>117.57</ele>
        <time>2017-07-02T07:25:07Z</time>
      </trkpt>
      <trkpt lat="48.39187" lon="2.40687">
        <ele>116.65</ele>
        <time>2017-07-02T07:25:09Z</time>
      </trkpt>
      <trkpt lat="48.39192" lon="2.40677">
        <ele>116.69</ele>
        <time>2017-07-02T07:25:13Z</time>
      </trkpt>
      <trkpt lat="48.39194" lon="2.4067">
        <ele>116.82</ele>
        <time>2017-07-02T07:25:15Z</time>
      </trkpt>
      <trkpt lat="48.39198" lon="2.40662">
        <ele>116.28</ele>
        <time>2017-07-02T07:25:17Z</time>
      </trkpt>
      <trkpt lat="48.39202" lon="2.40652">
        <ele>115.61</ele>
        <time>2017-07-02T07:25:19Z</time>
      </trkpt>
      <trkpt lat="48.39207" lon="2.40638">
        <ele>114.89</ele>
        <time>2017-07-02T07:25:21Z</time>
      </trkpt>
      <trkpt lat="48.39214" lon="2.40626">
        <ele>113.6</ele>
        <time>2017-07-02T07:25:23Z</time>
      </trkpt>
      <trkpt lat="48.39221" lon="2.40613">
        <ele>112.2</ele>
        <time>2017-07-02T07:25:25Z</time>
      </trkpt>
      <trkpt lat="48.39225" lon="2.40604">
        <ele>112.22</ele>
        <time>2017-07-02T07:25:27Z</time>
      </trkpt>
      <trkpt lat="48.39235" lon="2.40587">
        <ele>112.34</ele>
        <time>2017-07-02T07:25:29Z</time>
      </trkpt>
      <trkpt lat="48.39241" lon="2.40576">
        <ele>112.03</ele>
        <time>2017-07-02T07:25:31Z</time>
      </trkpt>
      <trkpt lat="48.3925" lon="2.4056">
        <ele>111.03</ele>
        <time>2017-07-02T07:25:33Z</time>
      </trkpt>
      <trkpt lat="48.39257" lon="2.40551">
        <ele>109.01</ele>
        <time>2017-07-02T07:25:35Z</time>
      </trkpt>
      <trkpt lat="48.39264" lon="2.40538">
        <ele>107.87</ele>
        <time>2017-07-02T07:25:37Z</time>
      </trkpt>
      <trkpt lat="48.39271" lon="2.40525">
        <ele>107.81</ele>
        <time>2017-07-02T07:25:39Z</time>
      </trkpt>
      <trkpt lat="48.39282" lon="2.40495">
        <ele>106.23</ele>
        <time>2017-07-02T07:25:41Z</time>
      </trkpt>
      <trkpt lat="48.39289" lon="2.40472">
        <ele>104.82</ele>
        <time>2017-07-02T07:25:43Z</time>
      </trkpt>
      <trkpt lat="48.39294" lon="2.40457">
        <ele>103.37</ele>
        <time>2017-07-02T07:25:45Z</time>
      </trkpt>
      <trkpt lat="48.3929" lon="2.40436">
        <ele>102.67</ele>
        <time>2017-07-02T07:25:47Z</time>
      </trkpt>
      <trkpt lat="48.39285" lon="2.40427">
        <ele>102.95</ele>
        <time>2017-07-02T07:25:49Z</time>
      </trkpt>
      <trkpt lat="48.39285" lon="2.40413">
        <ele>101.74</ele>
        <time>2017-07-02T07:25:51Z</time>
      </trkpt>
      <trkpt lat="48.39281" lon="2.40393">
        <ele>100.56</ele>
        <time>2017-07-02T07:25:53Z</time>
      </trkpt>
      <trkpt lat="48.3928" lon="2.40381">
        <ele>99.68</ele>
        <time>2017-07-02T07:25:55Z</time>
      </trkpt>
      <trkpt lat="48.39274" lon="2.40374">
        <ele>100.18</ele>
        <time>2017-07-02T07:25:59Z</time>
      </trkpt>
      <trkpt lat="48.39274" lon="2.40381">
        <ele>101.08</ele>
        <time>2017-07-02T07:26:01Z</time>
      </trkpt>
      <trkpt lat="48.39279" lon="2.40374">
        <ele>99.1</ele>
        <time>2017-07-02T07:26:17Z</time>
      </trkpt>
      <trkpt lat="48.39285" lon="2.40364">
        <ele>96.5</ele>
        <time>2017-07-02T07:26:19Z</time>
      </trkpt>
      <trkpt lat="48.39292" lon="2.40355">
        <ele>94.24</ele>
        <time>2017-07-02T07:26:21Z</time>
      </trkpt>
      <trkpt lat="48.39298" lon="2.40349">
        <ele>92.54</ele>
        <time>2017-07-02T07:26:23Z</time>
      </trkpt>
      <trkpt lat="48.39302" lon="2.40344">
        <ele>91.37</ele>
        <time>2017-07-02T07:26:25Z</time>
      </trkpt>
      <trkpt lat="48.39306" lon="2.40339">
        <ele>90.06</ele>
        <time>2017-07-02T07:26:27Z</time>
      </trkpt>
      <trkpt lat="48.3931" lon="2.40335">
        <ele>89.07</ele>
        <time>2017-07-02T07:26:29Z</time>
      </trkpt>
      <trkpt lat="48.39315" lon="2.40333">
        <ele>87.86</ele>
        <time>2017-07-02T07:26:31Z</time>
      </trkpt>
      <trkpt lat="48.39322" lon="2.40337">
        <ele>86.73</ele>
        <time>2017-07-02T07:26:35Z</time>
      </trkpt>
      <trkpt lat="48.39328" lon="2.40343">
        <ele>85.82</ele>
        <time>2017-07-02T07:26:39Z</time>
      </trkpt>
      <trkpt lat="48.39334" lon="2.40343">
        <ele>84.5</ele>
        <time>2017-07-02T07:26:43Z</time>
      </trkpt>
      <trkpt lat="48.39331" lon="2.40349">
        <ele>85.55</ele>
        <time>2017-07-02T07:26:47Z</time>
      </trkpt>
      <trkpt lat="48.39336" lon="2.4035">
        <ele>84.47</ele>
        <time>2017-07-02T07:26:53Z</time>
      </trkpt>
      <trkpt lat="48.39341" lon="2.40351">
        <ele>83.51</ele>
        <time>2017-07-02T07:26:55Z</time>
      </trkpt>
      <trkpt lat="48.3935" lon="2.40356">
        <ele>81.66</ele>
        <time>2017-07-02T07:26:57Z</time>
      </trkpt>
      <trkpt lat="48.39359" lon="2.40363">
        <ele>79.67</ele>
        <time>2017-07-02T07:26:59Z</time>
      </trkpt>
      <trkpt lat="48.39375" lon="2.40374">
        <ele>78.95</ele>
        <time>2017-07-02T07:27:01Z</time>
      </trkpt>
      <trkpt lat="48.3938" lon="2.40383">
        <ele>79.09</ele>
        <time>2017-07-02T07:27:03Z</time>
      </trkpt>
      <trkpt lat="48.39388" lon="2.4039">
        <ele>79.17</ele>
        <time>2017-07-02T07:27:05Z</time>
      </trkpt>
      <trkpt lat="48.39394" lon="2.40395">
        <ele>79.38</ele>
        <time>2017-07-02T07:27:07Z</time>
      </trkpt>
      <trkpt lat="48.394" lon="2.40405">
        <ele>79.89</ele>
        <time>2017-07-02T07:27:11Z</time>
      </trkpt>
      <trkpt lat="48.39406" lon="2.40416">
        <ele>80.08</ele>
        <time>2017-07-02T07:27:13Z</time>
      </trkpt>
      <trkpt lat="48.3941" lon="2.40426">
        <ele>79.93</ele>
        <time>2017-07-02T07:27:17Z</time>
      </trkpt>
      <trkpt lat="48.39423" lon="2.40427">
        <ele>79.13</ele>
        <time>2017-07-02T07:27:19Z</time>
      </trkpt>
      <trkpt lat="48.39432" lon="2.40427">
        <ele>78.83</ele>
        <time>2017-07-02T07:27:21Z</time>
      </trkpt>
      <trkpt lat="48.39441" lon="2.40433">
        <ele>78.69</ele>
        <time>2017-07-02T07:27:23Z</time>
      </trkpt>
      <trkpt lat="48.39448" lon="2.40433">
        <ele>78.87</ele>
        <time>2017-07-02T07:27:25Z</time>
      </trkpt>
      <trkpt lat="48.39454" lon="2.40443">
        <ele>79.61</ele>
        <time>2017-07-02T07:27:29Z</time>
      </trkpt>
      <trkpt lat="48.39455" lon="2.40451">
        <ele>79.6</ele>
        <time>2017-07-02T07:27:31Z</time>
      </trkpt>
      <trkpt lat="48.39458" lon="2.40458">
        <ele>79.71</ele>
        <time>2017-07-02T07:27:33Z</time>
      </trkpt>
      <trkpt lat="48.3946" lon="2.40467">
        <ele>79.73</ele>
        <time>2017-07-02T07:27:37Z</time>
      </trkpt>
      <trkpt lat="48.39462" lon="2.40477">
        <ele>79.88</ele>
        <time>2017-07-02T07:27:39Z</time>
      </trkpt>
      <trkpt lat="48.39466" lon="2.40485">
        <ele>80.32</ele>
        <time>2017-07-02T07:27:43Z</time>
      </trkpt>
      <trkpt lat="48.39473" lon="2.40479">
        <ele>80.97</ele>
        <time>2017-07-02T07:27:47Z</time>
      </trkpt>
      <trkpt lat="48.39475" lon="2.40473">
        <ele>80.89</ele>
        <time>2017-07-02T07:27:49Z</time>
      </trkpt>
      <trkpt lat="48.39481" lon="2.40464">
        <ele>80.6</ele>
        <time>2017-07-02T07:27:53Z</time>
      </trkpt>
      <trkpt lat="48.39484" lon="2.40455">
        <ele>80.32</ele>
        <time>2017-07-02T07:27:55Z</time>
      </trkpt>
      <trkpt lat="48.39485" lon="2.40448">
        <ele>80.13</ele>
        <time>2017-07-02T07:27:57Z</time>
      </trkpt>
      <trkpt lat="48.3949" lon="2.4044">
        <ele>79.69</ele>
        <time>2017-07-02T07:27:59Z</time>
      </trkpt>
      <trkpt lat="48.39494" lon="2.40428">
        <ele>79.29</ele>
        <time>2017-07-02T07:28:01Z</time>
      </trkpt>
      <trkpt lat="48.39496" lon="2.40416">
        <ele>79.13</ele>
        <time>2017-07-02T07:28:03Z</time>
      </trkpt>
      <trkpt lat="48.39501" lon="2.40404">
        <ele>78.88</ele>
        <time>2017-07-02T07:28:05Z</time>
      </trkpt>
      <trkpt lat="48.39503" lon="2.40392">
        <ele>78.52</ele>
        <time>2017-07-02T07:28:07Z</time>
      </trkpt>
      <trkpt lat="48.39506" lon="2.40381">
        <ele>77.96</ele>
        <time>2017-07-02T07:28:09Z</time>
      </trkpt>
      <trkpt lat="48.39507" lon="2.40371">
        <ele>77.72</ele>
        <time>2017-07-02T07:28:11Z</time>
      </trkpt>
      <trkpt lat="48.39508" lon="2.40354">
        <ele>76.93</ele>
        <time>2017-07-02T07:28:13Z</time>
      </trkpt>
      <trkpt lat="48.39506" lon="2.40342">
        <ele>76.1</ele>
        <time>2017-07-02T07:28:15Z</time>
      </trkpt>
      <trkpt lat="48.39508" lon="2.40331">
        <ele>75.51</ele>
        <time>2017-07-02T07:28:17Z</time>
      </trkpt>
      <trkpt lat="48.39507" lon="2.40322">
        <ele>75.32</ele>
        <time>2017-07-02T07:28:19Z</time>
      </trkpt>
      <trkpt lat="48.39507" lon="2.4031">
        <ele>75.09</ele>
        <time>2017-07-02T07:28:21Z</time>
      </trkpt>
      <trkpt lat="48.39507" lon="2.40299">
        <ele>74.57</ele>
        <time>2017-07-02T07:28:23Z</time>
      </trkpt>
      <trkpt lat="48.39504" lon="2.4029">
        <ele>73.95</ele>
        <time>2017-07-02T07:28:25Z</time>
      </trkpt>
      <trkpt lat="48.39501" lon="2.40279">
        <ele>73.13</ele>
        <time>2017-07-02T07:28:27Z</time>
      </trkpt>
      <trkpt lat="48.39499" lon="2.40271">
        <ele>73.02</ele>
        <time>2017-07-02T07:28:29Z</time>
      </trkpt>
      <trkpt lat="48.39501" lon="2.4026">
        <ele>73.02</ele>
        <time>2017-07-02T07:28:31Z</time>
      </trkpt>
      <trkpt lat="48.39502" lon="2.40251">
        <ele>73</ele>
        <time>2017-07-02T07:28:33Z</time>
      </trkpt>
      <trkpt lat="48.395" lon="2.40245">
        <ele>72.83</ele>
        <time>2017-07-02T07:28:35Z</time>
      </trkpt>
      <trkpt lat="48.39497" lon="2.40239">
        <ele>72.64</ele>
        <time>2017-07-02T07:28:37Z</time>
      </trkpt>
      <trkpt lat="48.39497" lon="2.40229">
        <ele>72.32</ele>
        <time>2017-07-02T07:28:39Z</time>
      </trkpt>
      <trkpt lat="48.39499" lon="2.40218">
        <ele>72.02</ele>
        <time>2017-07-02T07:28:41Z</time>
      </trkpt>
      <trkpt lat="48.39507" lon="2.40205">
        <ele>71.7</ele>
        <time>2017-07-02T07:28:43Z</time>
      </trkpt>
      <trkpt lat="48.39512" lon="2.402">
        <ele>71.3</ele>
        <time>2017-07-02T07:28:45Z</time>
      </trkpt>
      <trkpt lat="48.39521" lon="2.402">
        <ele>70.82</ele>
        <time>2017-07-02T07:28:47Z</time>
      </trkpt>
      <trkpt lat="48.39527" lon="2.40198">
        <ele>70.32</ele>
        <time>2017-07-02T07:28:49Z</time>
      </trkpt>
      <trkpt lat="48.39534" lon="2.40199">
        <ele>69.64</ele>
        <time>2017-07-02T07:28:51Z</time>
      </trkpt>
      <trkpt lat="48.39542" lon="2.40199">
        <ele>68.85</ele>
        <time>2017-07-02T07:28:53Z</time>
      </trkpt>
      <trkpt lat="48.39552" lon="2.402">
        <ele>67.94</ele>
        <time>2017-07-02T07:28:55Z</time>
      </trkpt>
      <trkpt lat="48.39564" lon="2.40203">
        <ele>67.2</ele>
        <time>2017-07-02T07:28:57Z</time>
      </trkpt>
      <trkpt lat="48.39573" lon="2.40205">
        <ele>66.41</ele>
        <time>2017-07-02T07:28:59Z</time>
      </trkpt>
      <trkpt lat="48.39581" lon="2.40205">
        <ele>65.57</ele>
        <time>2017-07-02T07:29:01Z</time>
      </trkpt>
      <trkpt lat="48.39589" lon="2.40204">
        <ele>64.23</ele>
        <time>2017-07-02T07:29:03Z</time>
      </trkpt>
      <trkpt lat="48.39599" lon="2.40205">
        <ele>62.36</ele>
        <time>2017-07-02T07:29:05Z</time>
      </trkpt>
      <trkpt lat="48.39607" lon="2.40208">
        <ele>61.62</ele>
        <time>2017-07-02T07:29:07Z</time>
      </trkpt>
      <trkpt lat="48.39616" lon="2.40208">
        <ele>61.69</ele>
        <time>2017-07-02T07:29:09Z</time>
      </trkpt>
      <trkpt lat="48.39625" lon="2.40207">
        <ele>62.69</ele>
        <time>2017-07-02T07:29:11Z</time>
      </trkpt>
      <trkpt lat="48.39632" lon="2.40206">
        <ele>63.81</ele>
        <time>2017-07-02T07:29:13Z</time>
      </trkpt>
      <trkpt lat="48.39641" lon="2.40206">
        <ele>65.1</ele>
        <time>2017-07-02T07:29:15Z</time>
      </trkpt>
      <trkpt lat="48.3965" lon="2.40208">
        <ele>65.61</ele>
        <time>2017-07-02T07:29:17Z</time>
      </trkpt>
      <trkpt lat="48.3966" lon="2.4021">
        <ele>66.2</ele>
        <time>2017-07-02T07:29:19Z</time>
      </trkpt>
      <trkpt lat="48.39671" lon="2.40213">
        <ele>66.93</ele>
        <time>2017-07-02T07:29:21Z</time>
      </trkpt>
      <trkpt lat="48.39683" lon="2.40215">
        <ele>67.64</ele>
        <time>2017-07-02T07:29:23Z</time>
      </trkpt>
      <trkpt lat="48.39695" lon="2.40216">
        <ele>68.21</ele>
        <time>2017-07-02T07:29:25Z</time>
      </trkpt>
      <trkpt lat="48.39704" lon="2.40216">
        <ele>68.08</ele>
        <time>2017-07-02T07:29:27Z</time>
      </trkpt>
      <trkpt lat="48.39712" lon="2.40211">
        <ele>67.9</ele>
        <time>2017-07-02T07:29:29Z</time>
      </trkpt>
      <trkpt lat="48.3972" lon="2.40212">
        <ele>67.69</ele>
        <time>2017-07-02T07:29:31Z</time>
      </trkpt>
      <trkpt lat="48.3973" lon="2.40216">
        <ele>67.63</ele>
        <time>2017-07-02T07:29:33Z</time>
      </trkpt>
      <trkpt lat="48.39739" lon="2.4022">
        <ele>67.42</ele>
        <time>2017-07-02T07:29:35Z</time>
      </trkpt>
      <trkpt lat="48.39748" lon="2.40224">
        <ele>67.14</ele>
        <time>2017-07-02T07:29:37Z</time>
      </trkpt>
      <trkpt lat="48.39758" lon="2.40228">
        <ele>67.09</ele>
        <time>2017-07-02T07:29:39Z</time>
      </trkpt>
      <trkpt lat="48.39768" lon="2.40232">
        <ele>66.89</ele>
        <time>2017-07-02T07:29:41Z</time>
      </trkpt>
      <trkpt lat="48.39779" lon="2.40236">
        <ele>66.38</ele>
        <time>2017-07-02T07:29:43Z</time>
      </trkpt>
      <trkpt lat="48.3979" lon="2.40239">
        <ele>64.71</ele>
        <time>2017-07-02T07:29:45Z</time>
      </trkpt>
      <trkpt lat="48.39802" lon="2.40242">
        <ele>63.23</ele>
        <time>2017-07-02T07:29:47Z</time>
      </trkpt>
      <trkpt lat="48.39813" lon="2.40245">
        <ele>63.03</ele>
        <time>2017-07-02T07:29:49Z</time>
      </trkpt>
      <trkpt lat="48.39824" lon="2.40245">
        <ele>63.33</ele>
        <time>2017-07-02T07:29:51Z</time>
      </trkpt>
      <trkpt lat="48.39836" lon="2.40245">
        <ele>63.67</ele>
        <time>2017-07-02T07:29:53Z</time>
      </trkpt>
      <trkpt lat="48.39847" lon="2.40249">
        <ele>64.7</ele>
        <time>2017-07-02T07:29:55Z</time>
      </trkpt>
      <trkpt lat="48.39858" lon="2.40253">
        <ele>65.23</ele>
        <time>2017-07-02T07:29:57Z</time>
      </trkpt>
      <trkpt lat="48.39869" lon="2.40252">
        <ele>62.96</ele>
        <time>2017-07-02T07:29:59Z</time>
      </trkpt>
      <trkpt lat="48.39879" lon="2.40254">
        <ele>60.83</ele>
        <time>2017-07-02T07:30:01Z</time>
      </trkpt>
      <trkpt lat="48.39892" lon="2.40256">
        <ele>59</ele>
        <time>2017-07-02T07:30:03Z</time>
      </trkpt>
      <trkpt lat="48.39903" lon="2.40261">
        <ele>60.23</ele>
        <time>2017-07-02T07:30:05Z</time>
      </trkpt>
      <trkpt lat="48.39912" lon="2.40264">
        <ele>61.16</ele>
        <time>2017-07-02T07:30:07Z</time>
      </trkpt>
      <trkpt lat="48.39923" lon="2.40271">
        <ele>61.79</ele>
        <time>2017-07-02T07:30:09Z</time>
      </trkpt>
      <trkpt lat="48.39933" lon="2.40276">
        <ele>60.26</ele>
        <time>2017-07-02T07:30:11Z</time>
      </trkpt>
      <trkpt lat="48.39944" lon="2.40281">
        <ele>58.24</ele>
        <time>2017-07-02T07:30:13Z</time>
      </trkpt>
      <trkpt lat="48.39955" lon="2.40282">
        <ele>60.26</ele>
        <time>2017-07-02T07:30:15Z</time>
      </trkpt>
      <trkpt lat="48.39967" lon="2.40284">
        <ele>62.64</ele>
        <time>2017-07-02T07:30:17Z</time>
      </trkpt>
      <trkpt lat="48.39979" lon="2.40287">
        <ele>62.92</ele>
        <time>2017-07-02T07:30:19Z</time>
      </trkpt>
      <trkpt lat="48.3999" lon="2.4029">
        <ele>61.88</ele>
        <time>2017-07-02T07:30:21Z</time>
      </trkpt>
      <trkpt lat="48.4" lon="2.4029">
        <ele>60.5</ele>
        <time>2017-07-02T07:30:23Z</time>
      </trkpt>
      <trkpt lat="48.40011" lon="2.40291">
        <ele>61.32</ele>
        <time>2017-07-02T07:30:25Z</time>
      </trkpt>
      <trkpt lat="48.40023" lon="2.40294">
        <ele>61.95</ele>
        <time>2017-07-02T07:30:27Z</time>
      </trkpt>
      <trkpt lat="48.40034" lon="2.40297">
        <ele>61.85</ele>
        <time>2017-07-02T07:30:29Z</time>
      </trkpt>
      <trkpt lat="48.40046" lon="2.40307">
        <ele>61.35</ele>
        <time>2017-07-02T07:30:31Z</time>
      </trkpt>
      <trkpt lat="48.4005" lon="2.40317">
        <ele>61.21</ele>
        <time>2017-07-02T07:30:33Z</time>
      </trkpt>
      <trkpt lat="48.40057" lon="2.40333">
        <ele>61.21</ele>
        <time>2017-07-02T07:30:35Z</time>
      </trkpt>
      <trkpt lat="48.40058" lon="2.40347">
        <ele>62.43</ele>
        <time>2017-07-02T07:30:37Z</time>
      </trkpt>
      <trkpt lat="48.4006" lon="2.40361">
        <ele>63.95</ele>
        <time>2017-07-02T07:30:39Z</time>
      </trkpt>
      <trkpt lat="48.40063" lon="2.40372">
        <ele>65.23</ele>
        <time>2017-07-02T07:30:41Z</time>
      </trkpt>
      <trkpt lat="48.4007" lon="2.40385">
        <ele>66.88</ele>
        <time>2017-07-02T07:30:43Z</time>
      </trkpt>
      <trkpt lat="48.40075" lon="2.40395">
        <ele>67.59</ele>
        <time>2017-07-02T07:30:45Z</time>
      </trkpt>
      <trkpt lat="48.40081" lon="2.40407">
        <ele>67.53</ele>
        <time>2017-07-02T07:30:47Z</time>
      </trkpt>
      <trkpt lat="48.40089" lon="2.40411">
        <ele>68.24</ele>
        <time>2017-07-02T07:30:49Z</time>
      </trkpt>
      <trkpt lat="48.4009" lon="2.40429">
        <ele>67.13</ele>
        <time>2017-07-02T07:30:51Z</time>
      </trkpt>
      <trkpt lat="48.40094" lon="2.40442">
        <ele>66.73</ele>
        <time>2017-07-02T07:30:53Z</time>
      </trkpt>
      <trkpt lat="48.40094" lon="2.4046">
        <ele>64.22</ele>
        <time>2017-07-02T07:30:55Z</time>
      </trkpt>
      <trkpt lat="48.40097" lon="2.40472">
        <ele>62.53</ele>
        <time>2017-07-02T07:30:57Z</time>
      </trkpt>
      <trkpt lat="48.40102" lon="2.40484">
        <ele>62.52</ele>
        <time>2017-07-02T07:30:59Z</time>
      </trkpt>
      <trkpt lat="48.40103" lon="2.40498">
        <ele>62.43</ele>
        <time>2017-07-02T07:31:01Z</time>
      </trkpt>
      <trkpt lat="48.40107" lon="2.4051">
        <ele>62.4</ele>
        <time>2017-07-02T07:31:03Z</time>
      </trkpt>
      <trkpt lat="48.40112" lon="2.40522">
        <ele>62.4</ele>
        <time>2017-07-02T07:31:05Z</time>
      </trkpt>
      <trkpt lat="48.40118" lon="2.4053">
        <ele>63.42</ele>
        <time>2017-07-02T07:31:07Z</time>
      </trkpt>
      <trkpt lat="48.40123" lon="2.40538">
        <ele>64.93</ele>
        <time>2017-07-02T07:31:09Z</time>
      </trkpt>
      <trkpt lat="48.40126" lon="2.40553">
        <ele>66.39</ele>
        <time>2017-07-02T07:31:11Z</time>
      </trkpt>
      <trkpt lat="48.40129" lon="2.40565">
        <ele>67.83</ele>
        <time>2017-07-02T07:31:13Z</time>
      </trkpt>
      <trkpt lat="48.40136" lon="2.40575">
        <ele>69.66</ele>
        <time>2017-07-02T07:31:15Z</time>
      </trkpt>
      <trkpt lat="48.40143" lon="2.40585">
        <ele>70.87</ele>
        <time>2017-07-02T07:31:17Z</time>
      </trkpt>
      <trkpt lat="48.4015" lon="2.40596">
        <ele>70.78</ele>
        <time>2017-07-02T07:31:19Z</time>
      </trkpt>
      <trkpt lat="48.40158" lon="2.40606">
        <ele>70.87</ele>
        <time>2017-07-02T07:31:21Z</time>
      </trkpt>
      <trkpt lat="48.40163" lon="2.40615">
        <ele>70.67</ele>
        <time>2017-07-02T07:31:23Z</time>
      </trkpt>
      <trkpt lat="48.40173" lon="2.40623">
        <ele>69.16</ele>
        <time>2017-07-02T07:31:25Z</time>
      </trkpt>
      <trkpt lat="48.4018" lon="2.40635">
        <ele>67.39</ele>
        <time>2017-07-02T07:31:27Z</time>
      </trkpt>
      <trkpt lat="48.40189" lon="2.40641">
        <ele>66.52</ele>
        <time>2017-07-02T07:31:29Z</time>
      </trkpt>
      <trkpt lat="48.40196" lon="2.40653">
        <ele>67.21</ele>
        <time>2017-07-02T07:31:31Z</time>
      </trkpt>
      <trkpt lat="48.40203" lon="2.40665">
        <ele>69.19</ele>
        <time>2017-07-02T07:31:33Z</time>
      </trkpt>
      <trkpt lat="48.40211" lon="2.40672">
        <ele>70.17</ele>
        <time>2017-07-02T07:31:35Z</time>
      </trkpt>
      <trkpt lat="48.40216" lon="2.40677">
        <ele>70.54</ele>
        <time>2017-07-02T07:31:37Z</time>
      </trkpt>
      <trkpt lat="48.40219" lon="2.40689">
        <ele>70.11</ele>
        <time>2017-07-02T07:31:39Z</time>
      </trkpt>
      <trkpt lat="48.40224" lon="2.40699">
        <ele>70.08</ele>
        <time>2017-07-02T07:31:41Z</time>
      </trkpt>
      <trkpt lat="48.40233" lon="2.40707">
        <ele>70.54</ele>
        <time>2017-07-02T07:31:43Z</time>
      </trkpt>
      <trkpt lat="48.40238" lon="2.40718">
        <ele>71.03</ele>
        <time>2017-07-02T07:31:45Z</time>
      </trkpt>
      <trkpt lat="48.40244" lon="2.40728">
        <ele>71.35</ele>
        <time>2017-07-02T07:31:47Z</time>
      </trkpt>
      <trkpt lat="48.40251" lon="2.40738">
        <ele>71.36</ele>
        <time>2017-07-02T07:31:49Z</time>
      </trkpt>
      <trkpt lat="48.40259" lon="2.40748">
        <ele>70.72</ele>
        <time>2017-07-02T07:31:51Z</time>
      </trkpt>
      <trkpt lat="48.40265" lon="2.40757">
        <ele>70.23</ele>
        <time>2017-07-02T07:31:53Z</time>
      </trkpt>
      <trkpt lat="48.40269" lon="2.40765">
        <ele>69.97</ele>
        <time>2017-07-02T07:31:55Z</time>
      </trkpt>
      <trkpt lat="48.40274" lon="2.40773">
        <ele>69.91</ele>
        <time>2017-07-02T07:31:57Z</time>
      </trkpt>
      <trkpt lat="48.40285" lon="2.40785">
        <ele>70.24</ele>
        <time>2017-07-02T07:31:59Z</time>
      </trkpt>
      <trkpt lat="48.40293" lon="2.4079">
        <ele>70.43</ele>
        <time>2017-07-02T07:32:01Z</time>
      </trkpt>
      <trkpt lat="48.40302" lon="2.40797">
        <ele>70.7</ele>
        <time>2017-07-02T07:32:03Z</time>
      </trkpt>
      <trkpt lat="48.4031" lon="2.40804">
        <ele>70.51</ele>
        <time>2017-07-02T07:32:05Z</time>
      </trkpt>
      <trkpt lat="48.40318" lon="2.40812">
        <ele>69.8</ele>
        <time>2017-07-02T07:32:07Z</time>
      </trkpt>
      <trkpt lat="48.40325" lon="2.40821">
        <ele>69.26</ele>
        <time>2017-07-02T07:32:09Z</time>
      </trkpt>
      <trkpt lat="48.40332" lon="2.40829">
        <ele>68.94</ele>
        <time>2017-07-02T07:32:11Z</time>
      </trkpt>
      <trkpt lat="48.40343" lon="2.40837">
        <ele>69.82</ele>
        <time>2017-07-02T07:32:13Z</time>
      </trkpt>
      <trkpt lat="48.4035" lon="2.4084">
        <ele>70.43</ele>
        <time>2017-07-02T07:32:15Z</time>
      </trkpt>
      <trkpt lat="48.40356" lon="2.40841">
        <ele>70.91</ele>
        <time>2017-07-02T07:32:17Z</time>
      </trkpt>
      <trkpt lat="48.40361" lon="2.40845">
        <ele>71.42</ele>
        <time>2017-07-02T07:32:21Z</time>
      </trkpt>
      <trkpt lat="48.40366" lon="2.40849">
        <ele>71.36</ele>
        <time>2017-07-02T07:32:23Z</time>
      </trkpt>
      <trkpt lat="48.40374" lon="2.40859">
        <ele>71.04</ele>
        <time>2017-07-02T07:32:25Z</time>
      </trkpt>
      <trkpt lat="48.4038" lon="2.40865">
        <ele>70.36</ele>
        <time>2017-07-02T07:32:27Z</time>
      </trkpt>
      <trkpt lat="48.40387" lon="2.40867">
        <ele>69.88</ele>
        <time>2017-07-02T07:32:29Z</time>
      </trkpt>
      <trkpt lat="48.40397" lon="2.40872">
        <ele>69.88</ele>
        <time>2017-07-02T07:32:31Z</time>
      </trkpt>
      <trkpt lat="48.40405" lon="2.40879">
        <ele>69.96</ele>
        <time>2017-07-02T07:32:33Z</time>
      </trkpt>
      <trkpt lat="48.40414" lon="2.40894">
        <ele>70.06</ele>
        <time>2017-07-02T07:32:35Z</time>
      </trkpt>
      <trkpt lat="48.40422" lon="2.40902">
        <ele>70.47</ele>
        <time>2017-07-02T07:32:37Z</time>
      </trkpt>
      <trkpt lat="48.40429" lon="2.40914">
        <ele>70.9</ele>
        <time>2017-07-02T07:32:39Z</time>
      </trkpt>
      <trkpt lat="48.40435" lon="2.40924">
        <ele>70.74</ele>
        <time>2017-07-02T07:32:41Z</time>
      </trkpt>
      <trkpt lat="48.40443" lon="2.40934">
        <ele>69.87</ele>
        <time>2017-07-02T07:32:43Z</time>
      </trkpt>
      <trkpt lat="48.40448" lon="2.40947">
        <ele>69.33</ele>
        <time>2017-07-02T07:32:45Z</time>
      </trkpt>
      <trkpt lat="48.40452" lon="2.40954">
        <ele>69.91</ele>
        <time>2017-07-02T07:32:47Z</time>
      </trkpt>
      <trkpt lat="48.4046" lon="2.40972">
        <ele>71.08</ele>
        <time>2017-07-02T07:32:49Z</time>
      </trkpt>
      <trkpt lat="48.40463" lon="2.4098">
        <ele>71.35</ele>
        <time>2017-07-02T07:32:51Z</time>
      </trkpt>
      <trkpt lat="48.40468" lon="2.40991">
        <ele>71.33</ele>
        <time>2017-07-02T07:32:53Z</time>
      </trkpt>
      <trkpt lat="48.40473" lon="2.41002">
        <ele>71.15</ele>
        <time>2017-07-02T07:32:55Z</time>
      </trkpt>
      <trkpt lat="48.40475" lon="2.41009">
        <ele>71.54</ele>
        <time>2017-07-02T07:32:57Z</time>
      </trkpt>
      <trkpt lat="48.40478" lon="2.41028">
        <ele>72.44</ele>
        <time>2017-07-02T07:32:59Z</time>
      </trkpt>
      <trkpt lat="48.40483" lon="2.41045">
        <ele>72.9</ele>
        <time>2017-07-02T07:33:01Z</time>
      </trkpt>
      <trkpt lat="48.40487" lon="2.41061">
        <ele>72.89</ele>
        <time>2017-07-02T07:33:03Z</time>
      </trkpt>
      <trkpt lat="48.40491" lon="2.41074">
        <ele>72.55</ele>
        <time>2017-07-02T07:33:05Z</time>
      </trkpt>
      <trkpt lat="48.40496" lon="2.41084">
        <ele>72.12</ele>
        <time>2017-07-02T07:33:07Z</time>
      </trkpt>
      <trkpt lat="48.405" lon="2.41091">
        <ele>71.75</ele>
        <time>2017-07-02T07:33:09Z</time>
      </trkpt>
      <trkpt lat="48.40505" lon="2.41106">
        <ele>71.54</ele>
        <time>2017-07-02T07:33:11Z</time>
      </trkpt>
      <trkpt lat="48.40505" lon="2.41119">
        <ele>71.34</ele>
        <time>2017-07-02T07:33:13Z</time>
      </trkpt>
      <trkpt lat="48.40508" lon="2.41132">
        <ele>71.59</ele>
        <time>2017-07-02T07:33:15Z</time>
      </trkpt>
      <trkpt lat="48.40508" lon="2.41142">
        <ele>71.57</ele>
        <time>2017-07-02T07:33:17Z</time>
      </trkpt>
      <trkpt lat="48.40509" lon="2.41157">
        <ele>71.43</ele>
        <time>2017-07-02T07:33:19Z</time>
      </trkpt>
      <trkpt lat="48.40505" lon="2.41171">
        <ele>71.29</ele>
        <time>2017-07-02T07:33:21Z</time>
      </trkpt>
      <trkpt lat="48.40505" lon="2.41179">
        <ele>71.47</ele>
        <time>2017-07-02T07:33:23Z</time>
      </trkpt>
      <trkpt lat="48.40504" lon="2.41188">
        <ele>71.68</ele>
        <time>2017-07-02T07:33:25Z</time>
      </trkpt>
      <trkpt lat="48.405" lon="2.41196">
        <ele>72.1</ele>
        <time>2017-07-02T07:33:27Z</time>
      </trkpt>
      <trkpt lat="48.40497" lon="2.41205">
        <ele>72.86</ele>
        <time>2017-07-02T07:33:29Z</time>
      </trkpt>
      <trkpt lat="48.40495" lon="2.41216">
        <ele>73.52</ele>
        <time>2017-07-02T07:33:31Z</time>
      </trkpt>
      <trkpt lat="48.4049" lon="2.41225">
        <ele>74.39</ele>
        <time>2017-07-02T07:33:33Z</time>
      </trkpt>
      <trkpt lat="48.40486" lon="2.41237">
        <ele>74.68</ele>
        <time>2017-07-02T07:33:35Z</time>
      </trkpt>
      <trkpt lat="48.40482" lon="2.41244">
        <ele>75.3</ele>
        <time>2017-07-02T07:33:37Z</time>
      </trkpt>
      <trkpt lat="48.40475" lon="2.41254">
        <ele>76.34</ele>
        <time>2017-07-02T07:33:41Z</time>
      </trkpt>
      <trkpt lat="48.40471" lon="2.41263">
        <ele>76.36</ele>
        <time>2017-07-02T07:33:43Z</time>
      </trkpt>
      <trkpt lat="48.40463" lon="2.41273">
        <ele>77.32</ele>
        <time>2017-07-02T07:33:47Z</time>
      </trkpt>
      <trkpt lat="48.4046" lon="2.41285">
        <ele>77.44</ele>
        <time>2017-07-02T07:33:49Z</time>
      </trkpt>
      <trkpt lat="48.40455" lon="2.41293">
        <ele>78.47</ele>
        <time>2017-07-02T07:33:51Z</time>
      </trkpt>
      <trkpt lat="48.4045" lon="2.41299">
        <ele>79.16</ele>
        <time>2017-07-02T07:33:53Z</time>
      </trkpt>
      <trkpt lat="48.40446" lon="2.41304">
        <ele>79.78</ele>
        <time>2017-07-02T07:33:55Z</time>
      </trkpt>
      <trkpt lat="48.40442" lon="2.41311">
        <ele>80.21</ele>
        <time>2017-07-02T07:33:57Z</time>
      </trkpt>
      <trkpt lat="48.40441" lon="2.41318">
        <ele>80.19</ele>
        <time>2017-07-02T07:33:59Z</time>
      </trkpt>
      <trkpt lat="48.40441" lon="2.41331">
        <ele>79.83</ele>
        <time>2017-07-02T07:34:03Z</time>
      </trkpt>
      <trkpt lat="48.40435" lon="2.41338">
        <ele>81.11</ele>
        <time>2017-07-02T07:34:05Z</time>
      </trkpt>
      <trkpt lat="48.40436" lon="2.41354">
        <ele>80.43</ele>
        <time>2017-07-02T07:34:07Z</time>
      </trkpt>
      <trkpt lat="48.40434" lon="2.41365">
        <ele>80.41</ele>
        <time>2017-07-02T07:34:09Z</time>
      </trkpt>
      <trkpt lat="48.40434" lon="2.41373">
        <ele>80.08</ele>
        <time>2017-07-02T07:34:11Z</time>
      </trkpt>
      <trkpt lat="48.40434" lon="2.41382">
        <ele>79.38</ele>
        <time>2017-07-02T07:34:13Z</time>
      </trkpt>
      <trkpt lat="48.40437" lon="2.41394">
        <ele>77.92</ele>
        <time>2017-07-02T07:34:15Z</time>
      </trkpt>
      <trkpt lat="48.40435" lon="2.41401">
        <ele>78.07</ele>
        <time>2017-07-02T07:34:17Z</time>
      </trkpt>
      <trkpt lat="48.40436" lon="2.41409">
        <ele>77.44</ele>
        <time>2017-07-02T07:34:19Z</time>
      </trkpt>
      <trkpt lat="48.40435" lon="2.41417">
        <ele>77.37</ele>
        <time>2017-07-02T07:34:21Z</time>
      </trkpt>
      <trkpt lat="48.40434" lon="2.41426">
        <ele>77.97</ele>
        <time>2017-07-02T07:34:23Z</time>
      </trkpt>
      <trkpt lat="48.40433" lon="2.41433">
        <ele>78.46</ele>
        <time>2017-07-02T07:34:25Z</time>
      </trkpt>
      <trkpt lat="48.40432" lon="2.41441">
        <ele>79.03</ele>
        <time>2017-07-02T07:34:27Z</time>
      </trkpt>
      <trkpt lat="48.40429" lon="2.41451">
        <ele>80.19</ele>
        <time>2017-07-02T07:34:31Z</time>
      </trkpt>
      <trkpt lat="48.40427" lon="2.41464">
        <ele>81.65</ele>
        <time>2017-07-02T07:34:35Z</time>
      </trkpt>
      <trkpt lat="48.40425" lon="2.41475">
        <ele>82.46</ele>
        <time>2017-07-02T07:34:39Z</time>
      </trkpt>
      <trkpt lat="48.40424" lon="2.41482">
        <ele>82.57</ele>
        <time>2017-07-02T07:34:41Z</time>
      </trkpt>
      <trkpt lat="48.40419" lon="2.4149">
        <ele>83.62</ele>
        <time>2017-07-02T07:34:43Z</time>
      </trkpt>
      <trkpt lat="48.40419" lon="2.41502">
        <ele>83.57</ele>
        <time>2017-07-02T07:34:47Z</time>
      </trkpt>
      <trkpt lat="48.40415" lon="2.4151">
        <ele>84.91</ele>
        <time>2017-07-02T07:34:51Z</time>
      </trkpt>
      <trkpt lat="48.40414" lon="2.41523">
        <ele>85.51</ele>
        <time>2017-07-02T07:34:55Z</time>
      </trkpt>
      <trkpt lat="48.40413" lon="2.41531">
        <ele>86.01</ele>
        <time>2017-07-02T07:34:59Z</time>
      </trkpt>
      <trkpt lat="48.40413" lon="2.41544">
        <ele>86.48</ele>
        <time>2017-07-02T07:35:03Z</time>
      </trkpt>
      <trkpt lat="48.40414" lon="2.41551">
        <ele>86.48</ele>
        <time>2017-07-02T07:35:09Z</time>
      </trkpt>
      <trkpt lat="48.40413" lon="2.41559">
        <ele>86.73</ele>
        <time>2017-07-02T07:35:11Z</time>
      </trkpt>
      <trkpt lat="48.40413" lon="2.41572">
        <ele>86.73</ele>
        <time>2017-07-02T07:35:15Z</time>
      </trkpt>
      <trkpt lat="48.4041" lon="2.41578">
        <ele>87.37</ele>
        <time>2017-07-02T07:35:17Z</time>
      </trkpt>
      <trkpt lat="48.40409" lon="2.41585">
        <ele>87.62</ele>
        <time>2017-07-02T07:35:19Z</time>
      </trkpt>
      <trkpt lat="48.40411" lon="2.41594">
        <ele>87.55</ele>
        <time>2017-07-02T07:35:23Z</time>
      </trkpt>
      <trkpt lat="48.40411" lon="2.41605">
        <ele>87.91</ele>
        <time>2017-07-02T07:35:27Z</time>
      </trkpt>
      <trkpt lat="48.4041" lon="2.41615">
        <ele>88.57</ele>
        <time>2017-07-02T07:35:35Z</time>
      </trkpt>
      <trkpt lat="48.4041" lon="2.41627">
        <ele>89.55</ele>
        <time>2017-07-02T07:35:39Z</time>
      </trkpt>
      <trkpt lat="48.40406" lon="2.41633">
        <ele>90.96</ele>
        <time>2017-07-02T07:35:43Z</time>
      </trkpt>
      <trkpt lat="48.40406" lon="2.41642">
        <ele>91.78</ele>
        <time>2017-07-02T07:35:47Z</time>
      </trkpt>
      <trkpt lat="48.40406" lon="2.41649">
        <ele>92.44</ele>
        <time>2017-07-02T07:35:49Z</time>
      </trkpt>
      <trkpt lat="48.40405" lon="2.41658">
        <ele>93.51</ele>
        <time>2017-07-02T07:35:53Z</time>
      </trkpt>
      <trkpt lat="48.40404" lon="2.41668">
        <ele>94.66</ele>
        <time>2017-07-02T07:35:57Z</time>
      </trkpt>
      <trkpt lat="48.40405" lon="2.41675">
        <ele>94.89</ele>
        <time>2017-07-02T07:36:01Z</time>
      </trkpt>
      <trkpt lat="48.40405" lon="2.41686">
        <ele>95.93</ele>
        <time>2017-07-02T07:36:05Z</time>
      </trkpt>
      <trkpt lat="48.40404" lon="2.41693">
        <ele>97.05</ele>
        <time>2017-07-02T07:36:09Z</time>
      </trkpt>
      <trkpt lat="48.40403" lon="2.417">
        <ele>97.91</ele>
        <time>2017-07-02T07:36:13Z</time>
      </trkpt>
      <trkpt lat="48.40402" lon="2.41708">
        <ele>98.93</ele>
        <time>2017-07-02T07:36:17Z</time>
      </trkpt>
      <trkpt lat="48.40396" lon="2.41716">
        <ele>101.76</ele>
        <time>2017-07-02T07:36:21Z</time>
      </trkpt>
      <trkpt lat="48.40394" lon="2.41722">
        <ele>103.05</ele>
        <time>2017-07-02T07:36:25Z</time>
      </trkpt>
      <trkpt lat="48.40393" lon="2.4173">
        <ele>104.15</ele>
        <time>2017-07-02T07:36:45Z</time>
      </trkpt>
      <trkpt lat="48.40392" lon="2.41738">
        <ele>104.89</ele>
        <time>2017-07-02T07:36:51Z</time>
      </trkpt>
      <trkpt lat="48.40387" lon="2.41746">
        <ele>107.06</ele>
        <time>2017-07-02T07:36:55Z</time>
      </trkpt>
      <trkpt lat="48.40387" lon="2.41754">
        <ele>107.57</ele>
        <time>2017-07-02T07:37:03Z</time>
      </trkpt>
      <trkpt lat="48.40385" lon="2.41763">
        <ele>108.3</ele>
        <time>2017-07-02T07:37:15Z</time>
      </trkpt>
      <trkpt lat="48.40383" lon="2.4177">
        <ele>108.76</ele>
        <time>2017-07-02T07:37:19Z</time>
      </trkpt>
      <trkpt lat="48.40381" lon="2.4178">
        <ele>109.54</ele>
        <time>2017-07-02T07:37:39Z</time>
      </trkpt>
      <trkpt lat="48.40381" lon="2.41787">
        <ele>110.32</ele>
        <time>2017-07-02T07:37:43Z</time>
      </trkpt>
      <trkpt lat="48.40381" lon="2.41795">
        <ele>111.1</ele>
        <time>2017-07-02T07:37:49Z</time>
      </trkpt>
      <trkpt lat="48.40379" lon="2.41802">
        <ele>112.05</ele>
        <time>2017-07-02T07:37:53Z</time>
      </trkpt>
      <trkpt lat="48.40379" lon="2.41809">
        <ele>113.08</ele>
        <time>2017-07-02T07:38:17Z</time>
      </trkpt>
      <trkpt lat="48.40376" lon="2.41818">
        <ele>114.84</ele>
        <time>2017-07-02T07:38:35Z</time>
      </trkpt>
      <trkpt lat="48.40374" lon="2.41825">
        <ele>116.36</ele>
        <time>2017-07-02T07:38:41Z</time>
      </trkpt>
      <trkpt lat="48.40373" lon="2.41832">
        <ele>117.74</ele>
        <time>2017-07-02T07:38:53Z</time>
      </trkpt>
      <trkpt lat="48.4037" lon="2.41839">
        <ele>119.39</ele>
        <time>2017-07-02T07:39:03Z</time>
      </trkpt>
      <trkpt lat="48.40365" lon="2.41839">
        <ele>120.3</ele>
        <time>2017-07-02T07:39:25Z</time>
      </trkpt>
      <trkpt lat="48.40363" lon="2.41829">
        <ele>118.9</ele>
        <time>2017-07-02T07:39:31Z</time>
      </trkpt>
      <trkpt lat="48.40362" lon="2.41818">
        <ele>116.95</ele>
        <time>2017-07-02T07:39:35Z</time>
      </trkpt>
      <trkpt lat="48.4036" lon="2.41811">
        <ele>116.32</ele>
        <time>2017-07-02T07:39:37Z</time>
      </trkpt>
      <trkpt lat="48.40357" lon="2.41803">
        <ele>116.15</ele>
        <time>2017-07-02T07:39:39Z</time>
      </trkpt>
      <trkpt lat="48.40354" lon="2.41794">
        <ele>116.84</ele>
        <time>2017-07-02T07:39:41Z</time>
      </trkpt>
      <trkpt lat="48.4035" lon="2.41786">
        <ele>117.6</ele>
        <time>2017-07-02T07:39:43Z</time>
      </trkpt>
      <trkpt lat="48.40346" lon="2.41779">
        <ele>118.86</ele>
        <time>2017-07-02T07:39:45Z</time>
      </trkpt>
      <trkpt lat="48.40343" lon="2.41773">
        <ele>120.06</ele>
        <time>2017-07-02T07:39:47Z</time>
      </trkpt>
      <trkpt lat="48.4034" lon="2.41765">
        <ele>120.87</ele>
        <time>2017-07-02T07:39:49Z</time>
      </trkpt>
      <trkpt lat="48.40339" lon="2.41757">
        <ele>121.15</ele>
        <time>2017-07-02T07:39:51Z</time>
      </trkpt>
      <trkpt lat="48.40339" lon="2.41748">
        <ele>120.95</ele>
        <time>2017-07-02T07:39:53Z</time>
      </trkpt>
      <trkpt lat="48.40339" lon="2.41738">
        <ele>120.36</ele>
        <time>2017-07-02T07:39:55Z</time>
      </trkpt>
      <trkpt lat="48.40339" lon="2.41729">
        <ele>119.67</ele>
        <time>2017-07-02T07:39:57Z</time>
      </trkpt>
      <trkpt lat="48.40338" lon="2.41719">
        <ele>119.12</ele>
        <time>2017-07-02T07:39:59Z</time>
      </trkpt>
      <trkpt lat="48.40336" lon="2.4171">
        <ele>119.08</ele>
        <time>2017-07-02T07:40:01Z</time>
      </trkpt>
      <trkpt lat="48.40332" lon="2.41702">
        <ele>119.76</ele>
        <time>2017-07-02T07:40:03Z</time>
      </trkpt>
      <trkpt lat="48.40328" lon="2.41695">
        <ele>120.45</ele>
        <time>2017-07-02T07:40:05Z</time>
      </trkpt>
      <trkpt lat="48.40325" lon="2.41687">
        <ele>120.49</ele>
        <time>2017-07-02T07:40:07Z</time>
      </trkpt>
      <trkpt lat="48.40324" lon="2.41677">
        <ele>119.76</ele>
        <time>2017-07-02T07:40:09Z</time>
      </trkpt>
      <trkpt lat="48.40325" lon="2.41667">
        <ele>118.76</ele>
        <time>2017-07-02T07:40:11Z</time>
      </trkpt>
      <trkpt lat="48.40326" lon="2.41657">
        <ele>118.09</ele>
        <time>2017-07-02T07:40:13Z</time>
      </trkpt>
      <trkpt lat="48.40324" lon="2.41648">
        <ele>117.83</ele>
        <time>2017-07-02T07:40:15Z</time>
      </trkpt>
      <trkpt lat="48.4032" lon="2.41639">
        <ele>118.26</ele>
        <time>2017-07-02T07:40:17Z</time>
      </trkpt>
      <trkpt lat="48.40315" lon="2.41631">
        <ele>119.53</ele>
        <time>2017-07-02T07:40:19Z</time>
      </trkpt>
      <trkpt lat="48.4031" lon="2.41623">
        <ele>121.07</ele>
        <time>2017-07-02T07:40:21Z</time>
      </trkpt>
      <trkpt lat="48.40306" lon="2.41613">
        <ele>122.76</ele>
        <time>2017-07-02T07:40:23Z</time>
      </trkpt>
      <trkpt lat="48.40303" lon="2.41603">
        <ele>123.4</ele>
        <time>2017-07-02T07:40:25Z</time>
      </trkpt>
      <trkpt lat="48.40299" lon="2.41591">
        <ele>123.72</ele>
        <time>2017-07-02T07:40:27Z</time>
      </trkpt>
      <trkpt lat="48.4029" lon="2.41565">
        <ele>123.34</ele>
        <time>2017-07-02T07:40:29Z</time>
      </trkpt>
      <trkpt lat="48.40282" lon="2.41553">
        <ele>123.44</ele>
        <time>2017-07-02T07:40:31Z</time>
      </trkpt>
      <trkpt lat="48.40279" lon="2.41541">
        <ele>123.29</ele>
        <time>2017-07-02T07:40:33Z</time>
      </trkpt>
      <trkpt lat="48.40277" lon="2.41531">
        <ele>123.2</ele>
        <time>2017-07-02T07:40:35Z</time>
      </trkpt>
      <trkpt lat="48.40275" lon="2.41521">
        <ele>122.95</ele>
        <time>2017-07-02T07:40:37Z</time>
      </trkpt>
      <trkpt lat="48.40272" lon="2.41506">
        <ele>122.64</ele>
        <time>2017-07-02T07:40:39Z</time>
      </trkpt>
      <trkpt lat="48.40267" lon="2.41493">
        <ele>122.59</ele>
        <time>2017-07-02T07:40:41Z</time>
      </trkpt>
      <trkpt lat="48.40264" lon="2.4148">
        <ele>122.65</ele>
        <time>2017-07-02T07:40:43Z</time>
      </trkpt>
      <trkpt lat="48.40271" lon="2.41464">
        <ele>121.1</ele>
        <time>2017-07-02T07:40:45Z</time>
      </trkpt>
      <trkpt lat="48.40271" lon="2.4145">
        <ele>120.18</ele>
        <time>2017-07-02T07:40:47Z</time>
      </trkpt>
      <trkpt lat="48.40267" lon="2.4144">
        <ele>119.86</ele>
        <time>2017-07-02T07:40:49Z</time>
      </trkpt>
      <trkpt lat="48.40262" lon="2.41431">
        <ele>119.96</ele>
        <time>2017-07-02T07:40:51Z</time>
      </trkpt>
      <trkpt lat="48.40256" lon="2.41422">
        <ele>120.44</ele>
        <time>2017-07-02T07:40:53Z</time>
      </trkpt>
      <trkpt lat="48.40251" lon="2.41411">
        <ele>120.69</ele>
        <time>2017-07-02T07:40:55Z</time>
      </trkpt>
      <trkpt lat="48.40243" lon="2.41402">
        <ele>121.09</ele>
        <time>2017-07-02T07:40:57Z</time>
      </trkpt>
      <trkpt lat="48.40239" lon="2.41387">
        <ele>121.24</ele>
        <time>2017-07-02T07:40:59Z</time>
      </trkpt>
      <trkpt lat="48.40238" lon="2.41373">
        <ele>122.19</ele>
        <time>2017-07-02T07:41:01Z</time>
      </trkpt>
      <trkpt lat="48.40237" lon="2.4136">
        <ele>122.98</ele>
        <time>2017-07-02T07:41:03Z</time>
      </trkpt>
      <trkpt lat="48.40231" lon="2.41346">
        <ele>123.69</ele>
        <time>2017-07-02T07:41:05Z</time>
      </trkpt>
      <trkpt lat="48.40227" lon="2.41338">
        <ele>124.3</ele>
        <time>2017-07-02T07:41:07Z</time>
      </trkpt>
      <trkpt lat="48.40224" lon="2.41327">
        <ele>124.55</ele>
        <time>2017-07-02T07:41:09Z</time>
      </trkpt>
      <trkpt lat="48.40218" lon="2.41317">
        <ele>123.66</ele>
        <time>2017-07-02T07:41:11Z</time>
      </trkpt>
      <trkpt lat="48.40209" lon="2.41318">
        <ele>122.11</ele>
        <time>2017-07-02T07:41:13Z</time>
      </trkpt>
      <trkpt lat="48.402" lon="2.4132">
        <ele>120.49</ele>
        <time>2017-07-02T07:41:15Z</time>
      </trkpt>
      <trkpt lat="48.40192" lon="2.41317">
        <ele>119.07</ele>
        <time>2017-07-02T07:41:17Z</time>
      </trkpt>
      <trkpt lat="48.40178" lon="2.41316">
        <ele>117.29</ele>
        <time>2017-07-02T07:41:19Z</time>
      </trkpt>
      <trkpt lat="48.40171" lon="2.41315">
        <ele>116.25</ele>
        <time>2017-07-02T07:41:21Z</time>
      </trkpt>
      <trkpt lat="48.40163" lon="2.41325">
        <ele>116.01</ele>
        <time>2017-07-02T07:41:23Z</time>
      </trkpt>
      <trkpt lat="48.40157" lon="2.41338">
        <ele>117.07</ele>
        <time>2017-07-02T07:41:25Z</time>
      </trkpt>
      <trkpt lat="48.4015" lon="2.41351">
        <ele>119.04</ele>
        <time>2017-07-02T07:41:27Z</time>
      </trkpt>
      <trkpt lat="48.40142" lon="2.41361">
        <ele>120.11</ele>
        <time>2017-07-02T07:41:29Z</time>
      </trkpt>
      <trkpt lat="48.40134" lon="2.4137">
        <ele>119.87</ele>
        <time>2017-07-02T07:41:31Z</time>
      </trkpt>
      <trkpt lat="48.40127" lon="2.41378">
        <ele>119.28</ele>
        <time>2017-07-02T07:41:33Z</time>
      </trkpt>
      <trkpt lat="48.40118" lon="2.41386">
        <ele>118.67</ele>
        <time>2017-07-02T07:41:35Z</time>
      </trkpt>
      <trkpt lat="48.40109" lon="2.41389">
        <ele>117.99</ele>
        <time>2017-07-02T07:41:37Z</time>
      </trkpt>
      <trkpt lat="48.40103" lon="2.41384">
        <ele>117.63</ele>
        <time>2017-07-02T07:41:39Z</time>
      </trkpt>
      <trkpt lat="48.40098" lon="2.41377">
        <ele>117.33</ele>
        <time>2017-07-02T07:41:41Z</time>
      </trkpt>
      <trkpt lat="48.40089" lon="2.41368">
        <ele>117.55</ele>
        <time>2017-07-02T07:41:43Z</time>
      </trkpt>
      <trkpt lat="48.40086" lon="2.41358">
        <ele>117.57</ele>
        <time>2017-07-02T07:41:45Z</time>
      </trkpt>
      <trkpt lat="48.40087" lon="2.41345">
        <ele>116.91</ele>
        <time>2017-07-02T07:41:47Z</time>
      </trkpt>
      <trkpt lat="48.40084" lon="2.41333">
        <ele>116.88</ele>
        <time>2017-07-02T07:41:49Z</time>
      </trkpt>
      <trkpt lat="48.40076" lon="2.41324">
        <ele>117.43</ele>
        <time>2017-07-02T07:41:51Z</time>
      </trkpt>
      <trkpt lat="48.4007" lon="2.41315">
        <ele>117.55</ele>
        <time>2017-07-02T07:41:53Z</time>
      </trkpt>
      <trkpt lat="48.40064" lon="2.41308">
        <ele>117.92</ele>
        <time>2017-07-02T07:41:55Z</time>
      </trkpt>
      <trkpt lat="48.40054" lon="2.41301">
        <ele>118.7</ele>
        <time>2017-07-02T07:41:57Z</time>
      </trkpt>
      <trkpt lat="48.40053" lon="2.41289">
        <ele>118.24</ele>
        <time>2017-07-02T07:41:59Z</time>
      </trkpt>
      <trkpt lat="48.4005" lon="2.41278">
        <ele>117.64</ele>
        <time>2017-07-02T07:42:01Z</time>
      </trkpt>
      <trkpt lat="48.40047" lon="2.41269">
        <ele>116.38</ele>
        <time>2017-07-02T07:42:03Z</time>
      </trkpt>
      <trkpt lat="48.40042" lon="2.41259">
        <ele>115.28</ele>
        <time>2017-07-02T07:42:05Z</time>
      </trkpt>
      <trkpt lat="48.40034" lon="2.41257">
        <ele>115.2</ele>
        <time>2017-07-02T07:42:07Z</time>
      </trkpt>
      <trkpt lat="48.40029" lon="2.41264">
        <ele>115.52</ele>
        <time>2017-07-02T07:42:09Z</time>
      </trkpt>
      <trkpt lat="48.40027" lon="2.41275">
        <ele>115.77</ele>
        <time>2017-07-02T07:42:11Z</time>
      </trkpt>
      <trkpt lat="48.40028" lon="2.41295">
        <ele>116.67</ele>
        <time>2017-07-02T07:42:13Z</time>
      </trkpt>
      <trkpt lat="48.40027" lon="2.4131">
        <ele>117.14</ele>
        <time>2017-07-02T07:42:15Z</time>
      </trkpt>
      <trkpt lat="48.40024" lon="2.41325">
        <ele>117.44</ele>
        <time>2017-07-02T07:42:17Z</time>
      </trkpt>
      <trkpt lat="48.40024" lon="2.4134">
        <ele>118.3</ele>
        <time>2017-07-02T07:42:19Z</time>
      </trkpt>
      <trkpt lat="48.4002" lon="2.41356">
        <ele>118.29</ele>
        <time>2017-07-02T07:42:21Z</time>
      </trkpt>
      <trkpt lat="48.40017" lon="2.41367">
        <ele>117.29</ele>
        <time>2017-07-02T07:42:23Z</time>
      </trkpt>
      <trkpt lat="48.40015" lon="2.41378">
        <ele>116.49</ele>
        <time>2017-07-02T07:42:25Z</time>
      </trkpt>
      <trkpt lat="48.40019" lon="2.41391">
        <ele>117.08</ele>
        <time>2017-07-02T07:42:27Z</time>
      </trkpt>
      <trkpt lat="48.40019" lon="2.41406">
        <ele>117</ele>
        <time>2017-07-02T07:42:29Z</time>
      </trkpt>
      <trkpt lat="48.40017" lon="2.41418">
        <ele>116.68</ele>
        <time>2017-07-02T07:42:31Z</time>
      </trkpt>
      <trkpt lat="48.40014" lon="2.41433">
        <ele>116.1</ele>
        <time>2017-07-02T07:42:33Z</time>
      </trkpt>
      <trkpt lat="48.40011" lon="2.41445">
        <ele>115.72</ele>
        <time>2017-07-02T07:42:35Z</time>
      </trkpt>
      <trkpt lat="48.4001" lon="2.41455">
        <ele>116.17</ele>
        <time>2017-07-02T07:42:37Z</time>
      </trkpt>
      <trkpt lat="48.40011" lon="2.4147">
        <ele>117.42</ele>
        <time>2017-07-02T07:42:39Z</time>
      </trkpt>
      <trkpt lat="48.40009" lon="2.41481">
        <ele>118.1</ele>
        <time>2017-07-02T07:42:41Z</time>
      </trkpt>
      <trkpt lat="48.40008" lon="2.41493">
        <ele>118.9</ele>
        <time>2017-07-02T07:42:43Z</time>
      </trkpt>
      <trkpt lat="48.40006" lon="2.41505">
        <ele>119.82</ele>
        <time>2017-07-02T07:42:45Z</time>
      </trkpt>
      <trkpt lat="48.40005" lon="2.41515">
        <ele>120.43</ele>
        <time>2017-07-02T07:42:47Z</time>
      </trkpt>
      <trkpt lat="48.40003" lon="2.41525">
        <ele>120.99</ele>
        <time>2017-07-02T07:42:49Z</time>
      </trkpt>
      <trkpt lat="48.4" lon="2.41536">
        <ele>120.97</ele>
        <time>2017-07-02T07:42:51Z</time>
      </trkpt>
      <trkpt lat="48.39999" lon="2.41549">
        <ele>120.88</ele>
        <time>2017-07-02T07:42:53Z</time>
      </trkpt>
      <trkpt lat="48.39998" lon="2.4156">
        <ele>121.1</ele>
        <time>2017-07-02T07:42:55Z</time>
      </trkpt>
      <trkpt lat="48.39992" lon="2.41566">
        <ele>121.03</ele>
        <time>2017-07-02T07:43:03Z</time>
      </trkpt>
      <trkpt lat="48.39994" lon="2.41572">
        <ele>121.6</ele>
        <time>2017-07-02T07:43:07Z</time>
      </trkpt>
      <trkpt lat="48.39991" lon="2.41566">
        <ele>120.97</ele>
        <time>2017-07-02T07:43:09Z</time>
      </trkpt>
      <trkpt lat="48.39989" lon="2.41559">
        <ele>120.42</ele>
        <time>2017-07-02T07:43:15Z</time>
      </trkpt>
      <trkpt lat="48.39993" lon="2.41563">
        <ele>120.96</ele>
        <time>2017-07-02T07:44:17Z</time>
      </trkpt>
      <trkpt lat="48.39993" lon="2.41575">
        <ele>121.72</ele>
        <time>2017-07-02T07:44:21Z</time>
      </trkpt>
      <trkpt lat="48.39992" lon="2.41582">
        <ele>122.03</ele>
        <time>2017-07-02T07:44:23Z</time>
      </trkpt>
      <trkpt lat="48.39991" lon="2.41592">
        <ele>122.12</ele>
        <time>2017-07-02T07:44:25Z</time>
      </trkpt>
      <trkpt lat="48.39993" lon="2.416">
        <ele>122.49</ele>
        <time>2017-07-02T07:44:27Z</time>
      </trkpt>
      <trkpt lat="48.39993" lon="2.41609">
        <ele>122.65</ele>
        <time>2017-07-02T07:44:29Z</time>
      </trkpt>
      <trkpt lat="48.39993" lon="2.4162">
        <ele>122.44</ele>
        <time>2017-07-02T07:44:31Z</time>
      </trkpt>
      <trkpt lat="48.39991" lon="2.41629">
        <ele>121.95</ele>
        <time>2017-07-02T07:44:33Z</time>
      </trkpt>
      <trkpt lat="48.39989" lon="2.41639">
        <ele>121.48</ele>
        <time>2017-07-02T07:44:35Z</time>
      </trkpt>
      <trkpt lat="48.39988" lon="2.4165">
        <ele>121.73</ele>
        <time>2017-07-02T07:44:37Z</time>
      </trkpt>
      <trkpt lat="48.39988" lon="2.41661">
        <ele>122.12</ele>
        <time>2017-07-02T07:44:39Z</time>
      </trkpt>
      <trkpt lat="48.3999" lon="2.41673">
        <ele>122.75</ele>
        <time>2017-07-02T07:44:41Z</time>
      </trkpt>
      <trkpt lat="48.39991" lon="2.41684">
        <ele>123.14</ele>
        <time>2017-07-02T07:44:43Z</time>
      </trkpt>
      <trkpt lat="48.3999" lon="2.41697">
        <ele>123.3</ele>
        <time>2017-07-02T07:44:45Z</time>
      </trkpt>
      <trkpt lat="48.39991" lon="2.41707">
        <ele>123.81</ele>
        <time>2017-07-02T07:44:47Z</time>
      </trkpt>
      <trkpt lat="48.39994" lon="2.41713">
        <ele>124.51</ele>
        <time>2017-07-02T07:44:49Z</time>
      </trkpt>
      <trkpt lat="48.39997" lon="2.41717">
        <ele>125.32</ele>
        <time>2017-07-02T07:44:51Z</time>
      </trkpt>
      <trkpt lat="48.40009" lon="2.41718">
        <ele>128.26</ele>
        <time>2017-07-02T07:44:53Z</time>
      </trkpt>
      <trkpt lat="48.40019" lon="2.41717">
        <ele>130.71</ele>
        <time>2017-07-02T07:44:55Z</time>
      </trkpt>
      <trkpt lat="48.40028" lon="2.41715">
        <ele>133.03</ele>
        <time>2017-07-02T07:44:57Z</time>
      </trkpt>
      <trkpt lat="48.40036" lon="2.41715">
        <ele>133.53</ele>
        <time>2017-07-02T07:44:59Z</time>
      </trkpt>
      <trkpt lat="48.40046" lon="2.41714">
        <ele>134.09</ele>
        <time>2017-07-02T07:45:01Z</time>
      </trkpt>
      <trkpt lat="48.40055" lon="2.41711">
        <ele>134.56</ele>
        <time>2017-07-02T07:45:03Z</time>
      </trkpt>
      <trkpt lat="48.40064" lon="2.41709">
        <ele>133.56</ele>
        <time>2017-07-02T07:45:05Z</time>
      </trkpt>
      <trkpt lat="48.40074" lon="2.41711">
        <ele>132.49</ele>
        <time>2017-07-02T07:45:07Z</time>
      </trkpt>
      <trkpt lat="48.40086" lon="2.41709">
        <ele>131.19</ele>
        <time>2017-07-02T07:45:09Z</time>
      </trkpt>
      <trkpt lat="48.40097" lon="2.4171">
        <ele>130</ele>
        <time>2017-07-02T07:45:11Z</time>
      </trkpt>
      <trkpt lat="48.40115" lon="2.41706">
        <ele>128.44</ele>
        <time>2017-07-02T07:45:13Z</time>
      </trkpt>
      <trkpt lat="48.40125" lon="2.41708">
        <ele>128.5</ele>
        <time>2017-07-02T07:45:15Z</time>
      </trkpt>
      <trkpt lat="48.40138" lon="2.41708">
        <ele>128.51</ele>
        <time>2017-07-02T07:45:17Z</time>
      </trkpt>
      <trkpt lat="48.40146" lon="2.41708">
        <ele>129.77</ele>
        <time>2017-07-02T07:45:19Z</time>
      </trkpt>
      <trkpt lat="48.40157" lon="2.41705">
        <ele>131.86</ele>
        <time>2017-07-02T07:45:21Z</time>
      </trkpt>
      <trkpt lat="48.40171" lon="2.41702">
        <ele>133.62</ele>
        <time>2017-07-02T07:45:23Z</time>
      </trkpt>
      <trkpt lat="48.40184" lon="2.41702">
        <ele>133.38</ele>
        <time>2017-07-02T07:45:25Z</time>
      </trkpt>
      <trkpt lat="48.40197" lon="2.41702">
        <ele>132.84</ele>
        <time>2017-07-02T07:45:27Z</time>
      </trkpt>
      <trkpt lat="48.40211" lon="2.41701">
        <ele>130.5</ele>
        <time>2017-07-02T07:45:29Z</time>
      </trkpt>
      <trkpt lat="48.40225" lon="2.41699">
        <ele>128.2</ele>
        <time>2017-07-02T07:45:31Z</time>
      </trkpt>
      <trkpt lat="48.40238" lon="2.41702">
        <ele>127.69</ele>
        <time>2017-07-02T07:45:33Z</time>
      </trkpt>
      <trkpt lat="48.40246" lon="2.41708">
        <ele>127.25</ele>
        <time>2017-07-02T07:45:35Z</time>
      </trkpt>
      <trkpt lat="48.4025" lon="2.41728">
        <ele>127.24</ele>
        <time>2017-07-02T07:45:37Z</time>
      </trkpt>
      <trkpt lat="48.40258" lon="2.41741">
        <ele>128.03</ele>
        <time>2017-07-02T07:45:39Z</time>
      </trkpt>
      <trkpt lat="48.40263" lon="2.41754">
        <ele>128.54</ele>
        <time>2017-07-02T07:45:41Z</time>
      </trkpt>
      <trkpt lat="48.40269" lon="2.41767">
        <ele>129.08</ele>
        <time>2017-07-02T07:45:43Z</time>
      </trkpt>
      <trkpt lat="48.40274" lon="2.41783">
        <ele>129.64</ele>
        <time>2017-07-02T07:45:45Z</time>
      </trkpt>
      <trkpt lat="48.40281" lon="2.41798">
        <ele>129.19</ele>
        <time>2017-07-02T07:45:47Z</time>
      </trkpt>
      <trkpt lat="48.40284" lon="2.41809">
        <ele>128.74</ele>
        <time>2017-07-02T07:45:49Z</time>
      </trkpt>
      <trkpt lat="48.40289" lon="2.41825">
        <ele>128.31</ele>
        <time>2017-07-02T07:45:51Z</time>
      </trkpt>
      <trkpt lat="48.40296" lon="2.41844">
        <ele>127.58</ele>
        <time>2017-07-02T07:45:53Z</time>
      </trkpt>
      <trkpt lat="48.40304" lon="2.41858">
        <ele>127.08</ele>
        <time>2017-07-02T07:45:55Z</time>
      </trkpt>
      <trkpt lat="48.40313" lon="2.41871">
        <ele>127.54</ele>
        <time>2017-07-02T07:45:57Z</time>
      </trkpt>
      <trkpt lat="48.40316" lon="2.41887">
        <ele>128.14</ele>
        <time>2017-07-02T07:45:59Z</time>
      </trkpt>
      <trkpt lat="48.40323" lon="2.41899">
        <ele>127.72</ele>
        <time>2017-07-02T07:46:01Z</time>
      </trkpt>
      <trkpt lat="48.40333" lon="2.41909">
        <ele>127</ele>
        <time>2017-07-02T07:46:03Z</time>
      </trkpt>
      <trkpt lat="48.40338" lon="2.41918">
        <ele>127.13</ele>
        <time>2017-07-02T07:46:05Z</time>
      </trkpt>
      <trkpt lat="48.40335" lon="2.41932">
        <ele>126.58</ele>
        <time>2017-07-02T07:46:07Z</time>
      </trkpt>
      <trkpt lat="48.40335" lon="2.41948">
        <ele>126.2</ele>
        <time>2017-07-02T07:46:09Z</time>
      </trkpt>
      <trkpt lat="48.40336" lon="2.41962">
        <ele>126.09</ele>
        <time>2017-07-02T07:46:11Z</time>
      </trkpt>
      <trkpt lat="48.40336" lon="2.41975">
        <ele>125.92</ele>
        <time>2017-07-02T07:46:13Z</time>
      </trkpt>
      <trkpt lat="48.40343" lon="2.41991">
        <ele>125.8</ele>
        <time>2017-07-02T07:46:15Z</time>
      </trkpt>
      <trkpt lat="48.40349" lon="2.42007">
        <ele>126.35</ele>
        <time>2017-07-02T07:46:17Z</time>
      </trkpt>
      <trkpt lat="48.40352" lon="2.42023">
        <ele>126.88</ele>
        <time>2017-07-02T07:46:19Z</time>
      </trkpt>
      <trkpt lat="48.40355" lon="2.42039">
        <ele>126.92</ele>
        <time>2017-07-02T07:46:21Z</time>
      </trkpt>
      <trkpt lat="48.40361" lon="2.42056">
        <ele>126.99</ele>
        <time>2017-07-02T07:46:23Z</time>
      </trkpt>
      <trkpt lat="48.40363" lon="2.42069">
        <ele>128.24</ele>
        <time>2017-07-02T07:46:25Z</time>
      </trkpt>
      <trkpt lat="48.40366" lon="2.42084">
        <ele>129.59</ele>
        <time>2017-07-02T07:46:27Z</time>
      </trkpt>
      <trkpt lat="48.40371" lon="2.42099">
        <ele>130.42</ele>
        <time>2017-07-02T07:46:29Z</time>
      </trkpt>
      <trkpt lat="48.40372" lon="2.42114">
        <ele>130.61</ele>
        <time>2017-07-02T07:46:31Z</time>
      </trkpt>
      <trkpt lat="48.40376" lon="2.42128">
        <ele>130.13</ele>
        <time>2017-07-02T07:46:33Z</time>
      </trkpt>
      <trkpt lat="48.40379" lon="2.42144">
        <ele>129.47</ele>
        <time>2017-07-02T07:46:35Z</time>
      </trkpt>
      <trkpt lat="48.40378" lon="2.4216">
        <ele>128.84</ele>
        <time>2017-07-02T07:46:37Z</time>
      </trkpt>
      <trkpt lat="48.40373" lon="2.42165">
        <ele>128.46</ele>
        <time>2017-07-02T07:46:39Z</time>
      </trkpt>
      <trkpt lat="48.40369" lon="2.42171">
        <ele>128.29</ele>
        <time>2017-07-02T07:46:41Z</time>
      </trkpt>
      <trkpt lat="48.40363" lon="2.42175">
        <ele>128.05</ele>
        <time>2017-07-02T07:46:43Z</time>
      </trkpt>
      <trkpt lat="48.40354" lon="2.42179">
        <ele>128</ele>
        <time>2017-07-02T07:46:45Z</time>
      </trkpt>
      <trkpt lat="48.40347" lon="2.42181">
        <ele>128</ele>
        <time>2017-07-02T07:46:47Z</time>
      </trkpt>
      <trkpt lat="48.40339" lon="2.42183">
        <ele>128</ele>
        <time>2017-07-02T07:46:49Z</time>
      </trkpt>
      <trkpt lat="48.40335" lon="2.42186">
        <ele>128</ele>
        <time>2017-07-02T07:46:51Z</time>
      </trkpt>
      <trkpt lat="48.40327" lon="2.42187">
        <ele>128.21</ele>
        <time>2017-07-02T07:46:53Z</time>
      </trkpt>
      <trkpt lat="48.40322" lon="2.42183">
        <ele>128.42</ele>
        <time>2017-07-02T07:46:55Z</time>
      </trkpt>
      <trkpt lat="48.40317" lon="2.42179">
        <ele>128.59</ele>
        <time>2017-07-02T07:46:57Z</time>
      </trkpt>
      <trkpt lat="48.4031" lon="2.42175">
        <ele>128.83</ele>
        <time>2017-07-02T07:46:59Z</time>
      </trkpt>
      <trkpt lat="48.40302" lon="2.42171">
        <ele>129</ele>
        <time>2017-07-02T07:47:01Z</time>
      </trkpt>
      <trkpt lat="48.40293" lon="2.42171">
        <ele>129</ele>
        <time>2017-07-02T07:47:03Z</time>
      </trkpt>
      <trkpt lat="48.40281" lon="2.42174">
        <ele>129</ele>
        <time>2017-07-02T07:47:06Z</time>
      </trkpt>
      <trkpt lat="48.40273" lon="2.42176">
        <ele>129.63</ele>
        <time>2017-07-02T07:47:08Z</time>
      </trkpt>
      <trkpt lat="48.40264" lon="2.42179">
        <ele>130.72</ele>
        <time>2017-07-02T07:47:10Z</time>
      </trkpt>
      <trkpt lat="48.40251" lon="2.42186">
        <ele>132.22</ele>
        <time>2017-07-02T07:47:12Z</time>
      </trkpt>
      <trkpt lat="48.40245" lon="2.42187">
        <ele>132.42</ele>
        <time>2017-07-02T07:47:14Z</time>
      </trkpt>
      <trkpt lat="48.40238" lon="2.42184">
        <ele>132.64</ele>
        <time>2017-07-02T07:47:16Z</time>
      </trkpt>
      <trkpt lat="48.40233" lon="2.42183">
        <ele>132.78</ele>
        <time>2017-07-02T07:47:18Z</time>
      </trkpt>
      <trkpt lat="48.40222" lon="2.42193">
        <ele>133</ele>
        <time>2017-07-02T07:47:20Z</time>
      </trkpt>
      <trkpt lat="48.40215" lon="2.42204">
        <ele>133</ele>
        <time>2017-07-02T07:47:22Z</time>
      </trkpt>
      <trkpt lat="48.40209" lon="2.42218">
        <ele>133</ele>
        <time>2017-07-02T07:47:24Z</time>
      </trkpt>
      <trkpt lat="48.40202" lon="2.42231">
        <ele>132.91</ele>
        <time>2017-07-02T07:47:26Z</time>
      </trkpt>
      <trkpt lat="48.40199" lon="2.42247">
        <ele>132.86</ele>
        <time>2017-07-02T07:47:28Z</time>
      </trkpt>
      <trkpt lat="48.40197" lon="2.4226">
        <ele>132.95</ele>
        <time>2017-07-02T07:47:30Z</time>
      </trkpt>
      <trkpt lat="48.402" lon="2.4227">
        <ele>132.95</ele>
        <time>2017-07-02T07:47:32Z</time>
      </trkpt>
      <trkpt lat="48.40203" lon="2.42282">
        <ele>133.09</ele>
        <time>2017-07-02T07:47:34Z</time>
      </trkpt>
      <trkpt lat="48.40207" lon="2.4229">
        <ele>133.38</ele>
        <time>2017-07-02T07:47:36Z</time>
      </trkpt>
      <trkpt lat="48.4021" lon="2.42299">
        <ele>133.85</ele>
        <time>2017-07-02T07:47:38Z</time>
      </trkpt>
      <trkpt lat="48.40217" lon="2.42317">
        <ele>135.52</ele>
        <time>2017-07-02T07:47:40Z</time>
      </trkpt>
      <trkpt lat="48.4022" lon="2.4233">
        <ele>136.65</ele>
        <time>2017-07-02T07:47:42Z</time>
      </trkpt>
      <trkpt lat="48.40223" lon="2.42343">
        <ele>135.5</ele>
        <time>2017-07-02T07:47:44Z</time>
      </trkpt>
      <trkpt lat="48.40226" lon="2.42354">
        <ele>133.79</ele>
        <time>2017-07-02T07:47:46Z</time>
      </trkpt>
      <trkpt lat="48.40232" lon="2.42363">
        <ele>132.51</ele>
        <time>2017-07-02T07:47:48Z</time>
      </trkpt>
      <trkpt lat="48.4024" lon="2.42368">
        <ele>131.96</ele>
        <time>2017-07-02T07:47:50Z</time>
      </trkpt>
      <trkpt lat="48.40248" lon="2.42366">
        <ele>131.88</ele>
        <time>2017-07-02T07:47:52Z</time>
      </trkpt>
      <trkpt lat="48.40258" lon="2.42364">
        <ele>131.61</ele>
        <time>2017-07-02T07:47:54Z</time>
      </trkpt>
      <trkpt lat="48.40269" lon="2.42364">
        <ele>131.23</ele>
        <time>2017-07-02T07:47:56Z</time>
      </trkpt>
      <trkpt lat="48.40278" lon="2.42364">
        <ele>130.9</ele>
        <time>2017-07-02T07:47:58Z</time>
      </trkpt>
      <trkpt lat="48.4029" lon="2.42361">
        <ele>131.44</ele>
        <time>2017-07-02T07:48:00Z</time>
      </trkpt>
      <trkpt lat="48.40301" lon="2.42363">
        <ele>131.76</ele>
        <time>2017-07-02T07:48:02Z</time>
      </trkpt>
      <trkpt lat="48.40313" lon="2.42364">
        <ele>131.44</ele>
        <time>2017-07-02T07:48:04Z</time>
      </trkpt>
      <trkpt lat="48.40323" lon="2.42363">
        <ele>130.79</ele>
        <time>2017-07-02T07:48:06Z</time>
      </trkpt>
      <trkpt lat="48.40336" lon="2.42367">
        <ele>130.12</ele>
        <time>2017-07-02T07:48:08Z</time>
      </trkpt>
      <trkpt lat="48.4035" lon="2.42365">
        <ele>129.8</ele>
        <time>2017-07-02T07:48:10Z</time>
      </trkpt>
      <trkpt lat="48.40358" lon="2.42362">
        <ele>129.96</ele>
        <time>2017-07-02T07:48:12Z</time>
      </trkpt>
      <trkpt lat="48.40368" lon="2.42362">
        <ele>128.64</ele>
        <time>2017-07-02T07:48:14Z</time>
      </trkpt>
      <trkpt lat="48.40378" lon="2.42358">
        <ele>127.13</ele>
        <time>2017-07-02T07:48:16Z</time>
      </trkpt>
      <trkpt lat="48.40389" lon="2.42356">
        <ele>125.14</ele>
        <time>2017-07-02T07:48:18Z</time>
      </trkpt>
      <trkpt lat="48.40399" lon="2.42353">
        <ele>123.49</ele>
        <time>2017-07-02T07:48:20Z</time>
      </trkpt>
      <trkpt lat="48.40401" lon="2.42373">
        <ele>121.17</ele>
        <time>2017-07-02T07:48:22Z</time>
      </trkpt>
      <trkpt lat="48.40401" lon="2.42383">
        <ele>119.65</ele>
        <time>2017-07-02T07:48:24Z</time>
      </trkpt>
      <trkpt lat="48.40402" lon="2.42391">
        <ele>118.4</ele>
        <time>2017-07-02T07:48:26Z</time>
      </trkpt>
      <trkpt lat="48.40405" lon="2.42398">
        <ele>116.57</ele>
        <time>2017-07-02T07:48:28Z</time>
      </trkpt>
      <trkpt lat="48.40411" lon="2.42396">
        <ele>115.86</ele>
        <time>2017-07-02T07:48:30Z</time>
      </trkpt>
      <trkpt lat="48.40419" lon="2.42391">
        <ele>115.69</ele>
        <time>2017-07-02T07:48:32Z</time>
      </trkpt>
      <trkpt lat="48.40427" lon="2.42389">
        <ele>116.03</ele>
        <time>2017-07-02T07:48:34Z</time>
      </trkpt>
      <trkpt lat="48.40436" lon="2.4239">
        <ele>115.95</ele>
        <time>2017-07-02T07:48:36Z</time>
      </trkpt>
      <trkpt lat="48.40445" lon="2.42395">
        <ele>116.01</ele>
        <time>2017-07-02T07:48:38Z</time>
      </trkpt>
      <trkpt lat="48.40451" lon="2.42403">
        <ele>117.09</ele>
        <time>2017-07-02T07:48:40Z</time>
      </trkpt>
      <trkpt lat="48.40457" lon="2.42415">
        <ele>118.17</ele>
        <time>2017-07-02T07:48:42Z</time>
      </trkpt>
      <trkpt lat="48.40462" lon="2.42427">
        <ele>119.16</ele>
        <time>2017-07-02T07:48:44Z</time>
      </trkpt>
      <trkpt lat="48.40468" lon="2.42438">
        <ele>120.21</ele>
        <time>2017-07-02T07:48:46Z</time>
      </trkpt>
      <trkpt lat="48.40476" lon="2.42448">
        <ele>121.31</ele>
        <time>2017-07-02T07:48:48Z</time>
      </trkpt>
      <trkpt lat="48.40484" lon="2.42458">
        <ele>122.02</ele>
        <time>2017-07-02T07:48:50Z</time>
      </trkpt>
      <trkpt lat="48.40497" lon="2.42461">
        <ele>123.6</ele>
        <time>2017-07-02T07:48:52Z</time>
      </trkpt>
      <trkpt lat="48.40505" lon="2.42466">
        <ele>124.62</ele>
        <time>2017-07-02T07:48:54Z</time>
      </trkpt>
      <trkpt lat="48.40511" lon="2.42474">
        <ele>125.17</ele>
        <time>2017-07-02T07:48:56Z</time>
      </trkpt>
      <trkpt lat="48.40518" lon="2.42487">
        <ele>125.29</ele>
        <time>2017-07-02T07:48:58Z</time>
      </trkpt>
      <trkpt lat="48.40524" lon="2.42504">
        <ele>124.56</ele>
        <time>2017-07-02T07:49:00Z</time>
      </trkpt>
      <trkpt lat="48.40531" lon="2.42517">
        <ele>123.93</ele>
        <time>2017-07-02T07:49:02Z</time>
      </trkpt>
      <trkpt lat="48.40539" lon="2.42522">
        <ele>124.05</ele>
        <time>2017-07-02T07:49:04Z</time>
      </trkpt>
      <trkpt lat="48.40549" lon="2.42522">
        <ele>124.63</ele>
        <time>2017-07-02T07:49:06Z</time>
      </trkpt>
      <trkpt lat="48.40557" lon="2.42527">
        <ele>124.95</ele>
        <time>2017-07-02T07:49:08Z</time>
      </trkpt>
      <trkpt lat="48.40568" lon="2.42532">
        <ele>124.19</ele>
        <time>2017-07-02T07:49:10Z</time>
      </trkpt>
      <trkpt lat="48.40579" lon="2.42538">
        <ele>123.62</ele>
        <time>2017-07-02T07:49:12Z</time>
      </trkpt>
      <trkpt lat="48.40588" lon="2.42546">
        <ele>123.81</ele>
        <time>2017-07-02T07:49:14Z</time>
      </trkpt>
      <trkpt lat="48.40596" lon="2.42558">
        <ele>124.25</ele>
        <time>2017-07-02T07:49:16Z</time>
      </trkpt>
      <trkpt lat="48.40603" lon="2.42567">
        <ele>124.74</ele>
        <time>2017-07-02T07:49:18Z</time>
      </trkpt>
      <trkpt lat="48.40609" lon="2.42579">
        <ele>124.88</ele>
        <time>2017-07-02T07:49:20Z</time>
      </trkpt>
      <trkpt lat="48.40615" lon="2.42589">
        <ele>124.75</ele>
        <time>2017-07-02T07:49:22Z</time>
      </trkpt>
      <trkpt lat="48.40619" lon="2.42603">
        <ele>124.46</ele>
        <time>2017-07-02T07:49:24Z</time>
      </trkpt>
      <trkpt lat="48.40623" lon="2.42614">
        <ele>124.15</ele>
        <time>2017-07-02T07:49:26Z</time>
      </trkpt>
      <trkpt lat="48.40632" lon="2.42622">
        <ele>123.47</ele>
        <time>2017-07-02T07:49:28Z</time>
      </trkpt>
      <trkpt lat="48.40643" lon="2.42632">
        <ele>122.56</ele>
        <time>2017-07-02T07:49:30Z</time>
      </trkpt>
      <trkpt lat="48.40652" lon="2.42646">
        <ele>121.59</ele>
        <time>2017-07-02T07:49:32Z</time>
      </trkpt>
      <trkpt lat="48.40659" lon="2.4266">
        <ele>121.17</ele>
        <time>2017-07-02T07:49:34Z</time>
      </trkpt>
      <trkpt lat="48.40666" lon="2.42669">
        <ele>120.79</ele>
        <time>2017-07-02T07:49:36Z</time>
      </trkpt>
      <trkpt lat="48.40671" lon="2.42674">
        <ele>119.84</ele>
        <time>2017-07-02T07:49:38Z</time>
      </trkpt>
      <trkpt lat="48.40675" lon="2.42679">
        <ele>119.21</ele>
        <time>2017-07-02T07:49:40Z</time>
      </trkpt>
      <trkpt lat="48.4067" lon="2.42688">
        <ele>118.65</ele>
        <time>2017-07-02T07:49:42Z</time>
      </trkpt>
      <trkpt lat="48.40663" lon="2.427">
        <ele>117.98</ele>
        <time>2017-07-02T07:49:44Z</time>
      </trkpt>
      <trkpt lat="48.40657" lon="2.42714">
        <ele>117.51</ele>
        <time>2017-07-02T07:49:46Z</time>
      </trkpt>
      <trkpt lat="48.40649" lon="2.42723">
        <ele>116.97</ele>
        <time>2017-07-02T07:49:48Z</time>
      </trkpt>
      <trkpt lat="48.40641" lon="2.42732">
        <ele>116.35</ele>
        <time>2017-07-02T07:49:50Z</time>
      </trkpt>
      <trkpt lat="48.40633" lon="2.42748">
        <ele>114.27</ele>
        <time>2017-07-02T07:49:52Z</time>
      </trkpt>
      <trkpt lat="48.4062" lon="2.42759">
        <ele>112.07</ele>
        <time>2017-07-02T07:49:54Z</time>
      </trkpt>
      <trkpt lat="48.40608" lon="2.42772">
        <ele>110.17</ele>
        <time>2017-07-02T07:49:56Z</time>
      </trkpt>
      <trkpt lat="48.406" lon="2.42785">
        <ele>109.49</ele>
        <time>2017-07-02T07:49:58Z</time>
      </trkpt>
      <trkpt lat="48.40596" lon="2.42799">
        <ele>109.03</ele>
        <time>2017-07-02T07:50:00Z</time>
      </trkpt>
      <trkpt lat="48.40595" lon="2.42808">
        <ele>108.36</ele>
        <time>2017-07-02T07:50:02Z</time>
      </trkpt>
      <trkpt lat="48.40598" lon="2.42817">
        <ele>106.95</ele>
        <time>2017-07-02T07:50:04Z</time>
      </trkpt>
      <trkpt lat="48.40607" lon="2.42814">
        <ele>108.3</ele>
        <time>2017-07-02T07:50:06Z</time>
      </trkpt>
      <trkpt lat="48.40614" lon="2.42817">
        <ele>108.05</ele>
        <time>2017-07-02T07:50:08Z</time>
      </trkpt>
      <trkpt lat="48.40623" lon="2.42819">
        <ele>107.94</ele>
        <time>2017-07-02T07:50:10Z</time>
      </trkpt>
      <trkpt lat="48.4063" lon="2.4282">
        <ele>108.02</ele>
        <time>2017-07-02T07:50:12Z</time>
      </trkpt>
      <trkpt lat="48.40637" lon="2.42822">
        <ele>107.89</ele>
        <time>2017-07-02T07:50:14Z</time>
      </trkpt>
      <trkpt lat="48.40645" lon="2.42827">
        <ele>108.29</ele>
        <time>2017-07-02T07:50:16Z</time>
      </trkpt>
      <trkpt lat="48.40651" lon="2.42831">
        <ele>108.81</ele>
        <time>2017-07-02T07:50:18Z</time>
      </trkpt>
      <trkpt lat="48.40657" lon="2.42837">
        <ele>109.53</ele>
        <time>2017-07-02T07:50:20Z</time>
      </trkpt>
      <trkpt lat="48.40664" lon="2.42839">
        <ele>110.49</ele>
        <time>2017-07-02T07:50:22Z</time>
      </trkpt>
      <trkpt lat="48.40672" lon="2.42846">
        <ele>110.84</ele>
        <time>2017-07-02T07:50:24Z</time>
      </trkpt>
      <trkpt lat="48.40681" lon="2.42852">
        <ele>111.63</ele>
        <time>2017-07-02T07:50:26Z</time>
      </trkpt>
      <trkpt lat="48.40686" lon="2.42857">
        <ele>111.53</ele>
        <time>2017-07-02T07:50:28Z</time>
      </trkpt>
      <trkpt lat="48.40691" lon="2.42861">
        <ele>111.39</ele>
        <time>2017-07-02T07:50:30Z</time>
      </trkpt>
      <trkpt lat="48.40697" lon="2.42868">
        <ele>111.54</ele>
        <time>2017-07-02T07:50:32Z</time>
      </trkpt>
      <trkpt lat="48.40702" lon="2.42875">
        <ele>111.32</ele>
        <time>2017-07-02T07:50:34Z</time>
      </trkpt>
      <trkpt lat="48.40709" lon="2.42882">
        <ele>111.3</ele>
        <time>2017-07-02T07:50:36Z</time>
      </trkpt>
      <trkpt lat="48.40713" lon="2.42888">
        <ele>111.17</ele>
        <time>2017-07-02T07:50:38Z</time>
      </trkpt>
      <trkpt lat="48.40718" lon="2.42895">
        <ele>111.52</ele>
        <time>2017-07-02T07:50:40Z</time>
      </trkpt>
      <trkpt lat="48.4072" lon="2.42904">
        <ele>111.73</ele>
        <time>2017-07-02T07:50:42Z</time>
      </trkpt>
      <trkpt lat="48.40721" lon="2.42913">
        <ele>111.87</ele>
        <time>2017-07-02T07:50:44Z</time>
      </trkpt>
      <trkpt lat="48.40725" lon="2.42928">
        <ele>112.18</ele>
        <time>2017-07-02T07:50:46Z</time>
      </trkpt>
      <trkpt lat="48.40726" lon="2.4294">
        <ele>112.3</ele>
        <time>2017-07-02T07:50:48Z</time>
      </trkpt>
      <trkpt lat="48.40729" lon="2.42948">
        <ele>112.02</ele>
        <time>2017-07-02T07:50:50Z</time>
      </trkpt>
      <trkpt lat="48.40731" lon="2.42957">
        <ele>111.28</ele>
        <time>2017-07-02T07:50:52Z</time>
      </trkpt>
      <trkpt lat="48.40735" lon="2.42963">
        <ele>111.18</ele>
        <time>2017-07-02T07:50:54Z</time>
      </trkpt>
      <trkpt lat="48.4074" lon="2.42969">
        <ele>111.5</ele>
        <time>2017-07-02T07:50:56Z</time>
      </trkpt>
      <trkpt lat="48.40745" lon="2.42977">
        <ele>111.58</ele>
        <time>2017-07-02T07:50:58Z</time>
      </trkpt>
      <trkpt lat="48.40748" lon="2.42989">
        <ele>111.21</ele>
        <time>2017-07-02T07:51:00Z</time>
      </trkpt>
      <trkpt lat="48.40752" lon="2.42996">
        <ele>111.81</ele>
        <time>2017-07-02T07:51:02Z</time>
      </trkpt>
      <trkpt lat="48.40756" lon="2.43002">
        <ele>112.35</ele>
        <time>2017-07-02T07:51:04Z</time>
      </trkpt>
      <trkpt lat="48.4076" lon="2.43009">
        <ele>112.35</ele>
        <time>2017-07-02T07:51:06Z</time>
      </trkpt>
      <trkpt lat="48.40766" lon="2.43016">
        <ele>112.78</ele>
        <time>2017-07-02T07:51:08Z</time>
      </trkpt>
      <trkpt lat="48.4077" lon="2.43022">
        <ele>113.27</ele>
        <time>2017-07-02T07:51:10Z</time>
      </trkpt>
      <trkpt lat="48.40775" lon="2.43028">
        <ele>113.89</ele>
        <time>2017-07-02T07:51:12Z</time>
      </trkpt>
      <trkpt lat="48.4078" lon="2.43034">
        <ele>114.35</ele>
        <time>2017-07-02T07:51:14Z</time>
      </trkpt>
      <trkpt lat="48.40786" lon="2.43038">
        <ele>114.65</ele>
        <time>2017-07-02T07:51:16Z</time>
      </trkpt>
      <trkpt lat="48.4079" lon="2.43042">
        <ele>114.79</ele>
        <time>2017-07-02T07:51:18Z</time>
      </trkpt>
      <trkpt lat="48.40794" lon="2.43045">
        <ele>115.24</ele>
        <time>2017-07-02T07:51:20Z</time>
      </trkpt>
      <trkpt lat="48.408" lon="2.43047">
        <ele>116.04</ele>
        <time>2017-07-02T07:51:22Z</time>
      </trkpt>
      <trkpt lat="48.40805" lon="2.43048">
        <ele>116.88</ele>
        <time>2017-07-02T07:51:24Z</time>
      </trkpt>
      <trkpt lat="48.40809" lon="2.4305">
        <ele>116.84</ele>
        <time>2017-07-02T07:51:26Z</time>
      </trkpt>
      <trkpt lat="48.40814" lon="2.43052">
        <ele>116.49</ele>
        <time>2017-07-02T07:51:28Z</time>
      </trkpt>
      <trkpt lat="48.40819" lon="2.43055">
        <ele>116.09</ele>
        <time>2017-07-02T07:51:30Z</time>
      </trkpt>
      <trkpt lat="48.40825" lon="2.43057">
        <ele>115.8</ele>
        <time>2017-07-02T07:51:32Z</time>
      </trkpt>
      <trkpt lat="48.40831" lon="2.43059">
        <ele>115.65</ele>
        <time>2017-07-02T07:51:34Z</time>
      </trkpt>
      <trkpt lat="48.40838" lon="2.43059">
        <ele>114.99</ele>
        <time>2017-07-02T07:51:36Z</time>
      </trkpt>
      <trkpt lat="48.40844" lon="2.43058">
        <ele>114.25</ele>
        <time>2017-07-02T07:51:38Z</time>
      </trkpt>
      <trkpt lat="48.4085" lon="2.43056">
        <ele>113.62</ele>
        <time>2017-07-02T07:51:40Z</time>
      </trkpt>
      <trkpt lat="48.40856" lon="2.43053">
        <ele>113.07</ele>
        <time>2017-07-02T07:51:42Z</time>
      </trkpt>
      <trkpt lat="48.40862" lon="2.4305">
        <ele>112.33</ele>
        <time>2017-07-02T07:51:44Z</time>
      </trkpt>
      <trkpt lat="48.40868" lon="2.43048">
        <ele>111.21</ele>
        <time>2017-07-02T07:51:46Z</time>
      </trkpt>
      <trkpt lat="48.40873" lon="2.43046">
        <ele>110.09</ele>
        <time>2017-07-02T07:51:48Z</time>
      </trkpt>
      <trkpt lat="48.40878" lon="2.43047">
        <ele>108.92</ele>
        <time>2017-07-02T07:51:50Z</time>
      </trkpt>
      <trkpt lat="48.40882" lon="2.43053">
        <ele>107.6</ele>
        <time>2017-07-02T07:51:54Z</time>
      </trkpt>
      <trkpt lat="48.40887" lon="2.43055">
        <ele>106.43</ele>
        <time>2017-07-02T07:51:58Z</time>
      </trkpt>
      <trkpt lat="48.40893" lon="2.4305">
        <ele>105.56</ele>
        <time>2017-07-02T07:52:02Z</time>
      </trkpt>
      <trkpt lat="48.40897" lon="2.4304">
        <ele>105.26</ele>
        <time>2017-07-02T07:52:06Z</time>
      </trkpt>
      <trkpt lat="48.40899" lon="2.43029">
        <ele>105.49</ele>
        <time>2017-07-02T07:52:10Z</time>
      </trkpt>
      <trkpt lat="48.40902" lon="2.43023">
        <ele>105.5</ele>
        <time>2017-07-02T07:52:12Z</time>
      </trkpt>
      <trkpt lat="48.40904" lon="2.43017">
        <ele>105.56</ele>
        <time>2017-07-02T07:52:14Z</time>
      </trkpt>
      <trkpt lat="48.40909" lon="2.43006">
        <ele>105.69</ele>
        <time>2017-07-02T07:52:18Z</time>
      </trkpt>
      <trkpt lat="48.40915" lon="2.43">
        <ele>105.29</ele>
        <time>2017-07-02T07:52:22Z</time>
      </trkpt>
      <trkpt lat="48.40921" lon="2.43001">
        <ele>104.25</ele>
        <time>2017-07-02T07:52:26Z</time>
      </trkpt>
      <trkpt lat="48.40928" lon="2.43005">
        <ele>102.96</ele>
        <time>2017-07-02T07:52:30Z</time>
      </trkpt>
      <trkpt lat="48.40936" lon="2.4301">
        <ele>101.51</ele>
        <time>2017-07-02T07:52:34Z</time>
      </trkpt>
      <trkpt lat="48.40942" lon="2.43018">
        <ele>100.11</ele>
        <time>2017-07-02T07:52:38Z</time>
      </trkpt>
      <trkpt lat="48.40948" lon="2.43026">
        <ele>98.09</ele>
        <time>2017-07-02T07:52:42Z</time>
      </trkpt>
      <trkpt lat="48.40952" lon="2.4303">
        <ele>96.68</ele>
        <time>2017-07-02T07:52:44Z</time>
      </trkpt>
      <trkpt lat="48.40956" lon="2.43034">
        <ele>95.04</ele>
        <time>2017-07-02T07:52:46Z</time>
      </trkpt>
      <trkpt lat="48.4096" lon="2.43039">
        <ele>93.1</ele>
        <time>2017-07-02T07:52:48Z</time>
      </trkpt>
      <trkpt lat="48.40964" lon="2.43044">
        <ele>91.04</ele>
        <time>2017-07-02T07:52:50Z</time>
      </trkpt>
      <trkpt lat="48.40968" lon="2.43049">
        <ele>88.87</ele>
        <time>2017-07-02T07:52:52Z</time>
      </trkpt>
      <trkpt lat="48.40972" lon="2.43054">
        <ele>86.29</ele>
        <time>2017-07-02T07:52:54Z</time>
      </trkpt>
      <trkpt lat="48.40977" lon="2.43058">
        <ele>85.53</ele>
        <time>2017-07-02T07:52:56Z</time>
      </trkpt>
      <trkpt lat="48.40983" lon="2.4306">
        <ele>85.03</ele>
        <time>2017-07-02T07:52:58Z</time>
      </trkpt>
      <trkpt lat="48.40988" lon="2.43059">
        <ele>84.71</ele>
        <time>2017-07-02T07:53:00Z</time>
      </trkpt>
      <trkpt lat="48.40992" lon="2.43055">
        <ele>84.73</ele>
        <time>2017-07-02T07:53:02Z</time>
      </trkpt>
      <trkpt lat="48.40995" lon="2.43043">
        <ele>86.55</ele>
        <time>2017-07-02T07:53:06Z</time>
      </trkpt>
      <trkpt lat="48.40996" lon="2.43033">
        <ele>88.36</ele>
        <time>2017-07-02T07:53:10Z</time>
      </trkpt>
      <trkpt lat="48.41" lon="2.43022">
        <ele>89.58</ele>
        <time>2017-07-02T07:53:14Z</time>
      </trkpt>
      <trkpt lat="48.41003" lon="2.43012">
        <ele>90.29</ele>
        <time>2017-07-02T07:53:18Z</time>
      </trkpt>
      <trkpt lat="48.41004" lon="2.43004">
        <ele>90.98</ele>
        <time>2017-07-02T07:53:22Z</time>
      </trkpt>
      <trkpt lat="48.41009" lon="2.42997">
        <ele>90.27</ele>
        <time>2017-07-02T07:53:26Z</time>
      </trkpt>
      <trkpt lat="48.41009" lon="2.4299">
        <ele>90.11</ele>
        <time>2017-07-02T07:54:12Z</time>
      </trkpt>
      <trkpt lat="48.41015" lon="2.42997">
        <ele>89.29</ele>
        <time>2017-07-02T07:54:22Z</time>
      </trkpt>
      <trkpt lat="48.41019" lon="2.43004">
        <ele>88.3</ele>
        <time>2017-07-02T07:54:24Z</time>
      </trkpt>
      <trkpt lat="48.41026" lon="2.43014">
        <ele>86.7</ele>
        <time>2017-07-02T07:54:26Z</time>
      </trkpt>
      <trkpt lat="48.41041" lon="2.43033">
        <ele>85.53</ele>
        <time>2017-07-02T07:54:28Z</time>
      </trkpt>
      <trkpt lat="48.41049" lon="2.43048">
        <ele>85.24</ele>
        <time>2017-07-02T07:54:30Z</time>
      </trkpt>
      <trkpt lat="48.41062" lon="2.43066">
        <ele>83.66</ele>
        <time>2017-07-02T07:54:32Z</time>
      </trkpt>
      <trkpt lat="48.41073" lon="2.43082">
        <ele>81.83</ele>
        <time>2017-07-02T07:54:34Z</time>
      </trkpt>
      <trkpt lat="48.41079" lon="2.43099">
        <ele>81.05</ele>
        <time>2017-07-02T07:54:36Z</time>
      </trkpt>
      <trkpt lat="48.41083" lon="2.43114">
        <ele>80.77</ele>
        <time>2017-07-02T07:54:38Z</time>
      </trkpt>
      <trkpt lat="48.41078" lon="2.43132">
        <ele>79.3</ele>
        <time>2017-07-02T07:54:40Z</time>
      </trkpt>
      <trkpt lat="48.41078" lon="2.43154">
        <ele>78.27</ele>
        <time>2017-07-02T07:54:42Z</time>
      </trkpt>
      <trkpt lat="48.4108" lon="2.43171">
        <ele>77.87</ele>
        <time>2017-07-02T07:54:44Z</time>
      </trkpt>
      <trkpt lat="48.41077" lon="2.4319">
        <ele>77.79</ele>
        <time>2017-07-02T07:54:46Z</time>
      </trkpt>
      <trkpt lat="48.41075" lon="2.43207">
        <ele>78.32</ele>
        <time>2017-07-02T07:54:48Z</time>
      </trkpt>
      <trkpt lat="48.41073" lon="2.43224">
        <ele>78.75</ele>
        <time>2017-07-02T07:54:50Z</time>
      </trkpt>
      <trkpt lat="48.41077" lon="2.43251">
        <ele>77.45</ele>
        <time>2017-07-02T07:54:52Z</time>
      </trkpt>
      <trkpt lat="48.41081" lon="2.43273">
        <ele>75.57</ele>
        <time>2017-07-02T07:54:54Z</time>
      </trkpt>
      <trkpt lat="48.41087" lon="2.43292">
        <ele>76.55</ele>
        <time>2017-07-02T07:54:56Z</time>
      </trkpt>
      <trkpt lat="48.41093" lon="2.43309">
        <ele>78.51</ele>
        <time>2017-07-02T07:54:58Z</time>
      </trkpt>
      <trkpt lat="48.41098" lon="2.43326">
        <ele>79.82</ele>
        <time>2017-07-02T07:55:00Z</time>
      </trkpt>
      <trkpt lat="48.41111" lon="2.4334">
        <ele>80.72</ele>
        <time>2017-07-02T07:55:02Z</time>
      </trkpt>
      <trkpt lat="48.41124" lon="2.43342">
        <ele>78.82</ele>
        <time>2017-07-02T07:55:04Z</time>
      </trkpt>
      <trkpt lat="48.41134" lon="2.43346">
        <ele>77.18</ele>
        <time>2017-07-02T07:55:06Z</time>
      </trkpt>
      <trkpt lat="48.41145" lon="2.43349">
        <ele>76.33</ele>
        <time>2017-07-02T07:55:08Z</time>
      </trkpt>
      <trkpt lat="48.41156" lon="2.43353">
        <ele>76.1</ele>
        <time>2017-07-02T07:55:10Z</time>
      </trkpt>
      <trkpt lat="48.41165" lon="2.43356">
        <ele>76.01</ele>
        <time>2017-07-02T07:55:12Z</time>
      </trkpt>
      <trkpt lat="48.41173" lon="2.43359">
        <ele>76.21</ele>
        <time>2017-07-02T07:55:14Z</time>
      </trkpt>
      <trkpt lat="48.41184" lon="2.43361">
        <ele>76.61</ele>
        <time>2017-07-02T07:55:16Z</time>
      </trkpt>
      <trkpt lat="48.41191" lon="2.43361">
        <ele>76.86</ele>
        <time>2017-07-02T07:55:18Z</time>
      </trkpt>
      <trkpt lat="48.412" lon="2.43362">
        <ele>77.56</ele>
        <time>2017-07-02T07:55:20Z</time>
      </trkpt>
      <trkpt lat="48.41209" lon="2.43364">
        <ele>78.57</ele>
        <time>2017-07-02T07:55:22Z</time>
      </trkpt>
      <trkpt lat="48.4122" lon="2.43368">
        <ele>79.72</ele>
        <time>2017-07-02T07:55:24Z</time>
      </trkpt>
      <trkpt lat="48.4123" lon="2.43374">
        <ele>80.84</ele>
        <time>2017-07-02T07:55:26Z</time>
      </trkpt>
      <trkpt lat="48.41242" lon="2.43375">
        <ele>82.18</ele>
        <time>2017-07-02T07:55:28Z</time>
      </trkpt>
      <trkpt lat="48.41253" lon="2.4338">
        <ele>83.1</ele>
        <time>2017-07-02T07:55:30Z</time>
      </trkpt>
      <trkpt lat="48.41261" lon="2.43387">
        <ele>83.38</ele>
        <time>2017-07-02T07:55:32Z</time>
      </trkpt>
      <trkpt lat="48.41272" lon="2.43396">
        <ele>83.42</ele>
        <time>2017-07-02T07:55:34Z</time>
      </trkpt>
      <trkpt lat="48.4128" lon="2.43404">
        <ele>82.71</ele>
        <time>2017-07-02T07:55:36Z</time>
      </trkpt>
      <trkpt lat="48.41294" lon="2.43409">
        <ele>80.86</ele>
        <time>2017-07-02T07:55:38Z</time>
      </trkpt>
      <trkpt lat="48.41303" lon="2.43414">
        <ele>79.46</ele>
        <time>2017-07-02T07:55:40Z</time>
      </trkpt>
      <trkpt lat="48.41312" lon="2.43426">
        <ele>76.84</ele>
        <time>2017-07-02T07:55:42Z</time>
      </trkpt>
      <trkpt lat="48.41323" lon="2.43431">
        <ele>75.11</ele>
        <time>2017-07-02T07:55:44Z</time>
      </trkpt>
      <trkpt lat="48.41327" lon="2.43433">
        <ele>74.42</ele>
        <time>2017-07-02T07:55:46Z</time>
      </trkpt>
      <trkpt lat="48.41334" lon="2.43421">
        <ele>74.73</ele>
        <time>2017-07-02T07:55:50Z</time>
      </trkpt>
      <trkpt lat="48.41339" lon="2.43411">
        <ele>75.9</ele>
        <time>2017-07-02T07:55:54Z</time>
      </trkpt>
      <trkpt lat="48.41348" lon="2.434">
        <ele>76.82</ele>
        <time>2017-07-02T07:55:58Z</time>
      </trkpt>
      <trkpt lat="48.41351" lon="2.43389">
        <ele>77</ele>
        <time>2017-07-02T07:56:00Z</time>
      </trkpt>
      <trkpt lat="48.41354" lon="2.43381">
        <ele>77.16</ele>
        <time>2017-07-02T07:56:02Z</time>
      </trkpt>
      <trkpt lat="48.41356" lon="2.43374">
        <ele>77.21</ele>
        <time>2017-07-02T07:56:04Z</time>
      </trkpt>
      <trkpt lat="48.41359" lon="2.43363">
        <ele>77.13</ele>
        <time>2017-07-02T07:56:08Z</time>
      </trkpt>
      <trkpt lat="48.41362" lon="2.43354">
        <ele>77.34</ele>
        <time>2017-07-02T07:56:12Z</time>
      </trkpt>
      <trkpt lat="48.41365" lon="2.43345">
        <ele>77.97</ele>
        <time>2017-07-02T07:56:14Z</time>
      </trkpt>
      <trkpt lat="48.4137" lon="2.43334">
        <ele>78.63</ele>
        <time>2017-07-02T07:56:18Z</time>
      </trkpt>
      <trkpt lat="48.41371" lon="2.43326">
        <ele>78.86</ele>
        <time>2017-07-02T07:56:20Z</time>
      </trkpt>
      <trkpt lat="48.41373" lon="2.43319">
        <ele>79.13</ele>
        <time>2017-07-02T07:56:22Z</time>
      </trkpt>
      <trkpt lat="48.41373" lon="2.43311">
        <ele>79.33</ele>
        <time>2017-07-02T07:56:24Z</time>
      </trkpt>
      <trkpt lat="48.41377" lon="2.43305">
        <ele>79.62</ele>
        <time>2017-07-02T07:56:26Z</time>
      </trkpt>
      <trkpt lat="48.4138" lon="2.43299">
        <ele>80.05</ele>
        <time>2017-07-02T07:56:28Z</time>
      </trkpt>
      <trkpt lat="48.41384" lon="2.43295">
        <ele>80.35</ele>
        <time>2017-07-02T07:56:30Z</time>
      </trkpt>
      <trkpt lat="48.41387" lon="2.43286">
        <ele>80.72</ele>
        <time>2017-07-02T07:56:34Z</time>
      </trkpt>
      <trkpt lat="48.41391" lon="2.43278">
        <ele>80.98</ele>
        <time>2017-07-02T07:56:36Z</time>
      </trkpt>
      <trkpt lat="48.41392" lon="2.43267">
        <ele>82.23</ele>
        <time>2017-07-02T07:56:40Z</time>
      </trkpt>
      <trkpt lat="48.41397" lon="2.43256">
        <ele>83.57</ele>
        <time>2017-07-02T07:56:44Z</time>
      </trkpt>
      <trkpt lat="48.41404" lon="2.43249">
        <ele>84.62</ele>
        <time>2017-07-02T07:56:50Z</time>
      </trkpt>
      <trkpt lat="48.41408" lon="2.43242">
        <ele>85.67</ele>
        <time>2017-07-02T07:56:54Z</time>
      </trkpt>
      <trkpt lat="48.41411" lon="2.43238">
        <ele>86.22</ele>
        <time>2017-07-02T07:56:56Z</time>
      </trkpt>
      <trkpt lat="48.41414" lon="2.43228">
        <ele>87.34</ele>
        <time>2017-07-02T07:57:00Z</time>
      </trkpt>
      <trkpt lat="48.41416" lon="2.43222">
        <ele>88.04</ele>
        <time>2017-07-02T07:57:04Z</time>
      </trkpt>
      <trkpt lat="48.41419" lon="2.43215">
        <ele>88.56</ele>
        <time>2017-07-02T07:57:06Z</time>
      </trkpt>
      <trkpt lat="48.41421" lon="2.43208">
        <ele>89.06</ele>
        <time>2017-07-02T07:57:10Z</time>
      </trkpt>
      <trkpt lat="48.41422" lon="2.43202">
        <ele>89.63</ele>
        <time>2017-07-02T07:57:14Z</time>
      </trkpt>
      <trkpt lat="48.41421" lon="2.43193">
        <ele>90.44</ele>
        <time>2017-07-02T07:57:18Z</time>
      </trkpt>
      <trkpt lat="48.41422" lon="2.43185">
        <ele>91.88</ele>
        <time>2017-07-02T07:57:20Z</time>
      </trkpt>
      <trkpt lat="48.41426" lon="2.43173">
        <ele>94.14</ele>
        <time>2017-07-02T07:57:26Z</time>
      </trkpt>
      <trkpt lat="48.41428" lon="2.43162">
        <ele>96.02</ele>
        <time>2017-07-02T07:57:28Z</time>
      </trkpt>
      <trkpt lat="48.41431" lon="2.43153">
        <ele>97.41</ele>
        <time>2017-07-02T07:57:32Z</time>
      </trkpt>
      <trkpt lat="48.41435" lon="2.4315">
        <ele>98.11</ele>
        <time>2017-07-02T07:57:34Z</time>
      </trkpt>
      <trkpt lat="48.41438" lon="2.43141">
        <ele>99.46</ele>
        <time>2017-07-02T07:57:38Z</time>
      </trkpt>
      <trkpt lat="48.4144" lon="2.43132">
        <ele>100.85</ele>
        <time>2017-07-02T07:57:44Z</time>
      </trkpt>
      <trkpt lat="48.41445" lon="2.43125">
        <ele>101.97</ele>
        <time>2017-07-02T07:57:48Z</time>
      </trkpt>
      <trkpt lat="48.41446" lon="2.43117">
        <ele>103.28</ele>
        <time>2017-07-02T07:57:52Z</time>
      </trkpt>
      <trkpt lat="48.4145" lon="2.43111">
        <ele>104.67</ele>
        <time>2017-07-02T07:57:58Z</time>
      </trkpt>
      <trkpt lat="48.41454" lon="2.43105">
        <ele>106.03</ele>
        <time>2017-07-02T07:58:02Z</time>
      </trkpt>
      <trkpt lat="48.41459" lon="2.43098">
        <ele>107.74</ele>
        <time>2017-07-02T07:58:06Z</time>
      </trkpt>
      <trkpt lat="48.41463" lon="2.43089">
        <ele>109.64</ele>
        <time>2017-07-02T07:58:10Z</time>
      </trkpt>
      <trkpt lat="48.41465" lon="2.43083">
        <ele>111.04</ele>
        <time>2017-07-02T07:58:12Z</time>
      </trkpt>
      <trkpt lat="48.41469" lon="2.43078">
        <ele>112.36</ele>
        <time>2017-07-02T07:58:14Z</time>
      </trkpt>
      <trkpt lat="48.41471" lon="2.43071">
        <ele>114.04</ele>
        <time>2017-07-02T07:58:18Z</time>
      </trkpt>
      <trkpt lat="48.41475" lon="2.4306">
        <ele>116.64</ele>
        <time>2017-07-02T07:58:22Z</time>
      </trkpt>
      <trkpt lat="48.4148" lon="2.43054">
        <ele>118.18</ele>
        <time>2017-07-02T07:58:26Z</time>
      </trkpt>
      <trkpt lat="48.4148" lon="2.43046">
        <ele>119.2</ele>
        <time>2017-07-02T07:58:30Z</time>
      </trkpt>
      <trkpt lat="48.4148" lon="2.43037">
        <ele>120.11</ele>
        <time>2017-07-02T07:58:34Z</time>
      </trkpt>
      <trkpt lat="48.41484" lon="2.43026">
        <ele>121.8</ele>
        <time>2017-07-02T07:58:38Z</time>
      </trkpt>
      <trkpt lat="48.41487" lon="2.43018">
        <ele>122.83</ele>
        <time>2017-07-02T07:58:42Z</time>
      </trkpt>
      <trkpt lat="48.41492" lon="2.43011">
        <ele>123.79</ele>
        <time>2017-07-02T07:58:46Z</time>
      </trkpt>
      <trkpt lat="48.41492" lon="2.43003">
        <ele>124.22</ele>
        <time>2017-07-02T07:58:52Z</time>
      </trkpt>
      <trkpt lat="48.4149" lon="2.42994">
        <ele>124.71</ele>
        <time>2017-07-02T07:58:56Z</time>
      </trkpt>
      <trkpt lat="48.41488" lon="2.42988">
        <ele>125.13</ele>
        <time>2017-07-02T07:59:00Z</time>
      </trkpt>
      <trkpt lat="48.41482" lon="2.42984">
        <ele>125.42</ele>
        <time>2017-07-02T07:59:04Z</time>
      </trkpt>
      <trkpt lat="48.41477" lon="2.42974">
        <ele>126.65</ele>
        <time>2017-07-02T07:59:08Z</time>
      </trkpt>
      <trkpt lat="48.41482" lon="2.42969">
        <ele>126.88</ele>
        <time>2017-07-02T07:59:12Z</time>
      </trkpt>
      <trkpt lat="48.4148" lon="2.42956">
        <ele>127.69</ele>
        <time>2017-07-02T07:59:22Z</time>
      </trkpt>
      <trkpt lat="48.41479" lon="2.42941">
        <ele>128.51</ele>
        <time>2017-07-02T07:59:28Z</time>
      </trkpt>
      <trkpt lat="48.41481" lon="2.42928">
        <ele>128.34</ele>
        <time>2017-07-02T07:59:36Z</time>
      </trkpt>
      <trkpt lat="48.4148" lon="2.4292">
        <ele>128.44</ele>
        <time>2017-07-02T07:59:44Z</time>
      </trkpt>
      <trkpt lat="48.41476" lon="2.42917">
        <ele>128.74</ele>
        <time>2017-07-02T07:59:46Z</time>
      </trkpt>
      <trkpt lat="48.41473" lon="2.42908">
        <ele>128.95</ele>
        <time>2017-07-02T07:59:50Z</time>
      </trkpt>
      <trkpt lat="48.41481" lon="2.42866">
        <ele>129.76</ele>
        <time>2017-07-02T08:00:29Z</time>
      </trkpt>
      <trkpt lat="48.41476" lon="2.42867">
        <ele>129.75</ele>
        <time>2017-07-02T08:00:39Z</time>
      </trkpt>
      <trkpt lat="48.41477" lon="2.42859">
        <ele>130.16</ele>
        <time>2017-07-02T08:00:45Z</time>
      </trkpt>
      <trkpt lat="48.41481" lon="2.42853">
        <ele>130.51</ele>
        <time>2017-07-02T08:00:47Z</time>
      </trkpt>
      <trkpt lat="48.41482" lon="2.42845">
        <ele>130.94</ele>
        <time>2017-07-02T08:00:49Z</time>
      </trkpt>
      <trkpt lat="48.41486" lon="2.42835">
        <ele>131.42</ele>
        <time>2017-07-02T08:00:53Z</time>
      </trkpt>
      <trkpt lat="48.41487" lon="2.42824">
        <ele>131.79</ele>
        <time>2017-07-02T08:00:57Z</time>
      </trkpt>
      <trkpt lat="48.41491" lon="2.42813">
        <ele>131.8</ele>
        <time>2017-07-02T08:01:05Z</time>
      </trkpt>
      <trkpt lat="48.41494" lon="2.42803">
        <ele>131.58</ele>
        <time>2017-07-02T08:01:09Z</time>
      </trkpt>
      <trkpt lat="48.41495" lon="2.42792">
        <ele>131.22</ele>
        <time>2017-07-02T08:01:13Z</time>
      </trkpt>
      <trkpt lat="48.41497" lon="2.4278">
        <ele>130.65</ele>
        <time>2017-07-02T08:01:17Z</time>
      </trkpt>
      <trkpt lat="48.41499" lon="2.42767">
        <ele>130.55</ele>
        <time>2017-07-02T08:01:21Z</time>
      </trkpt>
      <trkpt lat="48.415" lon="2.4276">
        <ele>130.68</ele>
        <time>2017-07-02T08:01:23Z</time>
      </trkpt>
      <trkpt lat="48.41501" lon="2.4275">
        <ele>131.02</ele>
        <time>2017-07-02T08:01:25Z</time>
      </trkpt>
      <trkpt lat="48.41502" lon="2.42741">
        <ele>131.07</ele>
        <time>2017-07-02T08:01:27Z</time>
      </trkpt>
      <trkpt lat="48.41502" lon="2.42733">
        <ele>131.12</ele>
        <time>2017-07-02T08:01:29Z</time>
      </trkpt>
      <trkpt lat="48.41503" lon="2.42726">
        <ele>131.2</ele>
        <time>2017-07-02T08:01:31Z</time>
      </trkpt>
      <trkpt lat="48.41504" lon="2.4272">
        <ele>131.3</ele>
        <time>2017-07-02T08:01:33Z</time>
      </trkpt>
      <trkpt lat="48.41505" lon="2.42712">
        <ele>131.39</ele>
        <time>2017-07-02T08:01:35Z</time>
      </trkpt>
      <trkpt lat="48.41506" lon="2.42703">
        <ele>131.4</ele>
        <time>2017-07-02T08:01:37Z</time>
      </trkpt>
      <trkpt lat="48.41506" lon="2.42696">
        <ele>131.43</ele>
        <time>2017-07-02T08:01:39Z</time>
      </trkpt>
      <trkpt lat="48.41507" lon="2.42682">
        <ele>130.5</ele>
        <time>2017-07-02T08:01:43Z</time>
      </trkpt>
      <trkpt lat="48.41502" lon="2.42676">
        <ele>129.29</ele>
        <time>2017-07-02T08:01:47Z</time>
      </trkpt>
      <trkpt lat="48.41494" lon="2.42677">
        <ele>129.11</ele>
        <time>2017-07-02T08:01:51Z</time>
      </trkpt>
      <trkpt lat="48.41489" lon="2.42678">
        <ele>129.15</ele>
        <time>2017-07-02T08:01:53Z</time>
      </trkpt>
      <trkpt lat="48.41481" lon="2.4268">
        <ele>129.15</ele>
        <time>2017-07-02T08:01:57Z</time>
      </trkpt>
      <trkpt lat="48.41476" lon="2.42682">
        <ele>129.09</ele>
        <time>2017-07-02T08:01:59Z</time>
      </trkpt>
      <trkpt lat="48.41471" lon="2.42683">
        <ele>129.04</ele>
        <time>2017-07-02T08:02:01Z</time>
      </trkpt>
      <trkpt lat="48.41466" lon="2.42683">
        <ele>129.23</ele>
        <time>2017-07-02T08:02:03Z</time>
      </trkpt>
      <trkpt lat="48.4146" lon="2.42684">
        <ele>129.43</ele>
        <time>2017-07-02T08:02:05Z</time>
      </trkpt>
      <trkpt lat="48.41454" lon="2.42684">
        <ele>129.67</ele>
        <time>2017-07-02T08:02:07Z</time>
      </trkpt>
      <trkpt lat="48.41447" lon="2.42685">
        <ele>129.9</ele>
        <time>2017-07-02T08:02:09Z</time>
      </trkpt>
      <trkpt lat="48.41441" lon="2.42688">
        <ele>130.07</ele>
        <time>2017-07-02T08:02:11Z</time>
      </trkpt>
      <trkpt lat="48.41434" lon="2.42691">
        <ele>130.27</ele>
        <time>2017-07-02T08:02:13Z</time>
      </trkpt>
      <trkpt lat="48.41427" lon="2.42693">
        <ele>130.55</ele>
        <time>2017-07-02T08:02:15Z</time>
      </trkpt>
      <trkpt lat="48.41419" lon="2.42693">
        <ele>130.79</ele>
        <time>2017-07-02T08:02:17Z</time>
      </trkpt>
      <trkpt lat="48.41406" lon="2.42693">
        <ele>131.33</ele>
        <time>2017-07-02T08:02:21Z</time>
      </trkpt>
      <trkpt lat="48.414" lon="2.42697">
        <ele>131.77</ele>
        <time>2017-07-02T08:02:23Z</time>
      </trkpt>
      <trkpt lat="48.41393" lon="2.42704">
        <ele>132.27</ele>
        <time>2017-07-02T08:02:25Z</time>
      </trkpt>
      <trkpt lat="48.41384" lon="2.42711">
        <ele>132.59</ele>
        <time>2017-07-02T08:02:27Z</time>
      </trkpt>
      <trkpt lat="48.41375" lon="2.42714">
        <ele>132.7</ele>
        <time>2017-07-02T08:02:29Z</time>
      </trkpt>
      <trkpt lat="48.41365" lon="2.42712">
        <ele>132.63</ele>
        <time>2017-07-02T08:02:31Z</time>
      </trkpt>
      <trkpt lat="48.41357" lon="2.4271">
        <ele>132.29</ele>
        <time>2017-07-02T08:02:33Z</time>
      </trkpt>
      <trkpt lat="48.41348" lon="2.42704">
        <ele>131.22</ele>
        <time>2017-07-02T08:02:35Z</time>
      </trkpt>
      <trkpt lat="48.4134" lon="2.42699">
        <ele>130.16</ele>
        <time>2017-07-02T08:02:37Z</time>
      </trkpt>
      <trkpt lat="48.41334" lon="2.42695">
        <ele>129.07</ele>
        <time>2017-07-02T08:02:39Z</time>
      </trkpt>
      <trkpt lat="48.41326" lon="2.42689">
        <ele>128.21</ele>
        <time>2017-07-02T08:02:41Z</time>
      </trkpt>
      <trkpt lat="48.4132" lon="2.42681">
        <ele>127.33</ele>
        <time>2017-07-02T08:02:43Z</time>
      </trkpt>
      <trkpt lat="48.41315" lon="2.42673">
        <ele>126.4</ele>
        <time>2017-07-02T08:02:45Z</time>
      </trkpt>
      <trkpt lat="48.41311" lon="2.42664">
        <ele>125.56</ele>
        <time>2017-07-02T08:02:47Z</time>
      </trkpt>
      <trkpt lat="48.41305" lon="2.42657">
        <ele>124.94</ele>
        <time>2017-07-02T08:02:49Z</time>
      </trkpt>
      <trkpt lat="48.41299" lon="2.4265">
        <ele>124.12</ele>
        <time>2017-07-02T08:02:51Z</time>
      </trkpt>
      <trkpt lat="48.41289" lon="2.42654">
        <ele>124.41</ele>
        <time>2017-07-02T08:02:53Z</time>
      </trkpt>
      <trkpt lat="48.4128" lon="2.42657">
        <ele>124.64</ele>
        <time>2017-07-02T08:02:55Z</time>
      </trkpt>
      <trkpt lat="48.41271" lon="2.42658">
        <ele>125.03</ele>
        <time>2017-07-02T08:02:57Z</time>
      </trkpt>
      <trkpt lat="48.41262" lon="2.42657">
        <ele>125.2</ele>
        <time>2017-07-02T08:02:59Z</time>
      </trkpt>
      <trkpt lat="48.41255" lon="2.42655">
        <ele>125.36</ele>
        <time>2017-07-02T08:03:01Z</time>
      </trkpt>
      <trkpt lat="48.41246" lon="2.4265">
        <ele>125.75</ele>
        <time>2017-07-02T08:03:03Z</time>
      </trkpt>
      <trkpt lat="48.41239" lon="2.42645">
        <ele>126.32</ele>
        <time>2017-07-02T08:03:05Z</time>
      </trkpt>
      <trkpt lat="48.41232" lon="2.4264">
        <ele>126.91</ele>
        <time>2017-07-02T08:03:07Z</time>
      </trkpt>
      <trkpt lat="48.41215" lon="2.42633">
        <ele>128.66</ele>
        <time>2017-07-02T08:03:09Z</time>
      </trkpt>
      <trkpt lat="48.41205" lon="2.42629">
        <ele>129.38</ele>
        <time>2017-07-02T08:03:11Z</time>
      </trkpt>
      <trkpt lat="48.41196" lon="2.42625">
        <ele>129.93</ele>
        <time>2017-07-02T08:03:13Z</time>
      </trkpt>
      <trkpt lat="48.41188" lon="2.42626">
        <ele>129.75</ele>
        <time>2017-07-02T08:03:15Z</time>
      </trkpt>
      <trkpt lat="48.41181" lon="2.42623">
        <ele>129.59</ele>
        <time>2017-07-02T08:03:17Z</time>
      </trkpt>
      <trkpt lat="48.41177" lon="2.42615">
        <ele>129.81</ele>
        <time>2017-07-02T08:03:19Z</time>
      </trkpt>
      <trkpt lat="48.41175" lon="2.42609">
        <ele>130</ele>
        <time>2017-07-02T08:03:21Z</time>
      </trkpt>
      <trkpt lat="48.41172" lon="2.42602">
        <ele>130</ele>
        <time>2017-07-02T08:03:23Z</time>
      </trkpt>
      <trkpt lat="48.41161" lon="2.42588">
        <ele>129.54</ele>
        <time>2017-07-02T08:03:25Z</time>
      </trkpt>
      <trkpt lat="48.41153" lon="2.42572">
        <ele>128.59</ele>
        <time>2017-07-02T08:03:27Z</time>
      </trkpt>
      <trkpt lat="48.41148" lon="2.4256">
        <ele>127.84</ele>
        <time>2017-07-02T08:03:29Z</time>
      </trkpt>
      <trkpt lat="48.41137" lon="2.42547">
        <ele>126.19</ele>
        <time>2017-07-02T08:03:31Z</time>
      </trkpt>
      <trkpt lat="48.4113" lon="2.42536">
        <ele>124.5</ele>
        <time>2017-07-02T08:03:33Z</time>
      </trkpt>
      <trkpt lat="48.41123" lon="2.42523">
        <ele>123.02</ele>
        <time>2017-07-02T08:03:35Z</time>
      </trkpt>
      <trkpt lat="48.41114" lon="2.42512">
        <ele>121.66</ele>
        <time>2017-07-02T08:03:37Z</time>
      </trkpt>
      <trkpt lat="48.41106" lon="2.42509">
        <ele>120.31</ele>
        <time>2017-07-02T08:03:39Z</time>
      </trkpt>
      <trkpt lat="48.41095" lon="2.42503">
        <ele>118.09</ele>
        <time>2017-07-02T08:03:41Z</time>
      </trkpt>
      <trkpt lat="48.41085" lon="2.42497">
        <ele>116.33</ele>
        <time>2017-07-02T08:03:43Z</time>
      </trkpt>
      <trkpt lat="48.41074" lon="2.4249">
        <ele>116.68</ele>
        <time>2017-07-02T08:03:45Z</time>
      </trkpt>
      <trkpt lat="48.41063" lon="2.42484">
        <ele>117.28</ele>
        <time>2017-07-02T08:03:47Z</time>
      </trkpt>
      <trkpt lat="48.41053" lon="2.42479">
        <ele>117.79</ele>
        <time>2017-07-02T08:03:49Z</time>
      </trkpt>
      <trkpt lat="48.41044" lon="2.42467">
        <ele>117.82</ele>
        <time>2017-07-02T08:03:51Z</time>
      </trkpt>
      <trkpt lat="48.41037" lon="2.4246">
        <ele>117.57</ele>
        <time>2017-07-02T08:03:53Z</time>
      </trkpt>
      <trkpt lat="48.41029" lon="2.42456">
        <ele>117.43</ele>
        <time>2017-07-02T08:03:55Z</time>
      </trkpt>
      <trkpt lat="48.41019" lon="2.42453">
        <ele>117</ele>
        <time>2017-07-02T08:03:57Z</time>
      </trkpt>
      <trkpt lat="48.41009" lon="2.4245">
        <ele>116.52</ele>
        <time>2017-07-02T08:03:59Z</time>
      </trkpt>
      <trkpt lat="48.41001" lon="2.42449">
        <ele>116.19</ele>
        <time>2017-07-02T08:04:01Z</time>
      </trkpt>
      <trkpt lat="48.40994" lon="2.42449">
        <ele>117.14</ele>
        <time>2017-07-02T08:04:03Z</time>
      </trkpt>
      <trkpt lat="48.40986" lon="2.42446">
        <ele>118.61</ele>
        <time>2017-07-02T08:04:05Z</time>
      </trkpt>
      <trkpt lat="48.40979" lon="2.42444">
        <ele>119.78</ele>
        <time>2017-07-02T08:04:07Z</time>
      </trkpt>
      <trkpt lat="48.40972" lon="2.42438">
        <ele>120.79</ele>
        <time>2017-07-02T08:04:09Z</time>
      </trkpt>
      <trkpt lat="48.40965" lon="2.42432">
        <ele>121.01</ele>
        <time>2017-07-02T08:04:11Z</time>
      </trkpt>
      <trkpt lat="48.40962" lon="2.42426">
        <ele>121.17</ele>
        <time>2017-07-02T08:04:13Z</time>
      </trkpt>
      <trkpt lat="48.40958" lon="2.42412">
        <ele>121.4</ele>
        <time>2017-07-02T08:04:15Z</time>
      </trkpt>
      <trkpt lat="48.40956" lon="2.42397">
        <ele>121.5</ele>
        <time>2017-07-02T08:04:17Z</time>
      </trkpt>
      <trkpt lat="48.40952" lon="2.4239">
        <ele>121.99</ele>
        <time>2017-07-02T08:04:19Z</time>
      </trkpt>
      <trkpt lat="48.40939" lon="2.42384">
        <ele>123.04</ele>
        <time>2017-07-02T08:04:21Z</time>
      </trkpt>
      <trkpt lat="48.40929" lon="2.4238">
        <ele>123.41</ele>
        <time>2017-07-02T08:04:23Z</time>
      </trkpt>
      <trkpt lat="48.40921" lon="2.42379">
        <ele>123.79</ele>
        <time>2017-07-02T08:04:25Z</time>
      </trkpt>
      <trkpt lat="48.40914" lon="2.42378">
        <ele>124.23</ele>
        <time>2017-07-02T08:04:27Z</time>
      </trkpt>
      <trkpt lat="48.40905" lon="2.42378">
        <ele>124.84</ele>
        <time>2017-07-02T08:04:29Z</time>
      </trkpt>
      <trkpt lat="48.40899" lon="2.42376">
        <ele>125.25</ele>
        <time>2017-07-02T08:04:31Z</time>
      </trkpt>
      <trkpt lat="48.40893" lon="2.42374">
        <ele>125.68</ele>
        <time>2017-07-02T08:04:33Z</time>
      </trkpt>
      <trkpt lat="48.40889" lon="2.42372">
        <ele>126.02</ele>
        <time>2017-07-02T08:04:35Z</time>
      </trkpt>
      <trkpt lat="48.40885" lon="2.42364">
        <ele>126.17</ele>
        <time>2017-07-02T08:04:37Z</time>
      </trkpt>
      <trkpt lat="48.4088" lon="2.42353">
        <ele>126.21</ele>
        <time>2017-07-02T08:04:39Z</time>
      </trkpt>
      <trkpt lat="48.40875" lon="2.42347">
        <ele>126.24</ele>
        <time>2017-07-02T08:04:41Z</time>
      </trkpt>
      <trkpt lat="48.4087" lon="2.42338">
        <ele>126.12</ele>
        <time>2017-07-02T08:04:43Z</time>
      </trkpt>
      <trkpt lat="48.40863" lon="2.42332">
        <ele>126.05</ele>
        <time>2017-07-02T08:04:45Z</time>
      </trkpt>
      <trkpt lat="48.40854" lon="2.42324">
        <ele>126.85</ele>
        <time>2017-07-02T08:04:47Z</time>
      </trkpt>
      <trkpt lat="48.40845" lon="2.42318">
        <ele>127.68</ele>
        <time>2017-07-02T08:04:49Z</time>
      </trkpt>
      <trkpt lat="48.40843" lon="2.42309">
        <ele>128.18</ele>
        <time>2017-07-02T08:04:51Z</time>
      </trkpt>
      <trkpt lat="48.40834" lon="2.42306">
        <ele>128.94</ele>
        <time>2017-07-02T08:04:53Z</time>
      </trkpt>
      <trkpt lat="48.40831" lon="2.42294">
        <ele>129.72</ele>
        <time>2017-07-02T08:04:55Z</time>
      </trkpt>
      <trkpt lat="48.4078" lon="2.4212">
        <ele>126.14</ele>
        <time>2017-07-02T08:05:27Z</time>
      </trkpt>
      <trkpt lat="48.40775" lon="2.42101">
        <ele>124.62</ele>
        <time>2017-07-02T08:05:30Z</time>
      </trkpt>
      <trkpt lat="48.4077" lon="2.42091">
        <ele>122.61</ele>
        <time>2017-07-02T08:05:32Z</time>
      </trkpt>
      <trkpt lat="48.40761" lon="2.42084">
        <ele>122</ele>
        <time>2017-07-02T08:05:34Z</time>
      </trkpt>
      <trkpt lat="48.40754" lon="2.42079">
        <ele>121.57</ele>
        <time>2017-07-02T08:05:36Z</time>
      </trkpt>
      <trkpt lat="48.40749" lon="2.42079">
        <ele>121.42</ele>
        <time>2017-07-02T08:05:46Z</time>
      </trkpt>
      <trkpt lat="48.40744" lon="2.42082">
        <ele>120.26</ele>
        <time>2017-07-02T08:05:52Z</time>
      </trkpt>
      <trkpt lat="48.40738" lon="2.42079">
        <ele>118.26</ele>
        <time>2017-07-02T08:05:56Z</time>
      </trkpt>
      <trkpt lat="48.40731" lon="2.42081">
        <ele>116.33</ele>
        <time>2017-07-02T08:06:00Z</time>
      </trkpt>
      <trkpt lat="48.40724" lon="2.42086">
        <ele>114.44</ele>
        <time>2017-07-02T08:06:04Z</time>
      </trkpt>
      <trkpt lat="48.40719" lon="2.42078">
        <ele>113.42</ele>
        <time>2017-07-02T08:06:08Z</time>
      </trkpt>
      <trkpt lat="48.40719" lon="2.42071">
        <ele>112.97</ele>
        <time>2017-07-02T08:06:10Z</time>
      </trkpt>
      <trkpt lat="48.40718" lon="2.42063">
        <ele>112.24</ele>
        <time>2017-07-02T08:06:12Z</time>
      </trkpt>
      <trkpt lat="48.40715" lon="2.42037">
        <ele>108.8</ele>
        <time>2017-07-02T08:06:14Z</time>
      </trkpt>
      <trkpt lat="48.40714" lon="2.42026">
        <ele>107.31</ele>
        <time>2017-07-02T08:06:16Z</time>
      </trkpt>
      <trkpt lat="48.40717" lon="2.42015">
        <ele>106.55</ele>
        <time>2017-07-02T08:06:18Z</time>
      </trkpt>
      <trkpt lat="48.40719" lon="2.42008">
        <ele>106.39</ele>
        <time>2017-07-02T08:06:20Z</time>
      </trkpt>
      <trkpt lat="48.40727" lon="2.42">
        <ele>106.15</ele>
        <time>2017-07-02T08:06:22Z</time>
      </trkpt>
      <trkpt lat="48.40729" lon="2.41992">
        <ele>105.33</ele>
        <time>2017-07-02T08:06:24Z</time>
      </trkpt>
      <trkpt lat="48.40727" lon="2.41985">
        <ele>104.44</ele>
        <time>2017-07-02T08:06:30Z</time>
      </trkpt>
      <trkpt lat="48.40731" lon="2.41976">
        <ele>103.41</ele>
        <time>2017-07-02T08:06:40Z</time>
      </trkpt>
      <trkpt lat="48.40736" lon="2.41968">
        <ele>102.27</ele>
        <time>2017-07-02T08:06:44Z</time>
      </trkpt>
      <trkpt lat="48.40736" lon="2.4196">
        <ele>101.04</ele>
        <time>2017-07-02T08:06:46Z</time>
      </trkpt>
      <trkpt lat="48.40738" lon="2.41953">
        <ele>99.67</ele>
        <time>2017-07-02T08:06:48Z</time>
      </trkpt>
      <trkpt lat="48.40741" lon="2.41946">
        <ele>98.33</ele>
        <time>2017-07-02T08:06:50Z</time>
      </trkpt>
      <trkpt lat="48.40742" lon="2.41933">
        <ele>96.56</ele>
        <time>2017-07-02T08:06:52Z</time>
      </trkpt>
      <trkpt lat="48.40744" lon="2.41922">
        <ele>94.97</ele>
        <time>2017-07-02T08:06:54Z</time>
      </trkpt>
      <trkpt lat="48.40747" lon="2.41909">
        <ele>92.38</ele>
        <time>2017-07-02T08:06:56Z</time>
      </trkpt>
      <trkpt lat="48.4075" lon="2.41902">
        <ele>90.12</ele>
        <time>2017-07-02T08:06:58Z</time>
      </trkpt>
      <trkpt lat="48.40755" lon="2.41895">
        <ele>87.85</ele>
        <time>2017-07-02T08:07:00Z</time>
      </trkpt>
      <trkpt lat="48.4076" lon="2.41892">
        <ele>86.26</ele>
        <time>2017-07-02T08:07:02Z</time>
      </trkpt>
      <trkpt lat="48.40766" lon="2.41889">
        <ele>84.69</ele>
        <time>2017-07-02T08:07:04Z</time>
      </trkpt>
      <trkpt lat="48.40772" lon="2.41889">
        <ele>83.92</ele>
        <time>2017-07-02T08:07:06Z</time>
      </trkpt>
      <trkpt lat="48.40779" lon="2.41891">
        <ele>83.2</ele>
        <time>2017-07-02T08:07:08Z</time>
      </trkpt>
      <trkpt lat="48.4078" lon="2.41882">
        <ele>82.13</ele>
        <time>2017-07-02T08:07:10Z</time>
      </trkpt>
      <trkpt lat="48.40779" lon="2.41874">
        <ele>81.38</ele>
        <time>2017-07-02T08:07:12Z</time>
      </trkpt>
      <trkpt lat="48.4078" lon="2.41866">
        <ele>80.56</ele>
        <time>2017-07-02T08:07:14Z</time>
      </trkpt>
      <trkpt lat="48.40788" lon="2.41854">
        <ele>80.32</ele>
        <time>2017-07-02T08:07:16Z</time>
      </trkpt>
      <trkpt lat="48.40793" lon="2.41852">
        <ele>80.6</ele>
        <time>2017-07-02T08:07:18Z</time>
      </trkpt>
      <trkpt lat="48.40801" lon="2.41851">
        <ele>81.1</ele>
        <time>2017-07-02T08:07:20Z</time>
      </trkpt>
      <trkpt lat="48.40806" lon="2.41852">
        <ele>81.28</ele>
        <time>2017-07-02T08:07:22Z</time>
      </trkpt>
      <trkpt lat="48.40814" lon="2.41847">
        <ele>80.21</ele>
        <time>2017-07-02T08:07:26Z</time>
      </trkpt>
      <trkpt lat="48.4082" lon="2.41844">
        <ele>79.43</ele>
        <time>2017-07-02T08:07:28Z</time>
      </trkpt>
      <trkpt lat="48.40827" lon="2.4183">
        <ele>78.59</ele>
        <time>2017-07-02T08:07:30Z</time>
      </trkpt>
      <trkpt lat="48.40833" lon="2.4182">
        <ele>79.32</ele>
        <time>2017-07-02T08:07:32Z</time>
      </trkpt>
      <trkpt lat="48.40837" lon="2.41815">
        <ele>80.19</ele>
        <time>2017-07-02T08:07:34Z</time>
      </trkpt>
      <trkpt lat="48.40844" lon="2.41802">
        <ele>81.37</ele>
        <time>2017-07-02T08:07:36Z</time>
      </trkpt>
      <trkpt lat="48.40838" lon="2.41795">
        <ele>81.09</ele>
        <time>2017-07-02T08:07:40Z</time>
      </trkpt>
      <trkpt lat="48.40832" lon="2.41786">
        <ele>80.6</ele>
        <time>2017-07-02T08:07:44Z</time>
      </trkpt>
      <trkpt lat="48.40825" lon="2.41775">
        <ele>80.2</ele>
        <time>2017-07-02T08:07:48Z</time>
      </trkpt>
      <trkpt lat="48.40823" lon="2.41767">
        <ele>79.84</ele>
        <time>2017-07-02T08:07:50Z</time>
      </trkpt>
      <trkpt lat="48.40815" lon="2.41756">
        <ele>79.39</ele>
        <time>2017-07-02T08:07:54Z</time>
      </trkpt>
      <trkpt lat="48.40811" lon="2.41752">
        <ele>79.1</ele>
        <time>2017-07-02T08:07:56Z</time>
      </trkpt>
      <trkpt lat="48.40807" lon="2.41746">
        <ele>78.99</ele>
        <time>2017-07-02T08:07:58Z</time>
      </trkpt>
      <trkpt lat="48.40803" lon="2.41739">
        <ele>78.81</ele>
        <time>2017-07-02T08:08:02Z</time>
      </trkpt>
      <trkpt lat="48.40795" lon="2.41727">
        <ele>78.25</ele>
        <time>2017-07-02T08:08:08Z</time>
      </trkpt>
      <trkpt lat="48.40789" lon="2.41717">
        <ele>77.72</ele>
        <time>2017-07-02T08:08:10Z</time>
      </trkpt>
      <trkpt lat="48.4079" lon="2.41709">
        <ele>77.69</ele>
        <time>2017-07-02T08:08:12Z</time>
      </trkpt>
      <trkpt lat="48.40793" lon="2.41702">
        <ele>77.68</ele>
        <time>2017-07-02T08:08:14Z</time>
      </trkpt>
      <trkpt lat="48.40789" lon="2.41695">
        <ele>77.42</ele>
        <time>2017-07-02T08:08:16Z</time>
      </trkpt>
      <trkpt lat="48.40782" lon="2.41686">
        <ele>77.4</ele>
        <time>2017-07-02T08:08:18Z</time>
      </trkpt>
      <trkpt lat="48.40773" lon="2.41679">
        <ele>78.06</ele>
        <time>2017-07-02T08:08:20Z</time>
      </trkpt>
      <trkpt lat="48.40766" lon="2.41674">
        <ele>79.07</ele>
        <time>2017-07-02T08:08:22Z</time>
      </trkpt>
      <trkpt lat="48.4076" lon="2.41665">
        <ele>79.87</ele>
        <time>2017-07-02T08:08:24Z</time>
      </trkpt>
      <trkpt lat="48.40753" lon="2.41657">
        <ele>79.85</ele>
        <time>2017-07-02T08:08:26Z</time>
      </trkpt>
      <trkpt lat="48.40746" lon="2.41649">
        <ele>78.82</ele>
        <time>2017-07-02T08:08:28Z</time>
      </trkpt>
      <trkpt lat="48.40739" lon="2.41641">
        <ele>77.75</ele>
        <time>2017-07-02T08:08:30Z</time>
      </trkpt>
      <trkpt lat="48.40733" lon="2.41632">
        <ele>77.04</ele>
        <time>2017-07-02T08:08:32Z</time>
      </trkpt>
      <trkpt lat="48.40727" lon="2.41624">
        <ele>76.52</ele>
        <time>2017-07-02T08:08:34Z</time>
      </trkpt>
      <trkpt lat="48.40721" lon="2.41615">
        <ele>76.08</ele>
        <time>2017-07-02T08:08:36Z</time>
      </trkpt>
      <trkpt lat="48.4072" lon="2.41605">
        <ele>76.31</ele>
        <time>2017-07-02T08:08:38Z</time>
      </trkpt>
      <trkpt lat="48.40725" lon="2.41601">
        <ele>76.64</ele>
        <time>2017-07-02T08:08:40Z</time>
      </trkpt>
      <trkpt lat="48.40731" lon="2.41601">
        <ele>76.49</ele>
        <time>2017-07-02T08:08:42Z</time>
      </trkpt>
      <trkpt lat="48.40737" lon="2.416">
        <ele>76.36</ele>
        <time>2017-07-02T08:08:44Z</time>
      </trkpt>
      <trkpt lat="48.40742" lon="2.41599">
        <ele>76.23</ele>
        <time>2017-07-02T08:08:46Z</time>
      </trkpt>
      <trkpt lat="48.40747" lon="2.41593">
        <ele>76.16</ele>
        <time>2017-07-02T08:08:48Z</time>
      </trkpt>
      <trkpt lat="48.40751" lon="2.41587">
        <ele>76.05</ele>
        <time>2017-07-02T08:08:50Z</time>
      </trkpt>
      <trkpt lat="48.40756" lon="2.41581">
        <ele>76.23</ele>
        <time>2017-07-02T08:08:52Z</time>
      </trkpt>
      <trkpt lat="48.40761" lon="2.41575">
        <ele>76.23</ele>
        <time>2017-07-02T08:08:54Z</time>
      </trkpt>
      <trkpt lat="48.40765" lon="2.4157">
        <ele>75.95</ele>
        <time>2017-07-02T08:08:56Z</time>
      </trkpt>
      <trkpt lat="48.4077" lon="2.41563">
        <ele>75.33</ele>
        <time>2017-07-02T08:08:58Z</time>
      </trkpt>
      <trkpt lat="48.40775" lon="2.41556">
        <ele>74.34</ele>
        <time>2017-07-02T08:09:00Z</time>
      </trkpt>
      <trkpt lat="48.4078" lon="2.41551">
        <ele>74.75</ele>
        <time>2017-07-02T08:09:02Z</time>
      </trkpt>
      <trkpt lat="48.40786" lon="2.41546">
        <ele>75.77</ele>
        <time>2017-07-02T08:09:04Z</time>
      </trkpt>
      <trkpt lat="48.40792" lon="2.41541">
        <ele>76.51</ele>
        <time>2017-07-02T08:09:06Z</time>
      </trkpt>
      <trkpt lat="48.40798" lon="2.41537">
        <ele>76.99</ele>
        <time>2017-07-02T08:09:08Z</time>
      </trkpt>
      <trkpt lat="48.40804" lon="2.41534">
        <ele>77.34</ele>
        <time>2017-07-02T08:09:10Z</time>
      </trkpt>
      <trkpt lat="48.4081" lon="2.41531">
        <ele>78.24</ele>
        <time>2017-07-02T08:09:12Z</time>
      </trkpt>
      <trkpt lat="48.40815" lon="2.41528">
        <ele>79.52</ele>
        <time>2017-07-02T08:09:14Z</time>
      </trkpt>
      <trkpt lat="48.40821" lon="2.41523">
        <ele>80.68</ele>
        <time>2017-07-02T08:09:16Z</time>
      </trkpt>
      <trkpt lat="48.40824" lon="2.41516">
        <ele>81.22</ele>
        <time>2017-07-02T08:09:18Z</time>
      </trkpt>
      <trkpt lat="48.40824" lon="2.41507">
        <ele>80.91</ele>
        <time>2017-07-02T08:09:20Z</time>
      </trkpt>
      <trkpt lat="48.40823" lon="2.415">
        <ele>80.51</ele>
        <time>2017-07-02T08:09:22Z</time>
      </trkpt>
      <trkpt lat="48.40823" lon="2.41491">
        <ele>80.66</ele>
        <time>2017-07-02T08:09:24Z</time>
      </trkpt>
      <trkpt lat="48.40823" lon="2.41483">
        <ele>80.78</ele>
        <time>2017-07-02T08:09:26Z</time>
      </trkpt>
      <trkpt lat="48.40823" lon="2.41476">
        <ele>80.78</ele>
        <time>2017-07-02T08:09:28Z</time>
      </trkpt>
      <trkpt lat="48.40819" lon="2.41469">
        <ele>80.64</ele>
        <time>2017-07-02T08:09:30Z</time>
      </trkpt>
      <trkpt lat="48.40814" lon="2.41465">
        <ele>80.33</ele>
        <time>2017-07-02T08:09:32Z</time>
      </trkpt>
      <trkpt lat="48.40808" lon="2.41463">
        <ele>79.96</ele>
        <time>2017-07-02T08:09:34Z</time>
      </trkpt>
      <trkpt lat="48.40803" lon="2.41458">
        <ele>80.01</ele>
        <time>2017-07-02T08:09:36Z</time>
      </trkpt>
      <trkpt lat="48.40799" lon="2.41451">
        <ele>80.28</ele>
        <time>2017-07-02T08:09:38Z</time>
      </trkpt>
      <trkpt lat="48.40796" lon="2.41442">
        <ele>80.07</ele>
        <time>2017-07-02T08:09:40Z</time>
      </trkpt>
      <trkpt lat="48.40794" lon="2.41432">
        <ele>79.2</ele>
        <time>2017-07-02T08:09:42Z</time>
      </trkpt>
      <trkpt lat="48.40791" lon="2.41423">
        <ele>78.45</ele>
        <time>2017-07-02T08:09:44Z</time>
      </trkpt>
      <trkpt lat="48.40787" lon="2.41415">
        <ele>78</ele>
        <time>2017-07-02T08:09:46Z</time>
      </trkpt>
      <trkpt lat="48.40784" lon="2.41407">
        <ele>78</ele>
        <time>2017-07-02T08:09:48Z</time>
      </trkpt>
      <trkpt lat="48.40782" lon="2.41397">
        <ele>78</ele>
        <time>2017-07-02T08:09:50Z</time>
      </trkpt>
      <trkpt lat="48.40783" lon="2.41389">
        <ele>78.01</ele>
        <time>2017-07-02T08:09:52Z</time>
      </trkpt>
      <trkpt lat="48.40786" lon="2.4138">
        <ele>78.31</ele>
        <time>2017-07-02T08:09:54Z</time>
      </trkpt>
      <trkpt lat="48.40786" lon="2.41372">
        <ele>78.61</ele>
        <time>2017-07-02T08:09:56Z</time>
      </trkpt>
      <trkpt lat="48.40769" lon="2.41272">
        <ele>79.34</ele>
        <time>2017-07-02T08:10:27Z</time>
      </trkpt>
      <trkpt lat="48.40773" lon="2.41258">
        <ele>80.28</ele>
        <time>2017-07-02T08:10:30Z</time>
      </trkpt>
      <trkpt lat="48.40773" lon="2.41249">
        <ele>80.85</ele>
        <time>2017-07-02T08:10:32Z</time>
      </trkpt>
      <trkpt lat="48.40772" lon="2.41239">
        <ele>80.95</ele>
        <time>2017-07-02T08:10:34Z</time>
      </trkpt>
      <trkpt lat="48.4077" lon="2.4123">
        <ele>81.12</ele>
        <time>2017-07-02T08:10:36Z</time>
      </trkpt>
      <trkpt lat="48.40769" lon="2.41222">
        <ele>81.32</ele>
        <time>2017-07-02T08:10:38Z</time>
      </trkpt>
      <trkpt lat="48.40771" lon="2.41214">
        <ele>81.4</ele>
        <time>2017-07-02T08:10:40Z</time>
      </trkpt>
      <trkpt lat="48.40776" lon="2.41206">
        <ele>81.56</ele>
        <time>2017-07-02T08:10:42Z</time>
      </trkpt>
      <trkpt lat="48.4078" lon="2.41199">
        <ele>81.67</ele>
        <time>2017-07-02T08:10:44Z</time>
      </trkpt>
      <trkpt lat="48.40784" lon="2.41191">
        <ele>81.58</ele>
        <time>2017-07-02T08:10:46Z</time>
      </trkpt>
      <trkpt lat="48.40788" lon="2.41184">
        <ele>81.28</ele>
        <time>2017-07-02T08:10:48Z</time>
      </trkpt>
      <trkpt lat="48.40793" lon="2.41178">
        <ele>80.9</ele>
        <time>2017-07-02T08:10:50Z</time>
      </trkpt>
      <trkpt lat="48.40799" lon="2.41174">
        <ele>80.5</ele>
        <time>2017-07-02T08:10:52Z</time>
      </trkpt>
      <trkpt lat="48.40803" lon="2.41167">
        <ele>80.17</ele>
        <time>2017-07-02T08:10:54Z</time>
      </trkpt>
      <trkpt lat="48.40806" lon="2.41158">
        <ele>80.32</ele>
        <time>2017-07-02T08:10:56Z</time>
      </trkpt>
      <trkpt lat="48.40805" lon="2.41149">
        <ele>80.68</ele>
        <time>2017-07-02T08:10:58Z</time>
      </trkpt>
      <trkpt lat="48.40801" lon="2.41141">
        <ele>81.13</ele>
        <time>2017-07-02T08:11:00Z</time>
      </trkpt>
      <trkpt lat="48.40794" lon="2.41133">
        <ele>81.62</ele>
        <time>2017-07-02T08:11:02Z</time>
      </trkpt>
      <trkpt lat="48.40788" lon="2.41126">
        <ele>82.1</ele>
        <time>2017-07-02T08:11:04Z</time>
      </trkpt>
      <trkpt lat="48.40785" lon="2.41117">
        <ele>82.53</ele>
        <time>2017-07-02T08:11:06Z</time>
      </trkpt>
      <trkpt lat="48.40784" lon="2.41108">
        <ele>82.92</ele>
        <time>2017-07-02T08:11:08Z</time>
      </trkpt>
      <trkpt lat="48.40786" lon="2.41099">
        <ele>83.27</ele>
        <time>2017-07-02T08:11:10Z</time>
      </trkpt>
      <trkpt lat="48.4079" lon="2.41092">
        <ele>83.55</ele>
        <time>2017-07-02T08:11:12Z</time>
      </trkpt>
      <trkpt lat="48.40795" lon="2.41086">
        <ele>83.85</ele>
        <time>2017-07-02T08:11:14Z</time>
      </trkpt>
      <trkpt lat="48.40799" lon="2.41078">
        <ele>83.65</ele>
        <time>2017-07-02T08:11:16Z</time>
      </trkpt>
      <trkpt lat="48.408" lon="2.4107">
        <ele>83.01</ele>
        <time>2017-07-02T08:11:18Z</time>
      </trkpt>
      <trkpt lat="48.408" lon="2.4106">
        <ele>82.29</ele>
        <time>2017-07-02T08:11:20Z</time>
      </trkpt>
      <trkpt lat="48.40802" lon="2.4105">
        <ele>81.59</ele>
        <time>2017-07-02T08:11:22Z</time>
      </trkpt>
      <trkpt lat="48.40804" lon="2.41042">
        <ele>81.01</ele>
        <time>2017-07-02T08:11:24Z</time>
      </trkpt>
      <trkpt lat="48.40806" lon="2.41035">
        <ele>80.58</ele>
        <time>2017-07-02T08:11:26Z</time>
      </trkpt>
      <trkpt lat="48.40806" lon="2.41027">
        <ele>80.08</ele>
        <time>2017-07-02T08:11:28Z</time>
      </trkpt>
      <trkpt lat="48.40803" lon="2.4102">
        <ele>79.9</ele>
        <time>2017-07-02T08:11:30Z</time>
      </trkpt>
      <trkpt lat="48.40798" lon="2.41013">
        <ele>79.73</ele>
        <time>2017-07-02T08:11:32Z</time>
      </trkpt>
      <trkpt lat="48.40794" lon="2.41006">
        <ele>79.57</ele>
        <time>2017-07-02T08:11:34Z</time>
      </trkpt>
      <trkpt lat="48.4079" lon="2.40997">
        <ele>79.56</ele>
        <time>2017-07-02T08:11:36Z</time>
      </trkpt>
      <trkpt lat="48.40788" lon="2.40988">
        <ele>79.93</ele>
        <time>2017-07-02T08:11:38Z</time>
      </trkpt>
      <trkpt lat="48.40788" lon="2.40978">
        <ele>80.35</ele>
        <time>2017-07-02T08:11:40Z</time>
      </trkpt>
      <trkpt lat="48.40791" lon="2.4097">
        <ele>80.7</ele>
        <time>2017-07-02T08:11:42Z</time>
      </trkpt>
      <trkpt lat="48.40796" lon="2.40962">
        <ele>81.37</ele>
        <time>2017-07-02T08:11:44Z</time>
      </trkpt>
      <trkpt lat="48.40801" lon="2.40957">
        <ele>82.45</ele>
        <time>2017-07-02T08:11:46Z</time>
      </trkpt>
      <trkpt lat="48.40807" lon="2.40951">
        <ele>83.97</ele>
        <time>2017-07-02T08:11:48Z</time>
      </trkpt>
      <trkpt lat="48.40813" lon="2.40946">
        <ele>85.06</ele>
        <time>2017-07-02T08:11:50Z</time>
      </trkpt>
      <trkpt lat="48.40818" lon="2.40941">
        <ele>85.78</ele>
        <time>2017-07-02T08:11:52Z</time>
      </trkpt>
      <trkpt lat="48.4082" lon="2.40933">
        <ele>86.58</ele>
        <time>2017-07-02T08:11:54Z</time>
      </trkpt>
      <trkpt lat="48.40818" lon="2.40923">
        <ele>87.41</ele>
        <time>2017-07-02T08:11:56Z</time>
      </trkpt>
      <trkpt lat="48.40814" lon="2.40914">
        <ele>88</ele>
        <time>2017-07-02T08:11:58Z</time>
      </trkpt>
      <trkpt lat="48.4081" lon="2.40905">
        <ele>88</ele>
        <time>2017-07-02T08:12:00Z</time>
      </trkpt>
      <trkpt lat="48.40806" lon="2.40897">
        <ele>88</ele>
        <time>2017-07-02T08:12:02Z</time>
      </trkpt>
      <trkpt lat="48.40801" lon="2.40889">
        <ele>87.14</ele>
        <time>2017-07-02T08:12:04Z</time>
      </trkpt>
      <trkpt lat="48.40796" lon="2.40879">
        <ele>86.2</ele>
        <time>2017-07-02T08:12:06Z</time>
      </trkpt>
      <trkpt lat="48.40786" lon="2.40856">
        <ele>84.08</ele>
        <time>2017-07-02T08:12:08Z</time>
      </trkpt>
      <trkpt lat="48.4078" lon="2.40842">
        <ele>82.66</ele>
        <time>2017-07-02T08:12:10Z</time>
      </trkpt>
      <trkpt lat="48.4077" lon="2.40833">
        <ele>81.1</ele>
        <time>2017-07-02T08:12:12Z</time>
      </trkpt>
      <trkpt lat="48.40765" lon="2.40823">
        <ele>80.2</ele>
        <time>2017-07-02T08:12:14Z</time>
      </trkpt>
      <trkpt lat="48.40756" lon="2.40813">
        <ele>78.91</ele>
        <time>2017-07-02T08:12:16Z</time>
      </trkpt>
      <trkpt lat="48.4075" lon="2.40802">
        <ele>78</ele>
        <time>2017-07-02T08:12:18Z</time>
      </trkpt>
      <trkpt lat="48.40741" lon="2.40794">
        <ele>78.2</ele>
        <time>2017-07-02T08:12:20Z</time>
      </trkpt>
      <trkpt lat="48.40732" lon="2.40787">
        <ele>78.2</ele>
        <time>2017-07-02T08:12:22Z</time>
      </trkpt>
      <trkpt lat="48.40724" lon="2.40779">
        <ele>78.04</ele>
        <time>2017-07-02T08:12:24Z</time>
      </trkpt>
      <trkpt lat="48.40716" lon="2.40771">
        <ele>78</ele>
        <time>2017-07-02T08:12:26Z</time>
      </trkpt>
      <trkpt lat="48.40709" lon="2.40765">
        <ele>78</ele>
        <time>2017-07-02T08:12:28Z</time>
      </trkpt>
      <trkpt lat="48.40699" lon="2.40757">
        <ele>78</ele>
        <time>2017-07-02T08:12:30Z</time>
      </trkpt>
      <trkpt lat="48.40692" lon="2.40745">
        <ele>77.49</ele>
        <time>2017-07-02T08:12:32Z</time>
      </trkpt>
      <trkpt lat="48.40684" lon="2.40732">
        <ele>76.45</ele>
        <time>2017-07-02T08:12:34Z</time>
      </trkpt>
      <trkpt lat="48.40674" lon="2.40723">
        <ele>76.01</ele>
        <time>2017-07-02T08:12:36Z</time>
      </trkpt>
      <trkpt lat="48.40664" lon="2.40715">
        <ele>75.86</ele>
        <time>2017-07-02T08:12:38Z</time>
      </trkpt>
      <trkpt lat="48.40651" lon="2.40707">
        <ele>75.13</ele>
        <time>2017-07-02T08:12:40Z</time>
      </trkpt>
      <trkpt lat="48.40639" lon="2.40694">
        <ele>73.99</ele>
        <time>2017-07-02T08:12:42Z</time>
      </trkpt>
      <trkpt lat="48.4063" lon="2.40681">
        <ele>73.2</ele>
        <time>2017-07-02T08:12:44Z</time>
      </trkpt>
      <trkpt lat="48.4062" lon="2.40671">
        <ele>72.48</ele>
        <time>2017-07-02T08:12:46Z</time>
      </trkpt>
      <trkpt lat="48.40609" lon="2.40659">
        <ele>71.76</ele>
        <time>2017-07-02T08:12:48Z</time>
      </trkpt>
      <trkpt lat="48.40598" lon="2.4065">
        <ele>71.97</ele>
        <time>2017-07-02T08:12:50Z</time>
      </trkpt>
      <trkpt lat="48.40586" lon="2.4064">
        <ele>72.76</ele>
        <time>2017-07-02T08:12:52Z</time>
      </trkpt>
      <trkpt lat="48.40574" lon="2.40633">
        <ele>73.52</ele>
        <time>2017-07-02T08:12:54Z</time>
      </trkpt>
      <trkpt lat="48.40564" lon="2.40624">
        <ele>74.24</ele>
        <time>2017-07-02T08:12:56Z</time>
      </trkpt>
      <trkpt lat="48.40549" lon="2.40615">
        <ele>74.79</ele>
        <time>2017-07-02T08:12:58Z</time>
      </trkpt>
      <trkpt lat="48.40539" lon="2.40608">
        <ele>75.2</ele>
        <time>2017-07-02T08:13:00Z</time>
      </trkpt>
      <trkpt lat="48.40535" lon="2.40603">
        <ele>75.59</ele>
        <time>2017-07-02T08:13:02Z</time>
      </trkpt>
      <trkpt lat="48.40539" lon="2.40598">
        <ele>75.91</ele>
        <time>2017-07-02T08:13:06Z</time>
      </trkpt>
      <trkpt lat="48.40544" lon="2.40597">
        <ele>76.02</ele>
        <time>2017-07-02T08:13:08Z</time>
      </trkpt>
      <trkpt lat="48.40549" lon="2.40596">
        <ele>76.12</ele>
        <time>2017-07-02T08:13:10Z</time>
      </trkpt>
      <trkpt lat="48.40555" lon="2.40595">
        <ele>76.19</ele>
        <time>2017-07-02T08:13:12Z</time>
      </trkpt>
      <trkpt lat="48.40562" lon="2.40591">
        <ele>76.08</ele>
        <time>2017-07-02T08:13:14Z</time>
      </trkpt>
      <trkpt lat="48.40569" lon="2.40586">
        <ele>75.89</ele>
        <time>2017-07-02T08:13:16Z</time>
      </trkpt>
      <trkpt lat="48.40577" lon="2.40585">
        <ele>75.39</ele>
        <time>2017-07-02T08:13:18Z</time>
      </trkpt>
      <trkpt lat="48.40583" lon="2.40582">
        <ele>74.97</ele>
        <time>2017-07-02T08:13:20Z</time>
      </trkpt>
      <trkpt lat="48.40589" lon="2.4058">
        <ele>74.54</ele>
        <time>2017-07-02T08:13:22Z</time>
      </trkpt>
      <trkpt lat="48.40593" lon="2.40577">
        <ele>74.13</ele>
        <time>2017-07-02T08:13:24Z</time>
      </trkpt>
      <trkpt lat="48.40602" lon="2.40572">
        <ele>73.55</ele>
        <time>2017-07-02T08:13:28Z</time>
      </trkpt>
      <trkpt lat="48.40606" lon="2.40565">
        <ele>73.25</ele>
        <time>2017-07-02T08:13:30Z</time>
      </trkpt>
      <trkpt lat="48.40612" lon="2.40564">
        <ele>73.03</ele>
        <time>2017-07-02T08:13:32Z</time>
      </trkpt>
      <trkpt lat="48.40618" lon="2.40561">
        <ele>73.25</ele>
        <time>2017-07-02T08:13:34Z</time>
      </trkpt>
      <trkpt lat="48.40622" lon="2.40559">
        <ele>73.41</ele>
        <time>2017-07-02T08:13:36Z</time>
      </trkpt>
      <trkpt lat="48.40632" lon="2.40553">
        <ele>73.75</ele>
        <time>2017-07-02T08:13:40Z</time>
      </trkpt>
      <trkpt lat="48.40637" lon="2.40551">
        <ele>73.94</ele>
        <time>2017-07-02T08:13:42Z</time>
      </trkpt>
      <trkpt lat="48.40647" lon="2.40552">
        <ele>74.75</ele>
        <time>2017-07-02T08:13:44Z</time>
      </trkpt>
      <trkpt lat="48.40652" lon="2.40547">
        <ele>75.01</ele>
        <time>2017-07-02T08:13:46Z</time>
      </trkpt>
      <trkpt lat="48.40659" lon="2.40545">
        <ele>75.32</ele>
        <time>2017-07-02T08:13:48Z</time>
      </trkpt>
      <trkpt lat="48.40664" lon="2.4054">
        <ele>75.22</ele>
        <time>2017-07-02T08:13:50Z</time>
      </trkpt>
      <trkpt lat="48.40668" lon="2.40538">
        <ele>75.16</ele>
        <time>2017-07-02T08:13:52Z</time>
      </trkpt>
      <trkpt lat="48.40673" lon="2.40532">
        <ele>75.04</ele>
        <time>2017-07-02T08:13:54Z</time>
      </trkpt>
      <trkpt lat="48.4068" lon="2.40529">
        <ele>75.51</ele>
        <time>2017-07-02T08:13:56Z</time>
      </trkpt>
      <trkpt lat="48.40686" lon="2.40526">
        <ele>76.1</ele>
        <time>2017-07-02T08:13:58Z</time>
      </trkpt>
      <trkpt lat="48.4069" lon="2.40523">
        <ele>76.65</ele>
        <time>2017-07-02T08:14:00Z</time>
      </trkpt>
      <trkpt lat="48.40695" lon="2.40518">
        <ele>77.38</ele>
        <time>2017-07-02T08:14:04Z</time>
      </trkpt>
      <trkpt lat="48.40701" lon="2.40514">
        <ele>78.23</ele>
        <time>2017-07-02T08:14:08Z</time>
      </trkpt>
      <trkpt lat="48.40708" lon="2.40511">
        <ele>79.11</ele>
        <time>2017-07-02T08:14:10Z</time>
      </trkpt>
      <trkpt lat="48.40713" lon="2.40509">
        <ele>79.7</ele>
        <time>2017-07-02T08:14:14Z</time>
      </trkpt>
      <trkpt lat="48.40717" lon="2.405">
        <ele>80.46</ele>
        <time>2017-07-02T08:14:20Z</time>
      </trkpt>
      <trkpt lat="48.40723" lon="2.40499">
        <ele>81.25</ele>
        <time>2017-07-02T08:14:24Z</time>
      </trkpt>
      <trkpt lat="48.40732" lon="2.40494">
        <ele>82.84</ele>
        <time>2017-07-02T08:14:28Z</time>
      </trkpt>
      <trkpt lat="48.40735" lon="2.40488">
        <ele>83.77</ele>
        <time>2017-07-02T08:14:34Z</time>
      </trkpt>
      <trkpt lat="48.4074" lon="2.40481">
        <ele>84.88</ele>
        <time>2017-07-02T08:14:42Z</time>
      </trkpt>
      <trkpt lat="48.40744" lon="2.40476">
        <ele>85.94</ele>
        <time>2017-07-02T08:14:46Z</time>
      </trkpt>
      <trkpt lat="48.40752" lon="2.40471">
        <ele>87.54</ele>
        <time>2017-07-02T08:14:52Z</time>
      </trkpt>
      <trkpt lat="48.40757" lon="2.4047">
        <ele>88.6</ele>
        <time>2017-07-02T08:14:54Z</time>
      </trkpt>
      <trkpt lat="48.40762" lon="2.40467">
        <ele>89.74</ele>
        <time>2017-07-02T08:14:56Z</time>
      </trkpt>
      <trkpt lat="48.40798" lon="2.40465">
        <ele>99.94</ele>
        <time>2017-07-02T08:15:28Z</time>
      </trkpt>
      <trkpt lat="48.40804" lon="2.40467">
        <ele>101.88</ele>
        <time>2017-07-02T08:15:31Z</time>
      </trkpt>
      <trkpt lat="48.4081" lon="2.40466">
        <ele>103.66</ele>
        <time>2017-07-02T08:15:37Z</time>
      </trkpt>
      <trkpt lat="48.40815" lon="2.40466">
        <ele>104.8</ele>
        <time>2017-07-02T08:15:49Z</time>
      </trkpt>
      <trkpt lat="48.40819" lon="2.4047">
        <ele>105.53</ele>
        <time>2017-07-02T08:15:55Z</time>
      </trkpt>
      <trkpt lat="48.40823" lon="2.40474">
        <ele>106.33</ele>
        <time>2017-07-02T08:16:01Z</time>
      </trkpt>
      <trkpt lat="48.40827" lon="2.4048">
        <ele>106.95</ele>
        <time>2017-07-02T08:16:05Z</time>
      </trkpt>
      <trkpt lat="48.40831" lon="2.40484">
        <ele>107.66</ele>
        <time>2017-07-02T08:16:09Z</time>
      </trkpt>
      <trkpt lat="48.40836" lon="2.40489">
        <ele>108.46</ele>
        <time>2017-07-02T08:16:13Z</time>
      </trkpt>
      <trkpt lat="48.40841" lon="2.40494">
        <ele>109.27</ele>
        <time>2017-07-02T08:16:17Z</time>
      </trkpt>
      <trkpt lat="48.40845" lon="2.40498">
        <ele>110.19</ele>
        <time>2017-07-02T08:16:21Z</time>
      </trkpt>
      <trkpt lat="48.40851" lon="2.405">
        <ele>111.4</ele>
        <time>2017-07-02T08:16:27Z</time>
      </trkpt>
      <trkpt lat="48.40856" lon="2.40506">
        <ele>112.27</ele>
        <time>2017-07-02T08:16:33Z</time>
      </trkpt>
      <trkpt lat="48.40862" lon="2.4051">
        <ele>113.39</ele>
        <time>2017-07-02T08:16:39Z</time>
      </trkpt>
      <trkpt lat="48.40868" lon="2.4051">
        <ele>114.07</ele>
        <time>2017-07-02T08:16:43Z</time>
      </trkpt>
      <trkpt lat="48.40874" lon="2.40511">
        <ele>114.8</ele>
        <time>2017-07-02T08:16:49Z</time>
      </trkpt>
      <trkpt lat="48.4088" lon="2.40514">
        <ele>115.34</ele>
        <time>2017-07-02T08:16:55Z</time>
      </trkpt>
      <trkpt lat="48.40885" lon="2.40515">
        <ele>115.91</ele>
        <time>2017-07-02T08:17:01Z</time>
      </trkpt>
      <trkpt lat="48.40889" lon="2.40512">
        <ele>116.56</ele>
        <time>2017-07-02T08:17:05Z</time>
      </trkpt>
      <trkpt lat="48.40894" lon="2.4051">
        <ele>117.43</ele>
        <time>2017-07-02T08:17:09Z</time>
      </trkpt>
      <trkpt lat="48.40901" lon="2.40506">
        <ele>118.55</ele>
        <time>2017-07-02T08:17:13Z</time>
      </trkpt>
      <trkpt lat="48.40906" lon="2.40503">
        <ele>119.46</ele>
        <time>2017-07-02T08:17:17Z</time>
      </trkpt>
      <trkpt lat="48.40913" lon="2.40501">
        <ele>120.46</ele>
        <time>2017-07-02T08:17:21Z</time>
      </trkpt>
      <trkpt lat="48.40919" lon="2.40503">
        <ele>121.23</ele>
        <time>2017-07-02T08:17:25Z</time>
      </trkpt>
      <trkpt lat="48.40923" lon="2.40507">
        <ele>121.66</ele>
        <time>2017-07-02T08:17:29Z</time>
      </trkpt>
      <trkpt lat="48.40928" lon="2.40512">
        <ele>122.26</ele>
        <time>2017-07-02T08:17:33Z</time>
      </trkpt>
      <trkpt lat="48.40936" lon="2.40516">
        <ele>123.07</ele>
        <time>2017-07-02T08:17:37Z</time>
      </trkpt>
      <trkpt lat="48.40942" lon="2.40518">
        <ele>123.73</ele>
        <time>2017-07-02T08:17:41Z</time>
      </trkpt>
      <trkpt lat="48.40947" lon="2.40517">
        <ele>124.09</ele>
        <time>2017-07-02T08:17:43Z</time>
      </trkpt>
      <trkpt lat="48.40953" lon="2.40515">
        <ele>124.32</ele>
        <time>2017-07-02T08:17:47Z</time>
      </trkpt>
      <trkpt lat="48.40959" lon="2.40515">
        <ele>124.53</ele>
        <time>2017-07-02T08:17:51Z</time>
      </trkpt>
      <trkpt lat="48.40968" lon="2.40516">
        <ele>124.85</ele>
        <time>2017-07-02T08:17:55Z</time>
      </trkpt>
      <trkpt lat="48.40975" lon="2.40515">
        <ele>124.8</ele>
        <time>2017-07-02T08:17:59Z</time>
      </trkpt>
      <trkpt lat="48.40981" lon="2.40511">
        <ele>124.44</ele>
        <time>2017-07-02T08:18:01Z</time>
      </trkpt>
      <trkpt lat="48.40988" lon="2.40504">
        <ele>124.28</ele>
        <time>2017-07-02T08:18:05Z</time>
      </trkpt>
      <trkpt lat="48.40991" lon="2.405">
        <ele>124.32</ele>
        <time>2017-07-02T08:18:07Z</time>
      </trkpt>
      <trkpt lat="48.40998" lon="2.40489">
        <ele>124.08</ele>
        <time>2017-07-02T08:18:11Z</time>
      </trkpt>
      <trkpt lat="48.41" lon="2.40482">
        <ele>124.01</ele>
        <time>2017-07-02T08:18:13Z</time>
      </trkpt>
      <trkpt lat="48.41003" lon="2.40475">
        <ele>124.03</ele>
        <time>2017-07-02T08:18:15Z</time>
      </trkpt>
      <trkpt lat="48.41007" lon="2.40469">
        <ele>124.08</ele>
        <time>2017-07-02T08:18:17Z</time>
      </trkpt>
      <trkpt lat="48.4101" lon="2.40463">
        <ele>124.2</ele>
        <time>2017-07-02T08:18:19Z</time>
      </trkpt>
      <trkpt lat="48.41014" lon="2.40457">
        <ele>124.27</ele>
        <time>2017-07-02T08:18:21Z</time>
      </trkpt>
      <trkpt lat="48.41019" lon="2.40451">
        <ele>124.26</ele>
        <time>2017-07-02T08:18:23Z</time>
      </trkpt>
      <trkpt lat="48.41023" lon="2.40444">
        <ele>124.21</ele>
        <time>2017-07-02T08:18:25Z</time>
      </trkpt>
      <trkpt lat="48.41028" lon="2.40437">
        <ele>124.55</ele>
        <time>2017-07-02T08:18:27Z</time>
      </trkpt>
      <trkpt lat="48.41032" lon="2.40431">
        <ele>124.82</ele>
        <time>2017-07-02T08:18:29Z</time>
      </trkpt>
      <trkpt lat="48.41037" lon="2.40426">
        <ele>124.88</ele>
        <time>2017-07-02T08:18:31Z</time>
      </trkpt>
      <trkpt lat="48.41042" lon="2.40425">
        <ele>124.67</ele>
        <time>2017-07-02T08:18:33Z</time>
      </trkpt>
      <trkpt lat="48.41052" lon="2.40432">
        <ele>124.09</ele>
        <time>2017-07-02T08:18:37Z</time>
      </trkpt>
      <trkpt lat="48.41063" lon="2.40441">
        <ele>123.97</ele>
        <time>2017-07-02T08:18:41Z</time>
      </trkpt>
      <trkpt lat="48.41069" lon="2.40442">
        <ele>123.96</ele>
        <time>2017-07-02T08:18:43Z</time>
      </trkpt>
      <trkpt lat="48.41075" lon="2.40439">
        <ele>123.87</ele>
        <time>2017-07-02T08:18:45Z</time>
      </trkpt>
      <trkpt lat="48.41081" lon="2.40435">
        <ele>123.68</ele>
        <time>2017-07-02T08:18:47Z</time>
      </trkpt>
      <trkpt lat="48.41085" lon="2.40431">
        <ele>123.11</ele>
        <time>2017-07-02T08:18:49Z</time>
      </trkpt>
      <trkpt lat="48.41092" lon="2.40424">
        <ele>121.24</ele>
        <time>2017-07-02T08:18:51Z</time>
      </trkpt>
      <trkpt lat="48.41098" lon="2.40421">
        <ele>119.6</ele>
        <time>2017-07-02T08:18:53Z</time>
      </trkpt>
      <trkpt lat="48.41104" lon="2.4042">
        <ele>118.05</ele>
        <time>2017-07-02T08:18:55Z</time>
      </trkpt>
      <trkpt lat="48.4111" lon="2.4042">
        <ele>116.5</ele>
        <time>2017-07-02T08:18:57Z</time>
      </trkpt>
      <trkpt lat="48.41115" lon="2.4042">
        <ele>115.25</ele>
        <time>2017-07-02T08:18:59Z</time>
      </trkpt>
      <trkpt lat="48.41122" lon="2.40419">
        <ele>112.98</ele>
        <time>2017-07-02T08:19:01Z</time>
      </trkpt>
      <trkpt lat="48.4113" lon="2.40419">
        <ele>110.73</ele>
        <time>2017-07-02T08:19:03Z</time>
      </trkpt>
      <trkpt lat="48.41135" lon="2.40419">
        <ele>109.18</ele>
        <time>2017-07-02T08:19:05Z</time>
      </trkpt>
      <trkpt lat="48.4114" lon="2.40423">
        <ele>107.8</ele>
        <time>2017-07-02T08:19:07Z</time>
      </trkpt>
      <trkpt lat="48.41146" lon="2.40427">
        <ele>105.57</ele>
        <time>2017-07-02T08:19:09Z</time>
      </trkpt>
      <trkpt lat="48.41151" lon="2.40435">
        <ele>103.91</ele>
        <time>2017-07-02T08:19:11Z</time>
      </trkpt>
      <trkpt lat="48.41154" lon="2.40441">
        <ele>103.23</ele>
        <time>2017-07-02T08:19:13Z</time>
      </trkpt>
      <trkpt lat="48.41159" lon="2.40448">
        <ele>101.71</ele>
        <time>2017-07-02T08:19:17Z</time>
      </trkpt>
      <trkpt lat="48.41162" lon="2.40459">
        <ele>101.98</ele>
        <time>2017-07-02T08:19:21Z</time>
      </trkpt>
      <trkpt lat="48.41165" lon="2.40471">
        <ele>102.35</ele>
        <time>2017-07-02T08:19:25Z</time>
      </trkpt>
      <trkpt lat="48.41168" lon="2.40483">
        <ele>102.89</ele>
        <time>2017-07-02T08:19:29Z</time>
      </trkpt>
      <trkpt lat="48.41169" lon="2.40491">
        <ele>103.44</ele>
        <time>2017-07-02T08:19:31Z</time>
      </trkpt>
      <trkpt lat="48.41174" lon="2.40501">
        <ele>103.23</ele>
        <time>2017-07-02T08:19:35Z</time>
      </trkpt>
      <trkpt lat="48.41174" lon="2.40508">
        <ele>104.07</ele>
        <time>2017-07-02T08:19:47Z</time>
      </trkpt>
      <trkpt lat="48.41177" lon="2.40513">
        <ele>103.89</ele>
        <time>2017-07-02T08:19:55Z</time>
      </trkpt>
      <trkpt lat="48.41234" lon="2.40593">
        <ele>94.71</ele>
        <time>2017-07-02T08:20:28Z</time>
      </trkpt>
      <trkpt lat="48.41242" lon="2.40603">
        <ele>93.31</ele>
        <time>2017-07-02T08:20:31Z</time>
      </trkpt>
      <trkpt lat="48.41249" lon="2.40612">
        <ele>92.18</ele>
        <time>2017-07-02T08:20:33Z</time>
      </trkpt>
      <trkpt lat="48.41257" lon="2.40621">
        <ele>91.46</ele>
        <time>2017-07-02T08:20:35Z</time>
      </trkpt>
      <trkpt lat="48.41266" lon="2.40626">
        <ele>90.88</ele>
        <time>2017-07-02T08:20:37Z</time>
      </trkpt>
      <trkpt lat="48.41276" lon="2.40632">
        <ele>90.63</ele>
        <time>2017-07-02T08:20:39Z</time>
      </trkpt>
      <trkpt lat="48.41281" lon="2.40641">
        <ele>90.99</ele>
        <time>2017-07-02T08:20:41Z</time>
      </trkpt>
      <trkpt lat="48.41281" lon="2.40656">
        <ele>91.49</ele>
        <time>2017-07-02T08:20:45Z</time>
      </trkpt>
      <trkpt lat="48.41282" lon="2.40668">
        <ele>92</ele>
        <time>2017-07-02T08:20:49Z</time>
      </trkpt>
      <trkpt lat="48.41281" lon="2.40679">
        <ele>93.09</ele>
        <time>2017-07-02T08:20:53Z</time>
      </trkpt>
      <trkpt lat="48.41283" lon="2.40691">
        <ele>94.09</ele>
        <time>2017-07-02T08:20:57Z</time>
      </trkpt>
      <trkpt lat="48.41283" lon="2.40703">
        <ele>94.78</ele>
        <time>2017-07-02T08:21:01Z</time>
      </trkpt>
      <trkpt lat="48.41284" lon="2.40715">
        <ele>95.05</ele>
        <time>2017-07-02T08:21:05Z</time>
      </trkpt>
      <trkpt lat="48.41284" lon="2.40727">
        <ele>95.48</ele>
        <time>2017-07-02T08:21:09Z</time>
      </trkpt>
      <trkpt lat="48.4129" lon="2.40735">
        <ele>94.95</ele>
        <time>2017-07-02T08:21:13Z</time>
      </trkpt>
      <trkpt lat="48.41297" lon="2.40733">
        <ele>94</ele>
        <time>2017-07-02T08:21:17Z</time>
      </trkpt>
      <trkpt lat="48.41304" lon="2.40729">
        <ele>93.17</ele>
        <time>2017-07-02T08:21:19Z</time>
      </trkpt>
      <trkpt lat="48.41309" lon="2.40726">
        <ele>92.62</ele>
        <time>2017-07-02T08:21:21Z</time>
      </trkpt>
      <trkpt lat="48.41316" lon="2.40722">
        <ele>91.85</ele>
        <time>2017-07-02T08:21:23Z</time>
      </trkpt>
      <trkpt lat="48.41327" lon="2.40716">
        <ele>90.63</ele>
        <time>2017-07-02T08:21:25Z</time>
      </trkpt>
      <trkpt lat="48.41332" lon="2.40713">
        <ele>90.15</ele>
        <time>2017-07-02T08:21:27Z</time>
      </trkpt>
      <trkpt lat="48.41336" lon="2.40709">
        <ele>89.72</ele>
        <time>2017-07-02T08:21:29Z</time>
      </trkpt>
      <trkpt lat="48.41342" lon="2.40702">
        <ele>88.93</ele>
        <time>2017-07-02T08:21:31Z</time>
      </trkpt>
      <trkpt lat="48.41346" lon="2.40692">
        <ele>88.69</ele>
        <time>2017-07-02T08:21:35Z</time>
      </trkpt>
      <trkpt lat="48.41348" lon="2.40684">
        <ele>88.65</ele>
        <time>2017-07-02T08:21:45Z</time>
      </trkpt>
      <trkpt lat="48.4135" lon="2.40676">
        <ele>88.64</ele>
        <time>2017-07-02T08:22:33Z</time>
      </trkpt>
      <trkpt lat="48.41348" lon="2.40669">
        <ele>88.92</ele>
        <time>2017-07-02T08:23:27Z</time>
      </trkpt>
      <trkpt lat="48.41343" lon="2.40667">
        <ele>89.3</ele>
        <time>2017-07-02T08:23:39Z</time>
      </trkpt>
      <trkpt lat="48.41339" lon="2.40662">
        <ele>89.46</ele>
        <time>2017-07-02T08:23:51Z</time>
      </trkpt>
      <trkpt lat="48.41334" lon="2.4065">
        <ele>89.35</ele>
        <time>2017-07-02T08:23:55Z</time>
      </trkpt>
      <trkpt lat="48.41332" lon="2.40642">
        <ele>89.14</ele>
        <time>2017-07-02T08:23:57Z</time>
      </trkpt>
      <trkpt lat="48.41331" lon="2.40635">
        <ele>88.94</ele>
        <time>2017-07-02T08:23:59Z</time>
      </trkpt>
      <trkpt lat="48.41329" lon="2.40622">
        <ele>88.55</ele>
        <time>2017-07-02T08:24:03Z</time>
      </trkpt>
      <trkpt lat="48.41327" lon="2.40615">
        <ele>88.37</ele>
        <time>2017-07-02T08:24:05Z</time>
      </trkpt>
      <trkpt lat="48.41323" lon="2.40607">
        <ele>87.94</ele>
        <time>2017-07-02T08:24:07Z</time>
      </trkpt>
      <trkpt lat="48.41317" lon="2.40598">
        <ele>87.21</ele>
        <time>2017-07-02T08:24:09Z</time>
      </trkpt>
      <trkpt lat="48.4131" lon="2.40588">
        <ele>86.36</ele>
        <time>2017-07-02T08:24:11Z</time>
      </trkpt>
      <trkpt lat="48.41299" lon="2.40574">
        <ele>85.97</ele>
        <time>2017-07-02T08:24:13Z</time>
      </trkpt>
      <trkpt lat="48.41292" lon="2.40563">
        <ele>85.56</ele>
        <time>2017-07-02T08:24:15Z</time>
      </trkpt>
      <trkpt lat="48.41286" lon="2.40553">
        <ele>84.81</ele>
        <time>2017-07-02T08:24:17Z</time>
      </trkpt>
      <trkpt lat="48.41283" lon="2.40544">
        <ele>84.13</ele>
        <time>2017-07-02T08:24:19Z</time>
      </trkpt>
      <trkpt lat="48.41282" lon="2.40535">
        <ele>83.43</ele>
        <time>2017-07-02T08:24:21Z</time>
      </trkpt>
      <trkpt lat="48.41282" lon="2.40526">
        <ele>82.72</ele>
        <time>2017-07-02T08:24:23Z</time>
      </trkpt>
      <trkpt lat="48.41279" lon="2.40515">
        <ele>82.09</ele>
        <time>2017-07-02T08:24:25Z</time>
      </trkpt>
      <trkpt lat="48.41273" lon="2.40509">
        <ele>82.51</ele>
        <time>2017-07-02T08:24:27Z</time>
      </trkpt>
      <trkpt lat="48.41266" lon="2.40508">
        <ele>83.76</ele>
        <time>2017-07-02T08:24:29Z</time>
      </trkpt>
      <trkpt lat="48.41259" lon="2.40511">
        <ele>85.17</ele>
        <time>2017-07-02T08:24:31Z</time>
      </trkpt>
      <trkpt lat="48.41253" lon="2.40514">
        <ele>86.55</ele>
        <time>2017-07-02T08:24:33Z</time>
      </trkpt>
      <trkpt lat="48.41247" lon="2.40517">
        <ele>87.82</ele>
        <time>2017-07-02T08:24:35Z</time>
      </trkpt>
      <trkpt lat="48.41241" lon="2.40518">
        <ele>88.96</ele>
        <time>2017-07-02T08:24:37Z</time>
      </trkpt>
      <trkpt lat="48.41235" lon="2.40518">
        <ele>89.93</ele>
        <time>2017-07-02T08:24:39Z</time>
      </trkpt>
      <trkpt lat="48.41231" lon="2.40514">
        <ele>90.53</ele>
        <time>2017-07-02T08:24:41Z</time>
      </trkpt>
      <trkpt lat="48.41227" lon="2.40507">
        <ele>90.69</ele>
        <time>2017-07-02T08:24:43Z</time>
      </trkpt>
      <trkpt lat="48.41224" lon="2.40499">
        <ele>90.64</ele>
        <time>2017-07-02T08:24:45Z</time>
      </trkpt>
      <trkpt lat="48.4122" lon="2.4049">
        <ele>91</ele>
        <time>2017-07-02T08:24:47Z</time>
      </trkpt>
      <trkpt lat="48.41217" lon="2.40477">
        <ele>91</ele>
        <time>2017-07-02T08:24:49Z</time>
      </trkpt>
      <trkpt lat="48.41214" lon="2.40464">
        <ele>90.5</ele>
        <time>2017-07-02T08:24:51Z</time>
      </trkpt>
      <trkpt lat="48.4121" lon="2.40451">
        <ele>90.1</ele>
        <time>2017-07-02T08:24:53Z</time>
      </trkpt>
      <trkpt lat="48.41207" lon="2.40439">
        <ele>89.49</ele>
        <time>2017-07-02T08:24:55Z</time>
      </trkpt>
      <trkpt lat="48.41204" lon="2.40426">
        <ele>88.09</ele>
        <time>2017-07-02T08:24:57Z</time>
      </trkpt>
      <trkpt lat="48.41159" lon="2.40237">
        <ele>83.41</ele>
        <time>2017-07-02T08:25:26Z</time>
      </trkpt>
      <trkpt lat="48.41155" lon="2.40199">
        <ele>82.24</ele>
        <time>2017-07-02T08:25:31Z</time>
      </trkpt>
      <trkpt lat="48.41153" lon="2.40182">
        <ele>81.29</ele>
        <time>2017-07-02T08:25:33Z</time>
      </trkpt>
      <trkpt lat="48.41153" lon="2.40164">
        <ele>79.8</ele>
        <time>2017-07-02T08:25:35Z</time>
      </trkpt>
      <trkpt lat="48.41152" lon="2.40146">
        <ele>79.41</ele>
        <time>2017-07-02T08:25:37Z</time>
      </trkpt>
      <trkpt lat="48.41147" lon="2.40137">
        <ele>80.13</ele>
        <time>2017-07-02T08:25:39Z</time>
      </trkpt>
      <trkpt lat="48.41138" lon="2.40121">
        <ele>80.14</ele>
        <time>2017-07-02T08:25:41Z</time>
      </trkpt>
      <trkpt lat="48.41126" lon="2.40111">
        <ele>80.44</ele>
        <time>2017-07-02T08:25:43Z</time>
      </trkpt>
      <trkpt lat="48.41117" lon="2.40105">
        <ele>80.88</ele>
        <time>2017-07-02T08:25:45Z</time>
      </trkpt>
      <trkpt lat="48.41111" lon="2.40103">
        <ele>81.45</ele>
        <time>2017-07-02T08:25:47Z</time>
      </trkpt>
      <trkpt lat="48.41104" lon="2.401">
        <ele>82.45</ele>
        <time>2017-07-02T08:25:49Z</time>
      </trkpt>
      <trkpt lat="48.41099" lon="2.40092">
        <ele>82.48</ele>
        <time>2017-07-02T08:25:51Z</time>
      </trkpt>
      <trkpt lat="48.41094" lon="2.40088">
        <ele>82.97</ele>
        <time>2017-07-02T08:25:53Z</time>
      </trkpt>
      <trkpt lat="48.4109" lon="2.40084">
        <ele>83.14</ele>
        <time>2017-07-02T08:25:55Z</time>
      </trkpt>
      <trkpt lat="48.41086" lon="2.40079">
        <ele>83.37</ele>
        <time>2017-07-02T08:25:57Z</time>
      </trkpt>
      <trkpt lat="48.41082" lon="2.40073">
        <ele>83.31</ele>
        <time>2017-07-02T08:25:59Z</time>
      </trkpt>
      <trkpt lat="48.41075" lon="2.40062">
        <ele>83.12</ele>
        <time>2017-07-02T08:26:01Z</time>
      </trkpt>
      <trkpt lat="48.41069" lon="2.40055">
        <ele>82.99</ele>
        <time>2017-07-02T08:26:03Z</time>
      </trkpt>
      <trkpt lat="48.41061" lon="2.40042">
        <ele>82.75</ele>
        <time>2017-07-02T08:26:05Z</time>
      </trkpt>
      <trkpt lat="48.41054" lon="2.40032">
        <ele>82.12</ele>
        <time>2017-07-02T08:26:07Z</time>
      </trkpt>
      <trkpt lat="48.41047" lon="2.4002">
        <ele>80.07</ele>
        <time>2017-07-02T08:26:09Z</time>
      </trkpt>
      <trkpt lat="48.4104" lon="2.4001">
        <ele>78.17</ele>
        <time>2017-07-02T08:26:11Z</time>
      </trkpt>
      <trkpt lat="48.41035" lon="2.39999">
        <ele>76.18</ele>
        <time>2017-07-02T08:26:13Z</time>
      </trkpt>
      <trkpt lat="48.41032" lon="2.39986">
        <ele>74.94</ele>
        <time>2017-07-02T08:26:15Z</time>
      </trkpt>
      <trkpt lat="48.41026" lon="2.39974">
        <ele>74.17</ele>
        <time>2017-07-02T08:26:17Z</time>
      </trkpt>
      <trkpt lat="48.4102" lon="2.39963">
        <ele>73.18</ele>
        <time>2017-07-02T08:26:19Z</time>
      </trkpt>
      <trkpt lat="48.41004" lon="2.39952">
        <ele>73.19</ele>
        <time>2017-07-02T08:26:21Z</time>
      </trkpt>
      <trkpt lat="48.40993" lon="2.39942">
        <ele>73.02</ele>
        <time>2017-07-02T08:26:23Z</time>
      </trkpt>
      <trkpt lat="48.40984" lon="2.39925">
        <ele>71.83</ele>
        <time>2017-07-02T08:26:25Z</time>
      </trkpt>
      <trkpt lat="48.40976" lon="2.3991">
        <ele>71.27</ele>
        <time>2017-07-02T08:26:27Z</time>
      </trkpt>
      <trkpt lat="48.40965" lon="2.39894">
        <ele>70.93</ele>
        <time>2017-07-02T08:26:29Z</time>
      </trkpt>
      <trkpt lat="48.40953" lon="2.39877">
        <ele>70.28</ele>
        <time>2017-07-02T08:26:31Z</time>
      </trkpt>
      <trkpt lat="48.40942" lon="2.3986">
        <ele>69.21</ele>
        <time>2017-07-02T08:26:33Z</time>
      </trkpt>
      <trkpt lat="48.40935" lon="2.39848">
        <ele>69.23</ele>
        <time>2017-07-02T08:26:35Z</time>
      </trkpt>
      <trkpt lat="48.40926" lon="2.39836">
        <ele>68.92</ele>
        <time>2017-07-02T08:26:37Z</time>
      </trkpt>
      <trkpt lat="48.40918" lon="2.39829">
        <ele>68.65</ele>
        <time>2017-07-02T08:26:39Z</time>
      </trkpt>
      <trkpt lat="48.40907" lon="2.39821">
        <ele>67.61</ele>
        <time>2017-07-02T08:26:41Z</time>
      </trkpt>
      <trkpt lat="48.40898" lon="2.39814">
        <ele>66.47</ele>
        <time>2017-07-02T08:26:43Z</time>
      </trkpt>
      <trkpt lat="48.40889" lon="2.39807">
        <ele>65.13</ele>
        <time>2017-07-02T08:26:45Z</time>
      </trkpt>
      <trkpt lat="48.40894" lon="2.39797">
        <ele>63.04</ele>
        <time>2017-07-02T08:26:47Z</time>
      </trkpt>
      <trkpt lat="48.40905" lon="2.39786">
        <ele>62.16</ele>
        <time>2017-07-02T08:26:49Z</time>
      </trkpt>
      <trkpt lat="48.4091" lon="2.39786">
        <ele>62.93</ele>
        <time>2017-07-02T08:26:51Z</time>
      </trkpt>
      <trkpt lat="48.40915" lon="2.39785">
        <ele>63.81</ele>
        <time>2017-07-02T08:26:53Z</time>
      </trkpt>
      <trkpt lat="48.40921" lon="2.39783">
        <ele>63.09</ele>
        <time>2017-07-02T08:26:55Z</time>
      </trkpt>
      <trkpt lat="48.40925" lon="2.39783">
        <ele>62.21</ele>
        <time>2017-07-02T08:26:57Z</time>
      </trkpt>
      <trkpt lat="48.40932" lon="2.39781">
        <ele>60.46</ele>
        <time>2017-07-02T08:26:59Z</time>
      </trkpt>
      <trkpt lat="48.40941" lon="2.39779">
        <ele>58.19</ele>
        <time>2017-07-02T08:27:01Z</time>
      </trkpt>
      <trkpt lat="48.40949" lon="2.39775">
        <ele>57.36</ele>
        <time>2017-07-02T08:27:03Z</time>
      </trkpt>
      <trkpt lat="48.40958" lon="2.39773">
        <ele>57.65</ele>
        <time>2017-07-02T08:27:05Z</time>
      </trkpt>
      <trkpt lat="48.40968" lon="2.39767">
        <ele>58.53</ele>
        <time>2017-07-02T08:27:07Z</time>
      </trkpt>
      <trkpt lat="48.40977" lon="2.39769">
        <ele>59.11</ele>
        <time>2017-07-02T08:27:09Z</time>
      </trkpt>
      <trkpt lat="48.40986" lon="2.39766">
        <ele>60.72</ele>
        <time>2017-07-02T08:27:11Z</time>
      </trkpt>
      <trkpt lat="48.40996" lon="2.39762">
        <ele>61.76</ele>
        <time>2017-07-02T08:27:13Z</time>
      </trkpt>
      <trkpt lat="48.41004" lon="2.39756">
        <ele>61.01</ele>
        <time>2017-07-02T08:27:15Z</time>
      </trkpt>
      <trkpt lat="48.41014" lon="2.39756">
        <ele>60.65</ele>
        <time>2017-07-02T08:27:17Z</time>
      </trkpt>
      <trkpt lat="48.41024" lon="2.39753">
        <ele>60.17</ele>
        <time>2017-07-02T08:27:19Z</time>
      </trkpt>
      <trkpt lat="48.41035" lon="2.39755">
        <ele>60.08</ele>
        <time>2017-07-02T08:27:21Z</time>
      </trkpt>
      <trkpt lat="48.41046" lon="2.39758">
        <ele>60.18</ele>
        <time>2017-07-02T08:27:23Z</time>
      </trkpt>
      <trkpt lat="48.41055" lon="2.39759">
        <ele>60.23</ele>
        <time>2017-07-02T08:27:25Z</time>
      </trkpt>
      <trkpt lat="48.41067" lon="2.3976">
        <ele>59.86</ele>
        <time>2017-07-02T08:27:27Z</time>
      </trkpt>
      <trkpt lat="48.41076" lon="2.39762">
        <ele>59.71</ele>
        <time>2017-07-02T08:27:29Z</time>
      </trkpt>
      <trkpt lat="48.41087" lon="2.39764">
        <ele>59.73</ele>
        <time>2017-07-02T08:27:31Z</time>
      </trkpt>
      <trkpt lat="48.41099" lon="2.39765">
        <ele>60.42</ele>
        <time>2017-07-02T08:27:33Z</time>
      </trkpt>
      <trkpt lat="48.41108" lon="2.39766">
        <ele>61.03</ele>
        <time>2017-07-02T08:27:35Z</time>
      </trkpt>
      <trkpt lat="48.4112" lon="2.39771">
        <ele>61.66</ele>
        <time>2017-07-02T08:27:37Z</time>
      </trkpt>
      <trkpt lat="48.41132" lon="2.39773">
        <ele>61.92</ele>
        <time>2017-07-02T08:27:39Z</time>
      </trkpt>
      <trkpt lat="48.41144" lon="2.39776">
        <ele>62.16</ele>
        <time>2017-07-02T08:27:41Z</time>
      </trkpt>
      <trkpt lat="48.41155" lon="2.39782">
        <ele>62.23</ele>
        <time>2017-07-02T08:27:43Z</time>
      </trkpt>
      <trkpt lat="48.41169" lon="2.39783">
        <ele>61.86</ele>
        <time>2017-07-02T08:27:45Z</time>
      </trkpt>
      <trkpt lat="48.41179" lon="2.39784">
        <ele>61.31</ele>
        <time>2017-07-02T08:27:47Z</time>
      </trkpt>
      <trkpt lat="48.4119" lon="2.39787">
        <ele>60.43</ele>
        <time>2017-07-02T08:27:49Z</time>
      </trkpt>
      <trkpt lat="48.41202" lon="2.3979">
        <ele>60.02</ele>
        <time>2017-07-02T08:27:51Z</time>
      </trkpt>
      <trkpt lat="48.41214" lon="2.39794">
        <ele>59.4</ele>
        <time>2017-07-02T08:27:53Z</time>
      </trkpt>
      <trkpt lat="48.41225" lon="2.39796">
        <ele>59.43</ele>
        <time>2017-07-02T08:27:55Z</time>
      </trkpt>
      <trkpt lat="48.41238" lon="2.398">
        <ele>59.98</ele>
        <time>2017-07-02T08:27:57Z</time>
      </trkpt>
      <trkpt lat="48.41249" lon="2.39804">
        <ele>60.97</ele>
        <time>2017-07-02T08:27:59Z</time>
      </trkpt>
      <trkpt lat="48.4126" lon="2.39808">
        <ele>60.95</ele>
        <time>2017-07-02T08:28:01Z</time>
      </trkpt>
      <trkpt lat="48.41272" lon="2.39809">
        <ele>60.8</ele>
        <time>2017-07-02T08:28:03Z</time>
      </trkpt>
      <trkpt lat="48.41285" lon="2.39813">
        <ele>60.7</ele>
        <time>2017-07-02T08:28:05Z</time>
      </trkpt>
      <trkpt lat="48.41297" lon="2.39815">
        <ele>61.04</ele>
        <time>2017-07-02T08:28:07Z</time>
      </trkpt>
      <trkpt lat="48.41311" lon="2.39821">
        <ele>60.15</ele>
        <time>2017-07-02T08:28:09Z</time>
      </trkpt>
      <trkpt lat="48.41322" lon="2.39829">
        <ele>58.31</ele>
        <time>2017-07-02T08:28:11Z</time>
      </trkpt>
      <trkpt lat="48.41334" lon="2.39835">
        <ele>57.15</ele>
        <time>2017-07-02T08:28:13Z</time>
      </trkpt>
      <trkpt lat="48.41345" lon="2.39841">
        <ele>60.29</ele>
        <time>2017-07-02T08:28:15Z</time>
      </trkpt>
      <trkpt lat="48.41358" lon="2.39848">
        <ele>63.98</ele>
        <time>2017-07-02T08:28:17Z</time>
      </trkpt>
      <trkpt lat="48.4137" lon="2.39856">
        <ele>64.28</ele>
        <time>2017-07-02T08:28:19Z</time>
      </trkpt>
      <trkpt lat="48.41384" lon="2.39862">
        <ele>63.41</ele>
        <time>2017-07-02T08:28:21Z</time>
      </trkpt>
      <trkpt lat="48.41397" lon="2.39867">
        <ele>62.39</ele>
        <time>2017-07-02T08:28:23Z</time>
      </trkpt>
      <trkpt lat="48.41406" lon="2.39872">
        <ele>61.83</ele>
        <time>2017-07-02T08:28:25Z</time>
      </trkpt>
      <trkpt lat="48.41415" lon="2.39882">
        <ele>62.23</ele>
        <time>2017-07-02T08:28:27Z</time>
      </trkpt>
      <trkpt lat="48.41425" lon="2.39888">
        <ele>62.05</ele>
        <time>2017-07-02T08:28:29Z</time>
      </trkpt>
      <trkpt lat="48.41435" lon="2.39894">
        <ele>61.04</ele>
        <time>2017-07-02T08:28:31Z</time>
      </trkpt>
      <trkpt lat="48.41445" lon="2.39897">
        <ele>60.01</ele>
        <time>2017-07-02T08:28:33Z</time>
      </trkpt>
      <trkpt lat="48.41456" lon="2.39903">
        <ele>60.2</ele>
        <time>2017-07-02T08:28:35Z</time>
      </trkpt>
      <trkpt lat="48.41466" lon="2.39907">
        <ele>60.52</ele>
        <time>2017-07-02T08:28:37Z</time>
      </trkpt>
      <trkpt lat="48.41476" lon="2.39912">
        <ele>60.98</ele>
        <time>2017-07-02T08:28:39Z</time>
      </trkpt>
      <trkpt lat="48.41486" lon="2.39917">
        <ele>61.48</ele>
        <time>2017-07-02T08:28:41Z</time>
      </trkpt>
      <trkpt lat="48.41495" lon="2.3992">
        <ele>61.4</ele>
        <time>2017-07-02T08:28:43Z</time>
      </trkpt>
      <trkpt lat="48.41504" lon="2.39924">
        <ele>61.4</ele>
        <time>2017-07-02T08:28:45Z</time>
      </trkpt>
      <trkpt lat="48.41513" lon="2.39929">
        <ele>62.55</ele>
        <time>2017-07-02T08:28:47Z</time>
      </trkpt>
      <trkpt lat="48.41521" lon="2.39931">
        <ele>64.48</ele>
        <time>2017-07-02T08:28:49Z</time>
      </trkpt>
      <trkpt lat="48.41529" lon="2.39936">
        <ele>66.31</ele>
        <time>2017-07-02T08:28:51Z</time>
      </trkpt>
      <trkpt lat="48.41536" lon="2.39936">
        <ele>65.98</ele>
        <time>2017-07-02T08:28:53Z</time>
      </trkpt>
      <trkpt lat="48.41545" lon="2.39937">
        <ele>65.56</ele>
        <time>2017-07-02T08:28:55Z</time>
      </trkpt>
      <trkpt lat="48.41551" lon="2.39939">
        <ele>65.23</ele>
        <time>2017-07-02T08:28:57Z</time>
      </trkpt>
      <trkpt lat="48.41562" lon="2.39946">
        <ele>63.33</ele>
        <time>2017-07-02T08:28:59Z</time>
      </trkpt>
      <trkpt lat="48.41573" lon="2.39948">
        <ele>60.89</ele>
        <time>2017-07-02T08:29:01Z</time>
      </trkpt>
      <trkpt lat="48.41582" lon="2.39954">
        <ele>60.53</ele>
        <time>2017-07-02T08:29:03Z</time>
      </trkpt>
      <trkpt lat="48.41586" lon="2.39957">
        <ele>61.78</ele>
        <time>2017-07-02T08:29:05Z</time>
      </trkpt>
      <trkpt lat="48.41599" lon="2.39963">
        <ele>66.01</ele>
        <time>2017-07-02T08:29:07Z</time>
      </trkpt>
      <trkpt lat="48.41608" lon="2.39963">
        <ele>67.84</ele>
        <time>2017-07-02T08:29:09Z</time>
      </trkpt>
      <trkpt lat="48.41617" lon="2.39967">
        <ele>68.6</ele>
        <time>2017-07-02T08:29:11Z</time>
      </trkpt>
      <trkpt lat="48.41627" lon="2.39969">
        <ele>68.75</ele>
        <time>2017-07-02T08:29:13Z</time>
      </trkpt>
      <trkpt lat="48.41636" lon="2.39971">
        <ele>68.94</ele>
        <time>2017-07-02T08:29:15Z</time>
      </trkpt>
      <trkpt lat="48.41647" lon="2.39972">
        <ele>70.46</ele>
        <time>2017-07-02T08:29:17Z</time>
      </trkpt>
      <trkpt lat="48.41656" lon="2.39975">
        <ele>72.08</ele>
        <time>2017-07-02T08:29:19Z</time>
      </trkpt>
      <trkpt lat="48.41663" lon="2.39974">
        <ele>73.23</ele>
        <time>2017-07-02T08:29:21Z</time>
      </trkpt>
      <trkpt lat="48.41673" lon="2.3998">
        <ele>73.71</ele>
        <time>2017-07-02T08:29:23Z</time>
      </trkpt>
      <trkpt lat="48.41682" lon="2.39983">
        <ele>73.63</ele>
        <time>2017-07-02T08:29:25Z</time>
      </trkpt>
      <trkpt lat="48.41691" lon="2.39988">
        <ele>73.43</ele>
        <time>2017-07-02T08:29:27Z</time>
      </trkpt>
      <trkpt lat="48.41697" lon="2.39989">
        <ele>73.59</ele>
        <time>2017-07-02T08:29:29Z</time>
      </trkpt>
      <trkpt lat="48.41705" lon="2.39993">
        <ele>74.22</ele>
        <time>2017-07-02T08:29:31Z</time>
      </trkpt>
      <trkpt lat="48.41709" lon="2.39987">
        <ele>74.52</ele>
        <time>2017-07-02T08:29:33Z</time>
      </trkpt>
      <trkpt lat="48.41717" lon="2.39991">
        <ele>75.25</ele>
        <time>2017-07-02T08:29:35Z</time>
      </trkpt>
      <trkpt lat="48.41729" lon="2.39994">
        <ele>75.75</ele>
        <time>2017-07-02T08:29:37Z</time>
      </trkpt>
      <trkpt lat="48.41741" lon="2.39995">
        <ele>75.68</ele>
        <time>2017-07-02T08:29:39Z</time>
      </trkpt>
      <trkpt lat="48.41753" lon="2.39997">
        <ele>75.78</ele>
        <time>2017-07-02T08:29:41Z</time>
      </trkpt>
      <trkpt lat="48.41763" lon="2.39998">
        <ele>75.88</ele>
        <time>2017-07-02T08:29:43Z</time>
      </trkpt>
      <trkpt lat="48.41772" lon="2.39999">
        <ele>75.9</ele>
        <time>2017-07-02T08:29:45Z</time>
      </trkpt>
      <trkpt lat="48.41778" lon="2.40004">
        <ele>76.13</ele>
        <time>2017-07-02T08:29:47Z</time>
      </trkpt>
      <trkpt lat="48.41786" lon="2.40007">
        <ele>76.17</ele>
        <time>2017-07-02T08:29:49Z</time>
      </trkpt>
      <trkpt lat="48.41794" lon="2.40008">
        <ele>76.12</ele>
        <time>2017-07-02T08:29:51Z</time>
      </trkpt>
      <trkpt lat="48.41803" lon="2.40009">
        <ele>76.03</ele>
        <time>2017-07-02T08:29:53Z</time>
      </trkpt>
      <trkpt lat="48.41811" lon="2.40011">
        <ele>76.25</ele>
        <time>2017-07-02T08:29:55Z</time>
      </trkpt>
      <trkpt lat="48.41818" lon="2.40013">
        <ele>76.46</ele>
        <time>2017-07-02T08:29:57Z</time>
      </trkpt>
      <trkpt lat="48.41959" lon="2.40087">
        <ele>74.25</ele>
        <time>2017-07-02T08:30:29Z</time>
      </trkpt>
      <trkpt lat="48.41964" lon="2.40085">
        <ele>74.57</ele>
        <time>2017-07-02T08:30:32Z</time>
      </trkpt>
      <trkpt lat="48.4197" lon="2.40092">
        <ele>74.52</ele>
        <time>2017-07-02T08:30:34Z</time>
      </trkpt>
      <trkpt lat="48.41975" lon="2.40097">
        <ele>74.61</ele>
        <time>2017-07-02T08:30:36Z</time>
      </trkpt>
      <trkpt lat="48.41981" lon="2.40101">
        <ele>74.7</ele>
        <time>2017-07-02T08:30:38Z</time>
      </trkpt>
      <trkpt lat="48.41987" lon="2.40105">
        <ele>74.76</ele>
        <time>2017-07-02T08:30:40Z</time>
      </trkpt>
      <trkpt lat="48.41992" lon="2.40109">
        <ele>74.8</ele>
        <time>2017-07-02T08:30:42Z</time>
      </trkpt>
      <trkpt lat="48.41998" lon="2.40112">
        <ele>74.9</ele>
        <time>2017-07-02T08:30:46Z</time>
      </trkpt>
      <trkpt lat="48.42003" lon="2.40112">
        <ele>75.25</ele>
        <time>2017-07-02T08:32:52Z</time>
      </trkpt>
      <trkpt lat="48.42007" lon="2.40114">
        <ele>75.63</ele>
        <time>2017-07-02T08:34:18Z</time>
      </trkpt>
      <trkpt lat="48.42011" lon="2.40117">
        <ele>75.84</ele>
        <time>2017-07-02T08:36:26Z</time>
      </trkpt>
      <trkpt lat="48.42009" lon="2.40126">
        <ele>75.08</ele>
        <time>2017-07-02T08:39:10Z</time>
      </trkpt>
      <trkpt lat="48.42011" lon="2.40137">
        <ele>74.53</ele>
        <time>2017-07-02T08:39:14Z</time>
      </trkpt>
      <trkpt lat="48.42012" lon="2.40148">
        <ele>73.97</ele>
        <time>2017-07-02T08:39:18Z</time>
      </trkpt>
      <trkpt lat="48.42011" lon="2.40156">
        <ele>73.52</ele>
        <time>2017-07-02T08:39:22Z</time>
      </trkpt>
      <trkpt lat="48.42005" lon="2.40159">
        <ele>73.34</ele>
        <time>2017-07-02T08:39:24Z</time>
      </trkpt>
      <trkpt lat="48.42004" lon="2.4017">
        <ele>73</ele>
        <time>2017-07-02T08:39:30Z</time>
      </trkpt>
      <trkpt lat="48.42002" lon="2.40186">
        <ele>73</ele>
        <time>2017-07-02T08:39:34Z</time>
      </trkpt>
      <trkpt lat="48.42002" lon="2.40196">
        <ele>73.1</ele>
        <time>2017-07-02T08:39:36Z</time>
      </trkpt>
      <trkpt lat="48.42" lon="2.40205">
        <ele>73.78</ele>
        <time>2017-07-02T08:39:38Z</time>
      </trkpt>
      <trkpt lat="48.42" lon="2.40214">
        <ele>74.4</ele>
        <time>2017-07-02T08:39:40Z</time>
      </trkpt>
      <trkpt lat="48.42" lon="2.40222">
        <ele>74.98</ele>
        <time>2017-07-02T08:39:42Z</time>
      </trkpt>
      <trkpt lat="48.42" lon="2.40231">
        <ele>74.39</ele>
        <time>2017-07-02T08:39:44Z</time>
      </trkpt>
      <trkpt lat="48.41999" lon="2.40239">
        <ele>73.82</ele>
        <time>2017-07-02T08:39:46Z</time>
      </trkpt>
      <trkpt lat="48.41996" lon="2.40247">
        <ele>73.35</ele>
        <time>2017-07-02T08:39:48Z</time>
      </trkpt>
      <trkpt lat="48.41993" lon="2.40254">
        <ele>73.33</ele>
        <time>2017-07-02T08:39:50Z</time>
      </trkpt>
      <trkpt lat="48.41991" lon="2.40263">
        <ele>73.49</ele>
        <time>2017-07-02T08:39:52Z</time>
      </trkpt>
      <trkpt lat="48.41987" lon="2.40273">
        <ele>73.53</ele>
        <time>2017-07-02T08:39:54Z</time>
      </trkpt>
      <trkpt lat="48.41988" lon="2.40284">
        <ele>74.02</ele>
        <time>2017-07-02T08:39:56Z</time>
      </trkpt>
      <trkpt lat="48.41991" lon="2.40295">
        <ele>74.94</ele>
        <time>2017-07-02T08:39:58Z</time>
      </trkpt>
      <trkpt lat="48.41992" lon="2.40306">
        <ele>75.74</ele>
        <time>2017-07-02T08:40:00Z</time>
      </trkpt>
      <trkpt lat="48.41992" lon="2.40316">
        <ele>76.01</ele>
        <time>2017-07-02T08:40:02Z</time>
      </trkpt>
      <trkpt lat="48.41992" lon="2.40326">
        <ele>76.23</ele>
        <time>2017-07-02T08:40:04Z</time>
      </trkpt>
      <trkpt lat="48.41993" lon="2.40334">
        <ele>76.53</ele>
        <time>2017-07-02T08:40:06Z</time>
      </trkpt>
      <trkpt lat="48.41994" lon="2.40343">
        <ele>76.94</ele>
        <time>2017-07-02T08:40:08Z</time>
      </trkpt>
      <trkpt lat="48.41996" lon="2.40352">
        <ele>77.36</ele>
        <time>2017-07-02T08:40:10Z</time>
      </trkpt>
      <trkpt lat="48.41997" lon="2.4036">
        <ele>77.73</ele>
        <time>2017-07-02T08:40:12Z</time>
      </trkpt>
      <trkpt lat="48.41997" lon="2.40368">
        <ele>77.31</ele>
        <time>2017-07-02T08:40:14Z</time>
      </trkpt>
      <trkpt lat="48.41998" lon="2.40376">
        <ele>76.81</ele>
        <time>2017-07-02T08:40:16Z</time>
      </trkpt>
      <trkpt lat="48.41998" lon="2.40384">
        <ele>76.28</ele>
        <time>2017-07-02T08:40:18Z</time>
      </trkpt>
      <trkpt lat="48.41998" lon="2.40392">
        <ele>75.95</ele>
        <time>2017-07-02T08:40:20Z</time>
      </trkpt>
      <trkpt lat="48.41997" lon="2.404">
        <ele>75.93</ele>
        <time>2017-07-02T08:40:22Z</time>
      </trkpt>
      <trkpt lat="48.41996" lon="2.40407">
        <ele>75.95</ele>
        <time>2017-07-02T08:40:24Z</time>
      </trkpt>
      <trkpt lat="48.41995" lon="2.40414">
        <ele>75.98</ele>
        <time>2017-07-02T08:40:26Z</time>
      </trkpt>
      <trkpt lat="48.41995" lon="2.40421">
        <ele>75.72</ele>
        <time>2017-07-02T08:40:28Z</time>
      </trkpt>
      <trkpt lat="48.41995" lon="2.40429">
        <ele>75.25</ele>
        <time>2017-07-02T08:40:30Z</time>
      </trkpt>
      <trkpt lat="48.41995" lon="2.40436">
        <ele>74.82</ele>
        <time>2017-07-02T08:40:32Z</time>
      </trkpt>
      <trkpt lat="48.41998" lon="2.40444">
        <ele>74.17</ele>
        <time>2017-07-02T08:40:34Z</time>
      </trkpt>
      <trkpt lat="48.42" lon="2.40451">
        <ele>74.26</ele>
        <time>2017-07-02T08:40:36Z</time>
      </trkpt>
      <trkpt lat="48.42001" lon="2.40458">
        <ele>74.57</ele>
        <time>2017-07-02T08:40:38Z</time>
      </trkpt>
      <trkpt lat="48.42003" lon="2.40465">
        <ele>74.86</ele>
        <time>2017-07-02T08:40:40Z</time>
      </trkpt>
      <trkpt lat="48.42004" lon="2.40472">
        <ele>75.15</ele>
        <time>2017-07-02T08:40:42Z</time>
      </trkpt>
      <trkpt lat="48.42006" lon="2.4048">
        <ele>75.43</ele>
        <time>2017-07-02T08:40:44Z</time>
      </trkpt>
      <trkpt lat="48.42009" lon="2.40487">
        <ele>75.67</ele>
        <time>2017-07-02T08:40:46Z</time>
      </trkpt>
      <trkpt lat="48.42015" lon="2.40499">
        <ele>75.98</ele>
        <time>2017-07-02T08:40:50Z</time>
      </trkpt>
      <trkpt lat="48.42018" lon="2.40511">
        <ele>76.91</ele>
        <time>2017-07-02T08:40:54Z</time>
      </trkpt>
      <trkpt lat="48.42019" lon="2.40525">
        <ele>78.07</ele>
        <time>2017-07-02T08:40:58Z</time>
      </trkpt>
      <trkpt lat="48.4202" lon="2.40533">
        <ele>78.89</ele>
        <time>2017-07-02T08:41:00Z</time>
      </trkpt>
      <trkpt lat="48.42021" lon="2.40541">
        <ele>79.83</ele>
        <time>2017-07-02T08:41:02Z</time>
      </trkpt>
      <trkpt lat="48.42023" lon="2.4055">
        <ele>80.69</ele>
        <time>2017-07-02T08:41:04Z</time>
      </trkpt>
      <trkpt lat="48.42025" lon="2.40558">
        <ele>81.44</ele>
        <time>2017-07-02T08:41:06Z</time>
      </trkpt>
      <trkpt lat="48.42026" lon="2.40566">
        <ele>82.24</ele>
        <time>2017-07-02T08:41:08Z</time>
      </trkpt>
      <trkpt lat="48.42028" lon="2.40574">
        <ele>82.9</ele>
        <time>2017-07-02T08:41:10Z</time>
      </trkpt>
      <trkpt lat="48.4203" lon="2.40581">
        <ele>83.49</ele>
        <time>2017-07-02T08:41:12Z</time>
      </trkpt>
      <trkpt lat="48.42031" lon="2.40589">
        <ele>83.97</ele>
        <time>2017-07-02T08:41:14Z</time>
      </trkpt>
      <trkpt lat="48.42032" lon="2.40596">
        <ele>84.31</ele>
        <time>2017-07-02T08:41:16Z</time>
      </trkpt>
      <trkpt lat="48.42032" lon="2.40603">
        <ele>84.64</ele>
        <time>2017-07-02T08:41:18Z</time>
      </trkpt>
      <trkpt lat="48.42034" lon="2.40616">
        <ele>85.32</ele>
        <time>2017-07-02T08:41:22Z</time>
      </trkpt>
      <trkpt lat="48.42036" lon="2.40627">
        <ele>86.11</ele>
        <time>2017-07-02T08:41:26Z</time>
      </trkpt>
      <trkpt lat="48.42032" lon="2.40637">
        <ele>87.97</ele>
        <time>2017-07-02T08:41:30Z</time>
      </trkpt>
      <trkpt lat="48.4203" lon="2.40643">
        <ele>88.78</ele>
        <time>2017-07-02T08:41:32Z</time>
      </trkpt>
      <trkpt lat="48.42028" lon="2.40656">
        <ele>89.64</ele>
        <time>2017-07-02T08:41:36Z</time>
      </trkpt>
      <trkpt lat="48.42026" lon="2.40668">
        <ele>90.1</ele>
        <time>2017-07-02T08:41:40Z</time>
      </trkpt>
      <trkpt lat="48.42026" lon="2.4068">
        <ele>90.54</ele>
        <time>2017-07-02T08:41:44Z</time>
      </trkpt>
      <trkpt lat="48.42024" lon="2.40691">
        <ele>91.09</ele>
        <time>2017-07-02T08:41:48Z</time>
      </trkpt>
      <trkpt lat="48.42022" lon="2.40701">
        <ele>91.66</ele>
        <time>2017-07-02T08:41:52Z</time>
      </trkpt>
      <trkpt lat="48.42023" lon="2.40708">
        <ele>91.85</ele>
        <time>2017-07-02T08:41:54Z</time>
      </trkpt>
      <trkpt lat="48.42023" lon="2.40716">
        <ele>92.11</ele>
        <time>2017-07-02T08:41:56Z</time>
      </trkpt>
      <trkpt lat="48.42023" lon="2.40723">
        <ele>92.35</ele>
        <time>2017-07-02T08:41:58Z</time>
      </trkpt>
      <trkpt lat="48.42022" lon="2.4073">
        <ele>92.29</ele>
        <time>2017-07-02T08:42:00Z</time>
      </trkpt>
      <trkpt lat="48.42023" lon="2.40742">
        <ele>91.98</ele>
        <time>2017-07-02T08:42:04Z</time>
      </trkpt>
      <trkpt lat="48.42025" lon="2.40753">
        <ele>91.59</ele>
        <time>2017-07-02T08:42:08Z</time>
      </trkpt>
      <trkpt lat="48.42025" lon="2.40761">
        <ele>91.88</ele>
        <time>2017-07-02T08:42:10Z</time>
      </trkpt>
      <trkpt lat="48.42025" lon="2.40768">
        <ele>92.2</ele>
        <time>2017-07-02T08:42:12Z</time>
      </trkpt>
      <trkpt lat="48.42025" lon="2.40775">
        <ele>92.42</ele>
        <time>2017-07-02T08:42:14Z</time>
      </trkpt>
      <trkpt lat="48.42025" lon="2.40783">
        <ele>92.62</ele>
        <time>2017-07-02T08:42:16Z</time>
      </trkpt>
      <trkpt lat="48.42026" lon="2.4079">
        <ele>92.69</ele>
        <time>2017-07-02T08:42:18Z</time>
      </trkpt>
      <trkpt lat="48.42028" lon="2.40803">
        <ele>92.81</ele>
        <time>2017-07-02T08:42:22Z</time>
      </trkpt>
      <trkpt lat="48.4203" lon="2.4081">
        <ele>92.75</ele>
        <time>2017-07-02T08:42:24Z</time>
      </trkpt>
      <trkpt lat="48.42031" lon="2.40821">
        <ele>92.76</ele>
        <time>2017-07-02T08:42:28Z</time>
      </trkpt>
      <trkpt lat="48.42032" lon="2.40832">
        <ele>92.81</ele>
        <time>2017-07-02T08:42:32Z</time>
      </trkpt>
      <trkpt lat="48.42034" lon="2.40843">
        <ele>93.33</ele>
        <time>2017-07-02T08:42:36Z</time>
      </trkpt>
      <trkpt lat="48.42034" lon="2.40855">
        <ele>94.04</ele>
        <time>2017-07-02T08:42:40Z</time>
      </trkpt>
      <trkpt lat="48.42032" lon="2.40866">
        <ele>94.9</ele>
        <time>2017-07-02T08:42:44Z</time>
      </trkpt>
      <trkpt lat="48.42031" lon="2.40877">
        <ele>96.12</ele>
        <time>2017-07-02T08:42:48Z</time>
      </trkpt>
      <trkpt lat="48.42029" lon="2.40884">
        <ele>96.62</ele>
        <time>2017-07-02T08:42:52Z</time>
      </trkpt>
      <trkpt lat="48.4203" lon="2.40893">
        <ele>98.03</ele>
        <time>2017-07-02T08:42:56Z</time>
      </trkpt>
      <trkpt lat="48.42034" lon="2.40901">
        <ele>99.96</ele>
        <time>2017-07-02T08:43:00Z</time>
      </trkpt>
      <trkpt lat="48.42035" lon="2.4091">
        <ele>101.62</ele>
        <time>2017-07-02T08:43:04Z</time>
      </trkpt>
      <trkpt lat="48.42033" lon="2.40919">
        <ele>102.85</ele>
        <time>2017-07-02T08:43:08Z</time>
      </trkpt>
      <trkpt lat="48.42027" lon="2.40923">
        <ele>102.96</ele>
        <time>2017-07-02T08:43:12Z</time>
      </trkpt>
      <trkpt lat="48.42022" lon="2.40927">
        <ele>103.54</ele>
        <time>2017-07-02T08:43:16Z</time>
      </trkpt>
      <trkpt lat="48.4202" lon="2.40937">
        <ele>105.15</ele>
        <time>2017-07-02T08:43:22Z</time>
      </trkpt>
      <trkpt lat="48.42016" lon="2.40946">
        <ele>106.56</ele>
        <time>2017-07-02T08:43:28Z</time>
      </trkpt>
      <trkpt lat="48.42012" lon="2.40952">
        <ele>107.19</ele>
        <time>2017-07-02T08:43:32Z</time>
      </trkpt>
      <trkpt lat="48.42007" lon="2.40957">
        <ele>107.74</ele>
        <time>2017-07-02T08:43:36Z</time>
      </trkpt>
      <trkpt lat="48.42001" lon="2.40961">
        <ele>108.21</ele>
        <time>2017-07-02T08:43:40Z</time>
      </trkpt>
      <trkpt lat="48.41996" lon="2.40967">
        <ele>108.76</ele>
        <time>2017-07-02T08:43:44Z</time>
      </trkpt>
      <trkpt lat="48.41993" lon="2.40973">
        <ele>109.25</ele>
        <time>2017-07-02T08:43:48Z</time>
      </trkpt>
      <trkpt lat="48.41994" lon="2.40981">
        <ele>109.26</ele>
        <time>2017-07-02T08:43:52Z</time>
      </trkpt>
      <trkpt lat="48.41994" lon="2.40989">
        <ele>109.31</ele>
        <time>2017-07-02T08:43:56Z</time>
      </trkpt>
      <trkpt lat="48.41996" lon="2.40998">
        <ele>109.52</ele>
        <time>2017-07-02T08:44:00Z</time>
      </trkpt>
      <trkpt lat="48.41998" lon="2.41006">
        <ele>109.62</ele>
        <time>2017-07-02T08:44:04Z</time>
      </trkpt>
      <trkpt lat="48.42001" lon="2.41013">
        <ele>109.8</ele>
        <time>2017-07-02T08:44:08Z</time>
      </trkpt>
      <trkpt lat="48.42004" lon="2.41019">
        <ele>110.25</ele>
        <time>2017-07-02T08:44:12Z</time>
      </trkpt>
      <trkpt lat="48.42006" lon="2.41027">
        <ele>110.83</ele>
        <time>2017-07-02T08:44:16Z</time>
      </trkpt>
      <trkpt lat="48.42008" lon="2.41035">
        <ele>111.95</ele>
        <time>2017-07-02T08:44:20Z</time>
      </trkpt>
      <trkpt lat="48.42012" lon="2.41041">
        <ele>113.47</ele>
        <time>2017-07-02T08:44:24Z</time>
      </trkpt>
      <trkpt lat="48.42015" lon="2.41049">
        <ele>115.13</ele>
        <time>2017-07-02T08:44:30Z</time>
      </trkpt>
      <trkpt lat="48.42011" lon="2.41055">
        <ele>114.49</ele>
        <time>2017-07-02T08:44:34Z</time>
      </trkpt>
      <trkpt lat="48.42009" lon="2.41063">
        <ele>114.59</ele>
        <time>2017-07-02T08:44:38Z</time>
      </trkpt>
      <trkpt lat="48.42011" lon="2.41072">
        <ele>115.78</ele>
        <time>2017-07-02T08:44:42Z</time>
      </trkpt>
      <trkpt lat="48.42011" lon="2.4108">
        <ele>116.51</ele>
        <time>2017-07-02T08:44:46Z</time>
      </trkpt>
      <trkpt lat="48.42013" lon="2.41088">
        <ele>117.24</ele>
        <time>2017-07-02T08:44:50Z</time>
      </trkpt>
      <trkpt lat="48.42015" lon="2.41096">
        <ele>118.01</ele>
        <time>2017-07-02T08:44:54Z</time>
      </trkpt>
      <trkpt lat="48.42015" lon="2.41106">
        <ele>118.21</ele>
        <time>2017-07-02T08:44:58Z</time>
      </trkpt>
      <trkpt lat="48.42015" lon="2.41114">
        <ele>118.2</ele>
        <time>2017-07-02T08:45:02Z</time>
      </trkpt>
      <trkpt lat="48.42011" lon="2.41122">
        <ele>117.3</ele>
        <time>2017-07-02T08:45:08Z</time>
      </trkpt>
      <trkpt lat="48.42009" lon="2.4113">
        <ele>116.55</ele>
        <time>2017-07-02T08:45:14Z</time>
      </trkpt>
      <trkpt lat="48.42006" lon="2.41138">
        <ele>115.67</ele>
        <time>2017-07-02T08:45:26Z</time>
      </trkpt>
      <trkpt lat="48.42006" lon="2.41145">
        <ele>116</ele>
        <time>2017-07-02T08:45:30Z</time>
      </trkpt>
      <trkpt lat="48.42009" lon="2.4115">
        <ele>117.2</ele>
        <time>2017-07-02T08:45:34Z</time>
      </trkpt>
      <trkpt lat="48.4201" lon="2.41159">
        <ele>117.69</ele>
        <time>2017-07-02T08:45:38Z</time>
      </trkpt>
      <trkpt lat="48.42009" lon="2.41169">
        <ele>118.1</ele>
        <time>2017-07-02T08:45:42Z</time>
      </trkpt>
      <trkpt lat="48.4201" lon="2.41181">
        <ele>119.31</ele>
        <time>2017-07-02T08:45:46Z</time>
      </trkpt>
      <trkpt lat="48.42011" lon="2.41187">
        <ele>120.05</ele>
        <time>2017-07-02T08:45:48Z</time>
      </trkpt>
      <trkpt lat="48.42012" lon="2.41194">
        <ele>120.74</ele>
        <time>2017-07-02T08:45:50Z</time>
      </trkpt>
      <trkpt lat="48.42014" lon="2.41206">
        <ele>121.49</ele>
        <time>2017-07-02T08:45:54Z</time>
      </trkpt>
      <trkpt lat="48.42014" lon="2.41213">
        <ele>121.76</ele>
        <time>2017-07-02T08:45:56Z</time>
      </trkpt>
      <trkpt lat="48.42014" lon="2.41221">
        <ele>121.97</ele>
        <time>2017-07-02T08:45:58Z</time>
      </trkpt>
      <trkpt lat="48.42013" lon="2.41228">
        <ele>121.9</ele>
        <time>2017-07-02T08:46:00Z</time>
      </trkpt>
      <trkpt lat="48.42012" lon="2.41235">
        <ele>121.66</ele>
        <time>2017-07-02T08:46:02Z</time>
      </trkpt>
      <trkpt lat="48.42009" lon="2.41241">
        <ele>121.31</ele>
        <time>2017-07-02T08:46:04Z</time>
      </trkpt>
      <trkpt lat="48.42007" lon="2.41247">
        <ele>120.97</ele>
        <time>2017-07-02T08:46:06Z</time>
      </trkpt>
      <trkpt lat="48.42003" lon="2.41256">
        <ele>120.63</ele>
        <time>2017-07-02T08:46:08Z</time>
      </trkpt>
      <trkpt lat="48.41996" lon="2.41264">
        <ele>120.02</ele>
        <time>2017-07-02T08:46:10Z</time>
      </trkpt>
      <trkpt lat="48.41987" lon="2.41269">
        <ele>118.92</ele>
        <time>2017-07-02T08:46:12Z</time>
      </trkpt>
      <trkpt lat="48.41971" lon="2.41271">
        <ele>116.92</ele>
        <time>2017-07-02T08:46:14Z</time>
      </trkpt>
      <trkpt lat="48.41963" lon="2.41276">
        <ele>116.3</ele>
        <time>2017-07-02T08:46:16Z</time>
      </trkpt>
      <trkpt lat="48.41951" lon="2.4128">
        <ele>115.6</ele>
        <time>2017-07-02T08:46:18Z</time>
      </trkpt>
      <trkpt lat="48.41946" lon="2.4128">
        <ele>115.23</ele>
        <time>2017-07-02T08:46:20Z</time>
      </trkpt>
      <trkpt lat="48.41939" lon="2.4127">
        <ele>114.6</ele>
        <time>2017-07-02T08:46:24Z</time>
      </trkpt>
      <trkpt lat="48.41937" lon="2.4126">
        <ele>114.02</ele>
        <time>2017-07-02T08:46:26Z</time>
      </trkpt>
      <trkpt lat="48.41935" lon="2.41253">
        <ele>113.48</ele>
        <time>2017-07-02T08:46:30Z</time>
      </trkpt>
      <trkpt lat="48.41932" lon="2.41245">
        <ele>112.87</ele>
        <time>2017-07-02T08:46:34Z</time>
      </trkpt>
      <trkpt lat="48.41923" lon="2.41234">
        <ele>111.83</ele>
        <time>2017-07-02T08:46:36Z</time>
      </trkpt>
      <trkpt lat="48.41913" lon="2.41221">
        <ele>110.86</ele>
        <time>2017-07-02T08:46:38Z</time>
      </trkpt>
      <trkpt lat="48.41906" lon="2.41211">
        <ele>110.43</ele>
        <time>2017-07-02T08:46:40Z</time>
      </trkpt>
      <trkpt lat="48.41894" lon="2.41197">
        <ele>109.43</ele>
        <time>2017-07-02T08:46:44Z</time>
      </trkpt>
      <trkpt lat="48.4189" lon="2.41176">
        <ele>107.75</ele>
        <time>2017-07-02T08:46:48Z</time>
      </trkpt>
      <trkpt lat="48.41884" lon="2.41165">
        <ele>106.96</ele>
        <time>2017-07-02T08:46:50Z</time>
      </trkpt>
      <trkpt lat="48.41879" lon="2.41148">
        <ele>106.56</ele>
        <time>2017-07-02T08:46:52Z</time>
      </trkpt>
      <trkpt lat="48.41871" lon="2.41137">
        <ele>106.66</ele>
        <time>2017-07-02T08:46:54Z</time>
      </trkpt>
      <trkpt lat="48.41865" lon="2.41119">
        <ele>106.85</ele>
        <time>2017-07-02T08:46:58Z</time>
      </trkpt>
      <trkpt lat="48.41862" lon="2.41102">
        <ele>106.31</ele>
        <time>2017-07-02T08:47:00Z</time>
      </trkpt>
      <trkpt lat="48.41859" lon="2.41088">
        <ele>105.76</ele>
        <time>2017-07-02T08:47:02Z</time>
      </trkpt>
      <trkpt lat="48.41857" lon="2.41078">
        <ele>105.52</ele>
        <time>2017-07-02T08:47:04Z</time>
      </trkpt>
      <trkpt lat="48.41855" lon="2.41064">
        <ele>105.1</ele>
        <time>2017-07-02T08:47:06Z</time>
      </trkpt>
      <trkpt lat="48.41853" lon="2.41048">
        <ele>104.82</ele>
        <time>2017-07-02T08:47:08Z</time>
      </trkpt>
      <trkpt lat="48.41844" lon="2.41038">
        <ele>105.44</ele>
        <time>2017-07-02T08:47:10Z</time>
      </trkpt>
      <trkpt lat="48.41839" lon="2.41022">
        <ele>105.46</ele>
        <time>2017-07-02T08:47:12Z</time>
      </trkpt>
      <trkpt lat="48.41834" lon="2.41017">
        <ele>105.57</ele>
        <time>2017-07-02T08:47:14Z</time>
      </trkpt>
      <trkpt lat="48.41827" lon="2.41006">
        <ele>106.14</ele>
        <time>2017-07-02T08:47:16Z</time>
      </trkpt>
      <trkpt lat="48.41819" lon="2.41004">
        <ele>107.33</ele>
        <time>2017-07-02T08:47:18Z</time>
      </trkpt>
      <trkpt lat="48.41811" lon="2.40992">
        <ele>107.7</ele>
        <time>2017-07-02T08:47:20Z</time>
      </trkpt>
      <trkpt lat="48.41804" lon="2.40978">
        <ele>107.43</ele>
        <time>2017-07-02T08:47:22Z</time>
      </trkpt>
      <trkpt lat="48.41796" lon="2.40972">
        <ele>106.59</ele>
        <time>2017-07-02T08:47:24Z</time>
      </trkpt>
      <trkpt lat="48.41792" lon="2.4096">
        <ele>104.72</ele>
        <time>2017-07-02T08:47:26Z</time>
      </trkpt>
      <trkpt lat="48.4179" lon="2.4095">
        <ele>103.07</ele>
        <time>2017-07-02T08:47:28Z</time>
      </trkpt>
      <trkpt lat="48.41786" lon="2.40942">
        <ele>101.82</ele>
        <time>2017-07-02T08:47:30Z</time>
      </trkpt>
      <trkpt lat="48.41785" lon="2.40929">
        <ele>101.31</ele>
        <time>2017-07-02T08:47:32Z</time>
      </trkpt>
      <trkpt lat="48.41779" lon="2.40925">
        <ele>100.53</ele>
        <time>2017-07-02T08:47:36Z</time>
      </trkpt>
      <trkpt lat="48.41773" lon="2.40924">
        <ele>99.7</ele>
        <time>2017-07-02T08:47:40Z</time>
      </trkpt>
      <trkpt lat="48.4177" lon="2.40918">
        <ele>98.92</ele>
        <time>2017-07-02T08:47:48Z</time>
      </trkpt>
      <trkpt lat="48.41764" lon="2.40914">
        <ele>98.03</ele>
        <time>2017-07-02T08:47:56Z</time>
      </trkpt>
      <trkpt lat="48.41759" lon="2.40913">
        <ele>97.38</ele>
        <time>2017-07-02T08:48:26Z</time>
      </trkpt>
      <trkpt lat="48.41754" lon="2.40915">
        <ele>96.61</ele>
        <time>2017-07-02T08:48:30Z</time>
      </trkpt>
      <trkpt lat="48.41746" lon="2.4091">
        <ele>96.04</ele>
        <time>2017-07-02T08:48:34Z</time>
      </trkpt>
      <trkpt lat="48.41739" lon="2.40906">
        <ele>95.68</ele>
        <time>2017-07-02T08:48:36Z</time>
      </trkpt>
      <trkpt lat="48.41728" lon="2.40899">
        <ele>94.87</ele>
        <time>2017-07-02T08:48:38Z</time>
      </trkpt>
      <trkpt lat="48.41721" lon="2.40885">
        <ele>93.82</ele>
        <time>2017-07-02T08:48:40Z</time>
      </trkpt>
      <trkpt lat="48.41712" lon="2.40874">
        <ele>92.76</ele>
        <time>2017-07-02T08:48:42Z</time>
      </trkpt>
      <trkpt lat="48.41707" lon="2.40862">
        <ele>91.82</ele>
        <time>2017-07-02T08:48:44Z</time>
      </trkpt>
      <trkpt lat="48.41705" lon="2.4085">
        <ele>90.96</ele>
        <time>2017-07-02T08:48:46Z</time>
      </trkpt>
      <trkpt lat="48.41703" lon="2.40839">
        <ele>90.22</ele>
        <time>2017-07-02T08:48:48Z</time>
      </trkpt>
      <trkpt lat="48.417" lon="2.40828">
        <ele>89.61</ele>
        <time>2017-07-02T08:48:50Z</time>
      </trkpt>
      <trkpt lat="48.41696" lon="2.40818">
        <ele>89.21</ele>
        <time>2017-07-02T08:48:54Z</time>
      </trkpt>
      <trkpt lat="48.41692" lon="2.40811">
        <ele>88.66</ele>
        <time>2017-07-02T08:48:56Z</time>
      </trkpt>
      <trkpt lat="48.41687" lon="2.40806">
        <ele>88</ele>
        <time>2017-07-02T08:48:58Z</time>
      </trkpt>
      <trkpt lat="48.41682" lon="2.40805">
        <ele>87.15</ele>
        <time>2017-07-02T08:49:00Z</time>
      </trkpt>
      <trkpt lat="48.41676" lon="2.40809">
        <ele>86.43</ele>
        <time>2017-07-02T08:49:02Z</time>
      </trkpt>
      <trkpt lat="48.41673" lon="2.40813">
        <ele>86.06</ele>
        <time>2017-07-02T08:49:04Z</time>
      </trkpt>
      <trkpt lat="48.41669" lon="2.40818">
        <ele>85.8</ele>
        <time>2017-07-02T08:49:06Z</time>
      </trkpt>
      <trkpt lat="48.41666" lon="2.40823">
        <ele>85.61</ele>
        <time>2017-07-02T08:49:08Z</time>
      </trkpt>
      <trkpt lat="48.41666" lon="2.40834">
        <ele>86.02</ele>
        <time>2017-07-02T08:49:12Z</time>
      </trkpt>
      <trkpt lat="48.41664" lon="2.40842">
        <ele>86.27</ele>
        <time>2017-07-02T08:49:16Z</time>
      </trkpt>
      <trkpt lat="48.41663" lon="2.4085">
        <ele>86.54</ele>
        <time>2017-07-02T08:49:22Z</time>
      </trkpt>
      <trkpt lat="48.41662" lon="2.40858">
        <ele>86.73</ele>
        <time>2017-07-02T08:49:26Z</time>
      </trkpt>
      <trkpt lat="48.41661" lon="2.40865">
        <ele>86.93</ele>
        <time>2017-07-02T08:49:30Z</time>
      </trkpt>
      <trkpt lat="48.41659" lon="2.40873">
        <ele>87.18</ele>
        <time>2017-07-02T08:49:34Z</time>
      </trkpt>
      <trkpt lat="48.41659" lon="2.40882">
        <ele>87.47</ele>
        <time>2017-07-02T08:49:38Z</time>
      </trkpt>
      <trkpt lat="48.41661" lon="2.4089">
        <ele>87.86</ele>
        <time>2017-07-02T08:49:42Z</time>
      </trkpt>
      <trkpt lat="48.41662" lon="2.40899">
        <ele>88.39</ele>
        <time>2017-07-02T08:49:46Z</time>
      </trkpt>
      <trkpt lat="48.4166" lon="2.40907">
        <ele>88.62</ele>
        <time>2017-07-02T08:49:50Z</time>
      </trkpt>
      <trkpt lat="48.41657" lon="2.40916">
        <ele>88.54</ele>
        <time>2017-07-02T08:49:54Z</time>
      </trkpt>
      <trkpt lat="48.41655" lon="2.40925">
        <ele>88.9</ele>
        <time>2017-07-02T08:49:58Z</time>
      </trkpt>
      <trkpt lat="48.41652" lon="2.40933">
        <ele>88.97</ele>
        <time>2017-07-02T08:50:02Z</time>
      </trkpt>
      <trkpt lat="48.41647" lon="2.40941">
        <ele>88.95</ele>
        <time>2017-07-02T08:50:06Z</time>
      </trkpt>
      <trkpt lat="48.41643" lon="2.40947">
        <ele>88.93</ele>
        <time>2017-07-02T08:50:10Z</time>
      </trkpt>
      <trkpt lat="48.41638" lon="2.40953">
        <ele>89.24</ele>
        <time>2017-07-02T08:50:14Z</time>
      </trkpt>
      <trkpt lat="48.41634" lon="2.40962">
        <ele>90.46</ele>
        <time>2017-07-02T08:50:18Z</time>
      </trkpt>
      <trkpt lat="48.41626" lon="2.40967">
        <ele>90.91</ele>
        <time>2017-07-02T08:50:22Z</time>
      </trkpt>
      <trkpt lat="48.4162" lon="2.40968">
        <ele>90.94</ele>
        <time>2017-07-02T08:50:24Z</time>
      </trkpt>
      <trkpt lat="48.41616" lon="2.40971">
        <ele>91.07</ele>
        <time>2017-07-02T08:50:26Z</time>
      </trkpt>
      <trkpt lat="48.41611" lon="2.4098">
        <ele>91.49</ele>
        <time>2017-07-02T08:50:30Z</time>
      </trkpt>
      <trkpt lat="48.41605" lon="2.40987">
        <ele>91.47</ele>
        <time>2017-07-02T08:50:34Z</time>
      </trkpt>
      <trkpt lat="48.41599" lon="2.40996">
        <ele>91.5</ele>
        <time>2017-07-02T08:50:38Z</time>
      </trkpt>
      <trkpt lat="48.41594" lon="2.41006">
        <ele>91.72</ele>
        <time>2017-07-02T08:50:42Z</time>
      </trkpt>
      <trkpt lat="48.4159" lon="2.4101">
        <ele>91.84</ele>
        <time>2017-07-02T08:50:44Z</time>
      </trkpt>
      <trkpt lat="48.41587" lon="2.41016">
        <ele>92.09</ele>
        <time>2017-07-02T08:50:46Z</time>
      </trkpt>
      <trkpt lat="48.41584" lon="2.41022">
        <ele>92.45</ele>
        <time>2017-07-02T08:50:48Z</time>
      </trkpt>
      <trkpt lat="48.4158" lon="2.41029">
        <ele>92.63</ele>
        <time>2017-07-02T08:50:50Z</time>
      </trkpt>
      <trkpt lat="48.41577" lon="2.41035">
        <ele>92.74</ele>
        <time>2017-07-02T08:50:52Z</time>
      </trkpt>
      <trkpt lat="48.41573" lon="2.41039">
        <ele>92.5</ele>
        <time>2017-07-02T08:50:54Z</time>
      </trkpt>
      <trkpt lat="48.41565" lon="2.41045">
        <ele>91.86</ele>
        <time>2017-07-02T08:50:58Z</time>
      </trkpt>
      <trkpt lat="48.4156" lon="2.41053">
        <ele>91.66</ele>
        <time>2017-07-02T08:51:02Z</time>
      </trkpt>
      <trkpt lat="48.41559" lon="2.4106">
        <ele>92.3</ele>
        <time>2017-07-02T08:51:04Z</time>
      </trkpt>
      <trkpt lat="48.4156" lon="2.41068">
        <ele>93.44</ele>
        <time>2017-07-02T08:51:06Z</time>
      </trkpt>
      <trkpt lat="48.41562" lon="2.41075">
        <ele>94.66</ele>
        <time>2017-07-02T08:51:08Z</time>
      </trkpt>
      <trkpt lat="48.41563" lon="2.41083">
        <ele>95.86</ele>
        <time>2017-07-02T08:51:10Z</time>
      </trkpt>
      <trkpt lat="48.41564" lon="2.41091">
        <ele>96.28</ele>
        <time>2017-07-02T08:51:12Z</time>
      </trkpt>
      <trkpt lat="48.41564" lon="2.41099">
        <ele>96.58</ele>
        <time>2017-07-02T08:51:14Z</time>
      </trkpt>
      <trkpt lat="48.41564" lon="2.41107">
        <ele>96.78</ele>
        <time>2017-07-02T08:51:16Z</time>
      </trkpt>
      <trkpt lat="48.41564" lon="2.41114">
        <ele>96.78</ele>
        <time>2017-07-02T08:51:18Z</time>
      </trkpt>
      <trkpt lat="48.41564" lon="2.41121">
        <ele>96.73</ele>
        <time>2017-07-02T08:51:20Z</time>
      </trkpt>
      <trkpt lat="48.41565" lon="2.41128">
        <ele>96.79</ele>
        <time>2017-07-02T08:51:22Z</time>
      </trkpt>
      <trkpt lat="48.41565" lon="2.41135">
        <ele>96.77</ele>
        <time>2017-07-02T08:51:24Z</time>
      </trkpt>
      <trkpt lat="48.41565" lon="2.41142">
        <ele>96.77</ele>
        <time>2017-07-02T08:51:26Z</time>
      </trkpt>
      <trkpt lat="48.41567" lon="2.41154">
        <ele>97.18</ele>
        <time>2017-07-02T08:51:30Z</time>
      </trkpt>
      <trkpt lat="48.41569" lon="2.41163">
        <ele>97.76</ele>
        <time>2017-07-02T08:51:34Z</time>
      </trkpt>
      <trkpt lat="48.41568" lon="2.41175">
        <ele>98.38</ele>
        <time>2017-07-02T08:51:38Z</time>
      </trkpt>
      <trkpt lat="48.41568" lon="2.41187">
        <ele>99.24</ele>
        <time>2017-07-02T08:51:42Z</time>
      </trkpt>
      <trkpt lat="48.41568" lon="2.412">
        <ele>100.63</ele>
        <time>2017-07-02T08:51:46Z</time>
      </trkpt>
      <trkpt lat="48.41569" lon="2.41207">
        <ele>101.57</ele>
        <time>2017-07-02T08:51:48Z</time>
      </trkpt>
      <trkpt lat="48.4157" lon="2.41221">
        <ele>103.47</ele>
        <time>2017-07-02T08:51:52Z</time>
      </trkpt>
      <trkpt lat="48.41572" lon="2.41235">
        <ele>104.99</ele>
        <time>2017-07-02T08:51:55Z</time>
      </trkpt>
      <trkpt lat="48.41574" lon="2.41247">
        <ele>106.34</ele>
        <time>2017-07-02T08:52:00Z</time>
      </trkpt>
      <trkpt lat="48.41577" lon="2.41258">
        <ele>107.47</ele>
        <time>2017-07-02T08:52:04Z</time>
      </trkpt>
      <trkpt lat="48.41575" lon="2.41269">
        <ele>108.43</ele>
        <time>2017-07-02T08:52:07Z</time>
      </trkpt>
      <trkpt lat="48.41574" lon="2.41281">
        <ele>109.58</ele>
        <time>2017-07-02T08:52:12Z</time>
      </trkpt>
      <trkpt lat="48.41574" lon="2.41292">
        <ele>110.53</ele>
        <time>2017-07-02T08:52:16Z</time>
      </trkpt>
      <trkpt lat="48.41575" lon="2.41302">
        <ele>111.34</ele>
        <time>2017-07-02T08:52:19Z</time>
      </trkpt>
      <trkpt lat="48.41579" lon="2.41312">
        <ele>111.76</ele>
        <time>2017-07-02T08:52:24Z</time>
      </trkpt>
      <trkpt lat="48.41583" lon="2.41321">
        <ele>112.19</ele>
        <time>2017-07-02T08:52:28Z</time>
      </trkpt>
      <trkpt lat="48.41582" lon="2.41329">
        <ele>112.82</ele>
        <time>2017-07-02T08:52:31Z</time>
      </trkpt>
      <trkpt lat="48.41579" lon="2.41339">
        <ele>113.34</ele>
        <time>2017-07-02T08:52:36Z</time>
      </trkpt>
      <trkpt lat="48.41576" lon="2.41348">
        <ele>113.79</ele>
        <time>2017-07-02T08:52:40Z</time>
      </trkpt>
      <trkpt lat="48.41575" lon="2.41358">
        <ele>114.06</ele>
        <time>2017-07-02T08:52:43Z</time>
      </trkpt>
      <trkpt lat="48.41578" lon="2.41367">
        <ele>114.27</ele>
        <time>2017-07-02T08:52:48Z</time>
      </trkpt>
      <trkpt lat="48.41579" lon="2.41378">
        <ele>114.83</ele>
        <time>2017-07-02T08:52:52Z</time>
      </trkpt>
      <trkpt lat="48.41579" lon="2.41389">
        <ele>115.57</ele>
        <time>2017-07-02T08:52:55Z</time>
      </trkpt>
      <trkpt lat="48.4158" lon="2.41399">
        <ele>116.25</ele>
        <time>2017-07-02T08:53:00Z</time>
      </trkpt>
      <trkpt lat="48.41578" lon="2.41409">
        <ele>117.31</ele>
        <time>2017-07-02T08:53:04Z</time>
      </trkpt>
      <trkpt lat="48.41577" lon="2.41417">
        <ele>118.26</ele>
        <time>2017-07-02T08:53:07Z</time>
      </trkpt>
      <trkpt lat="48.41577" lon="2.41427">
        <ele>119</ele>
        <time>2017-07-02T08:53:12Z</time>
      </trkpt>
      <trkpt lat="48.41577" lon="2.41435">
        <ele>119.89</ele>
        <time>2017-07-02T08:53:16Z</time>
      </trkpt>
      <trkpt lat="48.41575" lon="2.41446">
        <ele>120.98</ele>
        <time>2017-07-02T08:53:22Z</time>
      </trkpt>
      <trkpt lat="48.41576" lon="2.41454">
        <ele>121.45</ele>
        <time>2017-07-02T08:53:26Z</time>
      </trkpt>
      <trkpt lat="48.41574" lon="2.41464">
        <ele>122.23</ele>
        <time>2017-07-02T08:53:30Z</time>
      </trkpt>
      <trkpt lat="48.41575" lon="2.41494">
        <ele>123.16</ele>
        <time>2017-07-02T08:53:44Z</time>
      </trkpt>
      <trkpt lat="48.4157" lon="2.41503">
        <ele>123.53</ele>
        <time>2017-07-02T08:53:47Z</time>
      </trkpt>
      <trkpt lat="48.41569" lon="2.4151">
        <ele>123.67</ele>
        <time>2017-07-02T08:53:49Z</time>
      </trkpt>
      <trkpt lat="48.41567" lon="2.41523">
        <ele>123.77</ele>
        <time>2017-07-02T08:53:53Z</time>
      </trkpt>
      <trkpt lat="48.41567" lon="2.41536">
        <ele>124.26</ele>
        <time>2017-07-02T08:53:57Z</time>
      </trkpt>
      <trkpt lat="48.41566" lon="2.41547">
        <ele>124.88</ele>
        <time>2017-07-02T08:54:01Z</time>
      </trkpt>
      <trkpt lat="48.41565" lon="2.41556">
        <ele>125.35</ele>
        <time>2017-07-02T08:54:05Z</time>
      </trkpt>
      <trkpt lat="48.41564" lon="2.41566">
        <ele>125.69</ele>
        <time>2017-07-02T08:54:09Z</time>
      </trkpt>
      <trkpt lat="48.41564" lon="2.41576">
        <ele>126.02</ele>
        <time>2017-07-02T08:54:13Z</time>
      </trkpt>
      <trkpt lat="48.41563" lon="2.41587">
        <ele>126.05</ele>
        <time>2017-07-02T08:54:17Z</time>
      </trkpt>
      <trkpt lat="48.41564" lon="2.416">
        <ele>125.35</ele>
        <time>2017-07-02T08:54:21Z</time>
      </trkpt>
      <trkpt lat="48.41565" lon="2.41612">
        <ele>124.71</ele>
        <time>2017-07-02T08:54:25Z</time>
      </trkpt>
      <trkpt lat="48.41566" lon="2.4162">
        <ele>125.05</ele>
        <time>2017-07-02T08:54:27Z</time>
      </trkpt>
      <trkpt lat="48.41568" lon="2.41632">
        <ele>125.63</ele>
        <time>2017-07-02T08:54:29Z</time>
      </trkpt>
      <trkpt lat="48.4157" lon="2.41643">
        <ele>126.07</ele>
        <time>2017-07-02T08:54:31Z</time>
      </trkpt>
      <trkpt lat="48.41569" lon="2.41654">
        <ele>126.28</ele>
        <time>2017-07-02T08:54:33Z</time>
      </trkpt>
      <trkpt lat="48.41567" lon="2.41663">
        <ele>126.53</ele>
        <time>2017-07-02T08:54:35Z</time>
      </trkpt>
      <trkpt lat="48.41565" lon="2.41671">
        <ele>126.82</ele>
        <time>2017-07-02T08:54:37Z</time>
      </trkpt>
      <trkpt lat="48.41564" lon="2.4168">
        <ele>127.18</ele>
        <time>2017-07-02T08:54:39Z</time>
      </trkpt>
      <trkpt lat="48.41563" lon="2.41688">
        <ele>127.47</ele>
        <time>2017-07-02T08:54:41Z</time>
      </trkpt>
      <trkpt lat="48.41563" lon="2.41696">
        <ele>127.97</ele>
        <time>2017-07-02T08:54:43Z</time>
      </trkpt>
      <trkpt lat="48.41563" lon="2.41705">
        <ele>129.13</ele>
        <time>2017-07-02T08:54:45Z</time>
      </trkpt>
      <trkpt lat="48.41563" lon="2.41714">
        <ele>130.34</ele>
        <time>2017-07-02T08:54:47Z</time>
      </trkpt>
      <trkpt lat="48.41563" lon="2.41726">
        <ele>131.71</ele>
        <time>2017-07-02T08:54:49Z</time>
      </trkpt>
      <trkpt lat="48.41562" lon="2.41739">
        <ele>132.4</ele>
        <time>2017-07-02T08:54:51Z</time>
      </trkpt>
      <trkpt lat="48.41561" lon="2.41751">
        <ele>133.04</ele>
        <time>2017-07-02T08:54:53Z</time>
      </trkpt>
      <trkpt lat="48.4156" lon="2.41762">
        <ele>133.51</ele>
        <time>2017-07-02T08:54:55Z</time>
      </trkpt>
      <trkpt lat="48.4156" lon="2.41773">
        <ele>133.95</ele>
        <time>2017-07-02T08:54:57Z</time>
      </trkpt>
      <trkpt lat="48.41561" lon="2.41781">
        <ele>134.38</ele>
        <time>2017-07-02T08:54:59Z</time>
      </trkpt>
      <trkpt lat="48.41558" lon="2.41795">
        <ele>135.17</ele>
        <time>2017-07-02T08:55:03Z</time>
      </trkpt>
      <trkpt lat="48.41557" lon="2.41804">
        <ele>135.8</ele>
        <time>2017-07-02T08:55:05Z</time>
      </trkpt>
      <trkpt lat="48.41556" lon="2.41812">
        <ele>136.18</ele>
        <time>2017-07-02T08:55:07Z</time>
      </trkpt>
      <trkpt lat="48.41557" lon="2.4182">
        <ele>136.46</ele>
        <time>2017-07-02T08:55:09Z</time>
      </trkpt>
      <trkpt lat="48.41557" lon="2.4183">
        <ele>136.81</ele>
        <time>2017-07-02T08:55:11Z</time>
      </trkpt>
      <trkpt lat="48.41557" lon="2.4184">
        <ele>136.97</ele>
        <time>2017-07-02T08:55:13Z</time>
      </trkpt>
      <trkpt lat="48.41557" lon="2.41851">
        <ele>136.98</ele>
        <time>2017-07-02T08:55:15Z</time>
      </trkpt>
      <trkpt lat="48.41558" lon="2.41862">
        <ele>136.99</ele>
        <time>2017-07-02T08:55:17Z</time>
      </trkpt>
      <trkpt lat="48.41558" lon="2.41873">
        <ele>136.65</ele>
        <time>2017-07-02T08:55:19Z</time>
      </trkpt>
      <trkpt lat="48.41556" lon="2.41883">
        <ele>136.2</ele>
        <time>2017-07-02T08:55:21Z</time>
      </trkpt>
      <trkpt lat="48.41552" lon="2.41893">
        <ele>135.08</ele>
        <time>2017-07-02T08:55:23Z</time>
      </trkpt>
      <trkpt lat="48.41549" lon="2.41903">
        <ele>134.3</ele>
        <time>2017-07-02T08:55:25Z</time>
      </trkpt>
      <trkpt lat="48.41547" lon="2.41913">
        <ele>133.86</ele>
        <time>2017-07-02T08:55:27Z</time>
      </trkpt>
      <trkpt lat="48.41545" lon="2.41927">
        <ele>133.28</ele>
        <time>2017-07-02T08:55:29Z</time>
      </trkpt>
      <trkpt lat="48.41544" lon="2.4194">
        <ele>132.6</ele>
        <time>2017-07-02T08:55:31Z</time>
      </trkpt>
      <trkpt lat="48.41543" lon="2.41954">
        <ele>132.37</ele>
        <time>2017-07-02T08:55:33Z</time>
      </trkpt>
      <trkpt lat="48.41542" lon="2.41966">
        <ele>132.39</ele>
        <time>2017-07-02T08:55:35Z</time>
      </trkpt>
      <trkpt lat="48.41542" lon="2.41975">
        <ele>132.57</ele>
        <time>2017-07-02T08:55:37Z</time>
      </trkpt>
      <trkpt lat="48.41543" lon="2.41984">
        <ele>132.43</ele>
        <time>2017-07-02T08:55:39Z</time>
      </trkpt>
      <trkpt lat="48.41542" lon="2.41993">
        <ele>132.15</ele>
        <time>2017-07-02T08:55:41Z</time>
      </trkpt>
      <trkpt lat="48.4154" lon="2.42003">
        <ele>131.9</ele>
        <time>2017-07-02T08:55:43Z</time>
      </trkpt>
      <trkpt lat="48.41537" lon="2.42012">
        <ele>131.79</ele>
        <time>2017-07-02T08:55:45Z</time>
      </trkpt>
      <trkpt lat="48.41535" lon="2.42021">
        <ele>131.76</ele>
        <time>2017-07-02T08:55:47Z</time>
      </trkpt>
      <trkpt lat="48.41535" lon="2.4203">
        <ele>131.72</ele>
        <time>2017-07-02T08:55:49Z</time>
      </trkpt>
      <trkpt lat="48.41536" lon="2.4204">
        <ele>131.4</ele>
        <time>2017-07-02T08:55:51Z</time>
      </trkpt>
      <trkpt lat="48.41534" lon="2.4205">
        <ele>130.91</ele>
        <time>2017-07-02T08:55:53Z</time>
      </trkpt>
      <trkpt lat="48.41533" lon="2.4206">
        <ele>130.52</ele>
        <time>2017-07-02T08:55:55Z</time>
      </trkpt>
      <trkpt lat="48.41532" lon="2.4207">
        <ele>130.4</ele>
        <time>2017-07-02T08:55:57Z</time>
      </trkpt>
      <trkpt lat="48.41531" lon="2.4208">
        <ele>130.21</ele>
        <time>2017-07-02T08:55:59Z</time>
      </trkpt>
      <trkpt lat="48.4153" lon="2.42088">
        <ele>130.21</ele>
        <time>2017-07-02T08:56:01Z</time>
      </trkpt>
      <trkpt lat="48.41533" lon="2.42096">
        <ele>130.51</ele>
        <time>2017-07-02T08:56:03Z</time>
      </trkpt>
      <trkpt lat="48.41538" lon="2.42104">
        <ele>130.97</ele>
        <time>2017-07-02T08:56:05Z</time>
      </trkpt>
      <trkpt lat="48.41542" lon="2.42108">
        <ele>131.51</ele>
        <time>2017-07-02T08:56:07Z</time>
      </trkpt>
      <trkpt lat="48.41547" lon="2.42111">
        <ele>132.08</ele>
        <time>2017-07-02T08:56:09Z</time>
      </trkpt>
      <trkpt lat="48.41552" lon="2.42115">
        <ele>132.23</ele>
        <time>2017-07-02T08:56:11Z</time>
      </trkpt>
      <trkpt lat="48.41556" lon="2.4212">
        <ele>132.32</ele>
        <time>2017-07-02T08:56:13Z</time>
      </trkpt>
      <trkpt lat="48.41561" lon="2.42123">
        <ele>131.78</ele>
        <time>2017-07-02T08:56:15Z</time>
      </trkpt>
      <trkpt lat="48.41566" lon="2.42126">
        <ele>131.45</ele>
        <time>2017-07-02T08:56:17Z</time>
      </trkpt>
      <trkpt lat="48.41574" lon="2.42131">
        <ele>131.3</ele>
        <time>2017-07-02T08:56:21Z</time>
      </trkpt>
      <trkpt lat="48.41579" lon="2.42135">
        <ele>131.54</ele>
        <time>2017-07-02T08:56:23Z</time>
      </trkpt>
      <trkpt lat="48.41584" lon="2.42138">
        <ele>131.77</ele>
        <time>2017-07-02T08:56:25Z</time>
      </trkpt>
      <trkpt lat="48.4159" lon="2.42139">
        <ele>131.31</ele>
        <time>2017-07-02T08:56:27Z</time>
      </trkpt>
      <trkpt lat="48.41596" lon="2.42139">
        <ele>130.72</ele>
        <time>2017-07-02T08:56:29Z</time>
      </trkpt>
      <trkpt lat="48.41601" lon="2.42138">
        <ele>130.03</ele>
        <time>2017-07-02T08:56:31Z</time>
      </trkpt>
      <trkpt lat="48.41607" lon="2.42139">
        <ele>129.51</ele>
        <time>2017-07-02T08:56:33Z</time>
      </trkpt>
      <trkpt lat="48.41613" lon="2.42142">
        <ele>129.44</ele>
        <time>2017-07-02T08:56:35Z</time>
      </trkpt>
      <trkpt lat="48.41618" lon="2.42147">
        <ele>129.78</ele>
        <time>2017-07-02T08:56:37Z</time>
      </trkpt>
      <trkpt lat="48.41623" lon="2.42151">
        <ele>130.07</ele>
        <time>2017-07-02T08:56:39Z</time>
      </trkpt>
      <trkpt lat="48.41629" lon="2.42156">
        <ele>130.43</ele>
        <time>2017-07-02T08:56:41Z</time>
      </trkpt>
      <trkpt lat="48.41637" lon="2.42161">
        <ele>130.47</ele>
        <time>2017-07-02T08:56:43Z</time>
      </trkpt>
      <trkpt lat="48.41645" lon="2.42164">
        <ele>130.23</ele>
        <time>2017-07-02T08:56:45Z</time>
      </trkpt>
      <trkpt lat="48.41654" lon="2.42164">
        <ele>129.74</ele>
        <time>2017-07-02T08:56:47Z</time>
      </trkpt>
      <trkpt lat="48.41661" lon="2.42165">
        <ele>129.24</ele>
        <time>2017-07-02T08:56:49Z</time>
      </trkpt>
      <trkpt lat="48.41668" lon="2.42166">
        <ele>128.91</ele>
        <time>2017-07-02T08:56:51Z</time>
      </trkpt>
      <trkpt lat="48.41674" lon="2.42169">
        <ele>129.01</ele>
        <time>2017-07-02T08:56:53Z</time>
      </trkpt>
      <trkpt lat="48.41681" lon="2.4217">
        <ele>128.8</ele>
        <time>2017-07-02T08:57:11Z</time>
      </trkpt>
      <trkpt lat="48.41688" lon="2.42171">
        <ele>128.63</ele>
        <time>2017-07-02T08:57:15Z</time>
      </trkpt>
      <trkpt lat="48.41699" lon="2.42175">
        <ele>128.78</ele>
        <time>2017-07-02T08:57:19Z</time>
      </trkpt>
      <trkpt lat="48.41708" lon="2.42179">
        <ele>129.46</ele>
        <time>2017-07-02T08:57:21Z</time>
      </trkpt>
      <trkpt lat="48.41716" lon="2.42181">
        <ele>130.21</ele>
        <time>2017-07-02T08:57:23Z</time>
      </trkpt>
      <trkpt lat="48.41726" lon="2.42183">
        <ele>131.38</ele>
        <time>2017-07-02T08:57:25Z</time>
      </trkpt>
      <trkpt lat="48.41735" lon="2.42186">
        <ele>132.97</ele>
        <time>2017-07-02T08:57:27Z</time>
      </trkpt>
      <trkpt lat="48.41745" lon="2.42187">
        <ele>134.4</ele>
        <time>2017-07-02T08:57:29Z</time>
      </trkpt>
      <trkpt lat="48.41754" lon="2.42189">
        <ele>135.35</ele>
        <time>2017-07-02T08:57:31Z</time>
      </trkpt>
      <trkpt lat="48.41763" lon="2.42192">
        <ele>136.09</ele>
        <time>2017-07-02T08:57:33Z</time>
      </trkpt>
      <trkpt lat="48.41771" lon="2.42195">
        <ele>136.78</ele>
        <time>2017-07-02T08:57:35Z</time>
      </trkpt>
      <trkpt lat="48.41779" lon="2.42199">
        <ele>137.07</ele>
        <time>2017-07-02T08:57:37Z</time>
      </trkpt>
      <trkpt lat="48.41787" lon="2.42202">
        <ele>136.53</ele>
        <time>2017-07-02T08:57:39Z</time>
      </trkpt>
      <trkpt lat="48.41794" lon="2.42204">
        <ele>135.94</ele>
        <time>2017-07-02T08:57:41Z</time>
      </trkpt>
      <trkpt lat="48.41803" lon="2.42206">
        <ele>135.26</ele>
        <time>2017-07-02T08:57:43Z</time>
      </trkpt>
      <trkpt lat="48.4181" lon="2.42209">
        <ele>134.76</ele>
        <time>2017-07-02T08:57:45Z</time>
      </trkpt>
      <trkpt lat="48.41817" lon="2.42211">
        <ele>134.44</ele>
        <time>2017-07-02T08:57:47Z</time>
      </trkpt>
      <trkpt lat="48.41823" lon="2.42213">
        <ele>134.15</ele>
        <time>2017-07-02T08:57:49Z</time>
      </trkpt>
      <trkpt lat="48.4183" lon="2.42214">
        <ele>133.87</ele>
        <time>2017-07-02T08:57:51Z</time>
      </trkpt>
      <trkpt lat="48.41837" lon="2.42217">
        <ele>133.61</ele>
        <time>2017-07-02T08:57:53Z</time>
      </trkpt>
      <trkpt lat="48.41845" lon="2.4222">
        <ele>133.47</ele>
        <time>2017-07-02T08:57:55Z</time>
      </trkpt>
      <trkpt lat="48.41852" lon="2.42224">
        <ele>133.37</ele>
        <time>2017-07-02T08:57:57Z</time>
      </trkpt>
      <trkpt lat="48.41861" lon="2.42228">
        <ele>133.21</ele>
        <time>2017-07-02T08:57:59Z</time>
      </trkpt>
      <trkpt lat="48.41871" lon="2.42231">
        <ele>132.29</ele>
        <time>2017-07-02T08:58:01Z</time>
      </trkpt>
      <trkpt lat="48.41887" lon="2.42239">
        <ele>131.56</ele>
        <time>2017-07-02T08:58:03Z</time>
      </trkpt>
      <trkpt lat="48.41897" lon="2.42243">
        <ele>132.18</ele>
        <time>2017-07-02T08:58:05Z</time>
      </trkpt>
      <trkpt lat="48.41909" lon="2.42244">
        <ele>132.41</ele>
        <time>2017-07-02T08:58:07Z</time>
      </trkpt>
      <trkpt lat="48.4192" lon="2.42247">
        <ele>132.7</ele>
        <time>2017-07-02T08:58:09Z</time>
      </trkpt>
      <trkpt lat="48.41928" lon="2.42249">
        <ele>132.54</ele>
        <time>2017-07-02T08:58:11Z</time>
      </trkpt>
      <trkpt lat="48.41935" lon="2.42248">
        <ele>132.29</ele>
        <time>2017-07-02T08:58:13Z</time>
      </trkpt>
      <trkpt lat="48.41944" lon="2.4225">
        <ele>132.02</ele>
        <time>2017-07-02T08:58:15Z</time>
      </trkpt>
      <trkpt lat="48.41954" lon="2.42249">
        <ele>132.65</ele>
        <time>2017-07-02T08:58:17Z</time>
      </trkpt>
      <trkpt lat="48.41964" lon="2.42254">
        <ele>133.71</ele>
        <time>2017-07-02T08:58:19Z</time>
      </trkpt>
      <trkpt lat="48.41969" lon="2.42259">
        <ele>134.2</ele>
        <time>2017-07-02T08:58:21Z</time>
      </trkpt>
      <trkpt lat="48.41976" lon="2.42257">
        <ele>134.11</ele>
        <time>2017-07-02T08:58:23Z</time>
      </trkpt>
      <trkpt lat="48.41982" lon="2.42258">
        <ele>133.93</ele>
        <time>2017-07-02T08:58:25Z</time>
      </trkpt>
      <trkpt lat="48.4199" lon="2.42261">
        <ele>133.74</ele>
        <time>2017-07-02T08:58:27Z</time>
      </trkpt>
      <trkpt lat="48.41998" lon="2.42264">
        <ele>133.58</ele>
        <time>2017-07-02T08:58:29Z</time>
      </trkpt>
      <trkpt lat="48.42007" lon="2.42268">
        <ele>133.1</ele>
        <time>2017-07-02T08:58:31Z</time>
      </trkpt>
      <trkpt lat="48.42018" lon="2.4227">
        <ele>132.41</ele>
        <time>2017-07-02T08:58:33Z</time>
      </trkpt>
      <trkpt lat="48.42027" lon="2.42273">
        <ele>131.88</ele>
        <time>2017-07-02T08:58:35Z</time>
      </trkpt>
      <trkpt lat="48.42034" lon="2.42276">
        <ele>131.31</ele>
        <time>2017-07-02T08:58:37Z</time>
      </trkpt>
      <trkpt lat="48.4205" lon="2.42279">
        <ele>129.57</ele>
        <time>2017-07-02T08:58:39Z</time>
      </trkpt>
      <trkpt lat="48.42057" lon="2.4228">
        <ele>128.85</ele>
        <time>2017-07-02T08:58:41Z</time>
      </trkpt>
      <trkpt lat="48.42066" lon="2.42284">
        <ele>128.48</ele>
        <time>2017-07-02T08:58:43Z</time>
      </trkpt>
      <trkpt lat="48.42071" lon="2.42283">
        <ele>128.34</ele>
        <time>2017-07-02T08:58:45Z</time>
      </trkpt>
      <trkpt lat="48.42079" lon="2.42289">
        <ele>128.1</ele>
        <time>2017-07-02T08:58:47Z</time>
      </trkpt>
      <trkpt lat="48.42086" lon="2.42295">
        <ele>128.04</ele>
        <time>2017-07-02T08:58:49Z</time>
      </trkpt>
      <trkpt lat="48.42091" lon="2.423">
        <ele>128.05</ele>
        <time>2017-07-02T08:58:51Z</time>
      </trkpt>
      <trkpt lat="48.42096" lon="2.42309">
        <ele>127.88</ele>
        <time>2017-07-02T08:58:52Z</time>
      </trkpt>
      <trkpt lat="48.42102" lon="2.42317">
        <ele>127.58</ele>
        <time>2017-07-02T08:58:55Z</time>
      </trkpt>
      <trkpt lat="48.42105" lon="2.42326">
        <ele>127.27</ele>
        <time>2017-07-02T08:58:57Z</time>
      </trkpt>
      <trkpt lat="48.4211" lon="2.42335">
        <ele>127</ele>
        <time>2017-07-02T08:58:59Z</time>
      </trkpt>
      <trkpt lat="48.42113" lon="2.42348">
        <ele>127.15</ele>
        <time>2017-07-02T08:59:01Z</time>
      </trkpt>
      <trkpt lat="48.42117" lon="2.42359">
        <ele>127.44</ele>
        <time>2017-07-02T08:59:03Z</time>
      </trkpt>
      <trkpt lat="48.42126" lon="2.42375">
        <ele>127.78</ele>
        <time>2017-07-02T08:59:07Z</time>
      </trkpt>
      <trkpt lat="48.4213" lon="2.42386">
        <ele>127.44</ele>
        <time>2017-07-02T08:59:09Z</time>
      </trkpt>
      <trkpt lat="48.42134" lon="2.42396">
        <ele>126.89</ele>
        <time>2017-07-02T08:59:11Z</time>
      </trkpt>
      <trkpt lat="48.4214" lon="2.42405">
        <ele>126.65</ele>
        <time>2017-07-02T08:59:13Z</time>
      </trkpt>
      <trkpt lat="48.42145" lon="2.42414">
        <ele>127.44</ele>
        <time>2017-07-02T08:59:15Z</time>
      </trkpt>
      <trkpt lat="48.42192" lon="2.42466">
        <ele>137.6</ele>
        <time>2017-07-02T08:59:29Z</time>
      </trkpt>
      <trkpt lat="48.42205" lon="2.42476">
        <ele>138.51</ele>
        <time>2017-07-02T08:59:32Z</time>
      </trkpt>
      <trkpt lat="48.42213" lon="2.42484">
        <ele>138.45</ele>
        <time>2017-07-02T08:59:34Z</time>
      </trkpt>
      <trkpt lat="48.42222" lon="2.42488">
        <ele>138.86</ele>
        <time>2017-07-02T08:59:36Z</time>
      </trkpt>
      <trkpt lat="48.4223" lon="2.42494">
        <ele>138.91</ele>
        <time>2017-07-02T08:59:38Z</time>
      </trkpt>
      <trkpt lat="48.42238" lon="2.42502">
        <ele>138.96</ele>
        <time>2017-07-02T08:59:40Z</time>
      </trkpt>
      <trkpt lat="48.42247" lon="2.42508">
        <ele>138.45</ele>
        <time>2017-07-02T08:59:42Z</time>
      </trkpt>
      <trkpt lat="48.42257" lon="2.42514">
        <ele>136.72</ele>
        <time>2017-07-02T08:59:44Z</time>
      </trkpt>
      <trkpt lat="48.42266" lon="2.4252">
        <ele>134.61</ele>
        <time>2017-07-02T08:59:46Z</time>
      </trkpt>
      <trkpt lat="48.42276" lon="2.42526">
        <ele>132.48</ele>
        <time>2017-07-02T08:59:48Z</time>
      </trkpt>
      <trkpt lat="48.42285" lon="2.42532">
        <ele>130.12</ele>
        <time>2017-07-02T08:59:50Z</time>
      </trkpt>
      <trkpt lat="48.42291" lon="2.42538">
        <ele>128.04</ele>
        <time>2017-07-02T08:59:52Z</time>
      </trkpt>
      <trkpt lat="48.42301" lon="2.42542">
        <ele>125.95</ele>
        <time>2017-07-02T08:59:54Z</time>
      </trkpt>
      <trkpt lat="48.42308" lon="2.42548">
        <ele>124.42</ele>
        <time>2017-07-02T08:59:56Z</time>
      </trkpt>
      <trkpt lat="48.42313" lon="2.42553">
        <ele>123.38</ele>
        <time>2017-07-02T08:59:58Z</time>
      </trkpt>
      <trkpt lat="48.42316" lon="2.42559">
        <ele>122.89</ele>
        <time>2017-07-02T09:00:02Z</time>
      </trkpt>
      <trkpt lat="48.42315" lon="2.42552">
        <ele>123.68</ele>
        <time>2017-07-02T09:00:28Z</time>
      </trkpt>
      <trkpt lat="48.42312" lon="2.42562">
        <ele>122.76</ele>
        <time>2017-07-02T09:03:09Z</time>
      </trkpt>
      <trkpt lat="48.42312" lon="2.4257">
        <ele>122.49</ele>
        <time>2017-07-02T09:03:11Z</time>
      </trkpt>
      <trkpt lat="48.4231" lon="2.42577">
        <ele>122.23</ele>
        <time>2017-07-02T09:03:13Z</time>
      </trkpt>
      <trkpt lat="48.42307" lon="2.42586">
        <ele>121.91</ele>
        <time>2017-07-02T09:03:25Z</time>
      </trkpt>
      <trkpt lat="48.42305" lon="2.42603">
        <ele>121.32</ele>
        <time>2017-07-02T09:03:29Z</time>
      </trkpt>
      <trkpt lat="48.42303" lon="2.42616">
        <ele>121.25</ele>
        <time>2017-07-02T09:03:31Z</time>
      </trkpt>
      <trkpt lat="48.423" lon="2.4263">
        <ele>121.6</ele>
        <time>2017-07-02T09:03:33Z</time>
      </trkpt>
      <trkpt lat="48.42298" lon="2.42653">
        <ele>120.87</ele>
        <time>2017-07-02T09:03:35Z</time>
      </trkpt>
      <trkpt lat="48.42295" lon="2.42667">
        <ele>120</ele>
        <time>2017-07-02T09:03:37Z</time>
      </trkpt>
      <trkpt lat="48.42293" lon="2.42682">
        <ele>119.76</ele>
        <time>2017-07-02T09:03:39Z</time>
      </trkpt>
      <trkpt lat="48.42291" lon="2.42697">
        <ele>119.43</ele>
        <time>2017-07-02T09:03:41Z</time>
      </trkpt>
      <trkpt lat="48.42287" lon="2.4271">
        <ele>118.96</ele>
        <time>2017-07-02T09:03:43Z</time>
      </trkpt>
      <trkpt lat="48.42286" lon="2.42727">
        <ele>118.77</ele>
        <time>2017-07-02T09:03:45Z</time>
      </trkpt>
      <trkpt lat="48.42285" lon="2.42742">
        <ele>119.39</ele>
        <time>2017-07-02T09:03:47Z</time>
      </trkpt>
      <trkpt lat="48.42283" lon="2.42756">
        <ele>120.21</ele>
        <time>2017-07-02T09:03:49Z</time>
      </trkpt>
      <trkpt lat="48.42279" lon="2.42768">
        <ele>121.25</ele>
        <time>2017-07-02T09:03:51Z</time>
      </trkpt>
      <trkpt lat="48.42275" lon="2.42784">
        <ele>122.59</ele>
        <time>2017-07-02T09:03:53Z</time>
      </trkpt>
      <trkpt lat="48.42273" lon="2.42797">
        <ele>123.59</ele>
        <time>2017-07-02T09:03:55Z</time>
      </trkpt>
      <trkpt lat="48.42272" lon="2.42811">
        <ele>124.26</ele>
        <time>2017-07-02T09:03:57Z</time>
      </trkpt>
      <trkpt lat="48.42269" lon="2.42826">
        <ele>124.54</ele>
        <time>2017-07-02T09:03:59Z</time>
      </trkpt>
      <trkpt lat="48.42266" lon="2.42843">
        <ele>125.57</ele>
        <time>2017-07-02T09:04:01Z</time>
      </trkpt>
      <trkpt lat="48.42263" lon="2.42859">
        <ele>126.88</ele>
        <time>2017-07-02T09:04:03Z</time>
      </trkpt>
      <trkpt lat="48.4226" lon="2.42871">
        <ele>127.24</ele>
        <time>2017-07-02T09:04:05Z</time>
      </trkpt>
      <trkpt lat="48.42257" lon="2.42884">
        <ele>127.61</ele>
        <time>2017-07-02T09:04:07Z</time>
      </trkpt>
      <trkpt lat="48.42255" lon="2.42895">
        <ele>127.73</ele>
        <time>2017-07-02T09:04:09Z</time>
      </trkpt>
      <trkpt lat="48.42253" lon="2.42909">
        <ele>127.7</ele>
        <time>2017-07-02T09:04:11Z</time>
      </trkpt>
      <trkpt lat="48.42248" lon="2.42919">
        <ele>128.04</ele>
        <time>2017-07-02T09:04:13Z</time>
      </trkpt>
      <trkpt lat="48.42246" lon="2.42928">
        <ele>127.78</ele>
        <time>2017-07-02T09:04:15Z</time>
      </trkpt>
      <trkpt lat="48.42246" lon="2.42941">
        <ele>127.28</ele>
        <time>2017-07-02T09:04:17Z</time>
      </trkpt>
      <trkpt lat="48.42244" lon="2.42951">
        <ele>127.17</ele>
        <time>2017-07-02T09:04:19Z</time>
      </trkpt>
      <trkpt lat="48.42242" lon="2.42964">
        <ele>127.08</ele>
        <time>2017-07-02T09:04:21Z</time>
      </trkpt>
      <trkpt lat="48.42242" lon="2.42979">
        <ele>127.42</ele>
        <time>2017-07-02T09:04:23Z</time>
      </trkpt>
      <trkpt lat="48.42239" lon="2.42991">
        <ele>128.09</ele>
        <time>2017-07-02T09:04:25Z</time>
      </trkpt>
      <trkpt lat="48.42236" lon="2.43002">
        <ele>128.67</ele>
        <time>2017-07-02T09:04:27Z</time>
      </trkpt>
      <trkpt lat="48.42234" lon="2.43015">
        <ele>129.48</ele>
        <time>2017-07-02T09:04:29Z</time>
      </trkpt>
      <trkpt lat="48.42226" lon="2.43031">
        <ele>130.25</ele>
        <time>2017-07-02T09:04:31Z</time>
      </trkpt>
      <trkpt lat="48.4222" lon="2.43044">
        <ele>130.83</ele>
        <time>2017-07-02T09:04:33Z</time>
      </trkpt>
      <trkpt lat="48.42219" lon="2.43054">
        <ele>131.1</ele>
        <time>2017-07-02T09:04:35Z</time>
      </trkpt>
      <trkpt lat="48.42215" lon="2.43064">
        <ele>131.33</ele>
        <time>2017-07-02T09:04:37Z</time>
      </trkpt>
      <trkpt lat="48.42211" lon="2.4307">
        <ele>131.29</ele>
        <time>2017-07-02T09:04:39Z</time>
      </trkpt>
      <trkpt lat="48.42208" lon="2.43082">
        <ele>130.98</ele>
        <time>2017-07-02T09:04:41Z</time>
      </trkpt>
      <trkpt lat="48.42203" lon="2.43092">
        <ele>130.11</ele>
        <time>2017-07-02T09:04:43Z</time>
      </trkpt>
      <trkpt lat="48.42199" lon="2.43103">
        <ele>129.08</ele>
        <time>2017-07-02T09:04:45Z</time>
      </trkpt>
      <trkpt lat="48.42193" lon="2.43108">
        <ele>128.26</ele>
        <time>2017-07-02T09:04:47Z</time>
      </trkpt>
      <trkpt lat="48.42191" lon="2.43117">
        <ele>127.76</ele>
        <time>2017-07-02T09:04:49Z</time>
      </trkpt>
      <trkpt lat="48.4219" lon="2.43126">
        <ele>127.39</ele>
        <time>2017-07-02T09:04:51Z</time>
      </trkpt>
      <trkpt lat="48.42189" lon="2.43138">
        <ele>126.86</ele>
        <time>2017-07-02T09:04:53Z</time>
      </trkpt>
      <trkpt lat="48.42182" lon="2.43146">
        <ele>126.46</ele>
        <time>2017-07-02T09:04:55Z</time>
      </trkpt>
      <trkpt lat="48.42177" lon="2.43157">
        <ele>125.97</ele>
        <time>2017-07-02T09:04:57Z</time>
      </trkpt>
      <trkpt lat="48.42175" lon="2.4317">
        <ele>125.46</ele>
        <time>2017-07-02T09:04:59Z</time>
      </trkpt>
      <trkpt lat="48.42173" lon="2.43181">
        <ele>124.62</ele>
        <time>2017-07-02T09:05:01Z</time>
      </trkpt>
      <trkpt lat="48.42163" lon="2.43197">
        <ele>123.02</ele>
        <time>2017-07-02T09:05:03Z</time>
      </trkpt>
      <trkpt lat="48.42157" lon="2.43207">
        <ele>122.57</ele>
        <time>2017-07-02T09:05:05Z</time>
      </trkpt>
      <trkpt lat="48.42153" lon="2.43215">
        <ele>122</ele>
        <time>2017-07-02T09:05:07Z</time>
      </trkpt>
      <trkpt lat="48.42144" lon="2.43234">
        <ele>120.89</ele>
        <time>2017-07-02T09:05:09Z</time>
      </trkpt>
      <trkpt lat="48.42142" lon="2.43249">
        <ele>120.4</ele>
        <time>2017-07-02T09:05:11Z</time>
      </trkpt>
      <trkpt lat="48.42138" lon="2.43266">
        <ele>120.62</ele>
        <time>2017-07-02T09:05:13Z</time>
      </trkpt>
      <trkpt lat="48.42136" lon="2.4328">
        <ele>121.28</ele>
        <time>2017-07-02T09:05:15Z</time>
      </trkpt>
      <trkpt lat="48.42127" lon="2.43291">
        <ele>122.18</ele>
        <time>2017-07-02T09:05:17Z</time>
      </trkpt>
      <trkpt lat="48.42122" lon="2.43303">
        <ele>122.89</ele>
        <time>2017-07-02T09:05:19Z</time>
      </trkpt>
      <trkpt lat="48.42114" lon="2.43317">
        <ele>123.4</ele>
        <time>2017-07-02T09:05:21Z</time>
      </trkpt>
      <trkpt lat="48.42106" lon="2.43329">
        <ele>123.59</ele>
        <time>2017-07-02T09:05:23Z</time>
      </trkpt>
      <trkpt lat="48.42099" lon="2.43337">
        <ele>123.17</ele>
        <time>2017-07-02T09:05:25Z</time>
      </trkpt>
      <trkpt lat="48.42099" lon="2.43355">
        <ele>123.53</ele>
        <time>2017-07-02T09:05:27Z</time>
      </trkpt>
      <trkpt lat="48.42091" lon="2.43386">
        <ele>122.86</ele>
        <time>2017-07-02T09:05:29Z</time>
      </trkpt>
      <trkpt lat="48.42083" lon="2.43392">
        <ele>121.92</ele>
        <time>2017-07-02T09:05:31Z</time>
      </trkpt>
      <trkpt lat="48.42081" lon="2.43401">
        <ele>121.73</ele>
        <time>2017-07-02T09:05:33Z</time>
      </trkpt>
      <trkpt lat="48.42082" lon="2.4341">
        <ele>121.75</ele>
        <time>2017-07-02T09:05:35Z</time>
      </trkpt>
      <trkpt lat="48.42085" lon="2.4342">
        <ele>121.73</ele>
        <time>2017-07-02T09:05:37Z</time>
      </trkpt>
      <trkpt lat="48.4209" lon="2.43427">
        <ele>121.52</ele>
        <time>2017-07-02T09:05:39Z</time>
      </trkpt>
      <trkpt lat="48.42096" lon="2.43432">
        <ele>121.84</ele>
        <time>2017-07-02T09:05:41Z</time>
      </trkpt>
      <trkpt lat="48.42103" lon="2.43432">
        <ele>122.94</ele>
        <time>2017-07-02T09:05:43Z</time>
      </trkpt>
      <trkpt lat="48.4211" lon="2.43433">
        <ele>124.06</ele>
        <time>2017-07-02T09:05:45Z</time>
      </trkpt>
      <trkpt lat="48.42116" lon="2.43434">
        <ele>124.05</ele>
        <time>2017-07-02T09:05:47Z</time>
      </trkpt>
      <trkpt lat="48.42123" lon="2.43439">
        <ele>123.47</ele>
        <time>2017-07-02T09:05:49Z</time>
      </trkpt>
      <trkpt lat="48.42126" lon="2.43445">
        <ele>122.97</ele>
        <time>2017-07-02T09:05:51Z</time>
      </trkpt>
      <trkpt lat="48.42133" lon="2.43448">
        <ele>122.62</ele>
        <time>2017-07-02T09:05:53Z</time>
      </trkpt>
      <trkpt lat="48.42139" lon="2.43451">
        <ele>122.22</ele>
        <time>2017-07-02T09:05:55Z</time>
      </trkpt>
      <trkpt lat="48.42144" lon="2.43455">
        <ele>121.49</ele>
        <time>2017-07-02T09:05:57Z</time>
      </trkpt>
      <trkpt lat="48.42149" lon="2.43458">
        <ele>120.89</ele>
        <time>2017-07-02T09:05:59Z</time>
      </trkpt>
      <trkpt lat="48.42156" lon="2.43464">
        <ele>119.63</ele>
        <time>2017-07-02T09:06:01Z</time>
      </trkpt>
      <trkpt lat="48.42162" lon="2.43472">
        <ele>118.43</ele>
        <time>2017-07-02T09:06:03Z</time>
      </trkpt>
      <trkpt lat="48.42167" lon="2.4348">
        <ele>117.25</ele>
        <time>2017-07-02T09:06:05Z</time>
      </trkpt>
      <trkpt lat="48.42185" lon="2.43586">
        <ele>116.85</ele>
        <time>2017-07-02T09:06:37Z</time>
      </trkpt>
      <trkpt lat="48.42182" lon="2.43606">
        <ele>114.71</ele>
        <time>2017-07-02T09:06:40Z</time>
      </trkpt>
      <trkpt lat="48.42179" lon="2.43621">
        <ele>112.81</ele>
        <time>2017-07-02T09:06:42Z</time>
      </trkpt>
      <trkpt lat="48.42177" lon="2.43634">
        <ele>111.17</ele>
        <time>2017-07-02T09:06:44Z</time>
      </trkpt>
      <trkpt lat="48.42169" lon="2.4365">
        <ele>107.49</ele>
        <time>2017-07-02T09:06:46Z</time>
      </trkpt>
      <trkpt lat="48.42165" lon="2.4367">
        <ele>104.09</ele>
        <time>2017-07-02T09:06:48Z</time>
      </trkpt>
      <trkpt lat="48.42162" lon="2.43684">
        <ele>102</ele>
        <time>2017-07-02T09:06:50Z</time>
      </trkpt>
      <trkpt lat="48.42163" lon="2.43695">
        <ele>101.08</ele>
        <time>2017-07-02T09:06:52Z</time>
      </trkpt>
      <trkpt lat="48.42163" lon="2.43703">
        <ele>100.38</ele>
        <time>2017-07-02T09:06:54Z</time>
      </trkpt>
      <trkpt lat="48.42164" lon="2.43713">
        <ele>99.58</ele>
        <time>2017-07-02T09:06:56Z</time>
      </trkpt>
      <trkpt lat="48.42167" lon="2.43721">
        <ele>99.18</ele>
        <time>2017-07-02T09:06:58Z</time>
      </trkpt>
      <trkpt lat="48.42165" lon="2.43728">
        <ele>98.64</ele>
        <time>2017-07-02T09:07:00Z</time>
      </trkpt>
      <trkpt lat="48.42161" lon="2.43735">
        <ele>98.03</ele>
        <time>2017-07-02T09:07:02Z</time>
      </trkpt>
      <trkpt lat="48.42154" lon="2.43743">
        <ele>97.24</ele>
        <time>2017-07-02T09:07:04Z</time>
      </trkpt>
      <trkpt lat="48.42148" lon="2.43752">
        <ele>96.6</ele>
        <time>2017-07-02T09:07:06Z</time>
      </trkpt>
      <trkpt lat="48.42142" lon="2.43763">
        <ele>96.2</ele>
        <time>2017-07-02T09:07:08Z</time>
      </trkpt>
      <trkpt lat="48.42138" lon="2.43774">
        <ele>95.73</ele>
        <time>2017-07-02T09:07:10Z</time>
      </trkpt>
      <trkpt lat="48.42132" lon="2.43784">
        <ele>94.03</ele>
        <time>2017-07-02T09:07:12Z</time>
      </trkpt>
      <trkpt lat="48.42126" lon="2.43792">
        <ele>92.22</ele>
        <time>2017-07-02T09:07:14Z</time>
      </trkpt>
      <trkpt lat="48.42123" lon="2.43801">
        <ele>90.9</ele>
        <time>2017-07-02T09:07:16Z</time>
      </trkpt>
      <trkpt lat="48.42125" lon="2.4381">
        <ele>90.85</ele>
        <time>2017-07-02T09:07:18Z</time>
      </trkpt>
      <trkpt lat="48.42131" lon="2.43817">
        <ele>91.55</ele>
        <time>2017-07-02T09:07:20Z</time>
      </trkpt>
      <trkpt lat="48.42137" lon="2.43824">
        <ele>92.27</ele>
        <time>2017-07-02T09:07:22Z</time>
      </trkpt>
      <trkpt lat="48.42142" lon="2.43831">
        <ele>92.4</ele>
        <time>2017-07-02T09:07:24Z</time>
      </trkpt>
      <trkpt lat="48.42148" lon="2.43838">
        <ele>92.59</ele>
        <time>2017-07-02T09:07:26Z</time>
      </trkpt>
      <trkpt lat="48.42153" lon="2.43846">
        <ele>92.55</ele>
        <time>2017-07-02T09:07:28Z</time>
      </trkpt>
      <trkpt lat="48.42158" lon="2.43853">
        <ele>92.12</ele>
        <time>2017-07-02T09:07:30Z</time>
      </trkpt>
      <trkpt lat="48.42163" lon="2.43861">
        <ele>91.29</ele>
        <time>2017-07-02T09:07:32Z</time>
      </trkpt>
      <trkpt lat="48.42168" lon="2.43868">
        <ele>90.47</ele>
        <time>2017-07-02T09:07:34Z</time>
      </trkpt>
      <trkpt lat="48.42173" lon="2.43875">
        <ele>89.97</ele>
        <time>2017-07-02T09:07:36Z</time>
      </trkpt>
      <trkpt lat="48.42178" lon="2.43882">
        <ele>89.51</ele>
        <time>2017-07-02T09:07:38Z</time>
      </trkpt>
      <trkpt lat="48.42184" lon="2.43888">
        <ele>89.07</ele>
        <time>2017-07-02T09:07:40Z</time>
      </trkpt>
      <trkpt lat="48.4219" lon="2.43894">
        <ele>88.48</ele>
        <time>2017-07-02T09:07:42Z</time>
      </trkpt>
      <trkpt lat="48.42197" lon="2.43899">
        <ele>87.98</ele>
        <time>2017-07-02T09:07:44Z</time>
      </trkpt>
      <trkpt lat="48.42203" lon="2.43905">
        <ele>87.56</ele>
        <time>2017-07-02T09:07:46Z</time>
      </trkpt>
      <trkpt lat="48.4221" lon="2.4391">
        <ele>86.96</ele>
        <time>2017-07-02T09:07:48Z</time>
      </trkpt>
      <trkpt lat="48.42217" lon="2.43917">
        <ele>85.99</ele>
        <time>2017-07-02T09:07:50Z</time>
      </trkpt>
      <trkpt lat="48.42223" lon="2.43924">
        <ele>84.76</ele>
        <time>2017-07-02T09:07:52Z</time>
      </trkpt>
      <trkpt lat="48.4223" lon="2.43932">
        <ele>83.98</ele>
        <time>2017-07-02T09:07:54Z</time>
      </trkpt>
      <trkpt lat="48.42242" lon="2.43946">
        <ele>82.91</ele>
        <time>2017-07-02T09:07:56Z</time>
      </trkpt>
      <trkpt lat="48.42249" lon="2.43952">
        <ele>82.49</ele>
        <time>2017-07-02T09:07:58Z</time>
      </trkpt>
      <trkpt lat="48.42257" lon="2.43961">
        <ele>81.92</ele>
        <time>2017-07-02T09:08:00Z</time>
      </trkpt>
      <trkpt lat="48.42265" lon="2.43971">
        <ele>81.8</ele>
        <time>2017-07-02T09:08:02Z</time>
      </trkpt>
      <trkpt lat="48.4227" lon="2.43978">
        <ele>82.79</ele>
        <time>2017-07-02T09:08:04Z</time>
      </trkpt>
      <trkpt lat="48.42277" lon="2.43985">
        <ele>83.87</ele>
        <time>2017-07-02T09:08:06Z</time>
      </trkpt>
      <trkpt lat="48.42283" lon="2.43994">
        <ele>84.25</ele>
        <time>2017-07-02T09:08:08Z</time>
      </trkpt>
      <trkpt lat="48.42291" lon="2.44004">
        <ele>84.39</ele>
        <time>2017-07-02T09:08:10Z</time>
      </trkpt>
      <trkpt lat="48.42297" lon="2.44011">
        <ele>84.74</ele>
        <time>2017-07-02T09:08:12Z</time>
      </trkpt>
      <trkpt lat="48.42303" lon="2.44018">
        <ele>85.42</ele>
        <time>2017-07-02T09:08:14Z</time>
      </trkpt>
      <trkpt lat="48.4231" lon="2.44026">
        <ele>86.26</ele>
        <time>2017-07-02T09:08:16Z</time>
      </trkpt>
      <trkpt lat="48.42317" lon="2.44031">
        <ele>86.66</ele>
        <time>2017-07-02T09:08:18Z</time>
      </trkpt>
      <trkpt lat="48.42323" lon="2.44038">
        <ele>86.7</ele>
        <time>2017-07-02T09:08:20Z</time>
      </trkpt>
      <trkpt lat="48.42328" lon="2.44043">
        <ele>86.61</ele>
        <time>2017-07-02T09:08:22Z</time>
      </trkpt>
      <trkpt lat="48.42334" lon="2.4405">
        <ele>86.58</ele>
        <time>2017-07-02T09:08:24Z</time>
      </trkpt>
      <trkpt lat="48.4234" lon="2.44057">
        <ele>87.37</ele>
        <time>2017-07-02T09:08:26Z</time>
      </trkpt>
      <trkpt lat="48.42345" lon="2.44063">
        <ele>88.13</ele>
        <time>2017-07-02T09:08:28Z</time>
      </trkpt>
      <trkpt lat="48.42351" lon="2.44071">
        <ele>88.53</ele>
        <time>2017-07-02T09:08:30Z</time>
      </trkpt>
      <trkpt lat="48.42358" lon="2.44078">
        <ele>89.15</ele>
        <time>2017-07-02T09:08:32Z</time>
      </trkpt>
      <trkpt lat="48.42365" lon="2.44085">
        <ele>89.35</ele>
        <time>2017-07-02T09:08:34Z</time>
      </trkpt>
      <trkpt lat="48.4237" lon="2.44093">
        <ele>89</ele>
        <time>2017-07-02T09:08:36Z</time>
      </trkpt>
      <trkpt lat="48.42376" lon="2.441">
        <ele>88.46</ele>
        <time>2017-07-02T09:08:38Z</time>
      </trkpt>
      <trkpt lat="48.42382" lon="2.44107">
        <ele>87.59</ele>
        <time>2017-07-02T09:08:40Z</time>
      </trkpt>
      <trkpt lat="48.42389" lon="2.44114">
        <ele>86.54</ele>
        <time>2017-07-02T09:08:42Z</time>
      </trkpt>
      <trkpt lat="48.42396" lon="2.44121">
        <ele>87.19</ele>
        <time>2017-07-02T09:08:44Z</time>
      </trkpt>
      <trkpt lat="48.42403" lon="2.44129">
        <ele>87.35</ele>
        <time>2017-07-02T09:08:46Z</time>
      </trkpt>
      <trkpt lat="48.42404" lon="2.44141">
        <ele>86.31</ele>
        <time>2017-07-02T09:08:48Z</time>
      </trkpt>
      <trkpt lat="48.42402" lon="2.44154">
        <ele>86.08</ele>
        <time>2017-07-02T09:08:50Z</time>
      </trkpt>
      <trkpt lat="48.42399" lon="2.44165">
        <ele>85.85</ele>
        <time>2017-07-02T09:08:52Z</time>
      </trkpt>
      <trkpt lat="48.42396" lon="2.44174">
        <ele>84.69</ele>
        <time>2017-07-02T09:08:54Z</time>
      </trkpt>
      <trkpt lat="48.42402" lon="2.44187">
        <ele>84.51</ele>
        <time>2017-07-02T09:08:56Z</time>
      </trkpt>
      <trkpt lat="48.42409" lon="2.44192">
        <ele>85.06</ele>
        <time>2017-07-02T09:08:58Z</time>
      </trkpt>
      <trkpt lat="48.42416" lon="2.44195">
        <ele>85.89</ele>
        <time>2017-07-02T09:09:00Z</time>
      </trkpt>
      <trkpt lat="48.42424" lon="2.442">
        <ele>86.35</ele>
        <time>2017-07-02T09:09:02Z</time>
      </trkpt>
      <trkpt lat="48.4243" lon="2.44203">
        <ele>86.52</ele>
        <time>2017-07-02T09:09:04Z</time>
      </trkpt>
      <trkpt lat="48.42435" lon="2.44206">
        <ele>86.68</ele>
        <time>2017-07-02T09:09:06Z</time>
      </trkpt>
      <trkpt lat="48.42442" lon="2.44209">
        <ele>86.66</ele>
        <time>2017-07-02T09:09:08Z</time>
      </trkpt>
      <trkpt lat="48.42448" lon="2.44213">
        <ele>86.56</ele>
        <time>2017-07-02T09:09:10Z</time>
      </trkpt>
      <trkpt lat="48.42452" lon="2.44218">
        <ele>86.29</ele>
        <time>2017-07-02T09:09:12Z</time>
      </trkpt>
      <trkpt lat="48.4246" lon="2.44221">
        <ele>87</ele>
        <time>2017-07-02T09:09:16Z</time>
      </trkpt>
      <trkpt lat="48.42468" lon="2.44222">
        <ele>88.35</ele>
        <time>2017-07-02T09:09:18Z</time>
      </trkpt>
      <trkpt lat="48.42474" lon="2.44222">
        <ele>89.25</ele>
        <time>2017-07-02T09:09:20Z</time>
      </trkpt>
      <trkpt lat="48.42479" lon="2.44217">
        <ele>90.32</ele>
        <time>2017-07-02T09:09:22Z</time>
      </trkpt>
      <trkpt lat="48.42484" lon="2.44213">
        <ele>91.29</ele>
        <time>2017-07-02T09:09:24Z</time>
      </trkpt>
      <trkpt lat="48.42487" lon="2.44202">
        <ele>92.78</ele>
        <time>2017-07-02T09:09:26Z</time>
      </trkpt>
      <trkpt lat="48.4249" lon="2.44193">
        <ele>93.62</ele>
        <time>2017-07-02T09:09:28Z</time>
      </trkpt>
      <trkpt lat="48.4249" lon="2.44187">
        <ele>93.48</ele>
        <time>2017-07-02T09:09:30Z</time>
      </trkpt>
      <trkpt lat="48.42488" lon="2.44174">
        <ele>93.34</ele>
        <time>2017-07-02T09:10:22Z</time>
      </trkpt>
      <trkpt lat="48.42495" lon="2.44163">
        <ele>92.56</ele>
        <time>2017-07-02T09:10:26Z</time>
      </trkpt>
      <trkpt lat="48.42499" lon="2.44153">
        <ele>91.71</ele>
        <time>2017-07-02T09:10:28Z</time>
      </trkpt>
      <trkpt lat="48.42504" lon="2.44148">
        <ele>91.14</ele>
        <time>2017-07-02T09:10:30Z</time>
      </trkpt>
      <trkpt lat="48.4251" lon="2.44141">
        <ele>90.69</ele>
        <time>2017-07-02T09:10:34Z</time>
      </trkpt>
      <trkpt lat="48.42514" lon="2.44137">
        <ele>90.6</ele>
        <time>2017-07-02T09:10:36Z</time>
      </trkpt>
      <trkpt lat="48.42518" lon="2.44137">
        <ele>90.42</ele>
        <time>2017-07-02T09:10:38Z</time>
      </trkpt>
      <trkpt lat="48.42523" lon="2.44143">
        <ele>90.21</ele>
        <time>2017-07-02T09:10:40Z</time>
      </trkpt>
      <trkpt lat="48.42528" lon="2.44149">
        <ele>90.05</ele>
        <time>2017-07-02T09:10:42Z</time>
      </trkpt>
      <trkpt lat="48.42534" lon="2.44155">
        <ele>90.35</ele>
        <time>2017-07-02T09:10:44Z</time>
      </trkpt>
      <trkpt lat="48.42541" lon="2.4416">
        <ele>90.43</ele>
        <time>2017-07-02T09:10:46Z</time>
      </trkpt>
      <trkpt lat="48.4256" lon="2.44169">
        <ele>90.62</ele>
        <time>2017-07-02T09:10:48Z</time>
      </trkpt>
      <trkpt lat="48.42573" lon="2.44176">
        <ele>92.16</ele>
        <time>2017-07-02T09:10:50Z</time>
      </trkpt>
      <trkpt lat="48.42586" lon="2.44176">
        <ele>93.17</ele>
        <time>2017-07-02T09:10:52Z</time>
      </trkpt>
      <trkpt lat="48.42596" lon="2.4419">
        <ele>93.54</ele>
        <time>2017-07-02T09:10:54Z</time>
      </trkpt>
      <trkpt lat="48.42609" lon="2.44187">
        <ele>94.15</ele>
        <time>2017-07-02T09:10:56Z</time>
      </trkpt>
      <trkpt lat="48.42616" lon="2.44199">
        <ele>94.38</ele>
        <time>2017-07-02T09:10:58Z</time>
      </trkpt>
      <trkpt lat="48.42621" lon="2.44211">
        <ele>94.45</ele>
        <time>2017-07-02T09:11:00Z</time>
      </trkpt>
      <trkpt lat="48.42614" lon="2.44224">
        <ele>93.38</ele>
        <time>2017-07-02T09:11:02Z</time>
      </trkpt>
      <trkpt lat="48.42611" lon="2.44236">
        <ele>93.5</ele>
        <time>2017-07-02T09:11:04Z</time>
      </trkpt>
      <trkpt lat="48.42612" lon="2.44254">
        <ele>94.08</ele>
        <time>2017-07-02T09:11:06Z</time>
      </trkpt>
      <trkpt lat="48.42564" lon="2.44553">
        <ele>80.26</ele>
        <time>2017-07-02T09:11:37Z</time>
      </trkpt>
      <trkpt lat="48.42561" lon="2.44581">
        <ele>82.05</ele>
        <time>2017-07-02T09:11:40Z</time>
      </trkpt>
      <trkpt lat="48.42559" lon="2.44596">
        <ele>82.33</ele>
        <time>2017-07-02T09:11:42Z</time>
      </trkpt>
      <trkpt lat="48.42554" lon="2.44599">
        <ele>81.3</ele>
        <time>2017-07-02T09:11:44Z</time>
      </trkpt>
      <trkpt lat="48.42552" lon="2.4461">
        <ele>81.13</ele>
        <time>2017-07-02T09:11:46Z</time>
      </trkpt>
      <trkpt lat="48.42548" lon="2.44621">
        <ele>81.03</ele>
        <time>2017-07-02T09:11:48Z</time>
      </trkpt>
      <trkpt lat="48.42546" lon="2.44635">
        <ele>81.37</ele>
        <time>2017-07-02T09:11:50Z</time>
      </trkpt>
      <trkpt lat="48.42542" lon="2.44648">
        <ele>81.32</ele>
        <time>2017-07-02T09:11:52Z</time>
      </trkpt>
      <trkpt lat="48.42538" lon="2.44665">
        <ele>81.34</ele>
        <time>2017-07-02T09:11:54Z</time>
      </trkpt>
      <trkpt lat="48.42535" lon="2.44684">
        <ele>81.43</ele>
        <time>2017-07-02T09:11:56Z</time>
      </trkpt>
      <trkpt lat="48.42533" lon="2.447">
        <ele>81.13</ele>
        <time>2017-07-02T09:11:58Z</time>
      </trkpt>
      <trkpt lat="48.42529" lon="2.44713">
        <ele>80.32</ele>
        <time>2017-07-02T09:12:00Z</time>
      </trkpt>
      <trkpt lat="48.42526" lon="2.44732">
        <ele>79.59</ele>
        <time>2017-07-02T09:12:02Z</time>
      </trkpt>
      <trkpt lat="48.42521" lon="2.44748">
        <ele>78.59</ele>
        <time>2017-07-02T09:12:04Z</time>
      </trkpt>
      <trkpt lat="48.42518" lon="2.44767">
        <ele>77.24</ele>
        <time>2017-07-02T09:12:06Z</time>
      </trkpt>
      <trkpt lat="48.42517" lon="2.44782">
        <ele>76.7</ele>
        <time>2017-07-02T09:12:08Z</time>
      </trkpt>
      <trkpt lat="48.42517" lon="2.44801">
        <ele>76.76</ele>
        <time>2017-07-02T09:12:10Z</time>
      </trkpt>
      <trkpt lat="48.42513" lon="2.44815">
        <ele>76.19</ele>
        <time>2017-07-02T09:12:12Z</time>
      </trkpt>
      <trkpt lat="48.42513" lon="2.4483">
        <ele>76.59</ele>
        <time>2017-07-02T09:12:14Z</time>
      </trkpt>
      <trkpt lat="48.42511" lon="2.44845">
        <ele>77.11</ele>
        <time>2017-07-02T09:12:16Z</time>
      </trkpt>
      <trkpt lat="48.42507" lon="2.44859">
        <ele>77.47</ele>
        <time>2017-07-02T09:12:18Z</time>
      </trkpt>
      <trkpt lat="48.42508" lon="2.44874">
        <ele>79.09</ele>
        <time>2017-07-02T09:12:20Z</time>
      </trkpt>
      <trkpt lat="48.42504" lon="2.44884">
        <ele>79.26</ele>
        <time>2017-07-02T09:12:22Z</time>
      </trkpt>
      <trkpt lat="48.42499" lon="2.44895">
        <ele>79.25</ele>
        <time>2017-07-02T09:12:24Z</time>
      </trkpt>
      <trkpt lat="48.42495" lon="2.44906">
        <ele>79.35</ele>
        <time>2017-07-02T09:12:26Z</time>
      </trkpt>
      <trkpt lat="48.42488" lon="2.44913">
        <ele>78.68</ele>
        <time>2017-07-02T09:12:28Z</time>
      </trkpt>
      <trkpt lat="48.42483" lon="2.44924">
        <ele>78.11</ele>
        <time>2017-07-02T09:12:30Z</time>
      </trkpt>
      <trkpt lat="48.42481" lon="2.4494">
        <ele>77.9</ele>
        <time>2017-07-02T09:12:32Z</time>
      </trkpt>
      <trkpt lat="48.42478" lon="2.44954">
        <ele>78.14</ele>
        <time>2017-07-02T09:12:34Z</time>
      </trkpt>
      <trkpt lat="48.42476" lon="2.44969">
        <ele>79.47</ele>
        <time>2017-07-02T09:12:36Z</time>
      </trkpt>
      <trkpt lat="48.42477" lon="2.44982">
        <ele>80.56</ele>
        <time>2017-07-02T09:12:38Z</time>
      </trkpt>
      <trkpt lat="48.42472" lon="2.44998">
        <ele>80.8</ele>
        <time>2017-07-02T09:12:40Z</time>
      </trkpt>
      <trkpt lat="48.42468" lon="2.4501">
        <ele>80.73</ele>
        <time>2017-07-02T09:12:42Z</time>
      </trkpt>
      <trkpt lat="48.42466" lon="2.45021">
        <ele>81</ele>
        <time>2017-07-02T09:12:44Z</time>
      </trkpt>
      <trkpt lat="48.42464" lon="2.45032">
        <ele>81.49</ele>
        <time>2017-07-02T09:12:46Z</time>
      </trkpt>
      <trkpt lat="48.42463" lon="2.45047">
        <ele>82.42</ele>
        <time>2017-07-02T09:12:48Z</time>
      </trkpt>
      <trkpt lat="48.4246" lon="2.45062">
        <ele>82.61</ele>
        <time>2017-07-02T09:12:50Z</time>
      </trkpt>
      <trkpt lat="48.42459" lon="2.45079">
        <ele>82.16</ele>
        <time>2017-07-02T09:12:52Z</time>
      </trkpt>
      <trkpt lat="48.42457" lon="2.45094">
        <ele>82.17</ele>
        <time>2017-07-02T09:12:54Z</time>
      </trkpt>
      <trkpt lat="48.42449" lon="2.45107">
        <ele>80.14</ele>
        <time>2017-07-02T09:12:56Z</time>
      </trkpt>
      <trkpt lat="48.42442" lon="2.45124">
        <ele>78.52</ele>
        <time>2017-07-02T09:12:58Z</time>
      </trkpt>
      <trkpt lat="48.42436" lon="2.45133">
        <ele>77.31</ele>
        <time>2017-07-02T09:13:00Z</time>
      </trkpt>
      <trkpt lat="48.42436" lon="2.45145">
        <ele>77.1</ele>
        <time>2017-07-02T09:13:04Z</time>
      </trkpt>
      <trkpt lat="48.42439" lon="2.45153">
        <ele>77.73</ele>
        <time>2017-07-02T09:13:06Z</time>
      </trkpt>
      <trkpt lat="48.4244" lon="2.45161">
        <ele>77.92</ele>
        <time>2017-07-02T09:13:08Z</time>
      </trkpt>
      <trkpt lat="48.42443" lon="2.45173">
        <ele>78.65</ele>
        <time>2017-07-02T09:13:10Z</time>
      </trkpt>
      <trkpt lat="48.42443" lon="2.45187">
        <ele>78.66</ele>
        <time>2017-07-02T09:13:14Z</time>
      </trkpt>
      <trkpt lat="48.42439" lon="2.45197">
        <ele>77.89</ele>
        <time>2017-07-02T09:13:16Z</time>
      </trkpt>
      <trkpt lat="48.42441" lon="2.45206">
        <ele>77.79</ele>
        <time>2017-07-02T09:13:18Z</time>
      </trkpt>
      <trkpt lat="48.42443" lon="2.45217">
        <ele>77.35</ele>
        <time>2017-07-02T09:13:20Z</time>
      </trkpt>
      <trkpt lat="48.42443" lon="2.45227">
        <ele>77.33</ele>
        <time>2017-07-02T09:13:22Z</time>
      </trkpt>
      <trkpt lat="48.42446" lon="2.4524">
        <ele>78.72</ele>
        <time>2017-07-02T09:13:24Z</time>
      </trkpt>
      <trkpt lat="48.42445" lon="2.45249">
        <ele>79.01</ele>
        <time>2017-07-02T09:13:26Z</time>
      </trkpt>
      <trkpt lat="48.42444" lon="2.45258">
        <ele>79.53</ele>
        <time>2017-07-02T09:13:30Z</time>
      </trkpt>
      <trkpt lat="48.42448" lon="2.45265">
        <ele>80.87</ele>
        <time>2017-07-02T09:13:34Z</time>
      </trkpt>
      <trkpt lat="48.42449" lon="2.45273">
        <ele>81.85</ele>
        <time>2017-07-02T09:13:36Z</time>
      </trkpt>
      <trkpt lat="48.42449" lon="2.4528">
        <ele>82.55</ele>
        <time>2017-07-02T09:13:38Z</time>
      </trkpt>
      <trkpt lat="48.42451" lon="2.45292">
        <ele>84.56</ele>
        <time>2017-07-02T09:13:42Z</time>
      </trkpt>
      <trkpt lat="48.42451" lon="2.45303">
        <ele>86.06</ele>
        <time>2017-07-02T09:13:46Z</time>
      </trkpt>
      <trkpt lat="48.42453" lon="2.45316">
        <ele>86.83</ele>
        <time>2017-07-02T09:13:48Z</time>
      </trkpt>
      <trkpt lat="48.42455" lon="2.4533">
        <ele>87.25</ele>
        <time>2017-07-02T09:13:50Z</time>
      </trkpt>
      <trkpt lat="48.42458" lon="2.45336">
        <ele>87.95</ele>
        <time>2017-07-02T09:13:52Z</time>
      </trkpt>
      <trkpt lat="48.42464" lon="2.45345">
        <ele>89.14</ele>
        <time>2017-07-02T09:13:54Z</time>
      </trkpt>
      <trkpt lat="48.42468" lon="2.45351">
        <ele>90.05</ele>
        <time>2017-07-02T09:13:56Z</time>
      </trkpt>
      <trkpt lat="48.4247" lon="2.45359">
        <ele>90.47</ele>
        <time>2017-07-02T09:13:58Z</time>
      </trkpt>
      <trkpt lat="48.42473" lon="2.45368">
        <ele>90.84</ele>
        <time>2017-07-02T09:14:00Z</time>
      </trkpt>
      <trkpt lat="48.42477" lon="2.45378">
        <ele>91.1</ele>
        <time>2017-07-02T09:14:02Z</time>
      </trkpt>
      <trkpt lat="48.42481" lon="2.45382">
        <ele>91.56</ele>
        <time>2017-07-02T09:14:04Z</time>
      </trkpt>
      <trkpt lat="48.42487" lon="2.45395">
        <ele>91.76</ele>
        <time>2017-07-02T09:14:06Z</time>
      </trkpt>
      <trkpt lat="48.4249" lon="2.45404">
        <ele>91.86</ele>
        <time>2017-07-02T09:14:08Z</time>
      </trkpt>
      <trkpt lat="48.42497" lon="2.4541">
        <ele>92.74</ele>
        <time>2017-07-02T09:14:14Z</time>
      </trkpt>
      <trkpt lat="48.42503" lon="2.45422">
        <ele>92.72</ele>
        <time>2017-07-02T09:14:18Z</time>
      </trkpt>
      <trkpt lat="48.42511" lon="2.45431">
        <ele>92.53</ele>
        <time>2017-07-02T09:14:20Z</time>
      </trkpt>
      <trkpt lat="48.42514" lon="2.45438">
        <ele>92.37</ele>
        <time>2017-07-02T09:14:22Z</time>
      </trkpt>
      <trkpt lat="48.42517" lon="2.45445">
        <ele>92.23</ele>
        <time>2017-07-02T09:14:24Z</time>
      </trkpt>
      <trkpt lat="48.42523" lon="2.45448">
        <ele>92.53</ele>
        <time>2017-07-02T09:14:26Z</time>
      </trkpt>
      <trkpt lat="48.42527" lon="2.4545">
        <ele>92.79</ele>
        <time>2017-07-02T09:14:28Z</time>
      </trkpt>
      <trkpt lat="48.42532" lon="2.45447">
        <ele>92.93</ele>
        <time>2017-07-02T09:14:32Z</time>
      </trkpt>
      <trkpt lat="48.42539" lon="2.45448">
        <ele>92.93</ele>
        <time>2017-07-02T09:14:38Z</time>
      </trkpt>
      <trkpt lat="48.42544" lon="2.45447">
        <ele>92.96</ele>
        <time>2017-07-02T09:14:42Z</time>
      </trkpt>
      <trkpt lat="48.42548" lon="2.45444">
        <ele>93</ele>
        <time>2017-07-02T09:14:46Z</time>
      </trkpt>
      <trkpt lat="48.42553" lon="2.45437">
        <ele>93.02</ele>
        <time>2017-07-02T09:14:52Z</time>
      </trkpt>
      <trkpt lat="48.42557" lon="2.45429">
        <ele>93.21</ele>
        <time>2017-07-02T09:14:58Z</time>
      </trkpt>
      <trkpt lat="48.42561" lon="2.45424">
        <ele>94.06</ele>
        <time>2017-07-02T09:15:02Z</time>
      </trkpt>
      <trkpt lat="48.42567" lon="2.4542">
        <ele>94.97</ele>
        <time>2017-07-02T09:15:06Z</time>
      </trkpt>
      <trkpt lat="48.42572" lon="2.45415">
        <ele>96.08</ele>
        <time>2017-07-02T09:15:10Z</time>
      </trkpt>
      <trkpt lat="48.42577" lon="2.4541">
        <ele>96.92</ele>
        <time>2017-07-02T09:15:14Z</time>
      </trkpt>
      <trkpt lat="48.42581" lon="2.45405">
        <ele>97.64</ele>
        <time>2017-07-02T09:15:18Z</time>
      </trkpt>
      <trkpt lat="48.42585" lon="2.45402">
        <ele>98.27</ele>
        <time>2017-07-02T09:15:22Z</time>
      </trkpt>
      <trkpt lat="48.4259" lon="2.454">
        <ele>98.91</ele>
        <time>2017-07-02T09:15:32Z</time>
      </trkpt>
      <trkpt lat="48.42595" lon="2.45395">
        <ele>99.61</ele>
        <time>2017-07-02T09:15:36Z</time>
      </trkpt>
      <trkpt lat="48.42598" lon="2.45388">
        <ele>100.09</ele>
        <time>2017-07-02T09:15:42Z</time>
      </trkpt>
      <trkpt lat="48.426" lon="2.45382">
        <ele>100.54</ele>
        <time>2017-07-02T09:15:50Z</time>
      </trkpt>
      <trkpt lat="48.42604" lon="2.45388">
        <ele>101.01</ele>
        <time>2017-07-02T09:15:58Z</time>
      </trkpt>
      <trkpt lat="48.4261" lon="2.4539">
        <ele>101.78</ele>
        <time>2017-07-02T09:16:06Z</time>
      </trkpt>
      <trkpt lat="48.42641" lon="2.45384">
        <ele>107.17</ele>
        <time>2017-07-02T09:16:40Z</time>
      </trkpt>
      <trkpt lat="48.42643" lon="2.45378">
        <ele>107.32</ele>
        <time>2017-07-02T09:16:44Z</time>
      </trkpt>
      <trkpt lat="48.42646" lon="2.45371">
        <ele>107.53</ele>
        <time>2017-07-02T09:16:48Z</time>
      </trkpt>
      <trkpt lat="48.42652" lon="2.4536">
        <ele>107.9</ele>
        <time>2017-07-02T09:16:52Z</time>
      </trkpt>
      <trkpt lat="48.42656" lon="2.45349">
        <ele>107.81</ele>
        <time>2017-07-02T09:16:56Z</time>
      </trkpt>
      <trkpt lat="48.42656" lon="2.45341">
        <ele>107.52</ele>
        <time>2017-07-02T09:17:00Z</time>
      </trkpt>
      <trkpt lat="48.42653" lon="2.45333">
        <ele>106.98</ele>
        <time>2017-07-02T09:17:06Z</time>
      </trkpt>
      <trkpt lat="48.42656" lon="2.45327">
        <ele>106.71</ele>
        <time>2017-07-02T09:17:12Z</time>
      </trkpt>
      <trkpt lat="48.42658" lon="2.4532">
        <ele>106.24</ele>
        <time>2017-07-02T09:17:22Z</time>
      </trkpt>
      <trkpt lat="48.42659" lon="2.45312">
        <ele>105.53</ele>
        <time>2017-07-02T09:17:30Z</time>
      </trkpt>
      <trkpt lat="48.42657" lon="2.45302">
        <ele>104.88</ele>
        <time>2017-07-02T09:17:36Z</time>
      </trkpt>
      <trkpt lat="48.42658" lon="2.45295">
        <ele>104.61</ele>
        <time>2017-07-02T09:17:40Z</time>
      </trkpt>
      <trkpt lat="48.4266" lon="2.45287">
        <ele>104.33</ele>
        <time>2017-07-02T09:17:46Z</time>
      </trkpt>
      <trkpt lat="48.42664" lon="2.4528">
        <ele>104.08</ele>
        <time>2017-07-02T09:17:50Z</time>
      </trkpt>
      <trkpt lat="48.4267" lon="2.45276">
        <ele>104.33</ele>
        <time>2017-07-02T09:17:54Z</time>
      </trkpt>
      <trkpt lat="48.42677" lon="2.45269">
        <ele>105.2</ele>
        <time>2017-07-02T09:17:58Z</time>
      </trkpt>
      <trkpt lat="48.42678" lon="2.45258">
        <ele>105.82</ele>
        <time>2017-07-02T09:18:02Z</time>
      </trkpt>
      <trkpt lat="48.42674" lon="2.4525">
        <ele>105.8</ele>
        <time>2017-07-02T09:18:06Z</time>
      </trkpt>
      <trkpt lat="48.4267" lon="2.45242">
        <ele>106.79</ele>
        <time>2017-07-02T09:18:10Z</time>
      </trkpt>
      <trkpt lat="48.42668" lon="2.45234">
        <ele>108.05</ele>
        <time>2017-07-02T09:18:14Z</time>
      </trkpt>
      <trkpt lat="48.42668" lon="2.45226">
        <ele>109.49</ele>
        <time>2017-07-02T09:18:18Z</time>
      </trkpt>
      <trkpt lat="48.42667" lon="2.45219">
        <ele>110.67</ele>
        <time>2017-07-02T09:18:22Z</time>
      </trkpt>
      <trkpt lat="48.4267" lon="2.45211">
        <ele>112.11</ele>
        <time>2017-07-02T09:18:26Z</time>
      </trkpt>
      <trkpt lat="48.42676" lon="2.45205">
        <ele>113.17</ele>
        <time>2017-07-02T09:18:30Z</time>
      </trkpt>
      <trkpt lat="48.42682" lon="2.45196">
        <ele>114.24</ele>
        <time>2017-07-02T09:18:34Z</time>
      </trkpt>
      <trkpt lat="48.42685" lon="2.45192">
        <ele>114.68</ele>
        <time>2017-07-02T09:18:40Z</time>
      </trkpt>
      <trkpt lat="48.42689" lon="2.45188">
        <ele>115.1</ele>
        <time>2017-07-02T09:18:48Z</time>
      </trkpt>
      <trkpt lat="48.42691" lon="2.4518">
        <ele>116.22</ele>
        <time>2017-07-02T09:19:16Z</time>
      </trkpt>
      <trkpt lat="48.42691" lon="2.45173">
        <ele>117.24</ele>
        <time>2017-07-02T09:19:22Z</time>
      </trkpt>
      <trkpt lat="48.42692" lon="2.45166">
        <ele>118.1</ele>
        <time>2017-07-02T09:19:26Z</time>
      </trkpt>
      <trkpt lat="48.42695" lon="2.45158">
        <ele>118.95</ele>
        <time>2017-07-02T09:19:30Z</time>
      </trkpt>
      <trkpt lat="48.42699" lon="2.45153">
        <ele>119.52</ele>
        <time>2017-07-02T09:19:34Z</time>
      </trkpt>
      <trkpt lat="48.42701" lon="2.45147">
        <ele>120.18</ele>
        <time>2017-07-02T09:19:38Z</time>
      </trkpt>
      <trkpt lat="48.42703" lon="2.45139">
        <ele>120.99</ele>
        <time>2017-07-02T09:19:42Z</time>
      </trkpt>
      <trkpt lat="48.42707" lon="2.45129">
        <ele>120.96</ele>
        <time>2017-07-02T09:19:46Z</time>
      </trkpt>
      <trkpt lat="48.42711" lon="2.45125">
        <ele>121.08</ele>
        <time>2017-07-02T09:19:48Z</time>
      </trkpt>
      <trkpt lat="48.42715" lon="2.45123">
        <ele>121.3</ele>
        <time>2017-07-02T09:19:50Z</time>
      </trkpt>
      <trkpt lat="48.42719" lon="2.45119">
        <ele>121.56</ele>
        <time>2017-07-02T09:19:52Z</time>
      </trkpt>
      <trkpt lat="48.42726" lon="2.45108">
        <ele>122.2</ele>
        <time>2017-07-02T09:19:56Z</time>
      </trkpt>
      <trkpt lat="48.4273" lon="2.45093">
        <ele>122.28</ele>
        <time>2017-07-02T09:20:00Z</time>
      </trkpt>
      <trkpt lat="48.42733" lon="2.45085">
        <ele>122.51</ele>
        <time>2017-07-02T09:20:02Z</time>
      </trkpt>
      <trkpt lat="48.42736" lon="2.45078">
        <ele>122.91</ele>
        <time>2017-07-02T09:20:04Z</time>
      </trkpt>
      <trkpt lat="48.42741" lon="2.45071">
        <ele>123.4</ele>
        <time>2017-07-02T09:20:06Z</time>
      </trkpt>
      <trkpt lat="48.42748" lon="2.45066">
        <ele>124.1</ele>
        <time>2017-07-02T09:20:08Z</time>
      </trkpt>
      <trkpt lat="48.42756" lon="2.45062">
        <ele>124.52</ele>
        <time>2017-07-02T09:20:10Z</time>
      </trkpt>
      <trkpt lat="48.42764" lon="2.45059">
        <ele>124.97</ele>
        <time>2017-07-02T09:20:12Z</time>
      </trkpt>
      <trkpt lat="48.42772" lon="2.45056">
        <ele>125.58</ele>
        <time>2017-07-02T09:20:14Z</time>
      </trkpt>
      <trkpt lat="48.4278" lon="2.45052">
        <ele>125.95</ele>
        <time>2017-07-02T09:20:16Z</time>
      </trkpt>
      <trkpt lat="48.42787" lon="2.45049">
        <ele>125.56</ele>
        <time>2017-07-02T09:20:18Z</time>
      </trkpt>
      <trkpt lat="48.42795" lon="2.45046">
        <ele>125.14</ele>
        <time>2017-07-02T09:20:20Z</time>
      </trkpt>
      <trkpt lat="48.42802" lon="2.45043">
        <ele>124.73</ele>
        <time>2017-07-02T09:20:22Z</time>
      </trkpt>
      <trkpt lat="48.42808" lon="2.4504">
        <ele>124.53</ele>
        <time>2017-07-02T09:20:24Z</time>
      </trkpt>
      <trkpt lat="48.42811" lon="2.45031">
        <ele>124.86</ele>
        <time>2017-07-02T09:20:28Z</time>
      </trkpt>
      <trkpt lat="48.42812" lon="2.45021">
        <ele>125.07</ele>
        <time>2017-07-02T09:20:32Z</time>
      </trkpt>
      <trkpt lat="48.42815" lon="2.45008">
        <ele>124.97</ele>
        <time>2017-07-02T09:20:36Z</time>
      </trkpt>
      <trkpt lat="48.42816" lon="2.45001">
        <ele>124.88</ele>
        <time>2017-07-02T09:20:38Z</time>
      </trkpt>
      <trkpt lat="48.42816" lon="2.44994">
        <ele>124.82</ele>
        <time>2017-07-02T09:20:40Z</time>
      </trkpt>
      <trkpt lat="48.42815" lon="2.44982">
        <ele>124.75</ele>
        <time>2017-07-02T09:20:44Z</time>
      </trkpt>
      <trkpt lat="48.42816" lon="2.4497">
        <ele>124.54</ele>
        <time>2017-07-02T09:20:48Z</time>
      </trkpt>
      <trkpt lat="48.4282" lon="2.44959">
        <ele>123.9</ele>
        <time>2017-07-02T09:20:52Z</time>
      </trkpt>
      <trkpt lat="48.42823" lon="2.44946">
        <ele>123.43</ele>
        <time>2017-07-02T09:20:56Z</time>
      </trkpt>
      <trkpt lat="48.42824" lon="2.44939">
        <ele>123.23</ele>
        <time>2017-07-02T09:20:58Z</time>
      </trkpt>
      <trkpt lat="48.42825" lon="2.44932">
        <ele>123.03</ele>
        <time>2017-07-02T09:21:00Z</time>
      </trkpt>
      <trkpt lat="48.42826" lon="2.44925">
        <ele>122.83</ele>
        <time>2017-07-02T09:21:02Z</time>
      </trkpt>
      <trkpt lat="48.42828" lon="2.44912">
        <ele>122.81</ele>
        <time>2017-07-02T09:21:06Z</time>
      </trkpt>
      <trkpt lat="48.42805" lon="2.4478">
        <ele>123.02</ele>
        <time>2017-07-02T09:21:38Z</time>
      </trkpt>
      <trkpt lat="48.42807" lon="2.44771">
        <ele>122.68</ele>
        <time>2017-07-02T09:21:41Z</time>
      </trkpt>
      <trkpt lat="48.42808" lon="2.44758">
        <ele>121.87</ele>
        <time>2017-07-02T09:21:45Z</time>
      </trkpt>
      <trkpt lat="48.4281" lon="2.44752">
        <ele>121.59</ele>
        <time>2017-07-02T09:21:47Z</time>
      </trkpt>
      <trkpt lat="48.42811" lon="2.44745">
        <ele>121.3</ele>
        <time>2017-07-02T09:21:49Z</time>
      </trkpt>
      <trkpt lat="48.42813" lon="2.44738">
        <ele>121.01</ele>
        <time>2017-07-02T09:21:51Z</time>
      </trkpt>
      <trkpt lat="48.42815" lon="2.44731">
        <ele>120.85</ele>
        <time>2017-07-02T09:21:53Z</time>
      </trkpt>
      <trkpt lat="48.42816" lon="2.44724">
        <ele>120.68</ele>
        <time>2017-07-02T09:21:55Z</time>
      </trkpt>
      <trkpt lat="48.42818" lon="2.44717">
        <ele>120.25</ele>
        <time>2017-07-02T09:21:57Z</time>
      </trkpt>
      <trkpt lat="48.42821" lon="2.44709">
        <ele>119.81</ele>
        <time>2017-07-02T09:21:59Z</time>
      </trkpt>
      <trkpt lat="48.42823" lon="2.44702">
        <ele>119.37</ele>
        <time>2017-07-02T09:22:01Z</time>
      </trkpt>
      <trkpt lat="48.42826" lon="2.44693">
        <ele>118.92</ele>
        <time>2017-07-02T09:22:03Z</time>
      </trkpt>
      <trkpt lat="48.42829" lon="2.44683">
        <ele>118.67</ele>
        <time>2017-07-02T09:22:05Z</time>
      </trkpt>
      <trkpt lat="48.4283" lon="2.44673">
        <ele>118.06</ele>
        <time>2017-07-02T09:22:07Z</time>
      </trkpt>
      <trkpt lat="48.42829" lon="2.44663">
        <ele>117.43</ele>
        <time>2017-07-02T09:22:09Z</time>
      </trkpt>
      <trkpt lat="48.42827" lon="2.44654">
        <ele>116.91</ele>
        <time>2017-07-02T09:22:11Z</time>
      </trkpt>
      <trkpt lat="48.42823" lon="2.44645">
        <ele>116.42</ele>
        <time>2017-07-02T09:22:13Z</time>
      </trkpt>
      <trkpt lat="48.4282" lon="2.44636">
        <ele>116.04</ele>
        <time>2017-07-02T09:22:15Z</time>
      </trkpt>
      <trkpt lat="48.42819" lon="2.44625">
        <ele>115.98</ele>
        <time>2017-07-02T09:22:17Z</time>
      </trkpt>
      <trkpt lat="48.4282" lon="2.44615">
        <ele>116.07</ele>
        <time>2017-07-02T09:22:19Z</time>
      </trkpt>
      <trkpt lat="48.4282" lon="2.44605">
        <ele>116.27</ele>
        <time>2017-07-02T09:22:21Z</time>
      </trkpt>
      <trkpt lat="48.42817" lon="2.44595">
        <ele>116.51</ele>
        <time>2017-07-02T09:22:23Z</time>
      </trkpt>
      <trkpt lat="48.42813" lon="2.44586">
        <ele>116.86</ele>
        <time>2017-07-02T09:22:25Z</time>
      </trkpt>
      <trkpt lat="48.4281" lon="2.44578">
        <ele>117.03</ele>
        <time>2017-07-02T09:22:27Z</time>
      </trkpt>
      <trkpt lat="48.42808" lon="2.44569">
        <ele>117.04</ele>
        <time>2017-07-02T09:22:29Z</time>
      </trkpt>
      <trkpt lat="48.42807" lon="2.4456">
        <ele>117.05</ele>
        <time>2017-07-02T09:22:31Z</time>
      </trkpt>
      <trkpt lat="48.42809" lon="2.4455">
        <ele>117.48</ele>
        <time>2017-07-02T09:22:33Z</time>
      </trkpt>
      <trkpt lat="48.4281" lon="2.44541">
        <ele>118.22</ele>
        <time>2017-07-02T09:22:35Z</time>
      </trkpt>
      <trkpt lat="48.42812" lon="2.44532">
        <ele>118.93</ele>
        <time>2017-07-02T09:22:37Z</time>
      </trkpt>
      <trkpt lat="48.42813" lon="2.44523">
        <ele>119.31</ele>
        <time>2017-07-02T09:22:39Z</time>
      </trkpt>
      <trkpt lat="48.42814" lon="2.44514">
        <ele>119.43</ele>
        <time>2017-07-02T09:22:41Z</time>
      </trkpt>
      <trkpt lat="48.42814" lon="2.44505">
        <ele>119.55</ele>
        <time>2017-07-02T09:22:43Z</time>
      </trkpt>
      <trkpt lat="48.42814" lon="2.44496">
        <ele>119.62</ele>
        <time>2017-07-02T09:22:45Z</time>
      </trkpt>
      <trkpt lat="48.42813" lon="2.44486">
        <ele>119.68</ele>
        <time>2017-07-02T09:22:47Z</time>
      </trkpt>
      <trkpt lat="48.42813" lon="2.44476">
        <ele>119.72</ele>
        <time>2017-07-02T09:22:49Z</time>
      </trkpt>
      <trkpt lat="48.42812" lon="2.44465">
        <ele>119.81</ele>
        <time>2017-07-02T09:22:51Z</time>
      </trkpt>
      <trkpt lat="48.42812" lon="2.44454">
        <ele>119.97</ele>
        <time>2017-07-02T09:22:53Z</time>
      </trkpt>
      <trkpt lat="48.42812" lon="2.44443">
        <ele>120.17</ele>
        <time>2017-07-02T09:22:55Z</time>
      </trkpt>
      <trkpt lat="48.42813" lon="2.44433">
        <ele>120.47</ele>
        <time>2017-07-02T09:22:57Z</time>
      </trkpt>
      <trkpt lat="48.42813" lon="2.44422">
        <ele>120.74</ele>
        <time>2017-07-02T09:22:59Z</time>
      </trkpt>
      <trkpt lat="48.42814" lon="2.44412">
        <ele>120.73</ele>
        <time>2017-07-02T09:23:01Z</time>
      </trkpt>
      <trkpt lat="48.42815" lon="2.44401">
        <ele>120.46</ele>
        <time>2017-07-02T09:23:03Z</time>
      </trkpt>
      <trkpt lat="48.42816" lon="2.4439">
        <ele>120.22</ele>
        <time>2017-07-02T09:23:05Z</time>
      </trkpt>
      <trkpt lat="48.42818" lon="2.44379">
        <ele>119.8</ele>
        <time>2017-07-02T09:23:07Z</time>
      </trkpt>
      <trkpt lat="48.42818" lon="2.44368">
        <ele>119.24</ele>
        <time>2017-07-02T09:23:09Z</time>
      </trkpt>
      <trkpt lat="48.42818" lon="2.44356">
        <ele>118.77</ele>
        <time>2017-07-02T09:23:11Z</time>
      </trkpt>
      <trkpt lat="48.42818" lon="2.44344">
        <ele>118.56</ele>
        <time>2017-07-02T09:23:13Z</time>
      </trkpt>
      <trkpt lat="48.42819" lon="2.44332">
        <ele>118.53</ele>
        <time>2017-07-02T09:23:15Z</time>
      </trkpt>
      <trkpt lat="48.4282" lon="2.4432">
        <ele>119.53</ele>
        <time>2017-07-02T09:23:17Z</time>
      </trkpt>
      <trkpt lat="48.42821" lon="2.4431">
        <ele>120.35</ele>
        <time>2017-07-02T09:23:19Z</time>
      </trkpt>
      <trkpt lat="48.42823" lon="2.44295">
        <ele>120.98</ele>
        <time>2017-07-02T09:23:21Z</time>
      </trkpt>
      <trkpt lat="48.42825" lon="2.44283">
        <ele>121.3</ele>
        <time>2017-07-02T09:23:23Z</time>
      </trkpt>
      <trkpt lat="48.42827" lon="2.44271">
        <ele>121.6</ele>
        <time>2017-07-02T09:23:25Z</time>
      </trkpt>
      <trkpt lat="48.4283" lon="2.4426">
        <ele>121.84</ele>
        <time>2017-07-02T09:23:27Z</time>
      </trkpt>
      <trkpt lat="48.42834" lon="2.4425">
        <ele>122.01</ele>
        <time>2017-07-02T09:23:29Z</time>
      </trkpt>
      <trkpt lat="48.42838" lon="2.44245">
        <ele>122.22</ele>
        <time>2017-07-02T09:23:31Z</time>
      </trkpt>
      <trkpt lat="48.42844" lon="2.44246">
        <ele>122.45</ele>
        <time>2017-07-02T09:23:33Z</time>
      </trkpt>
      <trkpt lat="48.4285" lon="2.44251">
        <ele>122.59</ele>
        <time>2017-07-02T09:23:35Z</time>
      </trkpt>
      <trkpt lat="48.42857" lon="2.44255">
        <ele>122.71</ele>
        <time>2017-07-02T09:23:37Z</time>
      </trkpt>
      <trkpt lat="48.42864" lon="2.44258">
        <ele>122.77</ele>
        <time>2017-07-02T09:23:39Z</time>
      </trkpt>
      <trkpt lat="48.42871" lon="2.4426">
        <ele>122.73</ele>
        <time>2017-07-02T09:23:41Z</time>
      </trkpt>
      <trkpt lat="48.42876" lon="2.44265">
        <ele>122.44</ele>
        <time>2017-07-02T09:23:43Z</time>
      </trkpt>
      <trkpt lat="48.4288" lon="2.44271">
        <ele>121.89</ele>
        <time>2017-07-02T09:23:45Z</time>
      </trkpt>
      <trkpt lat="48.42883" lon="2.44279">
        <ele>121.22</ele>
        <time>2017-07-02T09:23:47Z</time>
      </trkpt>
      <trkpt lat="48.42881" lon="2.44285">
        <ele>121.21</ele>
        <time>2017-07-02T09:23:57Z</time>
      </trkpt>
      <trkpt lat="48.42886" lon="2.44286">
        <ele>121.06</ele>
        <time>2017-07-02T09:24:07Z</time>
      </trkpt>
      <trkpt lat="48.4289" lon="2.44292">
        <ele>120.95</ele>
        <time>2017-07-02T09:24:15Z</time>
      </trkpt>
      <trkpt lat="48.42896" lon="2.44302">
        <ele>120.76</ele>
        <time>2017-07-02T09:24:19Z</time>
      </trkpt>
      <trkpt lat="48.42899" lon="2.4431">
        <ele>120.88</ele>
        <time>2017-07-02T09:24:21Z</time>
      </trkpt>
      <trkpt lat="48.42902" lon="2.4432">
        <ele>121.29</ele>
        <time>2017-07-02T09:24:23Z</time>
      </trkpt>
      <trkpt lat="48.42905" lon="2.4433">
        <ele>121.81</ele>
        <time>2017-07-02T09:24:25Z</time>
      </trkpt>
      <trkpt lat="48.42909" lon="2.44339">
        <ele>122</ele>
        <time>2017-07-02T09:24:27Z</time>
      </trkpt>
      <trkpt lat="48.42913" lon="2.44347">
        <ele>122</ele>
        <time>2017-07-02T09:24:29Z</time>
      </trkpt>
      <trkpt lat="48.42919" lon="2.44353">
        <ele>121.64</ele>
        <time>2017-07-02T09:24:31Z</time>
      </trkpt>
      <trkpt lat="48.42931" lon="2.44359">
        <ele>119.92</ele>
        <time>2017-07-02T09:24:33Z</time>
      </trkpt>
      <trkpt lat="48.42938" lon="2.44359">
        <ele>118.92</ele>
        <time>2017-07-02T09:24:35Z</time>
      </trkpt>
      <trkpt lat="48.42944" lon="2.44356">
        <ele>118.02</ele>
        <time>2017-07-02T09:24:37Z</time>
      </trkpt>
      <trkpt lat="48.4295" lon="2.44357">
        <ele>117.38</ele>
        <time>2017-07-02T09:24:39Z</time>
      </trkpt>
      <trkpt lat="48.42954" lon="2.44361">
        <ele>116.92</ele>
        <time>2017-07-02T09:24:41Z</time>
      </trkpt>
      <trkpt lat="48.42961" lon="2.44367">
        <ele>116.38</ele>
        <time>2017-07-02T09:24:43Z</time>
      </trkpt>
      <trkpt lat="48.42969" lon="2.4437">
        <ele>115.67</ele>
        <time>2017-07-02T09:24:45Z</time>
      </trkpt>
      <trkpt lat="48.42977" lon="2.4437">
        <ele>114.87</ele>
        <time>2017-07-02T09:24:47Z</time>
      </trkpt>
      <trkpt lat="48.42988" lon="2.44368">
        <ele>113.71</ele>
        <time>2017-07-02T09:24:49Z</time>
      </trkpt>
      <trkpt lat="48.42991" lon="2.4436">
        <ele>112.9</ele>
        <time>2017-07-02T09:24:51Z</time>
      </trkpt>
      <trkpt lat="48.4299" lon="2.44351">
        <ele>112.32</ele>
        <time>2017-07-02T09:24:55Z</time>
      </trkpt>
      <trkpt lat="48.42983" lon="2.44342">
        <ele>112.45</ele>
        <time>2017-07-02T09:24:57Z</time>
      </trkpt>
      <trkpt lat="48.42975" lon="2.44333">
        <ele>112.65</ele>
        <time>2017-07-02T09:24:59Z</time>
      </trkpt>
      <trkpt lat="48.42974" lon="2.44319">
        <ele>112.27</ele>
        <time>2017-07-02T09:25:01Z</time>
      </trkpt>
      <trkpt lat="48.42971" lon="2.44309">
        <ele>112.28</ele>
        <time>2017-07-02T09:25:03Z</time>
      </trkpt>
      <trkpt lat="48.4297" lon="2.44299">
        <ele>111.43</ele>
        <time>2017-07-02T09:25:05Z</time>
      </trkpt>
      <trkpt lat="48.42979" lon="2.44293">
        <ele>109.61</ele>
        <time>2017-07-02T09:25:07Z</time>
      </trkpt>
      <trkpt lat="48.42987" lon="2.44283">
        <ele>107.53</ele>
        <time>2017-07-02T09:25:09Z</time>
      </trkpt>
      <trkpt lat="48.42986" lon="2.44274">
        <ele>107.12</ele>
        <time>2017-07-02T09:25:11Z</time>
      </trkpt>
      <trkpt lat="48.42984" lon="2.44264">
        <ele>107.42</ele>
        <time>2017-07-02T09:25:13Z</time>
      </trkpt>
      <trkpt lat="48.42985" lon="2.44242">
        <ele>107.43</ele>
        <time>2017-07-02T09:25:15Z</time>
      </trkpt>
      <trkpt lat="48.4299" lon="2.44236">
        <ele>106.87</ele>
        <time>2017-07-02T09:25:17Z</time>
      </trkpt>
      <trkpt lat="48.42995" lon="2.44227">
        <ele>106.42</ele>
        <time>2017-07-02T09:25:19Z</time>
      </trkpt>
      <trkpt lat="48.43009" lon="2.44216">
        <ele>104.44</ele>
        <time>2017-07-02T09:25:21Z</time>
      </trkpt>
      <trkpt lat="48.43022" lon="2.4421">
        <ele>102.44</ele>
        <time>2017-07-02T09:25:23Z</time>
      </trkpt>
      <trkpt lat="48.43036" lon="2.442">
        <ele>100.11</ele>
        <time>2017-07-02T09:25:25Z</time>
      </trkpt>
      <trkpt lat="48.43051" lon="2.44196">
        <ele>97.04</ele>
        <time>2017-07-02T09:25:27Z</time>
      </trkpt>
      <trkpt lat="48.4307" lon="2.44187">
        <ele>92.14</ele>
        <time>2017-07-02T09:25:29Z</time>
      </trkpt>
      <trkpt lat="48.43086" lon="2.44184">
        <ele>89.04</ele>
        <time>2017-07-02T09:25:31Z</time>
      </trkpt>
      <trkpt lat="48.43103" lon="2.44177">
        <ele>87.31</ele>
        <time>2017-07-02T09:25:33Z</time>
      </trkpt>
      <trkpt lat="48.43119" lon="2.44161">
        <ele>85.11</ele>
        <time>2017-07-02T09:25:35Z</time>
      </trkpt>
      <trkpt lat="48.43132" lon="2.44147">
        <ele>83.78</ele>
        <time>2017-07-02T09:25:37Z</time>
      </trkpt>
      <trkpt lat="48.43146" lon="2.4414">
        <ele>82.49</ele>
        <time>2017-07-02T09:25:39Z</time>
      </trkpt>
      <trkpt lat="48.4316" lon="2.44136">
        <ele>81.57</ele>
        <time>2017-07-02T09:25:41Z</time>
      </trkpt>
      <trkpt lat="48.43173" lon="2.44133">
        <ele>80.87</ele>
        <time>2017-07-02T09:25:43Z</time>
      </trkpt>
      <trkpt lat="48.43184" lon="2.44128">
        <ele>80</ele>
        <time>2017-07-02T09:25:45Z</time>
      </trkpt>
      <trkpt lat="48.43197" lon="2.44123">
        <ele>78.81</ele>
        <time>2017-07-02T09:25:47Z</time>
      </trkpt>
      <trkpt lat="48.43209" lon="2.44119">
        <ele>78.25</ele>
        <time>2017-07-02T09:25:49Z</time>
      </trkpt>
      <trkpt lat="48.43221" lon="2.44114">
        <ele>78.01</ele>
        <time>2017-07-02T09:25:51Z</time>
      </trkpt>
      <trkpt lat="48.4323" lon="2.44108">
        <ele>77.39</ele>
        <time>2017-07-02T09:25:53Z</time>
      </trkpt>
      <trkpt lat="48.43239" lon="2.44111">
        <ele>76.79</ele>
        <time>2017-07-02T09:25:55Z</time>
      </trkpt>
      <trkpt lat="48.43247" lon="2.44116">
        <ele>76.41</ele>
        <time>2017-07-02T09:25:57Z</time>
      </trkpt>
      <trkpt lat="48.43248" lon="2.44129">
        <ele>76.73</ele>
        <time>2017-07-02T09:25:59Z</time>
      </trkpt>
      <trkpt lat="48.43251" lon="2.44144">
        <ele>77.16</ele>
        <time>2017-07-02T09:26:01Z</time>
      </trkpt>
      <trkpt lat="48.43255" lon="2.44154">
        <ele>77.7</ele>
        <time>2017-07-02T09:26:03Z</time>
      </trkpt>
      <trkpt lat="48.4326" lon="2.44167">
        <ele>78.44</ele>
        <time>2017-07-02T09:26:05Z</time>
      </trkpt>
      <trkpt lat="48.43261" lon="2.44177">
        <ele>78.84</ele>
        <time>2017-07-02T09:26:07Z</time>
      </trkpt>
      <trkpt lat="48.43273" lon="2.44199">
        <ele>80.22</ele>
        <time>2017-07-02T09:26:38Z</time>
      </trkpt>
      <trkpt lat="48.43267" lon="2.44199">
        <ele>79.7</ele>
        <time>2017-07-02T09:26:43Z</time>
      </trkpt>
      <trkpt lat="48.43271" lon="2.44207">
        <ele>79.7</ele>
        <time>2017-07-02T09:26:47Z</time>
      </trkpt>
      <trkpt lat="48.43277" lon="2.4422">
        <ele>79.16</ele>
        <time>2017-07-02T09:26:51Z</time>
      </trkpt>
      <trkpt lat="48.4328" lon="2.44227">
        <ele>78.65</ele>
        <time>2017-07-02T09:26:53Z</time>
      </trkpt>
      <trkpt lat="48.43283" lon="2.44236">
        <ele>77.96</ele>
        <time>2017-07-02T09:26:55Z</time>
      </trkpt>
      <trkpt lat="48.43286" lon="2.44247">
        <ele>76.96</ele>
        <time>2017-07-02T09:26:57Z</time>
      </trkpt>
      <trkpt lat="48.4329" lon="2.44259">
        <ele>75.36</ele>
        <time>2017-07-02T09:26:59Z</time>
      </trkpt>
      <trkpt lat="48.43294" lon="2.44273">
        <ele>73.23</ele>
        <time>2017-07-02T09:27:01Z</time>
      </trkpt>
      <trkpt lat="48.43298" lon="2.44287">
        <ele>72.49</ele>
        <time>2017-07-02T09:27:03Z</time>
      </trkpt>
      <trkpt lat="48.43301" lon="2.44299">
        <ele>72.44</ele>
        <time>2017-07-02T09:27:05Z</time>
      </trkpt>
      <trkpt lat="48.43303" lon="2.44309">
        <ele>72.81</ele>
        <time>2017-07-02T09:27:07Z</time>
      </trkpt>
      <trkpt lat="48.43303" lon="2.44318">
        <ele>74.19</ele>
        <time>2017-07-02T09:27:09Z</time>
      </trkpt>
      <trkpt lat="48.43305" lon="2.44326">
        <ele>74.98</ele>
        <time>2017-07-02T09:27:11Z</time>
      </trkpt>
      <trkpt lat="48.43311" lon="2.44324">
        <ele>74.08</ele>
        <time>2017-07-02T09:27:15Z</time>
      </trkpt>
      <trkpt lat="48.43318" lon="2.44321">
        <ele>73.05</ele>
        <time>2017-07-02T09:27:17Z</time>
      </trkpt>
      <trkpt lat="48.43325" lon="2.44321">
        <ele>72.38</ele>
        <time>2017-07-02T09:27:19Z</time>
      </trkpt>
      <trkpt lat="48.43334" lon="2.44323">
        <ele>71.62</ele>
        <time>2017-07-02T09:27:21Z</time>
      </trkpt>
      <trkpt lat="48.43343" lon="2.44329">
        <ele>71.47</ele>
        <time>2017-07-02T09:27:23Z</time>
      </trkpt>
      <trkpt lat="48.43353" lon="2.4433">
        <ele>71.19</ele>
        <time>2017-07-02T09:27:25Z</time>
      </trkpt>
      <trkpt lat="48.43362" lon="2.44333">
        <ele>70.88</ele>
        <time>2017-07-02T09:27:27Z</time>
      </trkpt>
      <trkpt lat="48.43373" lon="2.44339">
        <ele>69.67</ele>
        <time>2017-07-02T09:27:29Z</time>
      </trkpt>
      <trkpt lat="48.43382" lon="2.44342">
        <ele>68.51</ele>
        <time>2017-07-02T09:27:31Z</time>
      </trkpt>
      <trkpt lat="48.43391" lon="2.44347">
        <ele>67.43</ele>
        <time>2017-07-02T09:27:33Z</time>
      </trkpt>
      <trkpt lat="48.43402" lon="2.44349">
        <ele>67.03</ele>
        <time>2017-07-02T09:27:35Z</time>
      </trkpt>
      <trkpt lat="48.43413" lon="2.44352">
        <ele>66.77</ele>
        <time>2017-07-02T09:27:37Z</time>
      </trkpt>
      <trkpt lat="48.43423" lon="2.44356">
        <ele>66.31</ele>
        <time>2017-07-02T09:27:39Z</time>
      </trkpt>
      <trkpt lat="48.43435" lon="2.44362">
        <ele>65.67</ele>
        <time>2017-07-02T09:27:41Z</time>
      </trkpt>
      <trkpt lat="48.43445" lon="2.44365">
        <ele>64.82</ele>
        <time>2017-07-02T09:27:43Z</time>
      </trkpt>
      <trkpt lat="48.43456" lon="2.44368">
        <ele>62.53</ele>
        <time>2017-07-02T09:27:45Z</time>
      </trkpt>
      <trkpt lat="48.43468" lon="2.44369">
        <ele>60.22</ele>
        <time>2017-07-02T09:27:47Z</time>
      </trkpt>
      <trkpt lat="48.43478" lon="2.44372">
        <ele>62.15</ele>
        <time>2017-07-02T09:27:49Z</time>
      </trkpt>
      <trkpt lat="48.4349" lon="2.44375">
        <ele>67.01</ele>
        <time>2017-07-02T09:27:51Z</time>
      </trkpt>
      <trkpt lat="48.435" lon="2.44376">
        <ele>70.52</ele>
        <time>2017-07-02T09:27:53Z</time>
      </trkpt>
      <trkpt lat="48.43513" lon="2.4438">
        <ele>70.33</ele>
        <time>2017-07-02T09:27:55Z</time>
      </trkpt>
      <trkpt lat="48.43526" lon="2.44385">
        <ele>71.4</ele>
        <time>2017-07-02T09:27:57Z</time>
      </trkpt>
      <trkpt lat="48.43538" lon="2.44389">
        <ele>71.41</ele>
        <time>2017-07-02T09:27:59Z</time>
      </trkpt>
      <trkpt lat="48.4355" lon="2.44392">
        <ele>69.68</ele>
        <time>2017-07-02T09:28:01Z</time>
      </trkpt>
      <trkpt lat="48.43561" lon="2.44396">
        <ele>66.96</ele>
        <time>2017-07-02T09:28:03Z</time>
      </trkpt>
      <trkpt lat="48.43572" lon="2.44398">
        <ele>64.09</ele>
        <time>2017-07-02T09:28:05Z</time>
      </trkpt>
      <trkpt lat="48.43586" lon="2.44404">
        <ele>61.74</ele>
        <time>2017-07-02T09:28:07Z</time>
      </trkpt>
      <trkpt lat="48.43599" lon="2.44409">
        <ele>62.34</ele>
        <time>2017-07-02T09:28:09Z</time>
      </trkpt>
      <trkpt lat="48.43611" lon="2.44415">
        <ele>62.22</ele>
        <time>2017-07-02T09:28:11Z</time>
      </trkpt>
      <trkpt lat="48.43623" lon="2.44419">
        <ele>62.33</ele>
        <time>2017-07-02T09:28:13Z</time>
      </trkpt>
      <trkpt lat="48.43635" lon="2.44422">
        <ele>62.81</ele>
        <time>2017-07-02T09:28:15Z</time>
      </trkpt>
      <trkpt lat="48.43643" lon="2.44422">
        <ele>63.6</ele>
        <time>2017-07-02T09:28:17Z</time>
      </trkpt>
      <trkpt lat="48.43648" lon="2.44411">
        <ele>63.46</ele>
        <time>2017-07-02T09:28:21Z</time>
      </trkpt>
      <trkpt lat="48.43647" lon="2.444">
        <ele>61.21</ele>
        <time>2017-07-02T09:28:23Z</time>
      </trkpt>
      <trkpt lat="48.43647" lon="2.44388">
        <ele>59.54</ele>
        <time>2017-07-02T09:28:25Z</time>
      </trkpt>
      <trkpt lat="48.43649" lon="2.44378">
        <ele>61.78</ele>
        <time>2017-07-02T09:28:27Z</time>
      </trkpt>
      <trkpt lat="48.43648" lon="2.44367">
        <ele>63.96</ele>
        <time>2017-07-02T09:28:29Z</time>
      </trkpt>
      <trkpt lat="48.4365" lon="2.44354">
        <ele>65.26</ele>
        <time>2017-07-02T09:28:31Z</time>
      </trkpt>
      <trkpt lat="48.4365" lon="2.44341">
        <ele>65.73</ele>
        <time>2017-07-02T09:28:33Z</time>
      </trkpt>
      <trkpt lat="48.43649" lon="2.44329">
        <ele>65.96</ele>
        <time>2017-07-02T09:28:35Z</time>
      </trkpt>
      <trkpt lat="48.43651" lon="2.44315">
        <ele>65.9</ele>
        <time>2017-07-02T09:28:37Z</time>
      </trkpt>
      <trkpt lat="48.4365" lon="2.44303">
        <ele>65.72</ele>
        <time>2017-07-02T09:28:39Z</time>
      </trkpt>
      <trkpt lat="48.4365" lon="2.44292">
        <ele>65.4</ele>
        <time>2017-07-02T09:28:41Z</time>
      </trkpt>
      <trkpt lat="48.4365" lon="2.44282">
        <ele>65.12</ele>
        <time>2017-07-02T09:28:43Z</time>
      </trkpt>
      <trkpt lat="48.43651" lon="2.44272">
        <ele>64.33</ele>
        <time>2017-07-02T09:28:45Z</time>
      </trkpt>
      <trkpt lat="48.43652" lon="2.4426">
        <ele>62.6</ele>
        <time>2017-07-02T09:28:47Z</time>
      </trkpt>
      <trkpt lat="48.43652" lon="2.4425">
        <ele>61.17</ele>
        <time>2017-07-02T09:28:49Z</time>
      </trkpt>
      <trkpt lat="48.43652" lon="2.4424">
        <ele>61.36</ele>
        <time>2017-07-02T09:28:51Z</time>
      </trkpt>
      <trkpt lat="48.43652" lon="2.44229">
        <ele>61.5</ele>
        <time>2017-07-02T09:28:53Z</time>
      </trkpt>
      <trkpt lat="48.43653" lon="2.44217">
        <ele>62.41</ele>
        <time>2017-07-02T09:28:55Z</time>
      </trkpt>
      <trkpt lat="48.43653" lon="2.44207">
        <ele>64.51</ele>
        <time>2017-07-02T09:28:57Z</time>
      </trkpt>
      <trkpt lat="48.43653" lon="2.44195">
        <ele>66.81</ele>
        <time>2017-07-02T09:28:59Z</time>
      </trkpt>
      <trkpt lat="48.43654" lon="2.44184">
        <ele>68</ele>
        <time>2017-07-02T09:29:01Z</time>
      </trkpt>
      <trkpt lat="48.43655" lon="2.44172">
        <ele>69.11</ele>
        <time>2017-07-02T09:29:03Z</time>
      </trkpt>
      <trkpt lat="48.43655" lon="2.44161">
        <ele>70.09</ele>
        <time>2017-07-02T09:29:05Z</time>
      </trkpt>
      <trkpt lat="48.43655" lon="2.4415">
        <ele>71.15</ele>
        <time>2017-07-02T09:29:07Z</time>
      </trkpt>
      <trkpt lat="48.43655" lon="2.44139">
        <ele>72.17</ele>
        <time>2017-07-02T09:29:09Z</time>
      </trkpt>
      <trkpt lat="48.43655" lon="2.44128">
        <ele>71.88</ele>
        <time>2017-07-02T09:29:11Z</time>
      </trkpt>
      <trkpt lat="48.43654" lon="2.44118">
        <ele>71.49</ele>
        <time>2017-07-02T09:29:13Z</time>
      </trkpt>
      <trkpt lat="48.43654" lon="2.44108">
        <ele>71.17</ele>
        <time>2017-07-02T09:29:15Z</time>
      </trkpt>
      <trkpt lat="48.43654" lon="2.44095">
        <ele>70.79</ele>
        <time>2017-07-02T09:29:17Z</time>
      </trkpt>
      <trkpt lat="48.43654" lon="2.44085">
        <ele>70.36</ele>
        <time>2017-07-02T09:29:19Z</time>
      </trkpt>
      <trkpt lat="48.43654" lon="2.44073">
        <ele>69.83</ele>
        <time>2017-07-02T09:29:21Z</time>
      </trkpt>
      <trkpt lat="48.43653" lon="2.44063">
        <ele>69.36</ele>
        <time>2017-07-02T09:29:23Z</time>
      </trkpt>
      <trkpt lat="48.43653" lon="2.44052">
        <ele>68.81</ele>
        <time>2017-07-02T09:29:25Z</time>
      </trkpt>
      <trkpt lat="48.43654" lon="2.44042">
        <ele>68.19</ele>
        <time>2017-07-02T09:29:27Z</time>
      </trkpt>
      <trkpt lat="48.43655" lon="2.44031">
        <ele>67.52</ele>
        <time>2017-07-02T09:29:29Z</time>
      </trkpt>
      <trkpt lat="48.43655" lon="2.44023">
        <ele>66.81</ele>
        <time>2017-07-02T09:29:31Z</time>
      </trkpt>
      <trkpt lat="48.43658" lon="2.44012">
        <ele>66.42</ele>
        <time>2017-07-02T09:29:33Z</time>
      </trkpt>
      <trkpt lat="48.43661" lon="2.44003">
        <ele>66.7</ele>
        <time>2017-07-02T09:29:35Z</time>
      </trkpt>
      <trkpt lat="48.43664" lon="2.43993">
        <ele>68.14</ele>
        <time>2017-07-02T09:29:37Z</time>
      </trkpt>
      <trkpt lat="48.43669" lon="2.43986">
        <ele>69.51</ele>
        <time>2017-07-02T09:29:39Z</time>
      </trkpt>
      <trkpt lat="48.43673" lon="2.43975">
        <ele>69.9</ele>
        <time>2017-07-02T09:29:41Z</time>
      </trkpt>
      <trkpt lat="48.43675" lon="2.43969">
        <ele>69.86</ele>
        <time>2017-07-02T09:29:43Z</time>
      </trkpt>
      <trkpt lat="48.43677" lon="2.43959">
        <ele>69.15</ele>
        <time>2017-07-02T09:29:45Z</time>
      </trkpt>
      <trkpt lat="48.43681" lon="2.43952">
        <ele>69.23</ele>
        <time>2017-07-02T09:29:47Z</time>
      </trkpt>
      <trkpt lat="48.43685" lon="2.43944">
        <ele>69.31</ele>
        <time>2017-07-02T09:29:49Z</time>
      </trkpt>
      <trkpt lat="48.43687" lon="2.43937">
        <ele>69.68</ele>
        <time>2017-07-02T09:29:51Z</time>
      </trkpt>
      <trkpt lat="48.43692" lon="2.43932">
        <ele>70.27</ele>
        <time>2017-07-02T09:29:53Z</time>
      </trkpt>
      <trkpt lat="48.43697" lon="2.43927">
        <ele>70.88</ele>
        <time>2017-07-02T09:29:55Z</time>
      </trkpt>
      <trkpt lat="48.43702" lon="2.43919">
        <ele>71.41</ele>
        <time>2017-07-02T09:29:57Z</time>
      </trkpt>
      <trkpt lat="48.43709" lon="2.4391">
        <ele>72.78</ele>
        <time>2017-07-02T09:30:01Z</time>
      </trkpt>
      <trkpt lat="48.43713" lon="2.43898">
        <ele>73.53</ele>
        <time>2017-07-02T09:30:05Z</time>
      </trkpt>
      <trkpt lat="48.43715" lon="2.43891">
        <ele>74.01</ele>
        <time>2017-07-02T09:30:07Z</time>
      </trkpt>
      <trkpt lat="48.43717" lon="2.43884">
        <ele>74.18</ele>
        <time>2017-07-02T09:30:09Z</time>
      </trkpt>
      <trkpt lat="48.4372" lon="2.43878">
        <ele>74.44</ele>
        <time>2017-07-02T09:30:11Z</time>
      </trkpt>
      <trkpt lat="48.43725" lon="2.43872">
        <ele>74.58</ele>
        <time>2017-07-02T09:30:13Z</time>
      </trkpt>
      <trkpt lat="48.43731" lon="2.43864">
        <ele>74.71</ele>
        <time>2017-07-02T09:30:17Z</time>
      </trkpt>
      <trkpt lat="48.43736" lon="2.43857">
        <ele>75.09</ele>
        <time>2017-07-02T09:30:21Z</time>
      </trkpt>
      <trkpt lat="48.43737" lon="2.4385">
        <ele>75.24</ele>
        <time>2017-07-02T09:30:23Z</time>
      </trkpt>
      <trkpt lat="48.43741" lon="2.43841">
        <ele>75.33</ele>
        <time>2017-07-02T09:30:25Z</time>
      </trkpt>
      <trkpt lat="48.43743" lon="2.43834">
        <ele>75.24</ele>
        <time>2017-07-02T09:30:27Z</time>
      </trkpt>
      <trkpt lat="48.43748" lon="2.43821">
        <ele>75.47</ele>
        <time>2017-07-02T09:30:31Z</time>
      </trkpt>
      <trkpt lat="48.43748" lon="2.43815">
        <ele>75.7</ele>
        <time>2017-07-02T09:30:33Z</time>
      </trkpt>
      <trkpt lat="48.43749" lon="2.43807">
        <ele>75.94</ele>
        <time>2017-07-02T09:30:35Z</time>
      </trkpt>
      <trkpt lat="48.4375" lon="2.438">
        <ele>76</ele>
        <time>2017-07-02T09:30:37Z</time>
      </trkpt>
      <trkpt lat="48.43753" lon="2.4379">
        <ele>76.09</ele>
        <time>2017-07-02T09:30:39Z</time>
      </trkpt>
      <trkpt lat="48.43753" lon="2.43782">
        <ele>76.03</ele>
        <time>2017-07-02T09:30:41Z</time>
      </trkpt>
      <trkpt lat="48.43755" lon="2.43771">
        <ele>75.95</ele>
        <time>2017-07-02T09:30:43Z</time>
      </trkpt>
      <trkpt lat="48.43757" lon="2.43763">
        <ele>75.86</ele>
        <time>2017-07-02T09:30:45Z</time>
      </trkpt>
      <trkpt lat="48.43759" lon="2.43752">
        <ele>75.7</ele>
        <time>2017-07-02T09:30:47Z</time>
      </trkpt>
      <trkpt lat="48.43758" lon="2.43741">
        <ele>76.43</ele>
        <time>2017-07-02T09:30:49Z</time>
      </trkpt>
      <trkpt lat="48.43756" lon="2.43731">
        <ele>77.39</ele>
        <time>2017-07-02T09:30:51Z</time>
      </trkpt>
      <trkpt lat="48.43756" lon="2.43718">
        <ele>77.86</ele>
        <time>2017-07-02T09:30:53Z</time>
      </trkpt>
      <trkpt lat="48.43754" lon="2.43706">
        <ele>77.23</ele>
        <time>2017-07-02T09:30:55Z</time>
      </trkpt>
      <trkpt lat="48.43755" lon="2.43696">
        <ele>76.37</ele>
        <time>2017-07-02T09:30:57Z</time>
      </trkpt>
      <trkpt lat="48.43756" lon="2.43686">
        <ele>76.39</ele>
        <time>2017-07-02T09:30:59Z</time>
      </trkpt>
      <trkpt lat="48.43759" lon="2.43672">
        <ele>76.54</ele>
        <time>2017-07-02T09:31:03Z</time>
      </trkpt>
      <trkpt lat="48.4376" lon="2.43663">
        <ele>76.89</ele>
        <time>2017-07-02T09:31:05Z</time>
      </trkpt>
      <trkpt lat="48.43762" lon="2.43654">
        <ele>77.61</ele>
        <time>2017-07-02T09:31:07Z</time>
      </trkpt>
      <trkpt lat="48.43788" lon="2.43514">
        <ele>91.82</ele>
        <time>2017-07-02T09:31:38Z</time>
      </trkpt>
      <trkpt lat="48.43788" lon="2.435">
        <ele>92.47</ele>
        <time>2017-07-02T09:31:41Z</time>
      </trkpt>
      <trkpt lat="48.43787" lon="2.43487">
        <ele>91.93</ele>
        <time>2017-07-02T09:31:45Z</time>
      </trkpt>
      <trkpt lat="48.43786" lon="2.43476">
        <ele>91.56</ele>
        <time>2017-07-02T09:31:49Z</time>
      </trkpt>
      <trkpt lat="48.43786" lon="2.43469">
        <ele>91.31</ele>
        <time>2017-07-02T09:31:51Z</time>
      </trkpt>
      <trkpt lat="48.43787" lon="2.43455">
        <ele>90.88</ele>
        <time>2017-07-02T09:31:55Z</time>
      </trkpt>
      <trkpt lat="48.43788" lon="2.43446">
        <ele>90.7</ele>
        <time>2017-07-02T09:31:57Z</time>
      </trkpt>
      <trkpt lat="48.4379" lon="2.43437">
        <ele>91.23</ele>
        <time>2017-07-02T09:31:59Z</time>
      </trkpt>
      <trkpt lat="48.43791" lon="2.43428">
        <ele>91.87</ele>
        <time>2017-07-02T09:32:01Z</time>
      </trkpt>
      <trkpt lat="48.43791" lon="2.43419">
        <ele>92.33</ele>
        <time>2017-07-02T09:32:03Z</time>
      </trkpt>
      <trkpt lat="48.43792" lon="2.4341">
        <ele>92.61</ele>
        <time>2017-07-02T09:32:05Z</time>
      </trkpt>
      <trkpt lat="48.43791" lon="2.43401">
        <ele>92.69</ele>
        <time>2017-07-02T09:32:07Z</time>
      </trkpt>
      <trkpt lat="48.4379" lon="2.43393">
        <ele>92.55</ele>
        <time>2017-07-02T09:32:09Z</time>
      </trkpt>
      <trkpt lat="48.4379" lon="2.43385">
        <ele>92.82</ele>
        <time>2017-07-02T09:32:11Z</time>
      </trkpt>
      <trkpt lat="48.4379" lon="2.43377">
        <ele>93.65</ele>
        <time>2017-07-02T09:32:13Z</time>
      </trkpt>
      <trkpt lat="48.43791" lon="2.43369">
        <ele>94.53</ele>
        <time>2017-07-02T09:32:15Z</time>
      </trkpt>
      <trkpt lat="48.4379" lon="2.43361">
        <ele>95.11</ele>
        <time>2017-07-02T09:32:17Z</time>
      </trkpt>
      <trkpt lat="48.43788" lon="2.43354">
        <ele>95.62</ele>
        <time>2017-07-02T09:32:19Z</time>
      </trkpt>
      <trkpt lat="48.43789" lon="2.43347">
        <ele>96.66</ele>
        <time>2017-07-02T09:32:21Z</time>
      </trkpt>
      <trkpt lat="48.43789" lon="2.4334">
        <ele>97.69</ele>
        <time>2017-07-02T09:32:23Z</time>
      </trkpt>
      <trkpt lat="48.4379" lon="2.43333">
        <ele>98.72</ele>
        <time>2017-07-02T09:32:25Z</time>
      </trkpt>
      <trkpt lat="48.43789" lon="2.43326">
        <ele>99.6</ele>
        <time>2017-07-02T09:32:27Z</time>
      </trkpt>
      <trkpt lat="48.43787" lon="2.43315">
        <ele>100.75</ele>
        <time>2017-07-02T09:32:31Z</time>
      </trkpt>
      <trkpt lat="48.43789" lon="2.43305">
        <ele>102.25</ele>
        <time>2017-07-02T09:32:35Z</time>
      </trkpt>
      <trkpt lat="48.43791" lon="2.43294">
        <ele>103.89</ele>
        <time>2017-07-02T09:32:39Z</time>
      </trkpt>
      <trkpt lat="48.43793" lon="2.43285">
        <ele>105.27</ele>
        <time>2017-07-02T09:32:43Z</time>
      </trkpt>
      <trkpt lat="48.43795" lon="2.43271">
        <ele>106.36</ele>
        <time>2017-07-02T09:32:47Z</time>
      </trkpt>
      <trkpt lat="48.43794" lon="2.43264">
        <ele>106.49</ele>
        <time>2017-07-02T09:32:49Z</time>
      </trkpt>
      <trkpt lat="48.43793" lon="2.43257">
        <ele>106.69</ele>
        <time>2017-07-02T09:32:51Z</time>
      </trkpt>
      <trkpt lat="48.43792" lon="2.43245">
        <ele>107.16</ele>
        <time>2017-07-02T09:32:55Z</time>
      </trkpt>
      <trkpt lat="48.43793" lon="2.43232">
        <ele>107.52</ele>
        <time>2017-07-02T09:32:59Z</time>
      </trkpt>
      <trkpt lat="48.43793" lon="2.43225">
        <ele>107.73</ele>
        <time>2017-07-02T09:33:01Z</time>
      </trkpt>
      <trkpt lat="48.43794" lon="2.43218">
        <ele>108.11</ele>
        <time>2017-07-02T09:33:03Z</time>
      </trkpt>
      <trkpt lat="48.43795" lon="2.43206">
        <ele>108.91</ele>
        <time>2017-07-02T09:33:07Z</time>
      </trkpt>
      <trkpt lat="48.43795" lon="2.43194">
        <ele>109.93</ele>
        <time>2017-07-02T09:33:13Z</time>
      </trkpt>
      <trkpt lat="48.43795" lon="2.43187">
        <ele>110.61</ele>
        <time>2017-07-02T09:33:17Z</time>
      </trkpt>
      <trkpt lat="48.43795" lon="2.4318">
        <ele>111.16</ele>
        <time>2017-07-02T09:33:19Z</time>
      </trkpt>
      <trkpt lat="48.43796" lon="2.43172">
        <ele>111.64</ele>
        <time>2017-07-02T09:33:23Z</time>
      </trkpt>
      <trkpt lat="48.43797" lon="2.43162">
        <ele>112.34</ele>
        <time>2017-07-02T09:33:27Z</time>
      </trkpt>
      <trkpt lat="48.43796" lon="2.43154">
        <ele>113.46</ele>
        <time>2017-07-02T09:33:31Z</time>
      </trkpt>
      <trkpt lat="48.43791" lon="2.43148">
        <ele>115.08</ele>
        <time>2017-07-02T09:33:35Z</time>
      </trkpt>
      <trkpt lat="48.43792" lon="2.43137">
        <ele>116.07</ele>
        <time>2017-07-02T09:33:39Z</time>
      </trkpt>
      <trkpt lat="48.43794" lon="2.4313">
        <ele>116.4</ele>
        <time>2017-07-02T09:33:41Z</time>
      </trkpt>
      <trkpt lat="48.43794" lon="2.43119">
        <ele>117.6</ele>
        <time>2017-07-02T09:33:45Z</time>
      </trkpt>
      <trkpt lat="48.43793" lon="2.43111">
        <ele>118.49</ele>
        <time>2017-07-02T09:33:49Z</time>
      </trkpt>
      <trkpt lat="48.43793" lon="2.43102">
        <ele>118.75</ele>
        <time>2017-07-02T09:33:55Z</time>
      </trkpt>
      <trkpt lat="48.43793" lon="2.43092">
        <ele>118.86</ele>
        <time>2017-07-02T09:34:01Z</time>
      </trkpt>
      <trkpt lat="48.43793" lon="2.43084">
        <ele>119.15</ele>
        <time>2017-07-02T09:34:05Z</time>
      </trkpt>
      <trkpt lat="48.43796" lon="2.43072">
        <ele>119.21</ele>
        <time>2017-07-02T09:34:09Z</time>
      </trkpt>
      <trkpt lat="48.43799" lon="2.43062">
        <ele>119.37</ele>
        <time>2017-07-02T09:34:13Z</time>
      </trkpt>
      <trkpt lat="48.43801" lon="2.43048">
        <ele>120.41</ele>
        <time>2017-07-02T09:34:19Z</time>
      </trkpt>
      <trkpt lat="48.43803" lon="2.43041">
        <ele>120.88</ele>
        <time>2017-07-02T09:34:23Z</time>
      </trkpt>
      <trkpt lat="48.43804" lon="2.43033">
        <ele>121.61</ele>
        <time>2017-07-02T09:34:29Z</time>
      </trkpt>
      <trkpt lat="48.43803" lon="2.43026">
        <ele>122.51</ele>
        <time>2017-07-02T09:34:33Z</time>
      </trkpt>
      <trkpt lat="48.43803" lon="2.43019">
        <ele>123.19</ele>
        <time>2017-07-02T09:34:37Z</time>
      </trkpt>
      <trkpt lat="48.43802" lon="2.43008">
        <ele>124.31</ele>
        <time>2017-07-02T09:34:43Z</time>
      </trkpt>
      <trkpt lat="48.43805" lon="2.42997">
        <ele>125.51</ele>
        <time>2017-07-02T09:34:47Z</time>
      </trkpt>
      <trkpt lat="48.43808" lon="2.42991">
        <ele>126.49</ele>
        <time>2017-07-02T09:34:51Z</time>
      </trkpt>
      <trkpt lat="48.43807" lon="2.42984">
        <ele>127.39</ele>
        <time>2017-07-02T09:35:01Z</time>
      </trkpt>
      <trkpt lat="48.43807" lon="2.42976">
        <ele>128.46</ele>
        <time>2017-07-02T09:35:21Z</time>
      </trkpt>
      <trkpt lat="48.43809" lon="2.4297">
        <ele>129.46</ele>
        <time>2017-07-02T09:35:29Z</time>
      </trkpt>
      <trkpt lat="48.43812" lon="2.42964">
        <ele>130.45</ele>
        <time>2017-07-02T09:35:35Z</time>
      </trkpt>
      <trkpt lat="48.4381" lon="2.42957">
        <ele>131.32</ele>
        <time>2017-07-02T09:35:45Z</time>
      </trkpt>
      <trkpt lat="48.43807" lon="2.42952">
        <ele>132.05</ele>
        <time>2017-07-02T09:35:51Z</time>
      </trkpt>
      <trkpt lat="48.43808" lon="2.42943">
        <ele>133.33</ele>
        <time>2017-07-02T09:36:01Z</time>
      </trkpt>
      <trkpt lat="48.43813" lon="2.42936">
        <ele>134.56</ele>
        <time>2017-07-02T09:36:05Z</time>
      </trkpt>
      <trkpt lat="48.43815" lon="2.42929">
        <ele>135.68</ele>
        <time>2017-07-02T09:36:17Z</time>
      </trkpt>
      <trkpt lat="48.43817" lon="2.42921">
        <ele>136.89</ele>
        <time>2017-07-02T09:36:25Z</time>
      </trkpt>
      <trkpt lat="48.43816" lon="2.42915">
        <ele>137.8</ele>
        <time>2017-07-02T09:36:41Z</time>
      </trkpt>
      <trkpt lat="48.43815" lon="2.42908">
        <ele>138.4</ele>
        <time>2017-07-02T09:36:55Z</time>
      </trkpt>
      <trkpt lat="48.4382" lon="2.42908">
        <ele>138.07</ele>
        <time>2017-07-02T09:37:05Z</time>
      </trkpt>
      <trkpt lat="48.43825" lon="2.4291">
        <ele>137.67</ele>
        <time>2017-07-02T09:37:11Z</time>
      </trkpt>
      <trkpt lat="48.43831" lon="2.42913">
        <ele>137.23</ele>
        <time>2017-07-02T09:37:15Z</time>
      </trkpt>
      <trkpt lat="48.43838" lon="2.42917">
        <ele>136.47</ele>
        <time>2017-07-02T09:37:19Z</time>
      </trkpt>
      <trkpt lat="48.43843" lon="2.42921">
        <ele>135.71</ele>
        <time>2017-07-02T09:37:21Z</time>
      </trkpt>
      <trkpt lat="48.43847" lon="2.42924">
        <ele>135.11</ele>
        <time>2017-07-02T09:37:27Z</time>
      </trkpt>
      <trkpt lat="48.4385" lon="2.4293">
        <ele>134.65</ele>
        <time>2017-07-02T09:37:33Z</time>
      </trkpt>
      <trkpt lat="48.43849" lon="2.42939">
        <ele>134.23</ele>
        <time>2017-07-02T09:37:37Z</time>
      </trkpt>
      <trkpt lat="48.43848" lon="2.42951">
        <ele>133.47</ele>
        <time>2017-07-02T09:37:41Z</time>
      </trkpt>
      <trkpt lat="48.43847" lon="2.42962">
        <ele>132.39</ele>
        <time>2017-07-02T09:37:45Z</time>
      </trkpt>
      <trkpt lat="48.43847" lon="2.42976">
        <ele>131.17</ele>
        <time>2017-07-02T09:37:49Z</time>
      </trkpt>
      <trkpt lat="48.43846" lon="2.42989">
        <ele>130.17</ele>
        <time>2017-07-02T09:37:53Z</time>
      </trkpt>
      <trkpt lat="48.43847" lon="2.43">
        <ele>129.42</ele>
        <time>2017-07-02T09:37:57Z</time>
      </trkpt>
      <trkpt lat="48.43851" lon="2.4301">
        <ele>129.8</ele>
        <time>2017-07-02T09:38:01Z</time>
      </trkpt>
      <trkpt lat="48.43855" lon="2.43019">
        <ele>130.29</ele>
        <time>2017-07-02T09:38:05Z</time>
      </trkpt>
      <trkpt lat="48.43861" lon="2.43027">
        <ele>130.97</ele>
        <time>2017-07-02T09:38:09Z</time>
      </trkpt>
      <trkpt lat="48.43864" lon="2.43033">
        <ele>129.84</ele>
        <time>2017-07-02T09:38:13Z</time>
      </trkpt>
      <trkpt lat="48.43867" lon="2.43039">
        <ele>128.46</ele>
        <time>2017-07-02T09:38:21Z</time>
      </trkpt>
      <trkpt lat="48.4387" lon="2.43047">
        <ele>126.84</ele>
        <time>2017-07-02T09:38:29Z</time>
      </trkpt>
      <trkpt lat="48.43873" lon="2.43052">
        <ele>125.67</ele>
        <time>2017-07-02T09:38:33Z</time>
      </trkpt>
      <trkpt lat="48.43876" lon="2.43064">
        <ele>123.71</ele>
        <time>2017-07-02T09:38:37Z</time>
      </trkpt>
      <trkpt lat="48.43877" lon="2.43071">
        <ele>122.71</ele>
        <time>2017-07-02T09:38:39Z</time>
      </trkpt>
      <trkpt lat="48.4388" lon="2.43081">
        <ele>120.92</ele>
        <time>2017-07-02T09:38:43Z</time>
      </trkpt>
      <trkpt lat="48.43882" lon="2.4309">
        <ele>119.75</ele>
        <time>2017-07-02T09:38:47Z</time>
      </trkpt>
      <trkpt lat="48.43883" lon="2.431">
        <ele>118.67</ele>
        <time>2017-07-02T09:38:51Z</time>
      </trkpt>
      <trkpt lat="48.43885" lon="2.43111">
        <ele>117.28</ele>
        <time>2017-07-02T09:38:55Z</time>
      </trkpt>
      <trkpt lat="48.43891" lon="2.43115">
        <ele>117.34</ele>
        <time>2017-07-02T09:38:59Z</time>
      </trkpt>
      <trkpt lat="48.43896" lon="2.43123">
        <ele>118.1</ele>
        <time>2017-07-02T09:39:03Z</time>
      </trkpt>
      <trkpt lat="48.43899" lon="2.43132">
        <ele>118.76</ele>
        <time>2017-07-02T09:39:07Z</time>
      </trkpt>
      <trkpt lat="48.43904" lon="2.43136">
        <ele>119.57</ele>
        <time>2017-07-02T09:39:11Z</time>
      </trkpt>
      <trkpt lat="48.43908" lon="2.43142">
        <ele>120.6</ele>
        <time>2017-07-02T09:39:17Z</time>
      </trkpt>
      <trkpt lat="48.43909" lon="2.43149">
        <ele>121.36</ele>
        <time>2017-07-02T09:39:21Z</time>
      </trkpt>
      <trkpt lat="48.4391" lon="2.43156">
        <ele>122.07</ele>
        <time>2017-07-02T09:39:25Z</time>
      </trkpt>
      <trkpt lat="48.43912" lon="2.43163">
        <ele>122.94</ele>
        <time>2017-07-02T09:39:41Z</time>
      </trkpt>
      <trkpt lat="48.43913" lon="2.43171">
        <ele>123.38</ele>
        <time>2017-07-02T09:39:47Z</time>
      </trkpt>
      <trkpt lat="48.43916" lon="2.43179">
        <ele>123.83</ele>
        <time>2017-07-02T09:39:53Z</time>
      </trkpt>
      <trkpt lat="48.43919" lon="2.43183">
        <ele>123.89</ele>
        <time>2017-07-02T09:39:57Z</time>
      </trkpt>
      <trkpt lat="48.43921" lon="2.4319">
        <ele>123.77</ele>
        <time>2017-07-02T09:40:05Z</time>
      </trkpt>
      <trkpt lat="48.43921" lon="2.43199">
        <ele>123.66</ele>
        <time>2017-07-02T09:40:11Z</time>
      </trkpt>
      <trkpt lat="48.43925" lon="2.43208">
        <ele>123.28</ele>
        <time>2017-07-02T09:40:15Z</time>
      </trkpt>
      <trkpt lat="48.43931" lon="2.43217">
        <ele>122.52</ele>
        <time>2017-07-02T09:40:19Z</time>
      </trkpt>
      <trkpt lat="48.43935" lon="2.4322">
        <ele>122.03</ele>
        <time>2017-07-02T09:40:21Z</time>
      </trkpt>
      <trkpt lat="48.43939" lon="2.43223">
        <ele>121.54</ele>
        <time>2017-07-02T09:40:23Z</time>
      </trkpt>
      <trkpt lat="48.43944" lon="2.43224">
        <ele>121.05</ele>
        <time>2017-07-02T09:40:25Z</time>
      </trkpt>
      <trkpt lat="48.43951" lon="2.43225">
        <ele>121.18</ele>
        <time>2017-07-02T09:40:29Z</time>
      </trkpt>
      <trkpt lat="48.43949" lon="2.43233">
        <ele>121.04</ele>
        <time>2017-07-02T09:40:33Z</time>
      </trkpt>
      <trkpt lat="48.43953" lon="2.4323">
        <ele>121.13</ele>
        <time>2017-07-02T09:40:45Z</time>
      </trkpt>
      <trkpt lat="48.43958" lon="2.43227">
        <ele>121.3</ele>
        <time>2017-07-02T09:40:55Z</time>
      </trkpt>
      <trkpt lat="48.43959" lon="2.43235">
        <ele>121.04</ele>
        <time>2017-07-02T09:41:01Z</time>
      </trkpt>
      <trkpt lat="48.43967" lon="2.43241">
        <ele>120.7</ele>
        <time>2017-07-02T09:41:05Z</time>
      </trkpt>
      <trkpt lat="48.43974" lon="2.43244">
        <ele>120.24</ele>
        <time>2017-07-02T09:41:09Z</time>
      </trkpt>
      <trkpt lat="48.43981" lon="2.43243">
        <ele>119.61</ele>
        <time>2017-07-02T09:41:13Z</time>
      </trkpt>
      <trkpt lat="48.43987" lon="2.43239">
        <ele>119.36</ele>
        <time>2017-07-02T09:41:17Z</time>
      </trkpt>
      <trkpt lat="48.43991" lon="2.43233">
        <ele>119.56</ele>
        <time>2017-07-02T09:41:23Z</time>
      </trkpt>
      <trkpt lat="48.43998" lon="2.43227">
        <ele>119.65</ele>
        <time>2017-07-02T09:41:27Z</time>
      </trkpt>
      <trkpt lat="48.44006" lon="2.4322">
        <ele>119.56</ele>
        <time>2017-07-02T09:41:31Z</time>
      </trkpt>
      <trkpt lat="48.44012" lon="2.4322">
        <ele>118.95</ele>
        <time>2017-07-02T09:41:35Z</time>
      </trkpt>
      <trkpt lat="48.44016" lon="2.43216">
        <ele>118.91</ele>
        <time>2017-07-02T09:41:39Z</time>
      </trkpt>
      <trkpt lat="48.44021" lon="2.4321">
        <ele>119.37</ele>
        <time>2017-07-02T09:41:45Z</time>
      </trkpt>
      <trkpt lat="48.44024" lon="2.43203">
        <ele>119.99</ele>
        <time>2017-07-02T09:41:51Z</time>
      </trkpt>
      <trkpt lat="48.44027" lon="2.43197">
        <ele>120.67</ele>
        <time>2017-07-02T09:41:55Z</time>
      </trkpt>
      <trkpt lat="48.44032" lon="2.43192">
        <ele>120.43</ele>
        <time>2017-07-02T09:41:59Z</time>
      </trkpt>
      <trkpt lat="48.44035" lon="2.43187">
        <ele>120.25</ele>
        <time>2017-07-02T09:42:05Z</time>
      </trkpt>
      <trkpt lat="48.44039" lon="2.43181">
        <ele>120.15</ele>
        <time>2017-07-02T09:42:11Z</time>
      </trkpt>
      <trkpt lat="48.44044" lon="2.43176">
        <ele>119.87</ele>
        <time>2017-07-02T09:42:15Z</time>
      </trkpt>
      <trkpt lat="48.44045" lon="2.43167">
        <ele>120.79</ele>
        <time>2017-07-02T09:42:29Z</time>
      </trkpt>
      <trkpt lat="48.44045" lon="2.43159">
        <ele>122.19</ele>
        <time>2017-07-02T09:42:35Z</time>
      </trkpt>
      <trkpt lat="48.44048" lon="2.43151">
        <ele>123.09</ele>
        <time>2017-07-02T09:42:43Z</time>
      </trkpt>
      <trkpt lat="48.44046" lon="2.43144">
        <ele>124.57</ele>
        <time>2017-07-02T09:42:59Z</time>
      </trkpt>
      <trkpt lat="48.44047" lon="2.43134">
        <ele>125.76</ele>
        <time>2017-07-02T09:43:05Z</time>
      </trkpt>
      <trkpt lat="48.44049" lon="2.43127">
        <ele>126.21</ele>
        <time>2017-07-02T09:43:09Z</time>
      </trkpt>
      <trkpt lat="48.44051" lon="2.43119">
        <ele>126.84</ele>
        <time>2017-07-02T09:43:15Z</time>
      </trkpt>
      <trkpt lat="48.44054" lon="2.43113">
        <ele>127.04</ele>
        <time>2017-07-02T09:43:23Z</time>
      </trkpt>
      <trkpt lat="48.44058" lon="2.43106">
        <ele>126.37</ele>
        <time>2017-07-02T09:43:29Z</time>
      </trkpt>
      <trkpt lat="48.44059" lon="2.43099">
        <ele>126.4</ele>
        <time>2017-07-02T09:43:37Z</time>
      </trkpt>
      <trkpt lat="48.44059" lon="2.43092">
        <ele>126.71</ele>
        <time>2017-07-02T09:43:43Z</time>
      </trkpt>
      <trkpt lat="48.44058" lon="2.43085">
        <ele>127.1</ele>
        <time>2017-07-02T09:43:49Z</time>
      </trkpt>
      <trkpt lat="48.44057" lon="2.43079">
        <ele>128.02</ele>
        <time>2017-07-02T09:43:57Z</time>
      </trkpt>
      <trkpt lat="48.44053" lon="2.43074">
        <ele>129.18</ele>
        <time>2017-07-02T09:44:05Z</time>
      </trkpt>
      <trkpt lat="48.44048" lon="2.43068">
        <ele>130.36</ele>
        <time>2017-07-02T09:44:13Z</time>
      </trkpt>
      <trkpt lat="48.44044" lon="2.43064">
        <ele>131.33</ele>
        <time>2017-07-02T09:44:19Z</time>
      </trkpt>
      <trkpt lat="48.44039" lon="2.43061">
        <ele>132.25</ele>
        <time>2017-07-02T09:44:25Z</time>
      </trkpt>
      <trkpt lat="48.44036" lon="2.43054">
        <ele>132.87</ele>
        <time>2017-07-02T09:44:31Z</time>
      </trkpt>
      <trkpt lat="48.44036" lon="2.43046">
        <ele>132.7</ele>
        <time>2017-07-02T09:44:37Z</time>
      </trkpt>
      <trkpt lat="48.44033" lon="2.43039">
        <ele>133.13</ele>
        <time>2017-07-02T09:44:43Z</time>
      </trkpt>
      <trkpt lat="48.44031" lon="2.43032">
        <ele>133.38</ele>
        <time>2017-07-02T09:44:47Z</time>
      </trkpt>
      <trkpt lat="48.44034" lon="2.43022">
        <ele>132.55</ele>
        <time>2017-07-02T09:44:51Z</time>
      </trkpt>
      <trkpt lat="48.44039" lon="2.43012">
        <ele>131.3</ele>
        <time>2017-07-02T09:44:55Z</time>
      </trkpt>
      <trkpt lat="48.44038" lon="2.43002">
        <ele>130.78</ele>
        <time>2017-07-02T09:44:59Z</time>
      </trkpt>
      <trkpt lat="48.44037" lon="2.42994">
        <ele>130.93</ele>
        <time>2017-07-02T09:45:03Z</time>
      </trkpt>
      <trkpt lat="48.44035" lon="2.42988">
        <ele>131.49</ele>
        <time>2017-07-02T09:45:19Z</time>
      </trkpt>
      <trkpt lat="48.44033" lon="2.42981">
        <ele>131.78</ele>
        <time>2017-07-02T09:45:27Z</time>
      </trkpt>
      <trkpt lat="48.44033" lon="2.42968">
        <ele>131.89</ele>
        <time>2017-07-02T09:45:31Z</time>
      </trkpt>
      <trkpt lat="48.44036" lon="2.42958">
        <ele>131.4</ele>
        <time>2017-07-02T09:45:35Z</time>
      </trkpt>
      <trkpt lat="48.44039" lon="2.42953">
        <ele>130.78</ele>
        <time>2017-07-02T09:45:37Z</time>
      </trkpt>
      <trkpt lat="48.44047" lon="2.42949">
        <ele>129.4</ele>
        <time>2017-07-02T09:45:41Z</time>
      </trkpt>
      <trkpt lat="48.44054" lon="2.42949">
        <ele>128.21</ele>
        <time>2017-07-02T09:45:45Z</time>
      </trkpt>
      <trkpt lat="48.44059" lon="2.42944">
        <ele>127.17</ele>
        <time>2017-07-02T09:46:03Z</time>
      </trkpt>
      <trkpt lat="48.44063" lon="2.42941">
        <ele>126.04</ele>
        <time>2017-07-02T09:46:19Z</time>
      </trkpt>
      <trkpt lat="48.44067" lon="2.42946">
        <ele>125.01</ele>
        <time>2017-07-02T09:46:43Z</time>
      </trkpt>
      <trkpt lat="48.44073" lon="2.42945">
        <ele>123.61</ele>
        <time>2017-07-02T09:46:57Z</time>
      </trkpt>
      <trkpt lat="48.44078" lon="2.42946">
        <ele>122.21</ele>
        <time>2017-07-02T09:47:03Z</time>
      </trkpt>
      <trkpt lat="48.44084" lon="2.42946">
        <ele>120.75</ele>
        <time>2017-07-02T09:47:11Z</time>
      </trkpt>
      <trkpt lat="48.44089" lon="2.42944">
        <ele>119.58</ele>
        <time>2017-07-02T09:47:21Z</time>
      </trkpt>
      <trkpt lat="48.44094" lon="2.42942">
        <ele>118.35</ele>
        <time>2017-07-02T09:47:31Z</time>
      </trkpt>
      <trkpt lat="48.44098" lon="2.4294">
        <ele>117.14</ele>
        <time>2017-07-02T09:47:37Z</time>
      </trkpt>
      <trkpt lat="48.44104" lon="2.42938">
        <ele>115.6</ele>
        <time>2017-07-02T09:47:43Z</time>
      </trkpt>
      <trkpt lat="48.44109" lon="2.42938">
        <ele>114.08</ele>
        <time>2017-07-02T09:47:49Z</time>
      </trkpt>
      <trkpt lat="48.44115" lon="2.4294">
        <ele>113.04</ele>
        <time>2017-07-02T09:47:53Z</time>
      </trkpt>
      <trkpt lat="48.44124" lon="2.42939">
        <ele>111.67</ele>
        <time>2017-07-02T09:47:57Z</time>
      </trkpt>
      <trkpt lat="48.44128" lon="2.42936">
        <ele>111.03</ele>
        <time>2017-07-02T09:47:59Z</time>
      </trkpt>
      <trkpt lat="48.44135" lon="2.42933">
        <ele>110.26</ele>
        <time>2017-07-02T09:48:03Z</time>
      </trkpt>
      <trkpt lat="48.44142" lon="2.42932">
        <ele>109.45</ele>
        <time>2017-07-02T09:48:07Z</time>
      </trkpt>
      <trkpt lat="48.44148" lon="2.4293">
        <ele>108.88</ele>
        <time>2017-07-02T09:48:11Z</time>
      </trkpt>
      <trkpt lat="48.44154" lon="2.42927">
        <ele>108.33</ele>
        <time>2017-07-02T09:48:15Z</time>
      </trkpt>
      <trkpt lat="48.44163" lon="2.42919">
        <ele>108.14</ele>
        <time>2017-07-02T09:48:19Z</time>
      </trkpt>
      <trkpt lat="48.44169" lon="2.42916">
        <ele>107.6</ele>
        <time>2017-07-02T09:48:21Z</time>
      </trkpt>
      <trkpt lat="48.44174" lon="2.42914">
        <ele>106.43</ele>
        <time>2017-07-02T09:48:23Z</time>
      </trkpt>
      <trkpt lat="48.44179" lon="2.42913">
        <ele>105.41</ele>
        <time>2017-07-02T09:48:25Z</time>
      </trkpt>
      <trkpt lat="48.44184" lon="2.42912">
        <ele>104.4</ele>
        <time>2017-07-02T09:48:27Z</time>
      </trkpt>
      <trkpt lat="48.4419" lon="2.4291">
        <ele>103.33</ele>
        <time>2017-07-02T09:48:29Z</time>
      </trkpt>
      <trkpt lat="48.44194" lon="2.42907">
        <ele>102.44</ele>
        <time>2017-07-02T09:48:31Z</time>
      </trkpt>
      <trkpt lat="48.44198" lon="2.42903">
        <ele>102.26</ele>
        <time>2017-07-02T09:48:33Z</time>
      </trkpt>
      <trkpt lat="48.44201" lon="2.42896">
        <ele>102.46</ele>
        <time>2017-07-02T09:48:37Z</time>
      </trkpt>
      <trkpt lat="48.44201" lon="2.42887">
        <ele>102.93</ele>
        <time>2017-07-02T09:48:47Z</time>
      </trkpt>
      <trkpt lat="48.44202" lon="2.4288">
        <ele>103.44</ele>
        <time>2017-07-02T09:48:51Z</time>
      </trkpt>
      <trkpt lat="48.44202" lon="2.42872">
        <ele>104.14</ele>
        <time>2017-07-02T09:48:55Z</time>
      </trkpt>
      <trkpt lat="48.44201" lon="2.42861">
        <ele>104.97</ele>
        <time>2017-07-02T09:48:59Z</time>
      </trkpt>
      <trkpt lat="48.44203" lon="2.42855">
        <ele>105.16</ele>
        <time>2017-07-02T09:49:01Z</time>
      </trkpt>
      <trkpt lat="48.44202" lon="2.42847">
        <ele>105.38</ele>
        <time>2017-07-02T09:49:07Z</time>
      </trkpt>
      <trkpt lat="48.44199" lon="2.42837">
        <ele>105.73</ele>
        <time>2017-07-02T09:49:11Z</time>
      </trkpt>
      <trkpt lat="48.44196" lon="2.4283">
        <ele>106.26</ele>
        <time>2017-07-02T09:49:15Z</time>
      </trkpt>
      <trkpt lat="48.44193" lon="2.42824">
        <ele>107.18</ele>
        <time>2017-07-02T09:49:19Z</time>
      </trkpt>
      <trkpt lat="48.44192" lon="2.42816">
        <ele>108.18</ele>
        <time>2017-07-02T09:49:23Z</time>
      </trkpt>
      <trkpt lat="48.44193" lon="2.42809">
        <ele>108.74</ele>
        <time>2017-07-02T09:49:25Z</time>
      </trkpt>
      <trkpt lat="48.44194" lon="2.42801">
        <ele>109.36</ele>
        <time>2017-07-02T09:49:29Z</time>
      </trkpt>
      <trkpt lat="48.44191" lon="2.42793">
        <ele>110.15</ele>
        <time>2017-07-02T09:49:33Z</time>
      </trkpt>
      <trkpt lat="48.44189" lon="2.42786">
        <ele>110.78</ele>
        <time>2017-07-02T09:49:37Z</time>
      </trkpt>
      <trkpt lat="48.44184" lon="2.4278">
        <ele>111.56</ele>
        <time>2017-07-02T09:49:41Z</time>
      </trkpt>
      <trkpt lat="48.44182" lon="2.42772">
        <ele>112.33</ele>
        <time>2017-07-02T09:49:45Z</time>
      </trkpt>
      <trkpt lat="48.4418" lon="2.42764">
        <ele>113.1</ele>
        <time>2017-07-02T09:49:49Z</time>
      </trkpt>
      <trkpt lat="48.44178" lon="2.42755">
        <ele>114.03</ele>
        <time>2017-07-02T09:49:55Z</time>
      </trkpt>
      <trkpt lat="48.44179" lon="2.42746">
        <ele>114.61</ele>
        <time>2017-07-02T09:50:01Z</time>
      </trkpt>
      <trkpt lat="48.44178" lon="2.42738">
        <ele>115.45</ele>
        <time>2017-07-02T09:50:07Z</time>
      </trkpt>
      <trkpt lat="48.44179" lon="2.42729">
        <ele>116.06</ele>
        <time>2017-07-02T09:50:13Z</time>
      </trkpt>
      <trkpt lat="48.4418" lon="2.42722">
        <ele>116.66</ele>
        <time>2017-07-02T09:50:19Z</time>
      </trkpt>
      <trkpt lat="48.44178" lon="2.42714">
        <ele>117.49</ele>
        <time>2017-07-02T09:50:29Z</time>
      </trkpt>
      <trkpt lat="48.44177" lon="2.42706">
        <ele>118.29</ele>
        <time>2017-07-02T09:50:33Z</time>
      </trkpt>
      <trkpt lat="48.44173" lon="2.42699">
        <ele>119.46</ele>
        <time>2017-07-02T09:50:37Z</time>
      </trkpt>
      <trkpt lat="48.44171" lon="2.42691">
        <ele>120.38</ele>
        <time>2017-07-02T09:50:41Z</time>
      </trkpt>
      <trkpt lat="48.44171" lon="2.4268">
        <ele>120.84</ele>
        <time>2017-07-02T09:50:45Z</time>
      </trkpt>
      <trkpt lat="48.44174" lon="2.42669">
        <ele>121.05</ele>
        <time>2017-07-02T09:50:49Z</time>
      </trkpt>
      <trkpt lat="48.44176" lon="2.42662">
        <ele>121.09</ele>
        <time>2017-07-02T09:50:51Z</time>
      </trkpt>
      <trkpt lat="48.44178" lon="2.42655">
        <ele>121.03</ele>
        <time>2017-07-02T09:50:53Z</time>
      </trkpt>
      <trkpt lat="48.4418" lon="2.42648">
        <ele>120.86</ele>
        <time>2017-07-02T09:50:55Z</time>
      </trkpt>
      <trkpt lat="48.44183" lon="2.42641">
        <ele>120.66</ele>
        <time>2017-07-02T09:50:57Z</time>
      </trkpt>
      <trkpt lat="48.44187" lon="2.4263">
        <ele>120.09</ele>
        <time>2017-07-02T09:51:01Z</time>
      </trkpt>
      <trkpt lat="48.44194" lon="2.42631">
        <ele>119.11</ele>
        <time>2017-07-02T09:51:05Z</time>
      </trkpt>
      <trkpt lat="48.44188" lon="2.42631">
        <ele>119.92</ele>
        <time>2017-07-02T09:54:15Z</time>
      </trkpt>
      <trkpt lat="48.44182" lon="2.42632">
        <ele>120.78</ele>
        <time>2017-07-02T09:54:23Z</time>
      </trkpt>
      <trkpt lat="48.4418" lon="2.42638">
        <ele>121.1</ele>
        <time>2017-07-02T09:54:27Z</time>
      </trkpt>
      <trkpt lat="48.44179" lon="2.42644">
        <ele>121.1</ele>
        <time>2017-07-02T09:54:35Z</time>
      </trkpt>
      <trkpt lat="48.44179" lon="2.42653">
        <ele>121</ele>
        <time>2017-07-02T09:54:55Z</time>
      </trkpt>
      <trkpt lat="48.4418" lon="2.42644">
        <ele>120.98</ele>
        <time>2017-07-02T09:55:27Z</time>
      </trkpt>
      <trkpt lat="48.44186" lon="2.42636">
        <ele>120.2</ele>
        <time>2017-07-02T09:55:33Z</time>
      </trkpt>
      <trkpt lat="48.4419" lon="2.42633">
        <ele>119.62</ele>
        <time>2017-07-02T09:55:41Z</time>
      </trkpt>
      <trkpt lat="48.44195" lon="2.42637">
        <ele>119</ele>
        <time>2017-07-02T09:55:49Z</time>
      </trkpt>
      <trkpt lat="48.44198" lon="2.42641">
        <ele>118.98</ele>
        <time>2017-07-02T09:55:59Z</time>
      </trkpt>
      <trkpt lat="48.44205" lon="2.42648">
        <ele>118.77</ele>
        <time>2017-07-02T09:56:03Z</time>
      </trkpt>
      <trkpt lat="48.44208" lon="2.42654">
        <ele>118.47</ele>
        <time>2017-07-02T09:56:05Z</time>
      </trkpt>
      <trkpt lat="48.44211" lon="2.42661">
        <ele>118.02</ele>
        <time>2017-07-02T09:56:07Z</time>
      </trkpt>
      <trkpt lat="48.44214" lon="2.42669">
        <ele>117.22</ele>
        <time>2017-07-02T09:56:09Z</time>
      </trkpt>
      <trkpt lat="48.44216" lon="2.42678">
        <ele>115.59</ele>
        <time>2017-07-02T09:56:11Z</time>
      </trkpt>
      <trkpt lat="48.4422" lon="2.42686">
        <ele>113.77</ele>
        <time>2017-07-02T09:56:13Z</time>
      </trkpt>
      <trkpt lat="48.44224" lon="2.42696">
        <ele>111.91</ele>
        <time>2017-07-02T09:56:15Z</time>
      </trkpt>
      <trkpt lat="48.44228" lon="2.42704">
        <ele>111.41</ele>
        <time>2017-07-02T09:56:17Z</time>
      </trkpt>
      <trkpt lat="48.44235" lon="2.42706">
        <ele>111.33</ele>
        <time>2017-07-02T09:56:19Z</time>
      </trkpt>
      <trkpt lat="48.44241" lon="2.4271">
        <ele>111.27</ele>
        <time>2017-07-02T09:56:21Z</time>
      </trkpt>
      <trkpt lat="48.44247" lon="2.42713">
        <ele>111.24</ele>
        <time>2017-07-02T09:56:23Z</time>
      </trkpt>
      <trkpt lat="48.44252" lon="2.42716">
        <ele>111.3</ele>
        <time>2017-07-02T09:56:25Z</time>
      </trkpt>
      <trkpt lat="48.44257" lon="2.4272">
        <ele>111.33</ele>
        <time>2017-07-02T09:56:27Z</time>
      </trkpt>
      <trkpt lat="48.44262" lon="2.42726">
        <ele>111.17</ele>
        <time>2017-07-02T09:56:29Z</time>
      </trkpt>
      <trkpt lat="48.44266" lon="2.42733">
        <ele>110.8</ele>
        <time>2017-07-02T09:56:31Z</time>
      </trkpt>
      <trkpt lat="48.4427" lon="2.4274">
        <ele>110.44</ele>
        <time>2017-07-02T09:56:33Z</time>
      </trkpt>
      <trkpt lat="48.44273" lon="2.42749">
        <ele>109.93</ele>
        <time>2017-07-02T09:56:35Z</time>
      </trkpt>
      <trkpt lat="48.44275" lon="2.42759">
        <ele>109.58</ele>
        <time>2017-07-02T09:56:37Z</time>
      </trkpt>
      <trkpt lat="48.44276" lon="2.42768">
        <ele>109.28</ele>
        <time>2017-07-02T09:56:39Z</time>
      </trkpt>
      <trkpt lat="48.44278" lon="2.42781">
        <ele>108.5</ele>
        <time>2017-07-02T09:56:41Z</time>
      </trkpt>
      <trkpt lat="48.44278" lon="2.42792">
        <ele>106.4</ele>
        <time>2017-07-02T09:56:43Z</time>
      </trkpt>
      <trkpt lat="48.44276" lon="2.42805">
        <ele>104.32</ele>
        <time>2017-07-02T09:56:45Z</time>
      </trkpt>
      <trkpt lat="48.44275" lon="2.42821">
        <ele>103.15</ele>
        <time>2017-07-02T09:56:47Z</time>
      </trkpt>
      <trkpt lat="48.44272" lon="2.42837">
        <ele>102.34</ele>
        <time>2017-07-02T09:56:49Z</time>
      </trkpt>
      <trkpt lat="48.44265" lon="2.4285">
        <ele>102.13</ele>
        <time>2017-07-02T09:56:51Z</time>
      </trkpt>
      <trkpt lat="48.44257" lon="2.42875">
        <ele>101.92</ele>
        <time>2017-07-02T09:56:53Z</time>
      </trkpt>
      <trkpt lat="48.44253" lon="2.42892">
        <ele>101.48</ele>
        <time>2017-07-02T09:56:55Z</time>
      </trkpt>
      <trkpt lat="48.44249" lon="2.42908">
        <ele>99.93</ele>
        <time>2017-07-02T09:56:57Z</time>
      </trkpt>
      <trkpt lat="48.44246" lon="2.42925">
        <ele>98.33</ele>
        <time>2017-07-02T09:56:59Z</time>
      </trkpt>
      <trkpt lat="48.44245" lon="2.42938">
        <ele>96.99</ele>
        <time>2017-07-02T09:57:01Z</time>
      </trkpt>
      <trkpt lat="48.44243" lon="2.42953">
        <ele>95.93</ele>
        <time>2017-07-02T09:57:03Z</time>
      </trkpt>
      <trkpt lat="48.44239" lon="2.42966">
        <ele>95.25</ele>
        <time>2017-07-02T09:57:05Z</time>
      </trkpt>
      <trkpt lat="48.44236" lon="2.4298">
        <ele>94.6</ele>
        <time>2017-07-02T09:57:07Z</time>
      </trkpt>
      <trkpt lat="48.44234" lon="2.42991">
        <ele>94.1</ele>
        <time>2017-07-02T09:57:09Z</time>
      </trkpt>
      <trkpt lat="48.4423" lon="2.43008">
        <ele>92.9</ele>
        <time>2017-07-02T09:57:11Z</time>
      </trkpt>
      <trkpt lat="48.44229" lon="2.43022">
        <ele>91.55</ele>
        <time>2017-07-02T09:57:13Z</time>
      </trkpt>
      <trkpt lat="48.44227" lon="2.43034">
        <ele>90.37</ele>
        <time>2017-07-02T09:57:15Z</time>
      </trkpt>
      <trkpt lat="48.44225" lon="2.43052">
        <ele>88.43</ele>
        <time>2017-07-02T09:57:17Z</time>
      </trkpt>
      <trkpt lat="48.44222" lon="2.43069">
        <ele>88.06</ele>
        <time>2017-07-02T09:57:19Z</time>
      </trkpt>
      <trkpt lat="48.44219" lon="2.43081">
        <ele>88.5</ele>
        <time>2017-07-02T09:57:21Z</time>
      </trkpt>
      <trkpt lat="48.44219" lon="2.43097">
        <ele>88.9</ele>
        <time>2017-07-02T09:57:23Z</time>
      </trkpt>
      <trkpt lat="48.4422" lon="2.43108">
        <ele>89.11</ele>
        <time>2017-07-02T09:57:25Z</time>
      </trkpt>
      <trkpt lat="48.44223" lon="2.43117">
        <ele>89.19</ele>
        <time>2017-07-02T09:57:27Z</time>
      </trkpt>
      <trkpt lat="48.44223" lon="2.43127">
        <ele>89.48</ele>
        <time>2017-07-02T09:57:29Z</time>
      </trkpt>
      <trkpt lat="48.44227" lon="2.43137">
        <ele>89.27</ele>
        <time>2017-07-02T09:57:31Z</time>
      </trkpt>
      <trkpt lat="48.44227" lon="2.43145">
        <ele>89.08</ele>
        <time>2017-07-02T09:57:33Z</time>
      </trkpt>
      <trkpt lat="48.44228" lon="2.43158">
        <ele>88.44</ele>
        <time>2017-07-02T09:57:35Z</time>
      </trkpt>
      <trkpt lat="48.44228" lon="2.43178">
        <ele>87.63</ele>
        <time>2017-07-02T09:57:37Z</time>
      </trkpt>
      <trkpt lat="48.44229" lon="2.43196">
        <ele>86.78</ele>
        <time>2017-07-02T09:57:39Z</time>
      </trkpt>
      <trkpt lat="48.4423" lon="2.43213">
        <ele>85.79</ele>
        <time>2017-07-02T09:57:41Z</time>
      </trkpt>
      <trkpt lat="48.44235" lon="2.43224">
        <ele>85.03</ele>
        <time>2017-07-02T09:57:43Z</time>
      </trkpt>
      <trkpt lat="48.44241" lon="2.43233">
        <ele>84.39</ele>
        <time>2017-07-02T09:57:45Z</time>
      </trkpt>
      <trkpt lat="48.44253" lon="2.4324">
        <ele>84.1</ele>
        <time>2017-07-02T09:57:47Z</time>
      </trkpt>
      <trkpt lat="48.44262" lon="2.43245">
        <ele>84.42</ele>
        <time>2017-07-02T09:57:49Z</time>
      </trkpt>
      <trkpt lat="48.4427" lon="2.43251">
        <ele>84.64</ele>
        <time>2017-07-02T09:57:51Z</time>
      </trkpt>
      <trkpt lat="48.44279" lon="2.43256">
        <ele>84.54</ele>
        <time>2017-07-02T09:57:53Z</time>
      </trkpt>
      <trkpt lat="48.44287" lon="2.4326">
        <ele>84.12</ele>
        <time>2017-07-02T09:57:55Z</time>
      </trkpt>
      <trkpt lat="48.44295" lon="2.43265">
        <ele>83.57</ele>
        <time>2017-07-02T09:57:57Z</time>
      </trkpt>
      <trkpt lat="48.44303" lon="2.43271">
        <ele>82.79</ele>
        <time>2017-07-02T09:57:59Z</time>
      </trkpt>
      <trkpt lat="48.44309" lon="2.43276">
        <ele>82.24</ele>
        <time>2017-07-02T09:58:01Z</time>
      </trkpt>
      <trkpt lat="48.44312" lon="2.43283">
        <ele>81.61</ele>
        <time>2017-07-02T09:58:03Z</time>
      </trkpt>
      <trkpt lat="48.44312" lon="2.43294">
        <ele>80.72</ele>
        <time>2017-07-02T09:58:05Z</time>
      </trkpt>
      <trkpt lat="48.44312" lon="2.43305">
        <ele>79.85</ele>
        <time>2017-07-02T09:58:07Z</time>
      </trkpt>
      <trkpt lat="48.44311" lon="2.43316">
        <ele>79.06</ele>
        <time>2017-07-02T09:58:09Z</time>
      </trkpt>
      <trkpt lat="48.4431" lon="2.43329">
        <ele>78.14</ele>
        <time>2017-07-02T09:58:11Z</time>
      </trkpt>
      <trkpt lat="48.44309" lon="2.43346">
        <ele>77.44</ele>
        <time>2017-07-02T09:58:13Z</time>
      </trkpt>
      <trkpt lat="48.44307" lon="2.43361">
        <ele>76.94</ele>
        <time>2017-07-02T09:58:15Z</time>
      </trkpt>
      <trkpt lat="48.44306" lon="2.43379">
        <ele>75.75</ele>
        <time>2017-07-02T09:58:17Z</time>
      </trkpt>
      <trkpt lat="48.44302" lon="2.43395">
        <ele>74.66</ele>
        <time>2017-07-02T09:58:19Z</time>
      </trkpt>
      <trkpt lat="48.443" lon="2.43408">
        <ele>73.65</ele>
        <time>2017-07-02T09:58:21Z</time>
      </trkpt>
      <trkpt lat="48.44296" lon="2.43424">
        <ele>72.45</ele>
        <time>2017-07-02T09:58:23Z</time>
      </trkpt>
      <trkpt lat="48.44294" lon="2.43442">
        <ele>71.21</ele>
        <time>2017-07-02T09:58:25Z</time>
      </trkpt>
      <trkpt lat="48.44289" lon="2.43456">
        <ele>70.4</ele>
        <time>2017-07-02T09:58:27Z</time>
      </trkpt>
      <trkpt lat="48.44286" lon="2.43473">
        <ele>69.73</ele>
        <time>2017-07-02T09:58:29Z</time>
      </trkpt>
      <trkpt lat="48.44283" lon="2.43491">
        <ele>70.46</ele>
        <time>2017-07-02T09:58:31Z</time>
      </trkpt>
      <trkpt lat="48.4428" lon="2.43505">
        <ele>71.3</ele>
        <time>2017-07-02T09:58:33Z</time>
      </trkpt>
      <trkpt lat="48.44277" lon="2.43523">
        <ele>72.72</ele>
        <time>2017-07-02T09:58:35Z</time>
      </trkpt>
      <trkpt lat="48.44275" lon="2.4354">
        <ele>73.99</ele>
        <time>2017-07-02T09:58:37Z</time>
      </trkpt>
      <trkpt lat="48.44272" lon="2.43557">
        <ele>75.05</ele>
        <time>2017-07-02T09:58:39Z</time>
      </trkpt>
      <trkpt lat="48.44269" lon="2.43571">
        <ele>75.26</ele>
        <time>2017-07-02T09:58:41Z</time>
      </trkpt>
      <trkpt lat="48.44265" lon="2.43584">
        <ele>75.35</ele>
        <time>2017-07-02T09:58:43Z</time>
      </trkpt>
      <trkpt lat="48.44261" lon="2.436">
        <ele>75.81</ele>
        <time>2017-07-02T09:58:45Z</time>
      </trkpt>
      <trkpt lat="48.44258" lon="2.43617">
        <ele>76.15</ele>
        <time>2017-07-02T09:58:47Z</time>
      </trkpt>
      <trkpt lat="48.44255" lon="2.43634">
        <ele>76.46</ele>
        <time>2017-07-02T09:58:49Z</time>
      </trkpt>
      <trkpt lat="48.44251" lon="2.43646">
        <ele>76.9</ele>
        <time>2017-07-02T09:58:51Z</time>
      </trkpt>
      <trkpt lat="48.44248" lon="2.43664">
        <ele>77.28</ele>
        <time>2017-07-02T09:58:53Z</time>
      </trkpt>
      <trkpt lat="48.44246" lon="2.43681">
        <ele>78.68</ele>
        <time>2017-07-02T09:58:55Z</time>
      </trkpt>
      <trkpt lat="48.44244" lon="2.43698">
        <ele>79.8</ele>
        <time>2017-07-02T09:58:57Z</time>
      </trkpt>
      <trkpt lat="48.44242" lon="2.43713">
        <ele>79.46</ele>
        <time>2017-07-02T09:58:59Z</time>
      </trkpt>
      <trkpt lat="48.44239" lon="2.43731">
        <ele>78.87</ele>
        <time>2017-07-02T09:59:01Z</time>
      </trkpt>
      <trkpt lat="48.44238" lon="2.43746">
        <ele>78.03</ele>
        <time>2017-07-02T09:59:03Z</time>
      </trkpt>
      <trkpt lat="48.44235" lon="2.43762">
        <ele>77.68</ele>
        <time>2017-07-02T09:59:05Z</time>
      </trkpt>
      <trkpt lat="48.44233" lon="2.43778">
        <ele>77.48</ele>
        <time>2017-07-02T09:59:07Z</time>
      </trkpt>
      <trkpt lat="48.4423" lon="2.43794">
        <ele>77.56</ele>
        <time>2017-07-02T09:59:09Z</time>
      </trkpt>
      <trkpt lat="48.44227" lon="2.43809">
        <ele>77.73</ele>
        <time>2017-07-02T09:59:11Z</time>
      </trkpt>
      <trkpt lat="48.44229" lon="2.43823">
        <ele>76.7</ele>
        <time>2017-07-02T09:59:13Z</time>
      </trkpt>
      <trkpt lat="48.44237" lon="2.43833">
        <ele>74.38</ele>
        <time>2017-07-02T09:59:15Z</time>
      </trkpt>
      <trkpt lat="48.44244" lon="2.43843">
        <ele>72.89</ele>
        <time>2017-07-02T09:59:17Z</time>
      </trkpt>
      <trkpt lat="48.44252" lon="2.43858">
        <ele>72.6</ele>
        <time>2017-07-02T09:59:19Z</time>
      </trkpt>
      <trkpt lat="48.44262" lon="2.43868">
        <ele>71.89</ele>
        <time>2017-07-02T09:59:21Z</time>
      </trkpt>
      <trkpt lat="48.44269" lon="2.43881">
        <ele>70.94</ele>
        <time>2017-07-02T09:59:23Z</time>
      </trkpt>
      <trkpt lat="48.44278" lon="2.43894">
        <ele>70.29</ele>
        <time>2017-07-02T09:59:25Z</time>
      </trkpt>
      <trkpt lat="48.44286" lon="2.43905">
        <ele>70.42</ele>
        <time>2017-07-02T09:59:27Z</time>
      </trkpt>
      <trkpt lat="48.44294" lon="2.43916">
        <ele>70.79</ele>
        <time>2017-07-02T09:59:29Z</time>
      </trkpt>
      <trkpt lat="48.44302" lon="2.43922">
        <ele>70.44</ele>
        <time>2017-07-02T09:59:31Z</time>
      </trkpt>
      <trkpt lat="48.4431" lon="2.43933">
        <ele>70.42</ele>
        <time>2017-07-02T09:59:33Z</time>
      </trkpt>
      <trkpt lat="48.44317" lon="2.43942">
        <ele>70.5</ele>
        <time>2017-07-02T09:59:35Z</time>
      </trkpt>
      <trkpt lat="48.44324" lon="2.43951">
        <ele>70.17</ele>
        <time>2017-07-02T09:59:37Z</time>
      </trkpt>
      <trkpt lat="48.44331" lon="2.43961">
        <ele>69.99</ele>
        <time>2017-07-02T09:59:39Z</time>
      </trkpt>
      <trkpt lat="48.44338" lon="2.4397">
        <ele>69.81</ele>
        <time>2017-07-02T09:59:41Z</time>
      </trkpt>
      <trkpt lat="48.44345" lon="2.43979">
        <ele>69.03</ele>
        <time>2017-07-02T09:59:43Z</time>
      </trkpt>
      <trkpt lat="48.44352" lon="2.43988">
        <ele>68.37</ele>
        <time>2017-07-02T09:59:45Z</time>
      </trkpt>
      <trkpt lat="48.4436" lon="2.43998">
        <ele>68.04</ele>
        <time>2017-07-02T09:59:47Z</time>
      </trkpt>
      <trkpt lat="48.44367" lon="2.44007">
        <ele>67.74</ele>
        <time>2017-07-02T09:59:49Z</time>
      </trkpt>
      <trkpt lat="48.44373" lon="2.44016">
        <ele>67.51</ele>
        <time>2017-07-02T09:59:51Z</time>
      </trkpt>
      <trkpt lat="48.4438" lon="2.44023">
        <ele>67.59</ele>
        <time>2017-07-02T09:59:53Z</time>
      </trkpt>
      <trkpt lat="48.44387" lon="2.44034">
        <ele>68.09</ele>
        <time>2017-07-02T09:59:55Z</time>
      </trkpt>
      <trkpt lat="48.44393" lon="2.44041">
        <ele>68.68</ele>
        <time>2017-07-02T09:59:57Z</time>
      </trkpt>
      <trkpt lat="48.444" lon="2.44049">
        <ele>69.49</ele>
        <time>2017-07-02T09:59:59Z</time>
      </trkpt>
      <trkpt lat="48.44407" lon="2.44053">
        <ele>70.17</ele>
        <time>2017-07-02T10:00:01Z</time>
      </trkpt>
      <trkpt lat="48.44415" lon="2.44064">
        <ele>71.43</ele>
        <time>2017-07-02T10:00:03Z</time>
      </trkpt>
      <trkpt lat="48.44421" lon="2.44073">
        <ele>72.29</ele>
        <time>2017-07-02T10:00:05Z</time>
      </trkpt>
      <trkpt lat="48.44428" lon="2.44082">
        <ele>73.27</ele>
        <time>2017-07-02T10:00:07Z</time>
      </trkpt>
      <trkpt lat="48.44435" lon="2.44092">
        <ele>73.46</ele>
        <time>2017-07-02T10:00:09Z</time>
      </trkpt>
      <trkpt lat="48.44442" lon="2.44099">
        <ele>73.4</ele>
        <time>2017-07-02T10:00:11Z</time>
      </trkpt>
      <trkpt lat="48.44449" lon="2.44108">
        <ele>72.72</ele>
        <time>2017-07-02T10:00:13Z</time>
      </trkpt>
      <trkpt lat="48.44456" lon="2.44117">
        <ele>72.24</ele>
        <time>2017-07-02T10:00:15Z</time>
      </trkpt>
      <trkpt lat="48.44462" lon="2.44123">
        <ele>72.13</ele>
        <time>2017-07-02T10:00:17Z</time>
      </trkpt>
      <trkpt lat="48.44466" lon="2.44133">
        <ele>72.48</ele>
        <time>2017-07-02T10:00:19Z</time>
      </trkpt>
      <trkpt lat="48.44471" lon="2.44141">
        <ele>72.93</ele>
        <time>2017-07-02T10:00:21Z</time>
      </trkpt>
      <trkpt lat="48.44476" lon="2.44148">
        <ele>73.08</ele>
        <time>2017-07-02T10:00:23Z</time>
      </trkpt>
      <trkpt lat="48.44484" lon="2.44157">
        <ele>73.14</ele>
        <time>2017-07-02T10:00:25Z</time>
      </trkpt>
      <trkpt lat="48.4449" lon="2.44165">
        <ele>73.04</ele>
        <time>2017-07-02T10:00:27Z</time>
      </trkpt>
      <trkpt lat="48.44495" lon="2.44171">
        <ele>73.24</ele>
        <time>2017-07-02T10:00:29Z</time>
      </trkpt>
      <trkpt lat="48.44501" lon="2.4418">
        <ele>73.93</ele>
        <time>2017-07-02T10:00:31Z</time>
      </trkpt>
      <trkpt lat="48.44507" lon="2.44189">
        <ele>74.44</ele>
        <time>2017-07-02T10:00:33Z</time>
      </trkpt>
      <trkpt lat="48.44513" lon="2.44196">
        <ele>74.45</ele>
        <time>2017-07-02T10:00:35Z</time>
      </trkpt>
      <trkpt lat="48.44518" lon="2.44205">
        <ele>73.96</ele>
        <time>2017-07-02T10:00:37Z</time>
      </trkpt>
      <trkpt lat="48.44525" lon="2.44213">
        <ele>73.91</ele>
        <time>2017-07-02T10:00:39Z</time>
      </trkpt>
      <trkpt lat="48.44531" lon="2.44221">
        <ele>73.75</ele>
        <time>2017-07-02T10:00:41Z</time>
      </trkpt>
      <trkpt lat="48.44538" lon="2.4423">
        <ele>73.19</ele>
        <time>2017-07-02T10:00:43Z</time>
      </trkpt>
      <trkpt lat="48.44544" lon="2.44239">
        <ele>72.93</ele>
        <time>2017-07-02T10:00:45Z</time>
      </trkpt>
      <trkpt lat="48.4455" lon="2.44249">
        <ele>72.98</ele>
        <time>2017-07-02T10:00:47Z</time>
      </trkpt>
      <trkpt lat="48.44556" lon="2.44257">
        <ele>72.63</ele>
        <time>2017-07-02T10:00:49Z</time>
      </trkpt>
      <trkpt lat="48.44564" lon="2.44263">
        <ele>71.78</ele>
        <time>2017-07-02T10:00:51Z</time>
      </trkpt>
      <trkpt lat="48.4457" lon="2.44272">
        <ele>71.34</ele>
        <time>2017-07-02T10:00:53Z</time>
      </trkpt>
      <trkpt lat="48.44576" lon="2.44279">
        <ele>71.2</ele>
        <time>2017-07-02T10:00:55Z</time>
      </trkpt>
      <trkpt lat="48.44584" lon="2.44289">
        <ele>70.56</ele>
        <time>2017-07-02T10:00:57Z</time>
      </trkpt>
      <trkpt lat="48.44589" lon="2.443">
        <ele>69.89</ele>
        <time>2017-07-02T10:00:59Z</time>
      </trkpt>
      <trkpt lat="48.44596" lon="2.44309">
        <ele>69.67</ele>
        <time>2017-07-02T10:01:01Z</time>
      </trkpt>
      <trkpt lat="48.44603" lon="2.44316">
        <ele>69.68</ele>
        <time>2017-07-02T10:01:03Z</time>
      </trkpt>
      <trkpt lat="48.44609" lon="2.44324">
        <ele>69.74</ele>
        <time>2017-07-02T10:01:05Z</time>
      </trkpt>
      <trkpt lat="48.44616" lon="2.44334">
        <ele>70.4</ele>
        <time>2017-07-02T10:01:07Z</time>
      </trkpt>
      <trkpt lat="48.44624" lon="2.44343">
        <ele>71.11</ele>
        <time>2017-07-02T10:01:09Z</time>
      </trkpt>
      <trkpt lat="48.4463" lon="2.44353">
        <ele>71.33</ele>
        <time>2017-07-02T10:01:11Z</time>
      </trkpt>
      <trkpt lat="48.44638" lon="2.44363">
        <ele>71.12</ele>
        <time>2017-07-02T10:01:13Z</time>
      </trkpt>
      <trkpt lat="48.44645" lon="2.4437">
        <ele>71.78</ele>
        <time>2017-07-02T10:01:15Z</time>
      </trkpt>
      <trkpt lat="48.44653" lon="2.4438">
        <ele>72.51</ele>
        <time>2017-07-02T10:01:17Z</time>
      </trkpt>
      <trkpt lat="48.44661" lon="2.44388">
        <ele>72.96</ele>
        <time>2017-07-02T10:01:19Z</time>
      </trkpt>
      <trkpt lat="48.44669" lon="2.44396">
        <ele>72.78</ele>
        <time>2017-07-02T10:01:21Z</time>
      </trkpt>
      <trkpt lat="48.44675" lon="2.44407">
        <ele>71.86</ele>
        <time>2017-07-02T10:01:23Z</time>
      </trkpt>
      <trkpt lat="48.44682" lon="2.44416">
        <ele>70.87</ele>
        <time>2017-07-02T10:01:25Z</time>
      </trkpt>
      <trkpt lat="48.44688" lon="2.44429">
        <ele>69.86</ele>
        <time>2017-07-02T10:01:27Z</time>
      </trkpt>
      <trkpt lat="48.44696" lon="2.44439">
        <ele>68.83</ele>
        <time>2017-07-02T10:01:29Z</time>
      </trkpt>
      <trkpt lat="48.44703" lon="2.44447">
        <ele>67.77</ele>
        <time>2017-07-02T10:01:31Z</time>
      </trkpt>
      <trkpt lat="48.44709" lon="2.44456">
        <ele>66.93</ele>
        <time>2017-07-02T10:01:33Z</time>
      </trkpt>
      <trkpt lat="48.44717" lon="2.44466">
        <ele>66.26</ele>
        <time>2017-07-02T10:01:35Z</time>
      </trkpt>
      <trkpt lat="48.44724" lon="2.44475">
        <ele>66</ele>
        <time>2017-07-02T10:01:37Z</time>
      </trkpt>
      <trkpt lat="48.44731" lon="2.44483">
        <ele>66.18</ele>
        <time>2017-07-02T10:01:39Z</time>
      </trkpt>
      <trkpt lat="48.44738" lon="2.44492">
        <ele>66.63</ele>
        <time>2017-07-02T10:01:41Z</time>
      </trkpt>
      <trkpt lat="48.44746" lon="2.44489">
        <ele>67.3</ele>
        <time>2017-07-02T10:01:43Z</time>
      </trkpt>
      <trkpt lat="48.4475" lon="2.44482">
        <ele>67.33</ele>
        <time>2017-07-02T10:01:45Z</time>
      </trkpt>
      <trkpt lat="48.44754" lon="2.44474">
        <ele>67.48</ele>
        <time>2017-07-02T10:01:47Z</time>
      </trkpt>
      <trkpt lat="48.44759" lon="2.44468">
        <ele>67.94</ele>
        <time>2017-07-02T10:01:49Z</time>
      </trkpt>
      <trkpt lat="48.44764" lon="2.44462">
        <ele>68.31</ele>
        <time>2017-07-02T10:01:51Z</time>
      </trkpt>
      <trkpt lat="48.44769" lon="2.44454">
        <ele>68.61</ele>
        <time>2017-07-02T10:01:53Z</time>
      </trkpt>
      <trkpt lat="48.44773" lon="2.44446">
        <ele>68.72</ele>
        <time>2017-07-02T10:01:55Z</time>
      </trkpt>
      <trkpt lat="48.44777" lon="2.4444">
        <ele>68.8</ele>
        <time>2017-07-02T10:01:57Z</time>
      </trkpt>
      <trkpt lat="48.44784" lon="2.44432">
        <ele>68.86</ele>
        <time>2017-07-02T10:01:59Z</time>
      </trkpt>
      <trkpt lat="48.44789" lon="2.44426">
        <ele>69.03</ele>
        <time>2017-07-02T10:02:01Z</time>
      </trkpt>
      <trkpt lat="48.44795" lon="2.44421">
        <ele>69.3</ele>
        <time>2017-07-02T10:02:03Z</time>
      </trkpt>
      <trkpt lat="48.44801" lon="2.44414">
        <ele>69.41</ele>
        <time>2017-07-02T10:02:05Z</time>
      </trkpt>
      <trkpt lat="48.44806" lon="2.44408">
        <ele>69.47</ele>
        <time>2017-07-02T10:02:07Z</time>
      </trkpt>
      <trkpt lat="48.44812" lon="2.44402">
        <ele>70.12</ele>
        <time>2017-07-02T10:02:09Z</time>
      </trkpt>
      <trkpt lat="48.44817" lon="2.44394">
        <ele>70.62</ele>
        <time>2017-07-02T10:02:11Z</time>
      </trkpt>
      <trkpt lat="48.44822" lon="2.44388">
        <ele>71.47</ele>
        <time>2017-07-02T10:02:13Z</time>
      </trkpt>
      <trkpt lat="48.44827" lon="2.4438">
        <ele>72.26</ele>
        <time>2017-07-02T10:02:15Z</time>
      </trkpt>
      <trkpt lat="48.44833" lon="2.44374">
        <ele>73.38</ele>
        <time>2017-07-02T10:02:17Z</time>
      </trkpt>
      <trkpt lat="48.44838" lon="2.44368">
        <ele>73.88</ele>
        <time>2017-07-02T10:02:19Z</time>
      </trkpt>
      <trkpt lat="48.44842" lon="2.44361">
        <ele>74.22</ele>
        <time>2017-07-02T10:02:21Z</time>
      </trkpt>
      <trkpt lat="48.44847" lon="2.44354">
        <ele>74.26</ele>
        <time>2017-07-02T10:02:23Z</time>
      </trkpt>
      <trkpt lat="48.44852" lon="2.44348">
        <ele>74.44</ele>
        <time>2017-07-02T10:02:25Z</time>
      </trkpt>
      <trkpt lat="48.44857" lon="2.44348">
        <ele>75.08</ele>
        <time>2017-07-02T10:02:27Z</time>
      </trkpt>
      <trkpt lat="48.44861" lon="2.44353">
        <ele>76.09</ele>
        <time>2017-07-02T10:02:29Z</time>
      </trkpt>
      <trkpt lat="48.44865" lon="2.44358">
        <ele>76.54</ele>
        <time>2017-07-02T10:02:31Z</time>
      </trkpt>
      <trkpt lat="48.44868" lon="2.44365">
        <ele>77</ele>
        <time>2017-07-02T10:02:33Z</time>
      </trkpt>
      <trkpt lat="48.44872" lon="2.44369">
        <ele>77.2</ele>
        <time>2017-07-02T10:02:35Z</time>
      </trkpt>
      <trkpt lat="48.44877" lon="2.44374">
        <ele>77.73</ele>
        <time>2017-07-02T10:02:37Z</time>
      </trkpt>
      <trkpt lat="48.44881" lon="2.44381">
        <ele>78.57</ele>
        <time>2017-07-02T10:02:39Z</time>
      </trkpt>
      <trkpt lat="48.44885" lon="2.44387">
        <ele>79.4</ele>
        <time>2017-07-02T10:02:41Z</time>
      </trkpt>
      <trkpt lat="48.44892" lon="2.44394">
        <ele>79.92</ele>
        <time>2017-07-02T10:02:45Z</time>
      </trkpt>
      <trkpt lat="48.449" lon="2.444">
        <ele>79.93</ele>
        <time>2017-07-02T10:02:49Z</time>
      </trkpt>
      <trkpt lat="48.44903" lon="2.44405">
        <ele>80.1</ele>
        <time>2017-07-02T10:02:51Z</time>
      </trkpt>
      <trkpt lat="48.44907" lon="2.44411">
        <ele>80.36</ele>
        <time>2017-07-02T10:02:53Z</time>
      </trkpt>
      <trkpt lat="48.4491" lon="2.44416">
        <ele>80.71</ele>
        <time>2017-07-02T10:02:55Z</time>
      </trkpt>
      <trkpt lat="48.44917" lon="2.44423">
        <ele>81.2</ele>
        <time>2017-07-02T10:02:59Z</time>
      </trkpt>
      <trkpt lat="48.44924" lon="2.44426">
        <ele>81.05</ele>
        <time>2017-07-02T10:03:03Z</time>
      </trkpt>
      <trkpt lat="48.44933" lon="2.44427">
        <ele>80.76</ele>
        <time>2017-07-02T10:03:07Z</time>
      </trkpt>
      <trkpt lat="48.44941" lon="2.44424">
        <ele>80.4</ele>
        <time>2017-07-02T10:03:11Z</time>
      </trkpt>
      <trkpt lat="48.4495" lon="2.44422">
        <ele>80.11</ele>
        <time>2017-07-02T10:03:15Z</time>
      </trkpt>
      <trkpt lat="48.44958" lon="2.44423">
        <ele>80.01</ele>
        <time>2017-07-02T10:03:19Z</time>
      </trkpt>
      <trkpt lat="48.44962" lon="2.44423">
        <ele>79.93</ele>
        <time>2017-07-02T10:03:21Z</time>
      </trkpt>
      <trkpt lat="48.4497" lon="2.44421">
        <ele>79.86</ele>
        <time>2017-07-02T10:03:25Z</time>
      </trkpt>
      <trkpt lat="48.44979" lon="2.44419">
        <ele>80.61</ele>
        <time>2017-07-02T10:03:29Z</time>
      </trkpt>
      <trkpt lat="48.44988" lon="2.44419">
        <ele>81.52</ele>
        <time>2017-07-02T10:03:33Z</time>
      </trkpt>
      <trkpt lat="48.44992" lon="2.44416">
        <ele>82.06</ele>
        <time>2017-07-02T10:03:35Z</time>
      </trkpt>
      <trkpt lat="48.44996" lon="2.44412">
        <ele>82.27</ele>
        <time>2017-07-02T10:03:37Z</time>
      </trkpt>
      <trkpt lat="48.45001" lon="2.44414">
        <ele>82.91</ele>
        <time>2017-07-02T10:03:39Z</time>
      </trkpt>
      <trkpt lat="48.45008" lon="2.44408">
        <ele>83.05</ele>
        <time>2017-07-02T10:03:43Z</time>
      </trkpt>
      <trkpt lat="48.45014" lon="2.44407">
        <ele>83.49</ele>
        <time>2017-07-02T10:03:47Z</time>
      </trkpt>
      <trkpt lat="48.4502" lon="2.44404">
        <ele>83.82</ele>
        <time>2017-07-02T10:03:51Z</time>
      </trkpt>
      <trkpt lat="48.45026" lon="2.44401">
        <ele>84.32</ele>
        <time>2017-07-02T10:03:55Z</time>
      </trkpt>
      <trkpt lat="48.45033" lon="2.44396">
        <ele>85.14</ele>
        <time>2017-07-02T10:03:59Z</time>
      </trkpt>
      <trkpt lat="48.45039" lon="2.44393">
        <ele>86.32</ele>
        <time>2017-07-02T10:04:03Z</time>
      </trkpt>
      <trkpt lat="48.45045" lon="2.4439">
        <ele>87.26</ele>
        <time>2017-07-02T10:04:07Z</time>
      </trkpt>
      <trkpt lat="48.45052" lon="2.44383">
        <ele>88.05</ele>
        <time>2017-07-02T10:04:11Z</time>
      </trkpt>
      <trkpt lat="48.45058" lon="2.44383">
        <ele>89.33</ele>
        <time>2017-07-02T10:04:15Z</time>
      </trkpt>
      <trkpt lat="48.45063" lon="2.44383">
        <ele>90.72</ele>
        <time>2017-07-02T10:04:19Z</time>
      </trkpt>
      <trkpt lat="48.45068" lon="2.44381">
        <ele>92.02</ele>
        <time>2017-07-02T10:04:23Z</time>
      </trkpt>
      <trkpt lat="48.45074" lon="2.44378">
        <ele>93.43</ele>
        <time>2017-07-02T10:04:27Z</time>
      </trkpt>
      <trkpt lat="48.4508" lon="2.44374">
        <ele>95.08</ele>
        <time>2017-07-02T10:04:31Z</time>
      </trkpt>
      <trkpt lat="48.45089" lon="2.44373">
        <ele>97.44</ele>
        <time>2017-07-02T10:04:37Z</time>
      </trkpt>
      <trkpt lat="48.45094" lon="2.44367">
        <ele>98.56</ele>
        <time>2017-07-02T10:04:43Z</time>
      </trkpt>
      <trkpt lat="48.45101" lon="2.44365">
        <ele>100.07</ele>
        <time>2017-07-02T10:04:47Z</time>
      </trkpt>
      <trkpt lat="48.45106" lon="2.44357">
        <ele>100.57</ele>
        <time>2017-07-02T10:04:53Z</time>
      </trkpt>
      <trkpt lat="48.45114" lon="2.44357">
        <ele>102.32</ele>
        <time>2017-07-02T10:04:57Z</time>
      </trkpt>
      <trkpt lat="48.45116" lon="2.4435">
        <ele>102.14</ele>
        <time>2017-07-02T10:05:05Z</time>
      </trkpt>
      <trkpt lat="48.45122" lon="2.44343">
        <ele>102.56</ele>
        <time>2017-07-02T10:05:09Z</time>
      </trkpt>
      <trkpt lat="48.45128" lon="2.44338">
        <ele>102.97</ele>
        <time>2017-07-02T10:05:13Z</time>
      </trkpt>
      <trkpt lat="48.45133" lon="2.44335">
        <ele>103.4</ele>
        <time>2017-07-02T10:05:17Z</time>
      </trkpt>
      <trkpt lat="48.45137" lon="2.44331">
        <ele>103.44</ele>
        <time>2017-07-02T10:05:19Z</time>
      </trkpt>
      <trkpt lat="48.45142" lon="2.44329">
        <ele>104.51</ele>
        <time>2017-07-02T10:05:25Z</time>
      </trkpt>
      <trkpt lat="48.45148" lon="2.44325">
        <ele>105.58</ele>
        <time>2017-07-02T10:05:31Z</time>
      </trkpt>
      <trkpt lat="48.45154" lon="2.4432">
        <ele>106.56</ele>
        <time>2017-07-02T10:05:33Z</time>
      </trkpt>
      <trkpt lat="48.45159" lon="2.44314">
        <ele>107.25</ele>
        <time>2017-07-02T10:05:37Z</time>
      </trkpt>
      <trkpt lat="48.45165" lon="2.44308">
        <ele>107.81</ele>
        <time>2017-07-02T10:05:43Z</time>
      </trkpt>
      <trkpt lat="48.45171" lon="2.44302">
        <ele>109.22</ele>
        <time>2017-07-02T10:05:49Z</time>
      </trkpt>
      <trkpt lat="48.45175" lon="2.44297">
        <ele>109.65</ele>
        <time>2017-07-02T10:05:51Z</time>
      </trkpt>
      <trkpt lat="48.45178" lon="2.4429">
        <ele>109.52</ele>
        <time>2017-07-02T10:05:55Z</time>
      </trkpt>
      <trkpt lat="48.45185" lon="2.44287">
        <ele>111.92</ele>
        <time>2017-07-02T10:06:01Z</time>
      </trkpt>
      <trkpt lat="48.45189" lon="2.44282">
        <ele>112.48</ele>
        <time>2017-07-02T10:06:05Z</time>
      </trkpt>
      <trkpt lat="48.45195" lon="2.44275">
        <ele>113.6</ele>
        <time>2017-07-02T10:06:07Z</time>
      </trkpt>
      <trkpt lat="48.45198" lon="2.44271">
        <ele>114</ele>
        <time>2017-07-02T10:06:09Z</time>
      </trkpt>
      <trkpt lat="48.45202" lon="2.44266">
        <ele>114.21</ele>
        <time>2017-07-02T10:06:13Z</time>
      </trkpt>
      <trkpt lat="48.45205" lon="2.4426">
        <ele>114.07</ele>
        <time>2017-07-02T10:06:17Z</time>
      </trkpt>
      <trkpt lat="48.45206" lon="2.44253">
        <ele>113.15</ele>
        <time>2017-07-02T10:06:21Z</time>
      </trkpt>
      <trkpt lat="48.45209" lon="2.44245">
        <ele>112.73</ele>
        <time>2017-07-02T10:06:25Z</time>
      </trkpt>
      <trkpt lat="48.45214" lon="2.44236">
        <ele>112.55</ele>
        <time>2017-07-02T10:06:33Z</time>
      </trkpt>
      <trkpt lat="48.45219" lon="2.44227">
        <ele>111.93</ele>
        <time>2017-07-02T10:06:37Z</time>
      </trkpt>
      <trkpt lat="48.45223" lon="2.4422">
        <ele>112.06</ele>
        <time>2017-07-02T10:06:39Z</time>
      </trkpt>
      <trkpt lat="48.45228" lon="2.44217">
        <ele>113.46</ele>
        <time>2017-07-02T10:06:41Z</time>
      </trkpt>
      <trkpt lat="48.45231" lon="2.44211">
        <ele>113.7</ele>
        <time>2017-07-02T10:06:43Z</time>
      </trkpt>
      <trkpt lat="48.45233" lon="2.44204">
        <ele>113.81</ele>
        <time>2017-07-02T10:06:47Z</time>
      </trkpt>
      <trkpt lat="48.45242" lon="2.44203">
        <ele>115.97</ele>
        <time>2017-07-02T10:06:51Z</time>
      </trkpt>
      <trkpt lat="48.45249" lon="2.44201">
        <ele>117.52</ele>
        <time>2017-07-02T10:06:57Z</time>
      </trkpt>
      <trkpt lat="48.45255" lon="2.44197">
        <ele>118.35</ele>
        <time>2017-07-02T10:07:03Z</time>
      </trkpt>
      <trkpt lat="48.45262" lon="2.44194">
        <ele>119.5</ele>
        <time>2017-07-02T10:07:07Z</time>
      </trkpt>
      <trkpt lat="48.45268" lon="2.44192">
        <ele>120.81</ele>
        <time>2017-07-02T10:07:09Z</time>
      </trkpt>
      <trkpt lat="48.45275" lon="2.4419">
        <ele>122.43</ele>
        <time>2017-07-02T10:07:13Z</time>
      </trkpt>
      <trkpt lat="48.4528" lon="2.44183">
        <ele>122.97</ele>
        <time>2017-07-02T10:07:17Z</time>
      </trkpt>
      <trkpt lat="48.45287" lon="2.44181">
        <ele>122.85</ele>
        <time>2017-07-02T10:07:19Z</time>
      </trkpt>
      <trkpt lat="48.45293" lon="2.44177">
        <ele>122.65</ele>
        <time>2017-07-02T10:07:21Z</time>
      </trkpt>
      <trkpt lat="48.45298" lon="2.44173">
        <ele>122.44</ele>
        <time>2017-07-02T10:07:23Z</time>
      </trkpt>
      <trkpt lat="48.45305" lon="2.44166">
        <ele>122.06</ele>
        <time>2017-07-02T10:07:27Z</time>
      </trkpt>
      <trkpt lat="48.45308" lon="2.4416">
        <ele>122.1</ele>
        <time>2017-07-02T10:07:29Z</time>
      </trkpt>
      <trkpt lat="48.45313" lon="2.44155">
        <ele>121.99</ele>
        <time>2017-07-02T10:07:31Z</time>
      </trkpt>
      <trkpt lat="48.45319" lon="2.44151">
        <ele>121.82</ele>
        <time>2017-07-02T10:07:33Z</time>
      </trkpt>
      <trkpt lat="48.45324" lon="2.44147">
        <ele>121.86</ele>
        <time>2017-07-02T10:07:35Z</time>
      </trkpt>
      <trkpt lat="48.45328" lon="2.44138">
        <ele>122.19</ele>
        <time>2017-07-02T10:07:37Z</time>
      </trkpt>
      <trkpt lat="48.45337" lon="2.4413">
        <ele>122.12</ele>
        <time>2017-07-02T10:07:41Z</time>
      </trkpt>
      <trkpt lat="48.45342" lon="2.44123">
        <ele>122.3</ele>
        <time>2017-07-02T10:07:43Z</time>
      </trkpt>
      <trkpt lat="48.4535" lon="2.44116">
        <ele>122.59</ele>
        <time>2017-07-02T10:07:49Z</time>
      </trkpt>
      <trkpt lat="48.45357" lon="2.44111">
        <ele>122.86</ele>
        <time>2017-07-02T10:07:53Z</time>
      </trkpt>
      <trkpt lat="48.45367" lon="2.44105">
        <ele>123.87</ele>
        <time>2017-07-02T10:07:57Z</time>
      </trkpt>
      <trkpt lat="48.45372" lon="2.44101">
        <ele>124.4</ele>
        <time>2017-07-02T10:08:01Z</time>
      </trkpt>
      <trkpt lat="48.45371" lon="2.44107">
        <ele>123.96</ele>
        <time>2017-07-02T10:08:07Z</time>
      </trkpt>
      <trkpt lat="48.4537" lon="2.44115">
        <ele>123.61</ele>
        <time>2017-07-02T10:08:19Z</time>
      </trkpt>
      <trkpt lat="48.4537" lon="2.44123">
        <ele>123.52</ele>
        <time>2017-07-02T10:08:21Z</time>
      </trkpt>
      <trkpt lat="48.45368" lon="2.44133">
        <ele>123.32</ele>
        <time>2017-07-02T10:08:23Z</time>
      </trkpt>
      <trkpt lat="48.45364" lon="2.44147">
        <ele>122.49</ele>
        <time>2017-07-02T10:08:29Z</time>
      </trkpt>
      <trkpt lat="48.4536" lon="2.44151">
        <ele>122.08</ele>
        <time>2017-07-02T10:08:31Z</time>
      </trkpt>
      <trkpt lat="48.45357" lon="2.44158">
        <ele>121.45</ele>
        <time>2017-07-02T10:08:33Z</time>
      </trkpt>
      <trkpt lat="48.45354" lon="2.44172">
        <ele>120.42</ele>
        <time>2017-07-02T10:08:37Z</time>
      </trkpt>
      <trkpt lat="48.45352" lon="2.4418">
        <ele>119.89</ele>
        <time>2017-07-02T10:08:39Z</time>
      </trkpt>
      <trkpt lat="48.45351" lon="2.44189">
        <ele>119.32</ele>
        <time>2017-07-02T10:08:41Z</time>
      </trkpt>
      <trkpt lat="48.45349" lon="2.44201">
        <ele>118.97</ele>
        <time>2017-07-02T10:08:43Z</time>
      </trkpt>
      <trkpt lat="48.45346" lon="2.44212">
        <ele>119.06</ele>
        <time>2017-07-02T10:08:45Z</time>
      </trkpt>
      <trkpt lat="48.45344" lon="2.44224">
        <ele>119.32</ele>
        <time>2017-07-02T10:08:47Z</time>
      </trkpt>
      <trkpt lat="48.45341" lon="2.44236">
        <ele>119.92</ele>
        <time>2017-07-02T10:08:49Z</time>
      </trkpt>
      <trkpt lat="48.45338" lon="2.44246">
        <ele>120.5</ele>
        <time>2017-07-02T10:08:51Z</time>
      </trkpt>
      <trkpt lat="48.45336" lon="2.44257">
        <ele>121.58</ele>
        <time>2017-07-02T10:08:53Z</time>
      </trkpt>
      <trkpt lat="48.45336" lon="2.44269">
        <ele>122.89</ele>
        <time>2017-07-02T10:08:55Z</time>
      </trkpt>
      <trkpt lat="48.45336" lon="2.44281">
        <ele>124.23</ele>
        <time>2017-07-02T10:08:57Z</time>
      </trkpt>
      <trkpt lat="48.45333" lon="2.44291">
        <ele>125.9</ele>
        <time>2017-07-02T10:08:59Z</time>
      </trkpt>
      <trkpt lat="48.45331" lon="2.44302">
        <ele>127.46</ele>
        <time>2017-07-02T10:09:01Z</time>
      </trkpt>
      <trkpt lat="48.4533" lon="2.44312">
        <ele>128.5</ele>
        <time>2017-07-02T10:09:03Z</time>
      </trkpt>
      <trkpt lat="48.45328" lon="2.44321">
        <ele>129.14</ele>
        <time>2017-07-02T10:09:05Z</time>
      </trkpt>
      <trkpt lat="48.45326" lon="2.44331">
        <ele>129.82</ele>
        <time>2017-07-02T10:09:07Z</time>
      </trkpt>
      <trkpt lat="48.45323" lon="2.44342">
        <ele>130</ele>
        <time>2017-07-02T10:09:09Z</time>
      </trkpt>
      <trkpt lat="48.45321" lon="2.44352">
        <ele>130</ele>
        <time>2017-07-02T10:09:11Z</time>
      </trkpt>
      <trkpt lat="48.45317" lon="2.4436">
        <ele>130</ele>
        <time>2017-07-02T10:09:13Z</time>
      </trkpt>
      <trkpt lat="48.45314" lon="2.44368">
        <ele>130.16</ele>
        <time>2017-07-02T10:09:15Z</time>
      </trkpt>
      <trkpt lat="48.4531" lon="2.44376">
        <ele>130.44</ele>
        <time>2017-07-02T10:09:17Z</time>
      </trkpt>
      <trkpt lat="48.45306" lon="2.44383">
        <ele>130.8</ele>
        <time>2017-07-02T10:09:19Z</time>
      </trkpt>
      <trkpt lat="48.45302" lon="2.44391">
        <ele>130.7</ele>
        <time>2017-07-02T10:09:21Z</time>
      </trkpt>
      <trkpt lat="48.45298" lon="2.44398">
        <ele>130.71</ele>
        <time>2017-07-02T10:09:23Z</time>
      </trkpt>
      <trkpt lat="48.45296" lon="2.44407">
        <ele>130.74</ele>
        <time>2017-07-02T10:09:25Z</time>
      </trkpt>
      <trkpt lat="48.45294" lon="2.44415">
        <ele>130.78</ele>
        <time>2017-07-02T10:09:27Z</time>
      </trkpt>
      <trkpt lat="48.45296" lon="2.44422">
        <ele>131.46</ele>
        <time>2017-07-02T10:09:29Z</time>
      </trkpt>
      <trkpt lat="48.45301" lon="2.44428">
        <ele>132.48</ele>
        <time>2017-07-02T10:09:31Z</time>
      </trkpt>
      <trkpt lat="48.45306" lon="2.44433">
        <ele>133.55</ele>
        <time>2017-07-02T10:09:33Z</time>
      </trkpt>
      <trkpt lat="48.45312" lon="2.44437">
        <ele>133.41</ele>
        <time>2017-07-02T10:09:35Z</time>
      </trkpt>
      <trkpt lat="48.45318" lon="2.44443">
        <ele>133.12</ele>
        <time>2017-07-02T10:09:37Z</time>
      </trkpt>
      <trkpt lat="48.45324" lon="2.44455">
        <ele>132.32</ele>
        <time>2017-07-02T10:09:39Z</time>
      </trkpt>
      <trkpt lat="48.4534" lon="2.44479">
        <ele>130.45</ele>
        <time>2017-07-02T10:09:44Z</time>
      </trkpt>
      <trkpt lat="48.45348" lon="2.44489">
        <ele>129.6</ele>
        <time>2017-07-02T10:09:46Z</time>
      </trkpt>
      <trkpt lat="48.45357" lon="2.44502">
        <ele>128.39</ele>
        <time>2017-07-02T10:09:49Z</time>
      </trkpt>
      <trkpt lat="48.45363" lon="2.4451">
        <ele>128.12</ele>
        <time>2017-07-02T10:09:51Z</time>
      </trkpt>
      <trkpt lat="48.45369" lon="2.44518">
        <ele>127.76</ele>
        <time>2017-07-02T10:09:53Z</time>
      </trkpt>
      <trkpt lat="48.45375" lon="2.44527">
        <ele>127.42</ele>
        <time>2017-07-02T10:09:55Z</time>
      </trkpt>
      <trkpt lat="48.45383" lon="2.44538">
        <ele>126.65</ele>
        <time>2017-07-02T10:09:57Z</time>
      </trkpt>
      <trkpt lat="48.45391" lon="2.44547">
        <ele>126.17</ele>
        <time>2017-07-02T10:09:59Z</time>
      </trkpt>
      <trkpt lat="48.45398" lon="2.44552">
        <ele>126.99</ele>
        <time>2017-07-02T10:10:01Z</time>
      </trkpt>
      <trkpt lat="48.45405" lon="2.44555">
        <ele>127.75</ele>
        <time>2017-07-02T10:10:03Z</time>
      </trkpt>
      <trkpt lat="48.45413" lon="2.44554">
        <ele>128.58</ele>
        <time>2017-07-02T10:10:05Z</time>
      </trkpt>
      <trkpt lat="48.45421" lon="2.44556">
        <ele>128.53</ele>
        <time>2017-07-02T10:10:07Z</time>
      </trkpt>
      <trkpt lat="48.45429" lon="2.44557">
        <ele>127.56</ele>
        <time>2017-07-02T10:10:09Z</time>
      </trkpt>
      <trkpt lat="48.45437" lon="2.4456">
        <ele>126.6</ele>
        <time>2017-07-02T10:10:11Z</time>
      </trkpt>
      <trkpt lat="48.45445" lon="2.44564">
        <ele>125.71</ele>
        <time>2017-07-02T10:10:13Z</time>
      </trkpt>
      <trkpt lat="48.45465" lon="2.44576">
        <ele>125.46</ele>
        <time>2017-07-02T10:10:15Z</time>
      </trkpt>
      <trkpt lat="48.45477" lon="2.4458">
        <ele>124.85</ele>
        <time>2017-07-02T10:10:17Z</time>
      </trkpt>
      <trkpt lat="48.4549" lon="2.44582">
        <ele>123.84</ele>
        <time>2017-07-02T10:10:21Z</time>
      </trkpt>
      <trkpt lat="48.45497" lon="2.4458">
        <ele>123.43</ele>
        <time>2017-07-02T10:10:23Z</time>
      </trkpt>
      <trkpt lat="48.45503" lon="2.44581">
        <ele>122.9</ele>
        <time>2017-07-02T10:10:25Z</time>
      </trkpt>
      <trkpt lat="48.45512" lon="2.44582">
        <ele>122.2</ele>
        <time>2017-07-02T10:10:27Z</time>
      </trkpt>
      <trkpt lat="48.45519" lon="2.44583">
        <ele>121.64</ele>
        <time>2017-07-02T10:10:29Z</time>
      </trkpt>
      <trkpt lat="48.45525" lon="2.44583">
        <ele>121.21</ele>
        <time>2017-07-02T10:10:31Z</time>
      </trkpt>
      <trkpt lat="48.45532" lon="2.44585">
        <ele>120.5</ele>
        <time>2017-07-02T10:10:33Z</time>
      </trkpt>
      <trkpt lat="48.4554" lon="2.44589">
        <ele>119.62</ele>
        <time>2017-07-02T10:10:35Z</time>
      </trkpt>
      <trkpt lat="48.45548" lon="2.44592">
        <ele>118.91</ele>
        <time>2017-07-02T10:10:37Z</time>
      </trkpt>
      <trkpt lat="48.45556" lon="2.44592">
        <ele>118.49</ele>
        <time>2017-07-02T10:10:39Z</time>
      </trkpt>
      <trkpt lat="48.45564" lon="2.44593">
        <ele>119.85</ele>
        <time>2017-07-02T10:10:41Z</time>
      </trkpt>
      <trkpt lat="48.45572" lon="2.44593">
        <ele>121.26</ele>
        <time>2017-07-02T10:10:43Z</time>
      </trkpt>
      <trkpt lat="48.4558" lon="2.4459">
        <ele>122.91</ele>
        <time>2017-07-02T10:10:45Z</time>
      </trkpt>
      <trkpt lat="48.45588" lon="2.44587">
        <ele>123.6</ele>
        <time>2017-07-02T10:10:47Z</time>
      </trkpt>
      <trkpt lat="48.45596" lon="2.44585">
        <ele>123.5</ele>
        <time>2017-07-02T10:10:49Z</time>
      </trkpt>
      <trkpt lat="48.45604" lon="2.44584">
        <ele>123.24</ele>
        <time>2017-07-02T10:10:51Z</time>
      </trkpt>
      <trkpt lat="48.45613" lon="2.44586">
        <ele>122.65</ele>
        <time>2017-07-02T10:10:53Z</time>
      </trkpt>
      <trkpt lat="48.45628" lon="2.44606">
        <ele>119.96</ele>
        <time>2017-07-02T10:10:55Z</time>
      </trkpt>
      <trkpt lat="48.4564" lon="2.44613">
        <ele>117.81</ele>
        <time>2017-07-02T10:10:57Z</time>
      </trkpt>
      <trkpt lat="48.45648" lon="2.44616">
        <ele>117.22</ele>
        <time>2017-07-02T10:10:59Z</time>
      </trkpt>
      <trkpt lat="48.45654" lon="2.44615">
        <ele>116.82</ele>
        <time>2017-07-02T10:11:01Z</time>
      </trkpt>
      <trkpt lat="48.45661" lon="2.44615">
        <ele>116.4</ele>
        <time>2017-07-02T10:11:03Z</time>
      </trkpt>
      <trkpt lat="48.45666" lon="2.4461">
        <ele>116.07</ele>
        <time>2017-07-02T10:11:05Z</time>
      </trkpt>
      <trkpt lat="48.45672" lon="2.44606">
        <ele>115.96</ele>
        <time>2017-07-02T10:11:07Z</time>
      </trkpt>
      <trkpt lat="48.45674" lon="2.44596">
        <ele>116.14</ele>
        <time>2017-07-02T10:11:09Z</time>
      </trkpt>
      <trkpt lat="48.4568" lon="2.44585">
        <ele>116.04</ele>
        <time>2017-07-02T10:11:11Z</time>
      </trkpt>
      <trkpt lat="48.45682" lon="2.44571">
        <ele>116.07</ele>
        <time>2017-07-02T10:11:13Z</time>
      </trkpt>
      <trkpt lat="48.45686" lon="2.44561">
        <ele>115.9</ele>
        <time>2017-07-02T10:11:15Z</time>
      </trkpt>
      <trkpt lat="48.45701" lon="2.44543">
        <ele>114.44</ele>
        <time>2017-07-02T10:11:17Z</time>
      </trkpt>
      <trkpt lat="48.45709" lon="2.4453">
        <ele>112.92</ele>
        <time>2017-07-02T10:11:19Z</time>
      </trkpt>
      <trkpt lat="48.45714" lon="2.44516">
        <ele>112.27</ele>
        <time>2017-07-02T10:11:21Z</time>
      </trkpt>
      <trkpt lat="48.45717" lon="2.44504">
        <ele>112</ele>
        <time>2017-07-02T10:11:23Z</time>
      </trkpt>
      <trkpt lat="48.45726" lon="2.44498">
        <ele>109.66</ele>
        <time>2017-07-02T10:11:25Z</time>
      </trkpt>
      <trkpt lat="48.45734" lon="2.44485">
        <ele>107.14</ele>
        <time>2017-07-02T10:11:27Z</time>
      </trkpt>
      <trkpt lat="48.45742" lon="2.44468">
        <ele>104.94</ele>
        <time>2017-07-02T10:11:29Z</time>
      </trkpt>
      <trkpt lat="48.45747" lon="2.44451">
        <ele>103.57</ele>
        <time>2017-07-02T10:11:31Z</time>
      </trkpt>
      <trkpt lat="48.45754" lon="2.44436">
        <ele>102.7</ele>
        <time>2017-07-02T10:11:33Z</time>
      </trkpt>
      <trkpt lat="48.45755" lon="2.44427">
        <ele>102.67</ele>
        <time>2017-07-02T10:11:35Z</time>
      </trkpt>
      <trkpt lat="48.45756" lon="2.44414">
        <ele>102.71</ele>
        <time>2017-07-02T10:11:37Z</time>
      </trkpt>
      <trkpt lat="48.45761" lon="2.44392">
        <ele>103.46</ele>
        <time>2017-07-02T10:11:39Z</time>
      </trkpt>
      <trkpt lat="48.45767" lon="2.4437">
        <ele>104.49</ele>
        <time>2017-07-02T10:11:41Z</time>
      </trkpt>
      <trkpt lat="48.45778" lon="2.44349">
        <ele>105.4</ele>
        <time>2017-07-02T10:11:43Z</time>
      </trkpt>
      <trkpt lat="48.45784" lon="2.44338">
        <ele>104.68</ele>
        <time>2017-07-02T10:11:45Z</time>
      </trkpt>
      <trkpt lat="48.45799" lon="2.44329">
        <ele>102.62</ele>
        <time>2017-07-02T10:11:47Z</time>
      </trkpt>
      <trkpt lat="48.45804" lon="2.44319">
        <ele>102.9</ele>
        <time>2017-07-02T10:11:49Z</time>
      </trkpt>
      <trkpt lat="48.45817" lon="2.44301">
        <ele>102.36</ele>
        <time>2017-07-02T10:11:51Z</time>
      </trkpt>
      <trkpt lat="48.45824" lon="2.44285">
        <ele>102.12</ele>
        <time>2017-07-02T10:11:53Z</time>
      </trkpt>
      <trkpt lat="48.45832" lon="2.44273">
        <ele>101.5</ele>
        <time>2017-07-02T10:11:55Z</time>
      </trkpt>
      <trkpt lat="48.45836" lon="2.44257">
        <ele>102.17</ele>
        <time>2017-07-02T10:11:57Z</time>
      </trkpt>
      <trkpt lat="48.45844" lon="2.44241">
        <ele>101.2</ele>
        <time>2017-07-02T10:11:59Z</time>
      </trkpt>
      <trkpt lat="48.45855" lon="2.44231">
        <ele>99.15</ele>
        <time>2017-07-02T10:12:01Z</time>
      </trkpt>
      <trkpt lat="48.45865" lon="2.44214">
        <ele>97.32</ele>
        <time>2017-07-02T10:12:03Z</time>
      </trkpt>
      <trkpt lat="48.45874" lon="2.44201">
        <ele>95.83</ele>
        <time>2017-07-02T10:12:05Z</time>
      </trkpt>
      <trkpt lat="48.45884" lon="2.4419">
        <ele>94.35</ele>
        <time>2017-07-02T10:12:07Z</time>
      </trkpt>
      <trkpt lat="48.45896" lon="2.44177">
        <ele>92.62</ele>
        <time>2017-07-02T10:12:09Z</time>
      </trkpt>
      <trkpt lat="48.45906" lon="2.44167">
        <ele>91.21</ele>
        <time>2017-07-02T10:12:11Z</time>
      </trkpt>
      <trkpt lat="48.45918" lon="2.44156">
        <ele>89.52</ele>
        <time>2017-07-02T10:12:13Z</time>
      </trkpt>
      <trkpt lat="48.4593" lon="2.44146">
        <ele>88.67</ele>
        <time>2017-07-02T10:12:15Z</time>
      </trkpt>
      <trkpt lat="48.4594" lon="2.44134">
        <ele>88.32</ele>
        <time>2017-07-02T10:12:17Z</time>
      </trkpt>
      <trkpt lat="48.4595" lon="2.44125">
        <ele>88.81</ele>
        <time>2017-07-02T10:12:19Z</time>
      </trkpt>
      <trkpt lat="48.45957" lon="2.44112">
        <ele>89.02</ele>
        <time>2017-07-02T10:12:21Z</time>
      </trkpt>
      <trkpt lat="48.45966" lon="2.44099">
        <ele>87.41</ele>
        <time>2017-07-02T10:12:23Z</time>
      </trkpt>
      <trkpt lat="48.45972" lon="2.44088">
        <ele>85.69</ele>
        <time>2017-07-02T10:12:25Z</time>
      </trkpt>
      <trkpt lat="48.4598" lon="2.44079">
        <ele>85.49</ele>
        <time>2017-07-02T10:12:27Z</time>
      </trkpt>
      <trkpt lat="48.45985" lon="2.44066">
        <ele>84.63</ele>
        <time>2017-07-02T10:12:29Z</time>
      </trkpt>
      <trkpt lat="48.45993" lon="2.44053">
        <ele>83.16</ele>
        <time>2017-07-02T10:12:31Z</time>
      </trkpt>
      <trkpt lat="48.46002" lon="2.44041">
        <ele>82.69</ele>
        <time>2017-07-02T10:12:33Z</time>
      </trkpt>
      <trkpt lat="48.4601" lon="2.4403">
        <ele>83.25</ele>
        <time>2017-07-02T10:12:35Z</time>
      </trkpt>
      <trkpt lat="48.46021" lon="2.44021">
        <ele>84.08</ele>
        <time>2017-07-02T10:12:37Z</time>
      </trkpt>
      <trkpt lat="48.46029" lon="2.4401">
        <ele>84.47</ele>
        <time>2017-07-02T10:12:39Z</time>
      </trkpt>
      <trkpt lat="48.46036" lon="2.43996">
        <ele>84.33</ele>
        <time>2017-07-02T10:12:41Z</time>
      </trkpt>
      <trkpt lat="48.46041" lon="2.43981">
        <ele>83.63</ele>
        <time>2017-07-02T10:12:43Z</time>
      </trkpt>
      <trkpt lat="48.4605" lon="2.43968">
        <ele>83</ele>
        <time>2017-07-02T10:12:45Z</time>
      </trkpt>
      <trkpt lat="48.46056" lon="2.43952">
        <ele>83.01</ele>
        <time>2017-07-02T10:12:47Z</time>
      </trkpt>
      <trkpt lat="48.46064" lon="2.43938">
        <ele>83.16</ele>
        <time>2017-07-02T10:12:49Z</time>
      </trkpt>
      <trkpt lat="48.4607" lon="2.43925">
        <ele>82.58</ele>
        <time>2017-07-02T10:12:51Z</time>
      </trkpt>
      <trkpt lat="48.46076" lon="2.4391">
        <ele>81.91</ele>
        <time>2017-07-02T10:12:53Z</time>
      </trkpt>
      <trkpt lat="48.46082" lon="2.43897">
        <ele>80.87</ele>
        <time>2017-07-02T10:12:55Z</time>
      </trkpt>
      <trkpt lat="48.46087" lon="2.43879">
        <ele>79.86</ele>
        <time>2017-07-02T10:12:57Z</time>
      </trkpt>
      <trkpt lat="48.46094" lon="2.43864">
        <ele>79.62</ele>
        <time>2017-07-02T10:12:59Z</time>
      </trkpt>
      <trkpt lat="48.46097" lon="2.43852">
        <ele>79.34</ele>
        <time>2017-07-02T10:13:01Z</time>
      </trkpt>
      <trkpt lat="48.46104" lon="2.43836">
        <ele>78.62</ele>
        <time>2017-07-02T10:13:03Z</time>
      </trkpt>
      <trkpt lat="48.46112" lon="2.43816">
        <ele>77.96</ele>
        <time>2017-07-02T10:13:05Z</time>
      </trkpt>
      <trkpt lat="48.46116" lon="2.43801">
        <ele>77.62</ele>
        <time>2017-07-02T10:13:07Z</time>
      </trkpt>
      <trkpt lat="48.46123" lon="2.43787">
        <ele>77.13</ele>
        <time>2017-07-02T10:13:09Z</time>
      </trkpt>
      <trkpt lat="48.46129" lon="2.43773">
        <ele>76.79</ele>
        <time>2017-07-02T10:13:11Z</time>
      </trkpt>
      <trkpt lat="48.46136" lon="2.43761">
        <ele>76.28</ele>
        <time>2017-07-02T10:13:13Z</time>
      </trkpt>
      <trkpt lat="48.46141" lon="2.4375">
        <ele>75.83</ele>
        <time>2017-07-02T10:13:15Z</time>
      </trkpt>
      <trkpt lat="48.4615" lon="2.43738">
        <ele>75.63</ele>
        <time>2017-07-02T10:13:17Z</time>
      </trkpt>
      <trkpt lat="48.46159" lon="2.43727">
        <ele>75.39</ele>
        <time>2017-07-02T10:13:19Z</time>
      </trkpt>
      <trkpt lat="48.46167" lon="2.43716">
        <ele>75.45</ele>
        <time>2017-07-02T10:13:21Z</time>
      </trkpt>
      <trkpt lat="48.46176" lon="2.43706">
        <ele>75.98</ele>
        <time>2017-07-02T10:13:23Z</time>
      </trkpt>
      <trkpt lat="48.46184" lon="2.43697">
        <ele>76.28</ele>
        <time>2017-07-02T10:13:25Z</time>
      </trkpt>
      <trkpt lat="48.46192" lon="2.43692">
        <ele>76.51</ele>
        <time>2017-07-02T10:13:27Z</time>
      </trkpt>
      <trkpt lat="48.462" lon="2.43687">
        <ele>77.71</ele>
        <time>2017-07-02T10:13:29Z</time>
      </trkpt>
      <trkpt lat="48.46209" lon="2.43681">
        <ele>78.9</ele>
        <time>2017-07-02T10:13:31Z</time>
      </trkpt>
      <trkpt lat="48.46217" lon="2.43678">
        <ele>79.66</ele>
        <time>2017-07-02T10:13:33Z</time>
      </trkpt>
      <trkpt lat="48.46226" lon="2.43672">
        <ele>80.39</ele>
        <time>2017-07-02T10:13:35Z</time>
      </trkpt>
      <trkpt lat="48.4623" lon="2.43668">
        <ele>80.62</ele>
        <time>2017-07-02T10:13:37Z</time>
      </trkpt>
      <trkpt lat="48.46233" lon="2.4366">
        <ele>81.06</ele>
        <time>2017-07-02T10:13:39Z</time>
      </trkpt>
      <trkpt lat="48.46232" lon="2.43652">
        <ele>81.72</ele>
        <time>2017-07-02T10:13:41Z</time>
      </trkpt>
      <trkpt lat="48.4623" lon="2.43645">
        <ele>82.28</ele>
        <time>2017-07-02T10:13:43Z</time>
      </trkpt>
      <trkpt lat="48.46224" lon="2.43637">
        <ele>83.11</ele>
        <time>2017-07-02T10:13:45Z</time>
      </trkpt>
      <trkpt lat="48.46218" lon="2.43629">
        <ele>84.33</ele>
        <time>2017-07-02T10:13:47Z</time>
      </trkpt>
      <trkpt lat="48.46212" lon="2.43625">
        <ele>85.23</ele>
        <time>2017-07-02T10:13:49Z</time>
      </trkpt>
      <trkpt lat="48.46209" lon="2.4362">
        <ele>86.02</ele>
        <time>2017-07-02T10:13:51Z</time>
      </trkpt>
      <trkpt lat="48.46204" lon="2.43609">
        <ele>87.36</ele>
        <time>2017-07-02T10:13:55Z</time>
      </trkpt>
      <trkpt lat="48.46201" lon="2.43603">
        <ele>87.84</ele>
        <time>2017-07-02T10:13:57Z</time>
      </trkpt>
      <trkpt lat="48.46194" lon="2.43594">
        <ele>88.62</ele>
        <time>2017-07-02T10:14:01Z</time>
      </trkpt>
      <trkpt lat="48.46191" lon="2.43589">
        <ele>88.89</ele>
        <time>2017-07-02T10:14:03Z</time>
      </trkpt>
      <trkpt lat="48.46188" lon="2.43583">
        <ele>89.25</ele>
        <time>2017-07-02T10:14:05Z</time>
      </trkpt>
      <trkpt lat="48.46184" lon="2.43578">
        <ele>89.77</ele>
        <time>2017-07-02T10:14:07Z</time>
      </trkpt>
      <trkpt lat="48.46181" lon="2.43572">
        <ele>90.44</ele>
        <time>2017-07-02T10:14:09Z</time>
      </trkpt>
      <trkpt lat="48.46178" lon="2.43567">
        <ele>91.2</ele>
        <time>2017-07-02T10:14:11Z</time>
      </trkpt>
      <trkpt lat="48.46175" lon="2.43561">
        <ele>92.13</ele>
        <time>2017-07-02T10:14:13Z</time>
      </trkpt>
      <trkpt lat="48.4617" lon="2.43553">
        <ele>93.58</ele>
        <time>2017-07-02T10:14:17Z</time>
      </trkpt>
      <trkpt lat="48.46167" lon="2.43544">
        <ele>93.97</ele>
        <time>2017-07-02T10:14:21Z</time>
      </trkpt>
      <trkpt lat="48.46161" lon="2.43533">
        <ele>93.14</ele>
        <time>2017-07-02T10:14:25Z</time>
      </trkpt>
      <trkpt lat="48.46158" lon="2.43528">
        <ele>92.69</ele>
        <time>2017-07-02T10:14:27Z</time>
      </trkpt>
      <trkpt lat="48.46155" lon="2.43515">
        <ele>92.87</ele>
        <time>2017-07-02T10:14:31Z</time>
      </trkpt>
      <trkpt lat="48.46153" lon="2.43506">
        <ele>93.19</ele>
        <time>2017-07-02T10:14:33Z</time>
      </trkpt>
      <trkpt lat="48.46149" lon="2.43499">
        <ele>93.36</ele>
        <time>2017-07-02T10:14:35Z</time>
      </trkpt>
      <trkpt lat="48.46145" lon="2.43489">
        <ele>93</ele>
        <time>2017-07-02T10:14:39Z</time>
      </trkpt>
      <trkpt lat="48.46143" lon="2.43481">
        <ele>92.67</ele>
        <time>2017-07-02T10:14:41Z</time>
      </trkpt>
      <trkpt lat="48.4614" lon="2.43475">
        <ele>92.24</ele>
        <time>2017-07-02T10:14:43Z</time>
      </trkpt>
      <trkpt lat="48.46135" lon="2.43464">
        <ele>92.61</ele>
        <time>2017-07-02T10:14:47Z</time>
      </trkpt>
      <trkpt lat="48.46131" lon="2.43459">
        <ele>92.82</ele>
        <time>2017-07-02T10:14:49Z</time>
      </trkpt>
      <trkpt lat="48.46124" lon="2.43449">
        <ele>92.88</ele>
        <time>2017-07-02T10:14:53Z</time>
      </trkpt>
      <trkpt lat="48.4612" lon="2.43443">
        <ele>92.71</ele>
        <time>2017-07-02T10:14:55Z</time>
      </trkpt>
      <trkpt lat="48.46115" lon="2.43431">
        <ele>92.73</ele>
        <time>2017-07-02T10:14:59Z</time>
      </trkpt>
      <trkpt lat="48.46112" lon="2.43425">
        <ele>92.74</ele>
        <time>2017-07-02T10:15:01Z</time>
      </trkpt>
      <trkpt lat="48.46108" lon="2.43421">
        <ele>92.65</ele>
        <time>2017-07-02T10:15:03Z</time>
      </trkpt>
      <trkpt lat="48.46104" lon="2.43412">
        <ele>92.62</ele>
        <time>2017-07-02T10:15:07Z</time>
      </trkpt>
      <trkpt lat="48.46098" lon="2.43404">
        <ele>92.46</ele>
        <time>2017-07-02T10:15:11Z</time>
      </trkpt>
      <trkpt lat="48.46095" lon="2.43394">
        <ele>92.65</ele>
        <time>2017-07-02T10:15:15Z</time>
      </trkpt>
      <trkpt lat="48.4609" lon="2.43384">
        <ele>92.84</ele>
        <time>2017-07-02T10:15:19Z</time>
      </trkpt>
      <trkpt lat="48.46089" lon="2.43376">
        <ele>93.4</ele>
        <time>2017-07-02T10:15:23Z</time>
      </trkpt>
      <trkpt lat="48.46094" lon="2.43371">
        <ele>94.06</ele>
        <time>2017-07-02T10:15:27Z</time>
      </trkpt>
      <trkpt lat="48.46101" lon="2.43364">
        <ele>95.09</ele>
        <time>2017-07-02T10:15:31Z</time>
      </trkpt>
      <trkpt lat="48.46106" lon="2.43361">
        <ele>95.6</ele>
        <time>2017-07-02T10:15:33Z</time>
      </trkpt>
      <trkpt lat="48.46112" lon="2.43355">
        <ele>96.64</ele>
        <time>2017-07-02T10:15:37Z</time>
      </trkpt>
      <trkpt lat="48.46115" lon="2.4335">
        <ele>97.18</ele>
        <time>2017-07-02T10:15:39Z</time>
      </trkpt>
      <trkpt lat="48.46121" lon="2.43345">
        <ele>97.78</ele>
        <time>2017-07-02T10:15:43Z</time>
      </trkpt>
      <trkpt lat="48.46126" lon="2.43339">
        <ele>98.39</ele>
        <time>2017-07-02T10:15:47Z</time>
      </trkpt>
      <trkpt lat="48.4613" lon="2.43334">
        <ele>98.97</ele>
        <time>2017-07-02T10:15:51Z</time>
      </trkpt>
      <trkpt lat="48.46126" lon="2.4333">
        <ele>99.26</ele>
        <time>2017-07-02T10:15:55Z</time>
      </trkpt>
      <trkpt lat="48.46128" lon="2.43337">
        <ele>98.56</ele>
        <time>2017-07-02T10:16:01Z</time>
      </trkpt>
      <trkpt lat="48.46133" lon="2.43331">
        <ele>99.25</ele>
        <time>2017-07-02T10:16:05Z</time>
      </trkpt>
      <trkpt lat="48.4613" lon="2.43337">
        <ele>98.63</ele>
        <time>2017-07-02T10:16:13Z</time>
      </trkpt>
      <trkpt lat="48.46124" lon="2.43336">
        <ele>98.71</ele>
        <time>2017-07-02T10:16:17Z</time>
      </trkpt>
      <trkpt lat="48.46129" lon="2.43331">
        <ele>99.19</ele>
        <time>2017-07-02T10:16:21Z</time>
      </trkpt>
      <trkpt lat="48.4613" lon="2.43341">
        <ele>98.2</ele>
        <time>2017-07-02T10:16:25Z</time>
      </trkpt>
      <trkpt lat="48.46124" lon="2.43346">
        <ele>97.67</ele>
        <time>2017-07-02T10:16:27Z</time>
      </trkpt>
      <trkpt lat="48.46121" lon="2.43351">
        <ele>97.12</ele>
        <time>2017-07-02T10:16:29Z</time>
      </trkpt>
      <trkpt lat="48.46112" lon="2.43357">
        <ele>96.43</ele>
        <time>2017-07-02T10:16:31Z</time>
      </trkpt>
      <trkpt lat="48.46106" lon="2.43361">
        <ele>95.6</ele>
        <time>2017-07-02T10:16:33Z</time>
      </trkpt>
      <trkpt lat="48.461" lon="2.43364">
        <ele>94.96</ele>
        <time>2017-07-02T10:16:37Z</time>
      </trkpt>
      <trkpt lat="48.46106" lon="2.43356">
        <ele>96.2</ele>
        <time>2017-07-02T10:16:45Z</time>
      </trkpt>
      <trkpt lat="48.46109" lon="2.43351">
        <ele>96.95</ele>
        <time>2017-07-02T10:16:47Z</time>
      </trkpt>
      <trkpt lat="48.46114" lon="2.43346">
        <ele>97.6</ele>
        <time>2017-07-02T10:16:51Z</time>
      </trkpt>
      <trkpt lat="48.46121" lon="2.43338">
        <ele>98.48</ele>
        <time>2017-07-02T10:16:55Z</time>
      </trkpt>
      <trkpt lat="48.46124" lon="2.43329">
        <ele>99.42</ele>
        <time>2017-07-02T10:16:59Z</time>
      </trkpt>
      <trkpt lat="48.46123" lon="2.43321">
        <ele>100.06</ele>
        <time>2017-07-02T10:17:03Z</time>
      </trkpt>
      <trkpt lat="48.46117" lon="2.43318">
        <ele>100.24</ele>
        <time>2017-07-02T10:17:07Z</time>
      </trkpt>
      <trkpt lat="48.46111" lon="2.43316">
        <ele>100.24</ele>
        <time>2017-07-02T10:17:11Z</time>
      </trkpt>
      <trkpt lat="48.46106" lon="2.4331">
        <ele>100.94</ele>
        <time>2017-07-02T10:17:15Z</time>
      </trkpt>
      <trkpt lat="48.461" lon="2.43303">
        <ele>102.19</ele>
        <time>2017-07-02T10:17:19Z</time>
      </trkpt>
      <trkpt lat="48.46095" lon="2.43298">
        <ele>103.32</ele>
        <time>2017-07-02T10:17:23Z</time>
      </trkpt>
      <trkpt lat="48.46089" lon="2.4329">
        <ele>104.98</ele>
        <time>2017-07-02T10:17:27Z</time>
      </trkpt>
      <trkpt lat="48.46083" lon="2.43286">
        <ele>105.85</ele>
        <time>2017-07-02T10:17:31Z</time>
      </trkpt>
      <trkpt lat="48.46022" lon="2.43238">
        <ele>109.43</ele>
        <time>2017-07-02T10:18:08Z</time>
      </trkpt>
      <trkpt lat="48.46024" lon="2.43231">
        <ele>110.09</ele>
        <time>2017-07-02T10:18:10Z</time>
      </trkpt>
      <trkpt lat="48.46023" lon="2.43221">
        <ele>111.21</ele>
        <time>2017-07-02T10:18:13Z</time>
      </trkpt>
      <trkpt lat="48.4602" lon="2.43211">
        <ele>112.56</ele>
        <time>2017-07-02T10:18:17Z</time>
      </trkpt>
      <trkpt lat="48.46016" lon="2.43203">
        <ele>113.71</ele>
        <time>2017-07-02T10:18:21Z</time>
      </trkpt>
      <trkpt lat="48.46013" lon="2.43194">
        <ele>115</ele>
        <time>2017-07-02T10:18:25Z</time>
      </trkpt>
      <trkpt lat="48.46009" lon="2.43187">
        <ele>116.09</ele>
        <time>2017-07-02T10:18:29Z</time>
      </trkpt>
      <trkpt lat="48.46003" lon="2.43181">
        <ele>117.03</ele>
        <time>2017-07-02T10:18:33Z</time>
      </trkpt>
      <trkpt lat="48.45997" lon="2.43176">
        <ele>117.47</ele>
        <time>2017-07-02T10:18:37Z</time>
      </trkpt>
      <trkpt lat="48.45992" lon="2.4317">
        <ele>118.17</ele>
        <time>2017-07-02T10:18:41Z</time>
      </trkpt>
      <trkpt lat="48.45987" lon="2.43164">
        <ele>118.81</ele>
        <time>2017-07-02T10:18:45Z</time>
      </trkpt>
      <trkpt lat="48.45981" lon="2.43158">
        <ele>119.22</ele>
        <time>2017-07-02T10:18:49Z</time>
      </trkpt>
      <trkpt lat="48.45975" lon="2.43152">
        <ele>119.7</ele>
        <time>2017-07-02T10:18:53Z</time>
      </trkpt>
      <trkpt lat="48.45969" lon="2.43145">
        <ele>120.08</ele>
        <time>2017-07-02T10:18:57Z</time>
      </trkpt>
      <trkpt lat="48.45963" lon="2.43138">
        <ele>120.42</ele>
        <time>2017-07-02T10:19:01Z</time>
      </trkpt>
      <trkpt lat="48.45958" lon="2.43131">
        <ele>120.23</ele>
        <time>2017-07-02T10:19:05Z</time>
      </trkpt>
      <trkpt lat="48.45952" lon="2.43126">
        <ele>119.75</ele>
        <time>2017-07-02T10:19:09Z</time>
      </trkpt>
      <trkpt lat="48.45946" lon="2.43119">
        <ele>119.15</ele>
        <time>2017-07-02T10:19:13Z</time>
      </trkpt>
      <trkpt lat="48.45939" lon="2.43113">
        <ele>118.99</ele>
        <time>2017-07-02T10:19:17Z</time>
      </trkpt>
      <trkpt lat="48.45935" lon="2.43109">
        <ele>119.02</ele>
        <time>2017-07-02T10:19:19Z</time>
      </trkpt>
      <trkpt lat="48.45932" lon="2.43105">
        <ele>119.02</ele>
        <time>2017-07-02T10:19:21Z</time>
      </trkpt>
      <trkpt lat="48.45929" lon="2.431">
        <ele>118.94</ele>
        <time>2017-07-02T10:19:23Z</time>
      </trkpt>
      <trkpt lat="48.45922" lon="2.43092">
        <ele>118.59</ele>
        <time>2017-07-02T10:19:27Z</time>
      </trkpt>
      <trkpt lat="48.45916" lon="2.43085">
        <ele>118.08</ele>
        <time>2017-07-02T10:19:31Z</time>
      </trkpt>
      <trkpt lat="48.4591" lon="2.43078">
        <ele>118.49</ele>
        <time>2017-07-02T10:19:35Z</time>
      </trkpt>
      <trkpt lat="48.45904" lon="2.43071">
        <ele>118.94</ele>
        <time>2017-07-02T10:19:39Z</time>
      </trkpt>
      <trkpt lat="48.45898" lon="2.43064">
        <ele>119.33</ele>
        <time>2017-07-02T10:19:43Z</time>
      </trkpt>
      <trkpt lat="48.45894" lon="2.43054">
        <ele>119.64</ele>
        <time>2017-07-02T10:19:47Z</time>
      </trkpt>
      <trkpt lat="48.45888" lon="2.43047">
        <ele>120.32</ele>
        <time>2017-07-02T10:19:51Z</time>
      </trkpt>
      <trkpt lat="48.4588" lon="2.43049">
        <ele>120.66</ele>
        <time>2017-07-02T10:19:55Z</time>
      </trkpt>
      <trkpt lat="48.45875" lon="2.43051">
        <ele>120.71</ele>
        <time>2017-07-02T10:19:57Z</time>
      </trkpt>
      <trkpt lat="48.45871" lon="2.43055">
        <ele>120.71</ele>
        <time>2017-07-02T10:19:59Z</time>
      </trkpt>
      <trkpt lat="48.45863" lon="2.43059">
        <ele>120.94</ele>
        <time>2017-07-02T10:20:01Z</time>
      </trkpt>
      <trkpt lat="48.45854" lon="2.43064">
        <ele>120.83</ele>
        <time>2017-07-02T10:20:03Z</time>
      </trkpt>
      <trkpt lat="48.45846" lon="2.43068">
        <ele>120.71</ele>
        <time>2017-07-02T10:20:05Z</time>
      </trkpt>
      <trkpt lat="48.45839" lon="2.43073">
        <ele>120.69</ele>
        <time>2017-07-02T10:20:07Z</time>
      </trkpt>
      <trkpt lat="48.45833" lon="2.43077">
        <ele>120.73</ele>
        <time>2017-07-02T10:20:09Z</time>
      </trkpt>
      <trkpt lat="48.45827" lon="2.43082">
        <ele>120.45</ele>
        <time>2017-07-02T10:20:11Z</time>
      </trkpt>
      <trkpt lat="48.45821" lon="2.43086">
        <ele>119.92</ele>
        <time>2017-07-02T10:20:13Z</time>
      </trkpt>
      <trkpt lat="48.45815" lon="2.4309">
        <ele>119.35</ele>
        <time>2017-07-02T10:20:15Z</time>
      </trkpt>
      <trkpt lat="48.45808" lon="2.43092">
        <ele>118.84</ele>
        <time>2017-07-02T10:20:17Z</time>
      </trkpt>
      <trkpt lat="48.45802" lon="2.43095">
        <ele>118.43</ele>
        <time>2017-07-02T10:20:19Z</time>
      </trkpt>
      <trkpt lat="48.45796" lon="2.43099">
        <ele>118.15</ele>
        <time>2017-07-02T10:20:21Z</time>
      </trkpt>
      <trkpt lat="48.4579" lon="2.43102">
        <ele>117.97</ele>
        <time>2017-07-02T10:20:23Z</time>
      </trkpt>
      <trkpt lat="48.45784" lon="2.43106">
        <ele>117.9</ele>
        <time>2017-07-02T10:20:25Z</time>
      </trkpt>
      <trkpt lat="48.45778" lon="2.43109">
        <ele>117.92</ele>
        <time>2017-07-02T10:20:27Z</time>
      </trkpt>
      <trkpt lat="48.45772" lon="2.43112">
        <ele>117.39</ele>
        <time>2017-07-02T10:20:29Z</time>
      </trkpt>
      <trkpt lat="48.45766" lon="2.43115">
        <ele>116.87</ele>
        <time>2017-07-02T10:20:31Z</time>
      </trkpt>
      <trkpt lat="48.4576" lon="2.43117">
        <ele>116.58</ele>
        <time>2017-07-02T10:20:33Z</time>
      </trkpt>
      <trkpt lat="48.45754" lon="2.4312">
        <ele>116.47</ele>
        <time>2017-07-02T10:20:35Z</time>
      </trkpt>
      <trkpt lat="48.45748" lon="2.43123">
        <ele>116.69</ele>
        <time>2017-07-02T10:20:37Z</time>
      </trkpt>
      <trkpt lat="48.45742" lon="2.43126">
        <ele>117.25</ele>
        <time>2017-07-02T10:20:39Z</time>
      </trkpt>
      <trkpt lat="48.45736" lon="2.4313">
        <ele>117.82</ele>
        <time>2017-07-02T10:20:41Z</time>
      </trkpt>
      <trkpt lat="48.45731" lon="2.43134">
        <ele>118.38</ele>
        <time>2017-07-02T10:20:43Z</time>
      </trkpt>
      <trkpt lat="48.45726" lon="2.43138">
        <ele>118.9</ele>
        <time>2017-07-02T10:20:45Z</time>
      </trkpt>
      <trkpt lat="48.4572" lon="2.43142">
        <ele>118.74</ele>
        <time>2017-07-02T10:20:47Z</time>
      </trkpt>
      <trkpt lat="48.45715" lon="2.43146">
        <ele>118.27</ele>
        <time>2017-07-02T10:20:49Z</time>
      </trkpt>
      <trkpt lat="48.45709" lon="2.4315">
        <ele>117.83</ele>
        <time>2017-07-02T10:20:51Z</time>
      </trkpt>
      <trkpt lat="48.45703" lon="2.43153">
        <ele>117.44</ele>
        <time>2017-07-02T10:20:53Z</time>
      </trkpt>
      <trkpt lat="48.45696" lon="2.43157">
        <ele>117.09</ele>
        <time>2017-07-02T10:20:55Z</time>
      </trkpt>
      <trkpt lat="48.4569" lon="2.4316">
        <ele>116.57</ele>
        <time>2017-07-02T10:20:57Z</time>
      </trkpt>
      <trkpt lat="48.45684" lon="2.43162">
        <ele>115.95</ele>
        <time>2017-07-02T10:20:59Z</time>
      </trkpt>
      <trkpt lat="48.45678" lon="2.43165">
        <ele>115.34</ele>
        <time>2017-07-02T10:21:01Z</time>
      </trkpt>
      <trkpt lat="48.45673" lon="2.43167">
        <ele>114.72</ele>
        <time>2017-07-02T10:21:03Z</time>
      </trkpt>
      <trkpt lat="48.45668" lon="2.4317">
        <ele>114.45</ele>
        <time>2017-07-02T10:21:05Z</time>
      </trkpt>
      <trkpt lat="48.45663" lon="2.43172">
        <ele>114.69</ele>
        <time>2017-07-02T10:21:07Z</time>
      </trkpt>
      <trkpt lat="48.45658" lon="2.43175">
        <ele>115.03</ele>
        <time>2017-07-02T10:21:09Z</time>
      </trkpt>
      <trkpt lat="48.45653" lon="2.43178">
        <ele>115.31</ele>
        <time>2017-07-02T10:21:11Z</time>
      </trkpt>
      <trkpt lat="48.45649" lon="2.43182">
        <ele>115.58</ele>
        <time>2017-07-02T10:21:13Z</time>
      </trkpt>
      <trkpt lat="48.45644" lon="2.43185">
        <ele>115.72</ele>
        <time>2017-07-02T10:21:15Z</time>
      </trkpt>
      <trkpt lat="48.45639" lon="2.43188">
        <ele>115.75</ele>
        <time>2017-07-02T10:21:17Z</time>
      </trkpt>
      <trkpt lat="48.45633" lon="2.43191">
        <ele>115.56</ele>
        <time>2017-07-02T10:21:19Z</time>
      </trkpt>
      <trkpt lat="48.45628" lon="2.43194">
        <ele>115.2</ele>
        <time>2017-07-02T10:21:21Z</time>
      </trkpt>
      <trkpt lat="48.45622" lon="2.43198">
        <ele>114.97</ele>
        <time>2017-07-02T10:21:23Z</time>
      </trkpt>
      <trkpt lat="48.45616" lon="2.43202">
        <ele>115</ele>
        <time>2017-07-02T10:21:25Z</time>
      </trkpt>
      <trkpt lat="48.4561" lon="2.43207">
        <ele>115.47</ele>
        <time>2017-07-02T10:21:27Z</time>
      </trkpt>
      <trkpt lat="48.45604" lon="2.43211">
        <ele>116.55</ele>
        <time>2017-07-02T10:21:29Z</time>
      </trkpt>
      <trkpt lat="48.45597" lon="2.43215">
        <ele>117.49</ele>
        <time>2017-07-02T10:21:31Z</time>
      </trkpt>
      <trkpt lat="48.45592" lon="2.4322">
        <ele>118.28</ele>
        <time>2017-07-02T10:21:33Z</time>
      </trkpt>
      <trkpt lat="48.45586" lon="2.43225">
        <ele>118.91</ele>
        <time>2017-07-02T10:21:35Z</time>
      </trkpt>
      <trkpt lat="48.4558" lon="2.43231">
        <ele>119.75</ele>
        <time>2017-07-02T10:21:37Z</time>
      </trkpt>
      <trkpt lat="48.45574" lon="2.43236">
        <ele>120.64</ele>
        <time>2017-07-02T10:21:39Z</time>
      </trkpt>
      <trkpt lat="48.45569" lon="2.43243">
        <ele>121.45</ele>
        <time>2017-07-02T10:21:41Z</time>
      </trkpt>
      <trkpt lat="48.45563" lon="2.43249">
        <ele>122.18</ele>
        <time>2017-07-02T10:21:43Z</time>
      </trkpt>
      <trkpt lat="48.45558" lon="2.43255">
        <ele>122.76</ele>
        <time>2017-07-02T10:21:45Z</time>
      </trkpt>
      <trkpt lat="48.45553" lon="2.43261">
        <ele>123.19</ele>
        <time>2017-07-02T10:21:47Z</time>
      </trkpt>
      <trkpt lat="48.45548" lon="2.43268">
        <ele>123.52</ele>
        <time>2017-07-02T10:21:49Z</time>
      </trkpt>
      <trkpt lat="48.45544" lon="2.43274">
        <ele>123.85</ele>
        <time>2017-07-02T10:21:51Z</time>
      </trkpt>
      <trkpt lat="48.45539" lon="2.4328">
        <ele>124.15</ele>
        <time>2017-07-02T10:21:53Z</time>
      </trkpt>
      <trkpt lat="48.45535" lon="2.43285">
        <ele>124.44</ele>
        <time>2017-07-02T10:21:55Z</time>
      </trkpt>
      <trkpt lat="48.4553" lon="2.43291">
        <ele>124.82</ele>
        <time>2017-07-02T10:21:57Z</time>
      </trkpt>
      <trkpt lat="48.45525" lon="2.43296">
        <ele>125.38</ele>
        <time>2017-07-02T10:21:59Z</time>
      </trkpt>
      <trkpt lat="48.4552" lon="2.43301">
        <ele>126.17</ele>
        <time>2017-07-02T10:22:01Z</time>
      </trkpt>
      <trkpt lat="48.45515" lon="2.43306">
        <ele>126.89</ele>
        <time>2017-07-02T10:22:03Z</time>
      </trkpt>
      <trkpt lat="48.45509" lon="2.4331">
        <ele>127.7</ele>
        <time>2017-07-02T10:22:05Z</time>
      </trkpt>
      <trkpt lat="48.45504" lon="2.43315">
        <ele>128.41</ele>
        <time>2017-07-02T10:22:07Z</time>
      </trkpt>
      <trkpt lat="48.455" lon="2.4332">
        <ele>129.01</ele>
        <time>2017-07-02T10:22:09Z</time>
      </trkpt>
      <trkpt lat="48.45495" lon="2.43325">
        <ele>129.23</ele>
        <time>2017-07-02T10:22:11Z</time>
      </trkpt>
      <trkpt lat="48.4549" lon="2.4333">
        <ele>129.39</ele>
        <time>2017-07-02T10:22:13Z</time>
      </trkpt>
      <trkpt lat="48.45485" lon="2.43334">
        <ele>129.51</ele>
        <time>2017-07-02T10:22:15Z</time>
      </trkpt>
      <trkpt lat="48.4548" lon="2.43339">
        <ele>129.54</ele>
        <time>2017-07-02T10:22:17Z</time>
      </trkpt>
      <trkpt lat="48.45475" lon="2.43343">
        <ele>129.56</ele>
        <time>2017-07-02T10:22:19Z</time>
      </trkpt>
      <trkpt lat="48.45471" lon="2.43348">
        <ele>129.56</ele>
        <time>2017-07-02T10:22:21Z</time>
      </trkpt>
      <trkpt lat="48.45467" lon="2.43354">
        <ele>129.67</ele>
        <time>2017-07-02T10:22:23Z</time>
      </trkpt>
      <trkpt lat="48.45462" lon="2.43359">
        <ele>129.82</ele>
        <time>2017-07-02T10:22:25Z</time>
      </trkpt>
      <trkpt lat="48.45457" lon="2.43363">
        <ele>129.98</ele>
        <time>2017-07-02T10:22:27Z</time>
      </trkpt>
      <trkpt lat="48.45452" lon="2.43367">
        <ele>130.03</ele>
        <time>2017-07-02T10:22:29Z</time>
      </trkpt>
      <trkpt lat="48.45447" lon="2.4337">
        <ele>130.17</ele>
        <time>2017-07-02T10:22:31Z</time>
      </trkpt>
      <trkpt lat="48.45443" lon="2.43374">
        <ele>130.27</ele>
        <time>2017-07-02T10:22:33Z</time>
      </trkpt>
      <trkpt lat="48.45383" lon="2.43443">
        <ele>134.89</ele>
        <time>2017-07-02T10:23:06Z</time>
      </trkpt>
      <trkpt lat="48.45357" lon="2.43476">
        <ele>135.98</ele>
        <time>2017-07-02T10:23:09Z</time>
      </trkpt>
      <trkpt lat="48.45354" lon="2.43482">
        <ele>136.73</ele>
        <time>2017-07-02T10:23:11Z</time>
      </trkpt>
      <trkpt lat="48.4535" lon="2.43488">
        <ele>137.39</ele>
        <time>2017-07-02T10:23:13Z</time>
      </trkpt>
      <trkpt lat="48.45347" lon="2.43495">
        <ele>137.9</ele>
        <time>2017-07-02T10:23:15Z</time>
      </trkpt>
      <trkpt lat="48.45342" lon="2.43505">
        <ele>138.33</ele>
        <time>2017-07-02T10:23:17Z</time>
      </trkpt>
      <trkpt lat="48.45337" lon="2.43514">
        <ele>138.61</ele>
        <time>2017-07-02T10:23:19Z</time>
      </trkpt>
      <trkpt lat="48.45331" lon="2.43525">
        <ele>138.51</ele>
        <time>2017-07-02T10:23:21Z</time>
      </trkpt>
      <trkpt lat="48.45326" lon="2.43535">
        <ele>137.69</ele>
        <time>2017-07-02T10:23:23Z</time>
      </trkpt>
      <trkpt lat="48.45321" lon="2.43545">
        <ele>136.81</ele>
        <time>2017-07-02T10:23:25Z</time>
      </trkpt>
      <trkpt lat="48.45315" lon="2.43553">
        <ele>135.99</ele>
        <time>2017-07-02T10:23:27Z</time>
      </trkpt>
      <trkpt lat="48.4531" lon="2.43562">
        <ele>135.39</ele>
        <time>2017-07-02T10:23:29Z</time>
      </trkpt>
      <trkpt lat="48.45305" lon="2.43573">
        <ele>134.84</ele>
        <time>2017-07-02T10:23:31Z</time>
      </trkpt>
      <trkpt lat="48.45298" lon="2.43582">
        <ele>134.65</ele>
        <time>2017-07-02T10:23:33Z</time>
      </trkpt>
      <trkpt lat="48.4529" lon="2.43591">
        <ele>135.11</ele>
        <time>2017-07-02T10:23:35Z</time>
      </trkpt>
      <trkpt lat="48.45281" lon="2.436">
        <ele>135.74</ele>
        <time>2017-07-02T10:23:37Z</time>
      </trkpt>
      <trkpt lat="48.45272" lon="2.43608">
        <ele>135.23</ele>
        <time>2017-07-02T10:23:39Z</time>
      </trkpt>
      <trkpt lat="48.45265" lon="2.43613">
        <ele>133.97</ele>
        <time>2017-07-02T10:23:41Z</time>
      </trkpt>
      <trkpt lat="48.45259" lon="2.43619">
        <ele>132.65</ele>
        <time>2017-07-02T10:23:43Z</time>
      </trkpt>
      <trkpt lat="48.45253" lon="2.43625">
        <ele>131.4</ele>
        <time>2017-07-02T10:23:45Z</time>
      </trkpt>
      <trkpt lat="48.45246" lon="2.4363">
        <ele>129.05</ele>
        <time>2017-07-02T10:23:47Z</time>
      </trkpt>
      <trkpt lat="48.45238" lon="2.43635">
        <ele>126</ele>
        <time>2017-07-02T10:23:49Z</time>
      </trkpt>
      <trkpt lat="48.45231" lon="2.43639">
        <ele>123.07</ele>
        <time>2017-07-02T10:23:51Z</time>
      </trkpt>
      <trkpt lat="48.45225" lon="2.43644">
        <ele>120.68</ele>
        <time>2017-07-02T10:23:53Z</time>
      </trkpt>
      <trkpt lat="48.45216" lon="2.43653">
        <ele>117.86</ele>
        <time>2017-07-02T10:23:55Z</time>
      </trkpt>
      <trkpt lat="48.45209" lon="2.4366">
        <ele>115.51</ele>
        <time>2017-07-02T10:23:57Z</time>
      </trkpt>
      <trkpt lat="48.45202" lon="2.43669">
        <ele>113.06</ele>
        <time>2017-07-02T10:23:59Z</time>
      </trkpt>
      <trkpt lat="48.4519" lon="2.43692">
        <ele>109.95</ele>
        <time>2017-07-02T10:24:01Z</time>
      </trkpt>
      <trkpt lat="48.45187" lon="2.43708">
        <ele>109.94</ele>
        <time>2017-07-02T10:24:03Z</time>
      </trkpt>
      <trkpt lat="48.45185" lon="2.43721">
        <ele>109.96</ele>
        <time>2017-07-02T10:24:05Z</time>
      </trkpt>
      <trkpt lat="48.45175" lon="2.43729">
        <ele>108.73</ele>
        <time>2017-07-02T10:24:07Z</time>
      </trkpt>
      <trkpt lat="48.45172" lon="2.43741">
        <ele>107.75</ele>
        <time>2017-07-02T10:24:09Z</time>
      </trkpt>
      <trkpt lat="48.4517" lon="2.43753">
        <ele>106.63</ele>
        <time>2017-07-02T10:24:11Z</time>
      </trkpt>
      <trkpt lat="48.45167" lon="2.43766">
        <ele>105.6</ele>
        <time>2017-07-02T10:24:13Z</time>
      </trkpt>
      <trkpt lat="48.45164" lon="2.43779">
        <ele>104.97</ele>
        <time>2017-07-02T10:24:15Z</time>
      </trkpt>
      <trkpt lat="48.45161" lon="2.43792">
        <ele>104.6</ele>
        <time>2017-07-02T10:24:17Z</time>
      </trkpt>
      <trkpt lat="48.45159" lon="2.43807">
        <ele>104.22</ele>
        <time>2017-07-02T10:24:19Z</time>
      </trkpt>
      <trkpt lat="48.4515" lon="2.43817">
        <ele>104.19</ele>
        <time>2017-07-02T10:24:21Z</time>
      </trkpt>
      <trkpt lat="48.45144" lon="2.43827">
        <ele>104.03</ele>
        <time>2017-07-02T10:24:23Z</time>
      </trkpt>
      <trkpt lat="48.4514" lon="2.43833">
        <ele>103.99</ele>
        <time>2017-07-02T10:24:25Z</time>
      </trkpt>
      <trkpt lat="48.45135" lon="2.43843">
        <ele>102.75</ele>
        <time>2017-07-02T10:24:27Z</time>
      </trkpt>
      <trkpt lat="48.45132" lon="2.43863">
        <ele>101.69</ele>
        <time>2017-07-02T10:24:29Z</time>
      </trkpt>
      <trkpt lat="48.45128" lon="2.43873">
        <ele>100.36</ele>
        <time>2017-07-02T10:24:31Z</time>
      </trkpt>
      <trkpt lat="48.45123" lon="2.43886">
        <ele>98.81</ele>
        <time>2017-07-02T10:24:35Z</time>
      </trkpt>
      <trkpt lat="48.45118" lon="2.43892">
        <ele>97.86</ele>
        <time>2017-07-02T10:24:37Z</time>
      </trkpt>
      <trkpt lat="48.45112" lon="2.43895">
        <ele>96.9</ele>
        <time>2017-07-02T10:24:41Z</time>
      </trkpt>
      <trkpt lat="48.45108" lon="2.43888">
        <ele>96.7</ele>
        <time>2017-07-02T10:24:47Z</time>
      </trkpt>
      <trkpt lat="48.45105" lon="2.43879">
        <ele>96.69</ele>
        <time>2017-07-02T10:24:51Z</time>
      </trkpt>
      <trkpt lat="48.45101" lon="2.43875">
        <ele>96.44</ele>
        <time>2017-07-02T10:24:53Z</time>
      </trkpt>
      <trkpt lat="48.45098" lon="2.43871">
        <ele>96.21</ele>
        <time>2017-07-02T10:24:55Z</time>
      </trkpt>
      <trkpt lat="48.451" lon="2.43864">
        <ele>96.73</ele>
        <time>2017-07-02T10:25:01Z</time>
      </trkpt>
      <trkpt lat="48.45097" lon="2.4386">
        <ele>96.44</ele>
        <time>2017-07-02T10:25:03Z</time>
      </trkpt>
      <trkpt lat="48.4509" lon="2.43856">
        <ele>95.71</ele>
        <time>2017-07-02T10:25:07Z</time>
      </trkpt>
      <trkpt lat="48.45087" lon="2.4385">
        <ele>95.37</ele>
        <time>2017-07-02T10:25:09Z</time>
      </trkpt>
      <trkpt lat="48.45084" lon="2.43845">
        <ele>95.06</ele>
        <time>2017-07-02T10:25:11Z</time>
      </trkpt>
      <trkpt lat="48.45079" lon="2.43836">
        <ele>94.69</ele>
        <time>2017-07-02T10:25:15Z</time>
      </trkpt>
      <trkpt lat="48.45075" lon="2.43831">
        <ele>94.57</ele>
        <time>2017-07-02T10:25:19Z</time>
      </trkpt>
      <trkpt lat="48.45071" lon="2.43825">
        <ele>94.95</ele>
        <time>2017-07-02T10:25:23Z</time>
      </trkpt>
      <trkpt lat="48.45066" lon="2.43824">
        <ele>94.89</ele>
        <time>2017-07-02T10:25:25Z</time>
      </trkpt>
      <trkpt lat="48.45059" lon="2.43815">
        <ele>95.73</ele>
        <time>2017-07-02T10:25:29Z</time>
      </trkpt>
      <trkpt lat="48.45054" lon="2.43808">
        <ele>96.9</ele>
        <time>2017-07-02T10:25:35Z</time>
      </trkpt>
      <trkpt lat="48.45048" lon="2.438">
        <ele>99.94</ele>
        <time>2017-07-02T10:25:39Z</time>
      </trkpt>
      <trkpt lat="48.45045" lon="2.43796">
        <ele>101.77</ele>
        <time>2017-07-02T10:25:43Z</time>
      </trkpt>
      <trkpt lat="48.45042" lon="2.43787">
        <ele>104.49</ele>
        <time>2017-07-02T10:25:47Z</time>
      </trkpt>
      <trkpt lat="48.45036" lon="2.43784">
        <ele>106.63</ele>
        <time>2017-07-02T10:25:51Z</time>
      </trkpt>
      <trkpt lat="48.45033" lon="2.43779">
        <ele>108.5</ele>
        <time>2017-07-02T10:25:53Z</time>
      </trkpt>
      <trkpt lat="48.45032" lon="2.43772">
        <ele>109.6</ele>
        <time>2017-07-02T10:25:57Z</time>
      </trkpt>
      <trkpt lat="48.45028" lon="2.43765">
        <ele>111.31</ele>
        <time>2017-07-02T10:26:01Z</time>
      </trkpt>
      <trkpt lat="48.45026" lon="2.43757">
        <ele>112.37</ele>
        <time>2017-07-02T10:26:05Z</time>
      </trkpt>
      <trkpt lat="48.45025" lon="2.43748">
        <ele>113.42</ele>
        <time>2017-07-02T10:26:11Z</time>
      </trkpt>
      <trkpt lat="48.45022" lon="2.43743">
        <ele>114.18</ele>
        <time>2017-07-02T10:26:13Z</time>
      </trkpt>
      <trkpt lat="48.45018" lon="2.43734">
        <ele>115.43</ele>
        <time>2017-07-02T10:26:17Z</time>
      </trkpt>
      <trkpt lat="48.45015" lon="2.43727">
        <ele>116.39</ele>
        <time>2017-07-02T10:26:21Z</time>
      </trkpt>
      <trkpt lat="48.4501" lon="2.43723">
        <ele>117.22</ele>
        <time>2017-07-02T10:26:27Z</time>
      </trkpt>
      <trkpt lat="48.45006" lon="2.43717">
        <ele>118.16</ele>
        <time>2017-07-02T10:26:29Z</time>
      </trkpt>
      <trkpt lat="48.45001" lon="2.43713">
        <ele>118.94</ele>
        <time>2017-07-02T10:26:33Z</time>
      </trkpt>
      <trkpt lat="48.44999" lon="2.43705">
        <ele>119.87</ele>
        <time>2017-07-02T10:26:37Z</time>
      </trkpt>
      <trkpt lat="48.44995" lon="2.43699">
        <ele>120.79</ele>
        <time>2017-07-02T10:26:41Z</time>
      </trkpt>
      <trkpt lat="48.4499" lon="2.43693">
        <ele>121.96</ele>
        <time>2017-07-02T10:26:47Z</time>
      </trkpt>
      <trkpt lat="48.44987" lon="2.43687">
        <ele>123.18</ele>
        <time>2017-07-02T10:26:53Z</time>
      </trkpt>
      <trkpt lat="48.44985" lon="2.4368">
        <ele>124.58</ele>
        <time>2017-07-02T10:26:57Z</time>
      </trkpt>
      <trkpt lat="48.44985" lon="2.43671">
        <ele>126.35</ele>
        <time>2017-07-02T10:27:01Z</time>
      </trkpt>
      <trkpt lat="48.4498" lon="2.43664">
        <ele>127.64</ele>
        <time>2017-07-02T10:27:05Z</time>
      </trkpt>
      <trkpt lat="48.44979" lon="2.43654">
        <ele>128.6</ele>
        <time>2017-07-02T10:27:09Z</time>
      </trkpt>
      <trkpt lat="48.44976" lon="2.43647">
        <ele>129.31</ele>
        <time>2017-07-02T10:27:11Z</time>
      </trkpt>
      <trkpt lat="48.44974" lon="2.43639">
        <ele>130.01</ele>
        <time>2017-07-02T10:27:15Z</time>
      </trkpt>
      <trkpt lat="48.44974" lon="2.43631">
        <ele>130.6</ele>
        <time>2017-07-02T10:27:21Z</time>
      </trkpt>
      <trkpt lat="48.44974" lon="2.43623">
        <ele>131.17</ele>
        <time>2017-07-02T10:27:25Z</time>
      </trkpt>
      <trkpt lat="48.4497" lon="2.43613">
        <ele>131.9</ele>
        <time>2017-07-02T10:27:29Z</time>
      </trkpt>
      <trkpt lat="48.44969" lon="2.43605">
        <ele>132.44</ele>
        <time>2017-07-02T10:27:33Z</time>
      </trkpt>
      <trkpt lat="48.44935" lon="2.435">
        <ele>135.34</ele>
        <time>2017-07-02T10:28:07Z</time>
      </trkpt>
      <trkpt lat="48.44933" lon="2.43486">
        <ele>134.46</ele>
        <time>2017-07-02T10:28:10Z</time>
      </trkpt>
      <trkpt lat="48.44929" lon="2.43481">
        <ele>133.79</ele>
        <time>2017-07-02T10:28:12Z</time>
      </trkpt>
      <trkpt lat="48.44923" lon="2.43477">
        <ele>133.02</ele>
        <time>2017-07-02T10:28:14Z</time>
      </trkpt>
      <trkpt lat="48.44927" lon="2.4347">
        <ele>133.1</ele>
        <time>2017-07-02T10:28:16Z</time>
      </trkpt>
      <trkpt lat="48.44925" lon="2.43463">
        <ele>132.84</ele>
        <time>2017-07-02T10:28:18Z</time>
      </trkpt>
      <trkpt lat="48.44922" lon="2.43458">
        <ele>132.51</ele>
        <time>2017-07-02T10:28:20Z</time>
      </trkpt>
      <trkpt lat="48.44919" lon="2.43452">
        <ele>132.19</ele>
        <time>2017-07-02T10:28:22Z</time>
      </trkpt>
      <trkpt lat="48.44915" lon="2.43446">
        <ele>131.77</ele>
        <time>2017-07-02T10:28:24Z</time>
      </trkpt>
      <trkpt lat="48.44911" lon="2.43439">
        <ele>131.51</ele>
        <time>2017-07-02T10:28:26Z</time>
      </trkpt>
      <trkpt lat="48.44907" lon="2.43432">
        <ele>131.26</ele>
        <time>2017-07-02T10:28:28Z</time>
      </trkpt>
      <trkpt lat="48.44903" lon="2.43425">
        <ele>130.91</ele>
        <time>2017-07-02T10:28:30Z</time>
      </trkpt>
      <trkpt lat="48.449" lon="2.4342">
        <ele>130.57</ele>
        <time>2017-07-02T10:28:32Z</time>
      </trkpt>
      <trkpt lat="48.44898" lon="2.43411">
        <ele>130.4</ele>
        <time>2017-07-02T10:28:34Z</time>
      </trkpt>
      <trkpt lat="48.44897" lon="2.43403">
        <ele>130.26</ele>
        <time>2017-07-02T10:28:36Z</time>
      </trkpt>
      <trkpt lat="48.44895" lon="2.43394">
        <ele>130.03</ele>
        <time>2017-07-02T10:28:38Z</time>
      </trkpt>
      <trkpt lat="48.44893" lon="2.43384">
        <ele>129.87</ele>
        <time>2017-07-02T10:28:40Z</time>
      </trkpt>
      <trkpt lat="48.4489" lon="2.43375">
        <ele>129.78</ele>
        <time>2017-07-02T10:28:42Z</time>
      </trkpt>
      <trkpt lat="48.44888" lon="2.43365">
        <ele>129.74</ele>
        <time>2017-07-02T10:28:44Z</time>
      </trkpt>
      <trkpt lat="48.44887" lon="2.43356">
        <ele>129.47</ele>
        <time>2017-07-02T10:28:46Z</time>
      </trkpt>
      <trkpt lat="48.44889" lon="2.43346">
        <ele>129.45</ele>
        <time>2017-07-02T10:28:48Z</time>
      </trkpt>
      <trkpt lat="48.4489" lon="2.4334">
        <ele>129.44</ele>
        <time>2017-07-02T10:28:50Z</time>
      </trkpt>
      <trkpt lat="48.44893" lon="2.43323">
        <ele>129.24</ele>
        <time>2017-07-02T10:28:52Z</time>
      </trkpt>
      <trkpt lat="48.44896" lon="2.4331">
        <ele>128.94</ele>
        <time>2017-07-02T10:28:54Z</time>
      </trkpt>
      <trkpt lat="48.44901" lon="2.43299">
        <ele>129.88</ele>
        <time>2017-07-02T10:28:56Z</time>
      </trkpt>
      <trkpt lat="48.44907" lon="2.43288">
        <ele>131.59</ele>
        <time>2017-07-02T10:28:58Z</time>
      </trkpt>
      <trkpt lat="48.44911" lon="2.43276">
        <ele>132.8</ele>
        <time>2017-07-02T10:29:00Z</time>
      </trkpt>
      <trkpt lat="48.44915" lon="2.43265">
        <ele>133.29</ele>
        <time>2017-07-02T10:29:02Z</time>
      </trkpt>
      <trkpt lat="48.4492" lon="2.43255">
        <ele>133.03</ele>
        <time>2017-07-02T10:29:04Z</time>
      </trkpt>
      <trkpt lat="48.44923" lon="2.43245">
        <ele>132.29</ele>
        <time>2017-07-02T10:29:06Z</time>
      </trkpt>
      <trkpt lat="48.44928" lon="2.43237">
        <ele>131.58</ele>
        <time>2017-07-02T10:29:08Z</time>
      </trkpt>
      <trkpt lat="48.4493" lon="2.43231">
        <ele>131.14</ele>
        <time>2017-07-02T10:29:10Z</time>
      </trkpt>
      <trkpt lat="48.44933" lon="2.43221">
        <ele>130.53</ele>
        <time>2017-07-02T10:29:14Z</time>
      </trkpt>
      <trkpt lat="48.44931" lon="2.43207">
        <ele>129.46</ele>
        <time>2017-07-02T10:29:18Z</time>
      </trkpt>
      <trkpt lat="48.44925" lon="2.43191">
        <ele>128.36</ele>
        <time>2017-07-02T10:29:22Z</time>
      </trkpt>
      <trkpt lat="48.44924" lon="2.43181">
        <ele>128.5</ele>
        <time>2017-07-02T10:29:24Z</time>
      </trkpt>
      <trkpt lat="48.44923" lon="2.43171">
        <ele>128.68</ele>
        <time>2017-07-02T10:29:26Z</time>
      </trkpt>
      <trkpt lat="48.44923" lon="2.43161">
        <ele>128.62</ele>
        <time>2017-07-02T10:29:28Z</time>
      </trkpt>
      <trkpt lat="48.44925" lon="2.43141">
        <ele>128.05</ele>
        <time>2017-07-02T10:29:32Z</time>
      </trkpt>
      <trkpt lat="48.44927" lon="2.43132">
        <ele>128</ele>
        <time>2017-07-02T10:29:34Z</time>
      </trkpt>
      <trkpt lat="48.4493" lon="2.43122">
        <ele>128</ele>
        <time>2017-07-02T10:29:36Z</time>
      </trkpt>
      <trkpt lat="48.44935" lon="2.43111">
        <ele>128</ele>
        <time>2017-07-02T10:29:38Z</time>
      </trkpt>
      <trkpt lat="48.44944" lon="2.43102">
        <ele>127.35</ele>
        <time>2017-07-02T10:29:40Z</time>
      </trkpt>
      <trkpt lat="48.44952" lon="2.43091">
        <ele>126.83</ele>
        <time>2017-07-02T10:29:42Z</time>
      </trkpt>
      <trkpt lat="48.44959" lon="2.4308">
        <ele>126.4</ele>
        <time>2017-07-02T10:29:44Z</time>
      </trkpt>
      <trkpt lat="48.44966" lon="2.43069">
        <ele>126.26</ele>
        <time>2017-07-02T10:29:46Z</time>
      </trkpt>
      <trkpt lat="48.44972" lon="2.43061">
        <ele>126.2</ele>
        <time>2017-07-02T10:29:48Z</time>
      </trkpt>
      <trkpt lat="48.44978" lon="2.43052">
        <ele>126.37</ele>
        <time>2017-07-02T10:29:50Z</time>
      </trkpt>
      <trkpt lat="48.44982" lon="2.43043">
        <ele>126.53</ele>
        <time>2017-07-02T10:29:52Z</time>
      </trkpt>
      <trkpt lat="48.44985" lon="2.43034">
        <ele>126.55</ele>
        <time>2017-07-02T10:29:54Z</time>
      </trkpt>
      <trkpt lat="48.44987" lon="2.43025">
        <ele>126.49</ele>
        <time>2017-07-02T10:29:56Z</time>
      </trkpt>
      <trkpt lat="48.4499" lon="2.43018">
        <ele>126.49</ele>
        <time>2017-07-02T10:29:58Z</time>
      </trkpt>
      <trkpt lat="48.44993" lon="2.43009">
        <ele>126.56</ele>
        <time>2017-07-02T10:30:00Z</time>
      </trkpt>
      <trkpt lat="48.44995" lon="2.43001">
        <ele>126.65</ele>
        <time>2017-07-02T10:30:02Z</time>
      </trkpt>
      <trkpt lat="48.44991" lon="2.42992">
        <ele>126.5</ele>
        <time>2017-07-02T10:30:06Z</time>
      </trkpt>
      <trkpt lat="48.44984" lon="2.42988">
        <ele>125.8</ele>
        <time>2017-07-02T10:30:10Z</time>
      </trkpt>
      <trkpt lat="48.44988" lon="2.42984">
        <ele>126.22</ele>
        <time>2017-07-02T10:30:20Z</time>
      </trkpt>
      <trkpt lat="48.44985" lon="2.42979">
        <ele>125.9</ele>
        <time>2017-07-02T10:32:00Z</time>
      </trkpt>
      <trkpt lat="48.44981" lon="2.42975">
        <ele>125.37</ele>
        <time>2017-07-02T10:32:02Z</time>
      </trkpt>
      <trkpt lat="48.44972" lon="2.42966">
        <ele>124.47</ele>
        <time>2017-07-02T10:32:06Z</time>
      </trkpt>
      <trkpt lat="48.44969" lon="2.42961">
        <ele>124.47</ele>
        <time>2017-07-02T10:32:08Z</time>
      </trkpt>
      <trkpt lat="48.44961" lon="2.42955">
        <ele>124.18</ele>
        <time>2017-07-02T10:32:10Z</time>
      </trkpt>
      <trkpt lat="48.44957" lon="2.42952">
        <ele>123.94</ele>
        <time>2017-07-02T10:32:12Z</time>
      </trkpt>
      <trkpt lat="48.44947" lon="2.42946">
        <ele>123.24</ele>
        <time>2017-07-02T10:32:16Z</time>
      </trkpt>
      <trkpt lat="48.44935" lon="2.42944">
        <ele>121.89</ele>
        <time>2017-07-02T10:32:20Z</time>
      </trkpt>
      <trkpt lat="48.44928" lon="2.42942">
        <ele>121.01</ele>
        <time>2017-07-02T10:32:22Z</time>
      </trkpt>
      <trkpt lat="48.44921" lon="2.42938">
        <ele>119.92</ele>
        <time>2017-07-02T10:32:24Z</time>
      </trkpt>
      <trkpt lat="48.44915" lon="2.42933">
        <ele>119.16</ele>
        <time>2017-07-02T10:32:26Z</time>
      </trkpt>
      <trkpt lat="48.44905" lon="2.42926">
        <ele>118.82</ele>
        <time>2017-07-02T10:32:30Z</time>
      </trkpt>
      <trkpt lat="48.44901" lon="2.42922">
        <ele>118.74</ele>
        <time>2017-07-02T10:32:34Z</time>
      </trkpt>
      <trkpt lat="48.44868" lon="2.42903">
        <ele>116.08</ele>
        <time>2017-07-02T10:33:11Z</time>
      </trkpt>
      <trkpt lat="48.44863" lon="2.429">
        <ele>115.53</ele>
        <time>2017-07-02T10:33:12Z</time>
      </trkpt>
      <trkpt lat="48.44857" lon="2.429">
        <ele>115.44</ele>
        <time>2017-07-02T10:33:23Z</time>
      </trkpt>
      <trkpt lat="48.44853" lon="2.42906">
        <ele>115.54</ele>
        <time>2017-07-02T10:33:25Z</time>
      </trkpt>
      <trkpt lat="48.44848" lon="2.4291">
        <ele>115.51</ele>
        <time>2017-07-02T10:33:27Z</time>
      </trkpt>
      <trkpt lat="48.44843" lon="2.42913">
        <ele>115.39</ele>
        <time>2017-07-02T10:33:29Z</time>
      </trkpt>
      <trkpt lat="48.44838" lon="2.42919">
        <ele>115.08</ele>
        <time>2017-07-02T10:33:31Z</time>
      </trkpt>
      <trkpt lat="48.44834" lon="2.42927">
        <ele>114.31</ele>
        <time>2017-07-02T10:33:33Z</time>
      </trkpt>
      <trkpt lat="48.44828" lon="2.42936">
        <ele>113.71</ele>
        <time>2017-07-02T10:33:35Z</time>
      </trkpt>
      <trkpt lat="48.44824" lon="2.42947">
        <ele>113.19</ele>
        <time>2017-07-02T10:33:37Z</time>
      </trkpt>
      <trkpt lat="48.44822" lon="2.42958">
        <ele>112.51</ele>
        <time>2017-07-02T10:33:39Z</time>
      </trkpt>
      <trkpt lat="48.44819" lon="2.42968">
        <ele>111.78</ele>
        <time>2017-07-02T10:33:41Z</time>
      </trkpt>
      <trkpt lat="48.44815" lon="2.42975">
        <ele>111.15</ele>
        <time>2017-07-02T10:33:43Z</time>
      </trkpt>
      <trkpt lat="48.44811" lon="2.42982">
        <ele>110.36</ele>
        <time>2017-07-02T10:33:45Z</time>
      </trkpt>
      <trkpt lat="48.44807" lon="2.42991">
        <ele>109.16</ele>
        <time>2017-07-02T10:33:47Z</time>
      </trkpt>
      <trkpt lat="48.44802" lon="2.43001">
        <ele>108.33</ele>
        <time>2017-07-02T10:33:49Z</time>
      </trkpt>
      <trkpt lat="48.44797" lon="2.43013">
        <ele>108.21</ele>
        <time>2017-07-02T10:33:51Z</time>
      </trkpt>
      <trkpt lat="48.44791" lon="2.43023">
        <ele>107.4</ele>
        <time>2017-07-02T10:33:53Z</time>
      </trkpt>
      <trkpt lat="48.44784" lon="2.43032">
        <ele>105.82</ele>
        <time>2017-07-02T10:33:55Z</time>
      </trkpt>
      <trkpt lat="48.44779" lon="2.43044">
        <ele>103.33</ele>
        <time>2017-07-02T10:33:57Z</time>
      </trkpt>
      <trkpt lat="48.44776" lon="2.43065">
        <ele>100.11</ele>
        <time>2017-07-02T10:33:59Z</time>
      </trkpt>
      <trkpt lat="48.44771" lon="2.43076">
        <ele>99.34</ele>
        <time>2017-07-02T10:34:01Z</time>
      </trkpt>
      <trkpt lat="48.44768" lon="2.43086">
        <ele>98.56</ele>
        <time>2017-07-02T10:34:03Z</time>
      </trkpt>
      <trkpt lat="48.44765" lon="2.43099">
        <ele>97.92</ele>
        <time>2017-07-02T10:34:05Z</time>
      </trkpt>
      <trkpt lat="48.4476" lon="2.43107">
        <ele>97.11</ele>
        <time>2017-07-02T10:34:07Z</time>
      </trkpt>
      <trkpt lat="48.44753" lon="2.43114">
        <ele>96.22</ele>
        <time>2017-07-02T10:34:09Z</time>
      </trkpt>
      <trkpt lat="48.44748" lon="2.43121">
        <ele>96.25</ele>
        <time>2017-07-02T10:34:11Z</time>
      </trkpt>
      <trkpt lat="48.44743" lon="2.43128">
        <ele>96.77</ele>
        <time>2017-07-02T10:34:13Z</time>
      </trkpt>
      <trkpt lat="48.44738" lon="2.43135">
        <ele>97.33</ele>
        <time>2017-07-02T10:34:15Z</time>
      </trkpt>
      <trkpt lat="48.44733" lon="2.43141">
        <ele>97.88</ele>
        <time>2017-07-02T10:34:17Z</time>
      </trkpt>
      <trkpt lat="48.44729" lon="2.43148">
        <ele>98.34</ele>
        <time>2017-07-02T10:34:19Z</time>
      </trkpt>
      <trkpt lat="48.44725" lon="2.43153">
        <ele>98.73</ele>
        <time>2017-07-02T10:34:21Z</time>
      </trkpt>
      <trkpt lat="48.44721" lon="2.4316">
        <ele>98.94</ele>
        <time>2017-07-02T10:34:23Z</time>
      </trkpt>
      <trkpt lat="48.44717" lon="2.43166">
        <ele>98.63</ele>
        <time>2017-07-02T10:34:25Z</time>
      </trkpt>
      <trkpt lat="48.44715" lon="2.43173">
        <ele>98.68</ele>
        <time>2017-07-02T10:34:27Z</time>
      </trkpt>
      <trkpt lat="48.44712" lon="2.43181">
        <ele>98.78</ele>
        <time>2017-07-02T10:34:29Z</time>
      </trkpt>
      <trkpt lat="48.44711" lon="2.43188">
        <ele>98.94</ele>
        <time>2017-07-02T10:34:31Z</time>
      </trkpt>
      <trkpt lat="48.44709" lon="2.43195">
        <ele>99.06</ele>
        <time>2017-07-02T10:34:33Z</time>
      </trkpt>
      <trkpt lat="48.44706" lon="2.43201">
        <ele>99.13</ele>
        <time>2017-07-02T10:34:35Z</time>
      </trkpt>
      <trkpt lat="48.44702" lon="2.43206">
        <ele>99.1</ele>
        <time>2017-07-02T10:34:37Z</time>
      </trkpt>
      <trkpt lat="48.44698" lon="2.43212">
        <ele>99.02</ele>
        <time>2017-07-02T10:34:39Z</time>
      </trkpt>
      <trkpt lat="48.44694" lon="2.43217">
        <ele>98.77</ele>
        <time>2017-07-02T10:34:41Z</time>
      </trkpt>
      <trkpt lat="48.4469" lon="2.43222">
        <ele>98.13</ele>
        <time>2017-07-02T10:34:43Z</time>
      </trkpt>
      <trkpt lat="48.44686" lon="2.43227">
        <ele>97.55</ele>
        <time>2017-07-02T10:34:45Z</time>
      </trkpt>
      <trkpt lat="48.44683" lon="2.43233">
        <ele>97.11</ele>
        <time>2017-07-02T10:34:49Z</time>
      </trkpt>
      <trkpt lat="48.44678" lon="2.43241">
        <ele>96.39</ele>
        <time>2017-07-02T10:34:53Z</time>
      </trkpt>
      <trkpt lat="48.44671" lon="2.43246">
        <ele>95.48</ele>
        <time>2017-07-02T10:34:57Z</time>
      </trkpt>
      <trkpt lat="48.44664" lon="2.4325">
        <ele>95.11</ele>
        <time>2017-07-02T10:34:59Z</time>
      </trkpt>
      <trkpt lat="48.44658" lon="2.43253">
        <ele>95.41</ele>
        <time>2017-07-02T10:35:01Z</time>
      </trkpt>
      <trkpt lat="48.44648" lon="2.43262">
        <ele>96.09</ele>
        <time>2017-07-02T10:35:05Z</time>
      </trkpt>
      <trkpt lat="48.44642" lon="2.43268">
        <ele>96.53</ele>
        <time>2017-07-02T10:35:07Z</time>
      </trkpt>
      <trkpt lat="48.44638" lon="2.43275">
        <ele>96.98</ele>
        <time>2017-07-02T10:35:09Z</time>
      </trkpt>
      <trkpt lat="48.44634" lon="2.43282">
        <ele>97.47</ele>
        <time>2017-07-02T10:35:11Z</time>
      </trkpt>
      <trkpt lat="48.44629" lon="2.43286">
        <ele>97.9</ele>
        <time>2017-07-02T10:35:13Z</time>
      </trkpt>
      <trkpt lat="48.44616" lon="2.43289">
        <ele>98.74</ele>
        <time>2017-07-02T10:35:17Z</time>
      </trkpt>
      <trkpt lat="48.4461" lon="2.43286">
        <ele>99.09</ele>
        <time>2017-07-02T10:35:19Z</time>
      </trkpt>
      <trkpt lat="48.44609" lon="2.43279">
        <ele>99.24</ele>
        <time>2017-07-02T10:35:23Z</time>
      </trkpt>
      <trkpt lat="48.44609" lon="2.43269">
        <ele>99.31</ele>
        <time>2017-07-02T10:35:29Z</time>
      </trkpt>
      <trkpt lat="48.44607" lon="2.43262">
        <ele>99.52</ele>
        <time>2017-07-02T10:35:33Z</time>
      </trkpt>
      <trkpt lat="48.44612" lon="2.43254">
        <ele>98.91</ele>
        <time>2017-07-02T10:35:39Z</time>
      </trkpt>
      <trkpt lat="48.44616" lon="2.43248">
        <ele>98.63</ele>
        <time>2017-07-02T10:35:43Z</time>
      </trkpt>
      <trkpt lat="48.44618" lon="2.43241">
        <ele>98.69</ele>
        <time>2017-07-02T10:35:47Z</time>
      </trkpt>
      <trkpt lat="48.44619" lon="2.43233">
        <ele>99.05</ele>
        <time>2017-07-02T10:35:51Z</time>
      </trkpt>
      <trkpt lat="48.4462" lon="2.43225">
        <ele>99.25</ele>
        <time>2017-07-02T10:35:55Z</time>
      </trkpt>
      <trkpt lat="48.44622" lon="2.43217">
        <ele>99.42</ele>
        <time>2017-07-02T10:35:59Z</time>
      </trkpt>
      <trkpt lat="48.44624" lon="2.43209">
        <ele>99.39</ele>
        <time>2017-07-02T10:36:03Z</time>
      </trkpt>
      <trkpt lat="48.44625" lon="2.43202">
        <ele>99.47</ele>
        <time>2017-07-02T10:36:07Z</time>
      </trkpt>
      <trkpt lat="48.44627" lon="2.43195">
        <ele>99.43</ele>
        <time>2017-07-02T10:36:11Z</time>
      </trkpt>
      <trkpt lat="48.44629" lon="2.43185">
        <ele>99.61</ele>
        <time>2017-07-02T10:36:15Z</time>
      </trkpt>
      <trkpt lat="48.4463" lon="2.43173">
        <ele>100.61</ele>
        <time>2017-07-02T10:36:21Z</time>
      </trkpt>
      <trkpt lat="48.4463" lon="2.43158">
        <ele>101.69</ele>
        <time>2017-07-02T10:36:27Z</time>
      </trkpt>
      <trkpt lat="48.44629" lon="2.43146">
        <ele>102.5</ele>
        <time>2017-07-02T10:36:31Z</time>
      </trkpt>
      <trkpt lat="48.44627" lon="2.43135">
        <ele>103.15</ele>
        <time>2017-07-02T10:36:35Z</time>
      </trkpt>
      <trkpt lat="48.44627" lon="2.43128">
        <ele>103.27</ele>
        <time>2017-07-02T10:36:37Z</time>
      </trkpt>
      <trkpt lat="48.44628" lon="2.4312">
        <ele>103.25</ele>
        <time>2017-07-02T10:36:39Z</time>
      </trkpt>
      <trkpt lat="48.44626" lon="2.43108">
        <ele>103.91</ele>
        <time>2017-07-02T10:36:43Z</time>
      </trkpt>
      <trkpt lat="48.44628" lon="2.43098">
        <ele>104.01</ele>
        <time>2017-07-02T10:36:47Z</time>
      </trkpt>
      <trkpt lat="48.44629" lon="2.43082">
        <ele>104.47</ele>
        <time>2017-07-02T10:36:51Z</time>
      </trkpt>
      <trkpt lat="48.44628" lon="2.43073">
        <ele>105.74</ele>
        <time>2017-07-02T10:36:53Z</time>
      </trkpt>
      <trkpt lat="48.44626" lon="2.43063">
        <ele>107.06</ele>
        <time>2017-07-02T10:36:55Z</time>
      </trkpt>
      <trkpt lat="48.44623" lon="2.43055">
        <ele>108.26</ele>
        <time>2017-07-02T10:36:57Z</time>
      </trkpt>
      <trkpt lat="48.44621" lon="2.43047">
        <ele>108.96</ele>
        <time>2017-07-02T10:36:59Z</time>
      </trkpt>
      <trkpt lat="48.44619" lon="2.43039">
        <ele>109.61</ele>
        <time>2017-07-02T10:37:01Z</time>
      </trkpt>
      <trkpt lat="48.44616" lon="2.43033">
        <ele>110.22</ele>
        <time>2017-07-02T10:37:03Z</time>
      </trkpt>
      <trkpt lat="48.44614" lon="2.43026">
        <ele>110.74</ele>
        <time>2017-07-02T10:37:05Z</time>
      </trkpt>
      <trkpt lat="48.4461" lon="2.43017">
        <ele>111.53</ele>
        <time>2017-07-02T10:37:09Z</time>
      </trkpt>
      <trkpt lat="48.44611" lon="2.43008">
        <ele>111.71</ele>
        <time>2017-07-02T10:37:13Z</time>
      </trkpt>
      <trkpt lat="48.4461" lon="2.43002">
        <ele>112.1</ele>
        <time>2017-07-02T10:37:17Z</time>
      </trkpt>
      <trkpt lat="48.44607" lon="2.42995">
        <ele>112.71</ele>
        <time>2017-07-02T10:37:21Z</time>
      </trkpt>
      <trkpt lat="48.44605" lon="2.42988">
        <ele>113.36</ele>
        <time>2017-07-02T10:37:25Z</time>
      </trkpt>
      <trkpt lat="48.44603" lon="2.42981">
        <ele>113.83</ele>
        <time>2017-07-02T10:37:29Z</time>
      </trkpt>
      <trkpt lat="48.446" lon="2.42976">
        <ele>114.24</ele>
        <time>2017-07-02T10:37:33Z</time>
      </trkpt>
      <trkpt lat="48.44597" lon="2.42971">
        <ele>114.67</ele>
        <time>2017-07-02T10:37:37Z</time>
      </trkpt>
      <trkpt lat="48.44562" lon="2.429">
        <ele>118.45</ele>
        <time>2017-07-02T10:38:09Z</time>
      </trkpt>
      <trkpt lat="48.44568" lon="2.42906">
        <ele>118.5</ele>
        <time>2017-07-02T10:38:12Z</time>
      </trkpt>
      <trkpt lat="48.44564" lon="2.42898">
        <ele>118.58</ele>
        <time>2017-07-02T10:38:24Z</time>
      </trkpt>
      <trkpt lat="48.44559" lon="2.42892">
        <ele>118.38</ele>
        <time>2017-07-02T10:38:28Z</time>
      </trkpt>
      <trkpt lat="48.44557" lon="2.42883">
        <ele>118.57</ele>
        <time>2017-07-02T10:38:32Z</time>
      </trkpt>
      <trkpt lat="48.44554" lon="2.42875">
        <ele>118.78</ele>
        <time>2017-07-02T10:38:36Z</time>
      </trkpt>
      <trkpt lat="48.4455" lon="2.42866">
        <ele>118.87</ele>
        <time>2017-07-02T10:38:40Z</time>
      </trkpt>
      <trkpt lat="48.44547" lon="2.42856">
        <ele>119.21</ele>
        <time>2017-07-02T10:38:44Z</time>
      </trkpt>
      <trkpt lat="48.44546" lon="2.42848">
        <ele>119.7</ele>
        <time>2017-07-02T10:38:48Z</time>
      </trkpt>
      <trkpt lat="48.44545" lon="2.4284">
        <ele>120.2</ele>
        <time>2017-07-02T10:40:32Z</time>
      </trkpt>
      <trkpt lat="48.44541" lon="2.42838">
        <ele>119.5</ele>
        <time>2017-07-02T10:40:46Z</time>
      </trkpt>
      <trkpt lat="48.44536" lon="2.4284">
        <ele>118.48</ele>
        <time>2017-07-02T10:42:02Z</time>
      </trkpt>
      <trkpt lat="48.44533" lon="2.42845">
        <ele>117.57</ele>
        <time>2017-07-02T10:42:06Z</time>
      </trkpt>
      <trkpt lat="48.44529" lon="2.42849">
        <ele>116.69</ele>
        <time>2017-07-02T10:42:12Z</time>
      </trkpt>
      <trkpt lat="48.44521" lon="2.42853">
        <ele>115.58</ele>
        <time>2017-07-02T10:42:16Z</time>
      </trkpt>
      <trkpt lat="48.44516" lon="2.42858">
        <ele>114.88</ele>
        <time>2017-07-02T10:42:18Z</time>
      </trkpt>
      <trkpt lat="48.44513" lon="2.42864">
        <ele>114.37</ele>
        <time>2017-07-02T10:42:20Z</time>
      </trkpt>
      <trkpt lat="48.44508" lon="2.4287">
        <ele>113.82</ele>
        <time>2017-07-02T10:42:22Z</time>
      </trkpt>
      <trkpt lat="48.44502" lon="2.42874">
        <ele>113.26</ele>
        <time>2017-07-02T10:42:24Z</time>
      </trkpt>
      <trkpt lat="48.44496" lon="2.42877">
        <ele>112.74</ele>
        <time>2017-07-02T10:42:26Z</time>
      </trkpt>
      <trkpt lat="48.4449" lon="2.42881">
        <ele>112.31</ele>
        <time>2017-07-02T10:42:28Z</time>
      </trkpt>
      <trkpt lat="48.44483" lon="2.42884">
        <ele>111.79</ele>
        <time>2017-07-02T10:42:30Z</time>
      </trkpt>
      <trkpt lat="48.44475" lon="2.42888">
        <ele>111.18</ele>
        <time>2017-07-02T10:42:32Z</time>
      </trkpt>
      <trkpt lat="48.44466" lon="2.42892">
        <ele>109.91</ele>
        <time>2017-07-02T10:42:34Z</time>
      </trkpt>
      <trkpt lat="48.44456" lon="2.42896">
        <ele>108.41</ele>
        <time>2017-07-02T10:42:36Z</time>
      </trkpt>
      <trkpt lat="48.44443" lon="2.42904">
        <ele>106.39</ele>
        <time>2017-07-02T10:42:38Z</time>
      </trkpt>
      <trkpt lat="48.44316" lon="2.43021">
        <ele>99.24</ele>
        <time>2017-07-02T10:43:09Z</time>
      </trkpt>
      <trkpt lat="48.44323" lon="2.43026">
        <ele>99.06</ele>
        <time>2017-07-02T10:43:12Z</time>
      </trkpt>
      <trkpt lat="48.44326" lon="2.43021">
        <ele>99.25</ele>
        <time>2017-07-02T10:43:16Z</time>
      </trkpt>
      <trkpt lat="48.44329" lon="2.43013">
        <ele>99.52</ele>
        <time>2017-07-02T10:43:22Z</time>
      </trkpt>
      <trkpt lat="48.44332" lon="2.43006">
        <ele>99.77</ele>
        <time>2017-07-02T10:43:26Z</time>
      </trkpt>
      <trkpt lat="48.44335" lon="2.42999">
        <ele>100.06</ele>
        <time>2017-07-02T10:43:30Z</time>
      </trkpt>
      <trkpt lat="48.44337" lon="2.42992">
        <ele>100.75</ele>
        <time>2017-07-02T10:43:34Z</time>
      </trkpt>
      <trkpt lat="48.4434" lon="2.4298">
        <ele>101.6</ele>
        <time>2017-07-02T10:43:38Z</time>
      </trkpt>
      <trkpt lat="48.44342" lon="2.42973">
        <ele>102.02</ele>
        <time>2017-07-02T10:43:40Z</time>
      </trkpt>
      <trkpt lat="48.44344" lon="2.42967">
        <ele>101.55</ele>
        <time>2017-07-02T10:43:42Z</time>
      </trkpt>
      <trkpt lat="48.44345" lon="2.42952">
        <ele>100.56</ele>
        <time>2017-07-02T10:43:46Z</time>
      </trkpt>
      <trkpt lat="48.44346" lon="2.42942">
        <ele>100</ele>
        <time>2017-07-02T10:43:48Z</time>
      </trkpt>
      <trkpt lat="48.44344" lon="2.42927">
        <ele>99.62</ele>
        <time>2017-07-02T10:43:50Z</time>
      </trkpt>
      <trkpt lat="48.44338" lon="2.42904">
        <ele>98.82</ele>
        <time>2017-07-02T10:43:52Z</time>
      </trkpt>
      <trkpt lat="48.44334" lon="2.42889">
        <ele>98.01</ele>
        <time>2017-07-02T10:43:54Z</time>
      </trkpt>
      <trkpt lat="48.44328" lon="2.42874">
        <ele>98.61</ele>
        <time>2017-07-02T10:43:56Z</time>
      </trkpt>
      <trkpt lat="48.44322" lon="2.42861">
        <ele>99</ele>
        <time>2017-07-02T10:43:58Z</time>
      </trkpt>
      <trkpt lat="48.44316" lon="2.42849">
        <ele>99.44</ele>
        <time>2017-07-02T10:44:00Z</time>
      </trkpt>
      <trkpt lat="48.44313" lon="2.4284">
        <ele>99.76</ele>
        <time>2017-07-02T10:44:02Z</time>
      </trkpt>
      <trkpt lat="48.44313" lon="2.42831">
        <ele>100.22</ele>
        <time>2017-07-02T10:44:04Z</time>
      </trkpt>
      <trkpt lat="48.44313" lon="2.42821">
        <ele>101.04</ele>
        <time>2017-07-02T10:44:08Z</time>
      </trkpt>
      <trkpt lat="48.44313" lon="2.42811">
        <ele>101.8</ele>
        <time>2017-07-02T10:44:12Z</time>
      </trkpt>
      <trkpt lat="48.44315" lon="2.42801">
        <ele>103.27</ele>
        <time>2017-07-02T10:44:16Z</time>
      </trkpt>
      <trkpt lat="48.44315" lon="2.42791">
        <ele>105.58</ele>
        <time>2017-07-02T10:44:20Z</time>
      </trkpt>
      <trkpt lat="48.44314" lon="2.42782">
        <ele>107.78</ele>
        <time>2017-07-02T10:44:24Z</time>
      </trkpt>
      <trkpt lat="48.44317" lon="2.42773">
        <ele>108.89</ele>
        <time>2017-07-02T10:44:28Z</time>
      </trkpt>
      <trkpt lat="48.44319" lon="2.42766">
        <ele>109.14</ele>
        <time>2017-07-02T10:44:30Z</time>
      </trkpt>
      <trkpt lat="48.44322" lon="2.42759">
        <ele>109.4</ele>
        <time>2017-07-02T10:44:32Z</time>
      </trkpt>
      <trkpt lat="48.44324" lon="2.42752">
        <ele>109.6</ele>
        <time>2017-07-02T10:44:34Z</time>
      </trkpt>
      <trkpt lat="48.44325" lon="2.42745">
        <ele>109.67</ele>
        <time>2017-07-02T10:44:36Z</time>
      </trkpt>
      <trkpt lat="48.44324" lon="2.42734">
        <ele>109.87</ele>
        <time>2017-07-02T10:44:40Z</time>
      </trkpt>
      <trkpt lat="48.44323" lon="2.42724">
        <ele>110.08</ele>
        <time>2017-07-02T10:44:44Z</time>
      </trkpt>
      <trkpt lat="48.44324" lon="2.42712">
        <ele>110.25</ele>
        <time>2017-07-02T10:44:48Z</time>
      </trkpt>
      <trkpt lat="48.44323" lon="2.42699">
        <ele>110.67</ele>
        <time>2017-07-02T10:44:52Z</time>
      </trkpt>
      <trkpt lat="48.44321" lon="2.42686">
        <ele>111.04</ele>
        <time>2017-07-02T10:44:56Z</time>
      </trkpt>
      <trkpt lat="48.4432" lon="2.4268">
        <ele>111.25</ele>
        <time>2017-07-02T10:44:58Z</time>
      </trkpt>
      <trkpt lat="48.44317" lon="2.42668">
        <ele>111.55</ele>
        <time>2017-07-02T10:45:02Z</time>
      </trkpt>
      <trkpt lat="48.44314" lon="2.42659">
        <ele>112.15</ele>
        <time>2017-07-02T10:45:06Z</time>
      </trkpt>
      <trkpt lat="48.4431" lon="2.42651">
        <ele>112.88</ele>
        <time>2017-07-02T10:45:10Z</time>
      </trkpt>
      <trkpt lat="48.44306" lon="2.42642">
        <ele>113.78</ele>
        <time>2017-07-02T10:45:14Z</time>
      </trkpt>
      <trkpt lat="48.44301" lon="2.42633">
        <ele>114.66</ele>
        <time>2017-07-02T10:45:18Z</time>
      </trkpt>
      <trkpt lat="48.44298" lon="2.42625">
        <ele>115.66</ele>
        <time>2017-07-02T10:45:22Z</time>
      </trkpt>
      <trkpt lat="48.44295" lon="2.42617">
        <ele>116.84</ele>
        <time>2017-07-02T10:45:26Z</time>
      </trkpt>
      <trkpt lat="48.44292" lon="2.4261">
        <ele>118.18</ele>
        <time>2017-07-02T10:45:30Z</time>
      </trkpt>
      <trkpt lat="48.44291" lon="2.426">
        <ele>119.71</ele>
        <time>2017-07-02T10:45:34Z</time>
      </trkpt>
      <trkpt lat="48.44289" lon="2.42592">
        <ele>121.15</ele>
        <time>2017-07-02T10:45:38Z</time>
      </trkpt>
      <trkpt lat="48.44288" lon="2.42582">
        <ele>122.53</ele>
        <time>2017-07-02T10:45:46Z</time>
      </trkpt>
      <trkpt lat="48.44286" lon="2.42575">
        <ele>122.95</ele>
        <time>2017-07-02T10:45:50Z</time>
      </trkpt>
      <trkpt lat="48.44282" lon="2.42567">
        <ele>123.54</ele>
        <time>2017-07-02T10:45:56Z</time>
      </trkpt>
      <trkpt lat="48.44279" lon="2.4256">
        <ele>123.9</ele>
        <time>2017-07-02T10:46:00Z</time>
      </trkpt>
      <trkpt lat="48.44275" lon="2.4255">
        <ele>123.67</ele>
        <time>2017-07-02T10:46:04Z</time>
      </trkpt>
      <trkpt lat="48.4427" lon="2.42543">
        <ele>123.13</ele>
        <time>2017-07-02T10:46:08Z</time>
      </trkpt>
      <trkpt lat="48.44267" lon="2.42536">
        <ele>122.78</ele>
        <time>2017-07-02T10:46:12Z</time>
      </trkpt>
      <trkpt lat="48.44268" lon="2.42529">
        <ele>122.67</ele>
        <time>2017-07-02T10:46:16Z</time>
      </trkpt>
      <trkpt lat="48.44266" lon="2.42522">
        <ele>122.6</ele>
        <time>2017-07-02T10:46:20Z</time>
      </trkpt>
      <trkpt lat="48.44265" lon="2.42512">
        <ele>122.59</ele>
        <time>2017-07-02T10:46:26Z</time>
      </trkpt>
      <trkpt lat="48.44261" lon="2.42504">
        <ele>122.19</ele>
        <time>2017-07-02T10:46:30Z</time>
      </trkpt>
      <trkpt lat="48.44256" lon="2.42496">
        <ele>121.62</ele>
        <time>2017-07-02T10:46:34Z</time>
      </trkpt>
      <trkpt lat="48.44254" lon="2.42486">
        <ele>121.35</ele>
        <time>2017-07-02T10:46:38Z</time>
      </trkpt>
      <trkpt lat="48.44251" lon="2.42479">
        <ele>121.11</ele>
        <time>2017-07-02T10:46:42Z</time>
      </trkpt>
      <trkpt lat="48.44248" lon="2.4247">
        <ele>121.15</ele>
        <time>2017-07-02T10:46:46Z</time>
      </trkpt>
      <trkpt lat="48.44247" lon="2.42461">
        <ele>121.45</ele>
        <time>2017-07-02T10:46:50Z</time>
      </trkpt>
      <trkpt lat="48.44244" lon="2.42454">
        <ele>121.73</ele>
        <time>2017-07-02T10:46:54Z</time>
      </trkpt>
      <trkpt lat="48.44244" lon="2.42446">
        <ele>121.94</ele>
        <time>2017-07-02T10:46:58Z</time>
      </trkpt>
      <trkpt lat="48.44245" lon="2.42439">
        <ele>122.2</ele>
        <time>2017-07-02T10:47:02Z</time>
      </trkpt>
      <trkpt lat="48.44243" lon="2.42432">
        <ele>122.46</ele>
        <time>2017-07-02T10:47:06Z</time>
      </trkpt>
      <trkpt lat="48.44239" lon="2.42427">
        <ele>122.63</ele>
        <time>2017-07-02T10:47:10Z</time>
      </trkpt>
      <trkpt lat="48.44237" lon="2.42419">
        <ele>122.91</ele>
        <time>2017-07-02T10:47:16Z</time>
      </trkpt>
      <trkpt lat="48.4423" lon="2.42426">
        <ele>122.68</ele>
        <time>2017-07-02T10:47:30Z</time>
      </trkpt>
      <trkpt lat="48.44228" lon="2.42417">
        <ele>123</ele>
        <time>2017-07-02T10:47:33Z</time>
      </trkpt>
      <trkpt lat="48.44226" lon="2.42408">
        <ele>123.56</ele>
        <time>2017-07-02T10:47:37Z</time>
      </trkpt>
      <trkpt lat="48.44185" lon="2.42433">
        <ele>127.82</ele>
        <time>2017-07-02T10:48:13Z</time>
      </trkpt>
      <trkpt lat="48.44181" lon="2.42435">
        <ele>128.43</ele>
        <time>2017-07-02T10:48:15Z</time>
      </trkpt>
      <trkpt lat="48.44174" lon="2.42439">
        <ele>129.3</ele>
        <time>2017-07-02T10:48:19Z</time>
      </trkpt>
      <trkpt lat="48.44168" lon="2.42442">
        <ele>129.92</ele>
        <time>2017-07-02T10:48:21Z</time>
      </trkpt>
      <trkpt lat="48.44164" lon="2.42442">
        <ele>130.07</ele>
        <time>2017-07-02T10:48:23Z</time>
      </trkpt>
      <trkpt lat="48.44158" lon="2.42436">
        <ele>130.19</ele>
        <time>2017-07-02T10:48:27Z</time>
      </trkpt>
      <trkpt lat="48.44154" lon="2.42429">
        <ele>130.36</ele>
        <time>2017-07-02T10:48:33Z</time>
      </trkpt>
      <trkpt lat="48.4415" lon="2.42424">
        <ele>130.46</ele>
        <time>2017-07-02T10:48:39Z</time>
      </trkpt>
      <trkpt lat="48.44147" lon="2.42416">
        <ele>130.56</ele>
        <time>2017-07-02T10:48:45Z</time>
      </trkpt>
      <trkpt lat="48.44145" lon="2.42409">
        <ele>130.13</ele>
        <time>2017-07-02T10:48:49Z</time>
      </trkpt>
      <trkpt lat="48.44142" lon="2.42403">
        <ele>129.73</ele>
        <time>2017-07-02T10:48:53Z</time>
      </trkpt>
      <trkpt lat="48.44138" lon="2.42397">
        <ele>129.23</ele>
        <time>2017-07-02T10:48:57Z</time>
      </trkpt>
      <trkpt lat="48.44136" lon="2.4239">
        <ele>128.78</ele>
        <time>2017-07-02T10:49:01Z</time>
      </trkpt>
      <trkpt lat="48.44135" lon="2.42382">
        <ele>128.24</ele>
        <time>2017-07-02T10:49:05Z</time>
      </trkpt>
      <trkpt lat="48.44133" lon="2.42375">
        <ele>127.5</ele>
        <time>2017-07-02T10:49:09Z</time>
      </trkpt>
      <trkpt lat="48.44133" lon="2.42368">
        <ele>126.85</ele>
        <time>2017-07-02T10:49:13Z</time>
      </trkpt>
      <trkpt lat="48.4413" lon="2.42361">
        <ele>126.02</ele>
        <time>2017-07-02T10:49:17Z</time>
      </trkpt>
      <trkpt lat="48.44128" lon="2.42352">
        <ele>125.86</ele>
        <time>2017-07-02T10:49:23Z</time>
      </trkpt>
      <trkpt lat="48.44127" lon="2.42344">
        <ele>125.69</ele>
        <time>2017-07-02T10:49:27Z</time>
      </trkpt>
      <trkpt lat="48.44125" lon="2.42336">
        <ele>125.49</ele>
        <time>2017-07-02T10:49:39Z</time>
      </trkpt>
      <trkpt lat="48.44123" lon="2.42329">
        <ele>125.18</ele>
        <time>2017-07-02T10:49:45Z</time>
      </trkpt>
      <trkpt lat="48.44121" lon="2.42322">
        <ele>124.94</ele>
        <time>2017-07-02T10:49:53Z</time>
      </trkpt>
      <trkpt lat="48.44121" lon="2.42315">
        <ele>124.87</ele>
        <time>2017-07-02T10:50:09Z</time>
      </trkpt>
      <trkpt lat="48.44119" lon="2.42309">
        <ele>124.6</ele>
        <time>2017-07-02T10:51:45Z</time>
      </trkpt>
      <trkpt lat="48.44126" lon="2.42263">
        <ele>125.05</ele>
        <time>2017-07-02T10:58:09Z</time>
      </trkpt>
      <trkpt lat="48.44123" lon="2.42249">
        <ele>126.76</ele>
        <time>2017-07-02T10:58:14Z</time>
      </trkpt>
      <trkpt lat="48.4412" lon="2.42237">
        <ele>128.11</ele>
        <time>2017-07-02T10:58:18Z</time>
      </trkpt>
      <trkpt lat="48.44118" lon="2.42222">
        <ele>129.5</ele>
        <time>2017-07-02T10:58:22Z</time>
      </trkpt>
      <trkpt lat="48.44117" lon="2.42215">
        <ele>130.37</ele>
        <time>2017-07-02T10:58:24Z</time>
      </trkpt>
      <trkpt lat="48.44115" lon="2.42208">
        <ele>131.28</ele>
        <time>2017-07-02T10:58:26Z</time>
      </trkpt>
      <trkpt lat="48.44114" lon="2.422">
        <ele>132.19</ele>
        <time>2017-07-02T10:58:28Z</time>
      </trkpt>
      <trkpt lat="48.44114" lon="2.4219">
        <ele>132.95</ele>
        <time>2017-07-02T10:58:30Z</time>
      </trkpt>
      <trkpt lat="48.44108" lon="2.42141">
        <ele>134.22</ele>
        <time>2017-07-02T10:58:42Z</time>
      </trkpt>
      <trkpt lat="48.44103" lon="2.42129">
        <ele>135.18</ele>
        <time>2017-07-02T10:58:45Z</time>
      </trkpt>
      <trkpt lat="48.441" lon="2.42122">
        <ele>135.8</ele>
        <time>2017-07-02T10:58:47Z</time>
      </trkpt>
      <trkpt lat="48.44097" lon="2.42114">
        <ele>136.33</ele>
        <time>2017-07-02T10:58:49Z</time>
      </trkpt>
      <trkpt lat="48.44095" lon="2.42106">
        <ele>136.65</ele>
        <time>2017-07-02T10:58:51Z</time>
      </trkpt>
      <trkpt lat="48.44093" lon="2.42099">
        <ele>136.81</ele>
        <time>2017-07-02T10:58:53Z</time>
      </trkpt>
      <trkpt lat="48.44091" lon="2.4209">
        <ele>136.93</ele>
        <time>2017-07-02T10:58:55Z</time>
      </trkpt>
      <trkpt lat="48.44089" lon="2.42083">
        <ele>137.04</ele>
        <time>2017-07-02T10:58:57Z</time>
      </trkpt>
      <trkpt lat="48.44087" lon="2.42075">
        <ele>137.53</ele>
        <time>2017-07-02T10:58:59Z</time>
      </trkpt>
      <trkpt lat="48.44085" lon="2.42067">
        <ele>138.1</ele>
        <time>2017-07-02T10:59:01Z</time>
      </trkpt>
      <trkpt lat="48.44083" lon="2.42059">
        <ele>138.73</ele>
        <time>2017-07-02T10:59:03Z</time>
      </trkpt>
      <trkpt lat="48.4408" lon="2.42051">
        <ele>139.06</ele>
        <time>2017-07-02T10:59:05Z</time>
      </trkpt>
      <trkpt lat="48.44078" lon="2.42043">
        <ele>139.27</ele>
        <time>2017-07-02T10:59:07Z</time>
      </trkpt>
      <trkpt lat="48.44076" lon="2.42035">
        <ele>139.48</ele>
        <time>2017-07-02T10:59:09Z</time>
      </trkpt>
      <trkpt lat="48.44074" lon="2.42027">
        <ele>139.6</ele>
        <time>2017-07-02T10:59:11Z</time>
      </trkpt>
      <trkpt lat="48.44071" lon="2.42018">
        <ele>139.18</ele>
        <time>2017-07-02T10:59:13Z</time>
      </trkpt>
      <trkpt lat="48.44069" lon="2.4201">
        <ele>138.87</ele>
        <time>2017-07-02T10:59:15Z</time>
      </trkpt>
      <trkpt lat="48.44067" lon="2.42002">
        <ele>138.64</ele>
        <time>2017-07-02T10:59:17Z</time>
      </trkpt>
      <trkpt lat="48.44065" lon="2.41994">
        <ele>138.74</ele>
        <time>2017-07-02T10:59:19Z</time>
      </trkpt>
      <trkpt lat="48.44063" lon="2.41985">
        <ele>138.87</ele>
        <time>2017-07-02T10:59:21Z</time>
      </trkpt>
      <trkpt lat="48.44061" lon="2.41977">
        <ele>138.96</ele>
        <time>2017-07-02T10:59:23Z</time>
      </trkpt>
      <trkpt lat="48.44059" lon="2.4197">
        <ele>138.87</ele>
        <time>2017-07-02T10:59:25Z</time>
      </trkpt>
      <trkpt lat="48.44057" lon="2.41962">
        <ele>138.32</ele>
        <time>2017-07-02T10:59:27Z</time>
      </trkpt>
      <trkpt lat="48.44055" lon="2.41954">
        <ele>137.61</ele>
        <time>2017-07-02T10:59:29Z</time>
      </trkpt>
      <trkpt lat="48.44052" lon="2.41946">
        <ele>136.88</ele>
        <time>2017-07-02T10:59:31Z</time>
      </trkpt>
      <trkpt lat="48.4405" lon="2.41938">
        <ele>136.25</ele>
        <time>2017-07-02T10:59:33Z</time>
      </trkpt>
      <trkpt lat="48.44048" lon="2.4193">
        <ele>135.7</ele>
        <time>2017-07-02T10:59:35Z</time>
      </trkpt>
      <trkpt lat="48.44047" lon="2.41922">
        <ele>135.24</ele>
        <time>2017-07-02T10:59:37Z</time>
      </trkpt>
      <trkpt lat="48.44045" lon="2.41913">
        <ele>134.95</ele>
        <time>2017-07-02T10:59:39Z</time>
      </trkpt>
      <trkpt lat="48.44044" lon="2.41905">
        <ele>134.82</ele>
        <time>2017-07-02T10:59:41Z</time>
      </trkpt>
      <trkpt lat="48.44043" lon="2.41896">
        <ele>134.65</ele>
        <time>2017-07-02T10:59:43Z</time>
      </trkpt>
      <trkpt lat="48.44041" lon="2.41888">
        <ele>134.46</ele>
        <time>2017-07-02T10:59:45Z</time>
      </trkpt>
      <trkpt lat="48.44038" lon="2.4188">
        <ele>134.45</ele>
        <time>2017-07-02T10:59:47Z</time>
      </trkpt>
      <trkpt lat="48.44034" lon="2.41872">
        <ele>134.55</ele>
        <time>2017-07-02T10:59:49Z</time>
      </trkpt>
      <trkpt lat="48.44028" lon="2.41869">
        <ele>134.7</ele>
        <time>2017-07-02T10:59:51Z</time>
      </trkpt>
      <trkpt lat="48.44022" lon="2.41872">
        <ele>134.78</ele>
        <time>2017-07-02T10:59:53Z</time>
      </trkpt>
      <trkpt lat="48.44016" lon="2.41879">
        <ele>134.9</ele>
        <time>2017-07-02T10:59:55Z</time>
      </trkpt>
      <trkpt lat="48.44011" lon="2.41887">
        <ele>135.19</ele>
        <time>2017-07-02T10:59:57Z</time>
      </trkpt>
      <trkpt lat="48.44006" lon="2.41895">
        <ele>135.45</ele>
        <time>2017-07-02T10:59:59Z</time>
      </trkpt>
      <trkpt lat="48.44001" lon="2.41902">
        <ele>135.49</ele>
        <time>2017-07-02T11:00:01Z</time>
      </trkpt>
      <trkpt lat="48.43995" lon="2.4191">
        <ele>134.8</ele>
        <time>2017-07-02T11:00:03Z</time>
      </trkpt>
      <trkpt lat="48.43989" lon="2.41916">
        <ele>133.85</ele>
        <time>2017-07-02T11:00:05Z</time>
      </trkpt>
      <trkpt lat="48.43983" lon="2.41922">
        <ele>133.46</ele>
        <time>2017-07-02T11:00:07Z</time>
      </trkpt>
      <trkpt lat="48.43977" lon="2.41928">
        <ele>132.96</ele>
        <time>2017-07-02T11:00:09Z</time>
      </trkpt>
      <trkpt lat="48.43971" lon="2.41933">
        <ele>132.61</ele>
        <time>2017-07-02T11:00:11Z</time>
      </trkpt>
      <trkpt lat="48.43965" lon="2.41939">
        <ele>132.84</ele>
        <time>2017-07-02T11:00:13Z</time>
      </trkpt>
      <trkpt lat="48.43958" lon="2.41943">
        <ele>132.98</ele>
        <time>2017-07-02T11:00:15Z</time>
      </trkpt>
      <trkpt lat="48.43952" lon="2.41948">
        <ele>132.75</ele>
        <time>2017-07-02T11:00:17Z</time>
      </trkpt>
      <trkpt lat="48.43947" lon="2.41953">
        <ele>132.38</ele>
        <time>2017-07-02T11:00:19Z</time>
      </trkpt>
      <trkpt lat="48.43941" lon="2.41959">
        <ele>131.66</ele>
        <time>2017-07-02T11:00:21Z</time>
      </trkpt>
      <trkpt lat="48.43935" lon="2.41963">
        <ele>130.98</ele>
        <time>2017-07-02T11:00:23Z</time>
      </trkpt>
      <trkpt lat="48.43929" lon="2.41967">
        <ele>130.49</ele>
        <time>2017-07-02T11:00:25Z</time>
      </trkpt>
      <trkpt lat="48.43923" lon="2.41971">
        <ele>130.19</ele>
        <time>2017-07-02T11:00:27Z</time>
      </trkpt>
      <trkpt lat="48.43917" lon="2.41975">
        <ele>130.17</ele>
        <time>2017-07-02T11:00:29Z</time>
      </trkpt>
      <trkpt lat="48.4391" lon="2.41979">
        <ele>130.76</ele>
        <time>2017-07-02T11:00:31Z</time>
      </trkpt>
      <trkpt lat="48.43904" lon="2.41983">
        <ele>131.39</ele>
        <time>2017-07-02T11:00:33Z</time>
      </trkpt>
      <trkpt lat="48.43898" lon="2.41987">
        <ele>132.04</ele>
        <time>2017-07-02T11:00:35Z</time>
      </trkpt>
      <trkpt lat="48.43893" lon="2.4199">
        <ele>132.69</ele>
        <time>2017-07-02T11:00:37Z</time>
      </trkpt>
      <trkpt lat="48.43888" lon="2.41994">
        <ele>133.27</ele>
        <time>2017-07-02T11:00:49Z</time>
      </trkpt>
      <trkpt lat="48.4388" lon="2.41999">
        <ele>132.93</ele>
        <time>2017-07-02T11:00:53Z</time>
      </trkpt>
      <trkpt lat="48.43874" lon="2.42001">
        <ele>132.47</ele>
        <time>2017-07-02T11:00:55Z</time>
      </trkpt>
      <trkpt lat="48.43867" lon="2.42004">
        <ele>132.08</ele>
        <time>2017-07-02T11:00:57Z</time>
      </trkpt>
      <trkpt lat="48.43861" lon="2.42007">
        <ele>131.79</ele>
        <time>2017-07-02T11:00:59Z</time>
      </trkpt>
      <trkpt lat="48.43855" lon="2.4201">
        <ele>132.34</ele>
        <time>2017-07-02T11:01:01Z</time>
      </trkpt>
      <trkpt lat="48.43849" lon="2.42012">
        <ele>132.82</ele>
        <time>2017-07-02T11:01:03Z</time>
      </trkpt>
      <trkpt lat="48.43843" lon="2.42014">
        <ele>133.19</ele>
        <time>2017-07-02T11:01:05Z</time>
      </trkpt>
      <trkpt lat="48.43837" lon="2.42017">
        <ele>133.5</ele>
        <time>2017-07-02T11:01:07Z</time>
      </trkpt>
      <trkpt lat="48.43831" lon="2.42019">
        <ele>133.8</ele>
        <time>2017-07-02T11:01:09Z</time>
      </trkpt>
      <trkpt lat="48.43824" lon="2.42023">
        <ele>134.15</ele>
        <time>2017-07-02T11:01:11Z</time>
      </trkpt>
      <trkpt lat="48.43818" lon="2.42027">
        <ele>134.5</ele>
        <time>2017-07-02T11:01:13Z</time>
      </trkpt>
      <trkpt lat="48.43812" lon="2.4203">
        <ele>134.82</ele>
        <time>2017-07-02T11:01:15Z</time>
      </trkpt>
      <trkpt lat="48.43807" lon="2.42034">
        <ele>135.15</ele>
        <time>2017-07-02T11:01:17Z</time>
      </trkpt>
      <trkpt lat="48.43801" lon="2.42036">
        <ele>135.15</ele>
        <time>2017-07-02T11:01:19Z</time>
      </trkpt>
      <trkpt lat="48.43796" lon="2.42039">
        <ele>135.05</ele>
        <time>2017-07-02T11:01:21Z</time>
      </trkpt>
      <trkpt lat="48.4379" lon="2.42043">
        <ele>134.97</ele>
        <time>2017-07-02T11:01:23Z</time>
      </trkpt>
      <trkpt lat="48.43785" lon="2.42046">
        <ele>134.9</ele>
        <time>2017-07-02T11:01:25Z</time>
      </trkpt>
      <trkpt lat="48.43779" lon="2.42049">
        <ele>134.8</ele>
        <time>2017-07-02T11:01:27Z</time>
      </trkpt>
      <trkpt lat="48.43773" lon="2.42051">
        <ele>135.01</ele>
        <time>2017-07-02T11:01:29Z</time>
      </trkpt>
      <trkpt lat="48.43768" lon="2.42054">
        <ele>135.31</ele>
        <time>2017-07-02T11:01:31Z</time>
      </trkpt>
      <trkpt lat="48.43762" lon="2.42057">
        <ele>135.53</ele>
        <time>2017-07-02T11:01:33Z</time>
      </trkpt>
      <trkpt lat="48.43757" lon="2.42061">
        <ele>135.6</ele>
        <time>2017-07-02T11:01:35Z</time>
      </trkpt>
      <trkpt lat="48.43753" lon="2.42064">
        <ele>135.63</ele>
        <time>2017-07-02T11:01:37Z</time>
      </trkpt>
      <trkpt lat="48.43747" lon="2.42067">
        <ele>135.52</ele>
        <time>2017-07-02T11:01:39Z</time>
      </trkpt>
      <trkpt lat="48.43743" lon="2.42068">
        <ele>135.29</ele>
        <time>2017-07-02T11:01:41Z</time>
      </trkpt>
      <trkpt lat="48.43738" lon="2.4207">
        <ele>135.02</ele>
        <time>2017-07-02T11:01:43Z</time>
      </trkpt>
      <trkpt lat="48.43733" lon="2.42073">
        <ele>134.64</ele>
        <time>2017-07-02T11:01:45Z</time>
      </trkpt>
      <trkpt lat="48.43728" lon="2.42076">
        <ele>134.14</ele>
        <time>2017-07-02T11:01:47Z</time>
      </trkpt>
      <trkpt lat="48.43724" lon="2.42079">
        <ele>133.54</ele>
        <time>2017-07-02T11:01:49Z</time>
      </trkpt>
      <trkpt lat="48.43719" lon="2.42082">
        <ele>133.17</ele>
        <time>2017-07-02T11:01:51Z</time>
      </trkpt>
      <trkpt lat="48.43713" lon="2.42087">
        <ele>133.08</ele>
        <time>2017-07-02T11:02:05Z</time>
      </trkpt>
      <trkpt lat="48.43708" lon="2.4209">
        <ele>133.12</ele>
        <time>2017-07-02T11:02:07Z</time>
      </trkpt>
      <trkpt lat="48.43703" lon="2.42093">
        <ele>133.11</ele>
        <time>2017-07-02T11:02:09Z</time>
      </trkpt>
      <trkpt lat="48.43698" lon="2.42097">
        <ele>133.06</ele>
        <time>2017-07-02T11:02:11Z</time>
      </trkpt>
      <trkpt lat="48.43693" lon="2.42101">
        <ele>133.05</ele>
        <time>2017-07-02T11:02:13Z</time>
      </trkpt>
      <trkpt lat="48.43688" lon="2.42105">
        <ele>133.16</ele>
        <time>2017-07-02T11:02:15Z</time>
      </trkpt>
      <trkpt lat="48.43683" lon="2.42109">
        <ele>133.1</ele>
        <time>2017-07-02T11:02:17Z</time>
      </trkpt>
      <trkpt lat="48.43677" lon="2.42113">
        <ele>132.97</ele>
        <time>2017-07-02T11:02:19Z</time>
      </trkpt>
      <trkpt lat="48.43671" lon="2.42116">
        <ele>132.87</ele>
        <time>2017-07-02T11:02:21Z</time>
      </trkpt>
      <trkpt lat="48.43665" lon="2.42118">
        <ele>132.67</ele>
        <time>2017-07-02T11:02:23Z</time>
      </trkpt>
      <trkpt lat="48.43659" lon="2.4212">
        <ele>132.3</ele>
        <time>2017-07-02T11:02:25Z</time>
      </trkpt>
      <trkpt lat="48.43653" lon="2.42122">
        <ele>132</ele>
        <time>2017-07-02T11:02:27Z</time>
      </trkpt>
      <trkpt lat="48.43647" lon="2.42125">
        <ele>131.78</ele>
        <time>2017-07-02T11:02:29Z</time>
      </trkpt>
      <trkpt lat="48.43641" lon="2.42128">
        <ele>131.68</ele>
        <time>2017-07-02T11:02:31Z</time>
      </trkpt>
      <trkpt lat="48.43636" lon="2.42132">
        <ele>131.7</ele>
        <time>2017-07-02T11:02:33Z</time>
      </trkpt>
      <trkpt lat="48.4363" lon="2.42136">
        <ele>131.64</ele>
        <time>2017-07-02T11:02:35Z</time>
      </trkpt>
      <trkpt lat="48.43624" lon="2.4214">
        <ele>131.5</ele>
        <time>2017-07-02T11:02:37Z</time>
      </trkpt>
      <trkpt lat="48.43618" lon="2.42143">
        <ele>131.42</ele>
        <time>2017-07-02T11:02:39Z</time>
      </trkpt>
      <trkpt lat="48.43612" lon="2.42147">
        <ele>131.29</ele>
        <time>2017-07-02T11:02:41Z</time>
      </trkpt>
      <trkpt lat="48.43525" lon="2.42184">
        <ele>132.93</ele>
        <time>2017-07-02T11:03:11Z</time>
      </trkpt>
      <trkpt lat="48.43516" lon="2.42194">
        <ele>132.59</ele>
        <time>2017-07-02T11:03:15Z</time>
      </trkpt>
      <trkpt lat="48.43512" lon="2.42197">
        <ele>132.35</ele>
        <time>2017-07-02T11:03:17Z</time>
      </trkpt>
      <trkpt lat="48.43507" lon="2.42201">
        <ele>132.07</ele>
        <time>2017-07-02T11:03:19Z</time>
      </trkpt>
      <trkpt lat="48.43502" lon="2.42204">
        <ele>131.75</ele>
        <time>2017-07-02T11:03:21Z</time>
      </trkpt>
      <trkpt lat="48.43497" lon="2.42208">
        <ele>131.35</ele>
        <time>2017-07-02T11:03:23Z</time>
      </trkpt>
      <trkpt lat="48.43493" lon="2.42212">
        <ele>131</ele>
        <time>2017-07-02T11:03:25Z</time>
      </trkpt>
      <trkpt lat="48.43488" lon="2.42215">
        <ele>130.71</ele>
        <time>2017-07-02T11:03:27Z</time>
      </trkpt>
      <trkpt lat="48.43483" lon="2.42216">
        <ele>130.46</ele>
        <time>2017-07-02T11:03:29Z</time>
      </trkpt>
      <trkpt lat="48.43478" lon="2.42219">
        <ele>130.22</ele>
        <time>2017-07-02T11:03:31Z</time>
      </trkpt>
      <trkpt lat="48.43473" lon="2.42222">
        <ele>130.01</ele>
        <time>2017-07-02T11:03:33Z</time>
      </trkpt>
      <trkpt lat="48.43467" lon="2.42224">
        <ele>130.05</ele>
        <time>2017-07-02T11:03:35Z</time>
      </trkpt>
      <trkpt lat="48.43462" lon="2.42227">
        <ele>130.04</ele>
        <time>2017-07-02T11:03:37Z</time>
      </trkpt>
      <trkpt lat="48.43456" lon="2.4223">
        <ele>129.96</ele>
        <time>2017-07-02T11:03:39Z</time>
      </trkpt>
      <trkpt lat="48.43451" lon="2.42233">
        <ele>129.8</ele>
        <time>2017-07-02T11:03:41Z</time>
      </trkpt>
      <trkpt lat="48.43446" lon="2.42236">
        <ele>129.57</ele>
        <time>2017-07-02T11:03:43Z</time>
      </trkpt>
      <trkpt lat="48.43441" lon="2.42238">
        <ele>129.78</ele>
        <time>2017-07-02T11:03:45Z</time>
      </trkpt>
      <trkpt lat="48.43435" lon="2.4224">
        <ele>130.16</ele>
        <time>2017-07-02T11:03:47Z</time>
      </trkpt>
      <trkpt lat="48.4343" lon="2.42242">
        <ele>130.48</ele>
        <time>2017-07-02T11:03:49Z</time>
      </trkpt>
      <trkpt lat="48.4342" lon="2.42247">
        <ele>130.99</ele>
        <time>2017-07-02T11:03:53Z</time>
      </trkpt>
      <trkpt lat="48.43415" lon="2.42249">
        <ele>130.96</ele>
        <time>2017-07-02T11:03:55Z</time>
      </trkpt>
      <trkpt lat="48.43409" lon="2.42252">
        <ele>130.72</ele>
        <time>2017-07-02T11:03:57Z</time>
      </trkpt>
      <trkpt lat="48.43404" lon="2.42255">
        <ele>130.61</ele>
        <time>2017-07-02T11:03:59Z</time>
      </trkpt>
      <trkpt lat="48.43399" lon="2.42257">
        <ele>130.59</ele>
        <time>2017-07-02T11:04:01Z</time>
      </trkpt>
      <trkpt lat="48.43387" lon="2.42261">
        <ele>130.78</ele>
        <time>2017-07-02T11:04:05Z</time>
      </trkpt>
      <trkpt lat="48.43381" lon="2.42263">
        <ele>130.84</ele>
        <time>2017-07-02T11:04:07Z</time>
      </trkpt>
      <trkpt lat="48.43375" lon="2.42265">
        <ele>130.78</ele>
        <time>2017-07-02T11:04:09Z</time>
      </trkpt>
      <trkpt lat="48.43369" lon="2.42267">
        <ele>130.63</ele>
        <time>2017-07-02T11:04:11Z</time>
      </trkpt>
      <trkpt lat="48.43363" lon="2.42269">
        <ele>130.38</ele>
        <time>2017-07-02T11:04:13Z</time>
      </trkpt>
      <trkpt lat="48.43351" lon="2.42274">
        <ele>130.13</ele>
        <time>2017-07-02T11:04:17Z</time>
      </trkpt>
      <trkpt lat="48.43345" lon="2.42277">
        <ele>130.04</ele>
        <time>2017-07-02T11:04:19Z</time>
      </trkpt>
      <trkpt lat="48.43339" lon="2.4228">
        <ele>129.93</ele>
        <time>2017-07-02T11:04:21Z</time>
      </trkpt>
      <trkpt lat="48.43333" lon="2.42283">
        <ele>129.62</ele>
        <time>2017-07-02T11:04:23Z</time>
      </trkpt>
      <trkpt lat="48.43327" lon="2.42287">
        <ele>129.2</ele>
        <time>2017-07-02T11:04:25Z</time>
      </trkpt>
      <trkpt lat="48.43312" lon="2.42295">
        <ele>128.47</ele>
        <time>2017-07-02T11:04:29Z</time>
      </trkpt>
      <trkpt lat="48.43305" lon="2.42299">
        <ele>128.27</ele>
        <time>2017-07-02T11:04:31Z</time>
      </trkpt>
      <trkpt lat="48.43298" lon="2.42303">
        <ele>128.37</ele>
        <time>2017-07-02T11:04:33Z</time>
      </trkpt>
      <trkpt lat="48.43291" lon="2.42307">
        <ele>128.56</ele>
        <time>2017-07-02T11:04:35Z</time>
      </trkpt>
      <trkpt lat="48.43284" lon="2.42311">
        <ele>128.83</ele>
        <time>2017-07-02T11:04:37Z</time>
      </trkpt>
      <trkpt lat="48.4327" lon="2.4232">
        <ele>129.14</ele>
        <time>2017-07-02T11:04:41Z</time>
      </trkpt>
      <trkpt lat="48.43263" lon="2.42324">
        <ele>129.18</ele>
        <time>2017-07-02T11:04:43Z</time>
      </trkpt>
      <trkpt lat="48.43256" lon="2.42328">
        <ele>129.16</ele>
        <time>2017-07-02T11:04:45Z</time>
      </trkpt>
      <trkpt lat="48.4325" lon="2.42331">
        <ele>129.08</ele>
        <time>2017-07-02T11:04:47Z</time>
      </trkpt>
      <trkpt lat="48.43243" lon="2.42335">
        <ele>129.28</ele>
        <time>2017-07-02T11:04:49Z</time>
      </trkpt>
      <trkpt lat="48.4323" lon="2.42342">
        <ele>129.8</ele>
        <time>2017-07-02T11:04:53Z</time>
      </trkpt>
      <trkpt lat="48.43224" lon="2.42345">
        <ele>129.96</ele>
        <time>2017-07-02T11:04:55Z</time>
      </trkpt>
      <trkpt lat="48.43218" lon="2.42348">
        <ele>130.24</ele>
        <time>2017-07-02T11:04:57Z</time>
      </trkpt>
      <trkpt lat="48.43212" lon="2.42352">
        <ele>130.51</ele>
        <time>2017-07-02T11:04:59Z</time>
      </trkpt>
      <trkpt lat="48.43206" lon="2.42355">
        <ele>130.71</ele>
        <time>2017-07-02T11:05:01Z</time>
      </trkpt>
      <trkpt lat="48.432" lon="2.42359">
        <ele>130.86</ele>
        <time>2017-07-02T11:05:05Z</time>
      </trkpt>
      <trkpt lat="48.43194" lon="2.42364">
        <ele>131.02</ele>
        <time>2017-07-02T11:05:11Z</time>
      </trkpt>
      <trkpt lat="48.43194" lon="2.42355">
        <ele>131.25</ele>
        <time>2017-07-02T11:06:23Z</time>
      </trkpt>
      <trkpt lat="48.43191" lon="2.42337">
        <ele>131.97</ele>
        <time>2017-07-02T11:06:29Z</time>
      </trkpt>
      <trkpt lat="48.4319" lon="2.42329">
        <ele>132.3</ele>
        <time>2017-07-02T11:06:31Z</time>
      </trkpt>
      <trkpt lat="48.43187" lon="2.4232">
        <ele>132.63</ele>
        <time>2017-07-02T11:06:33Z</time>
      </trkpt>
      <trkpt lat="48.43184" lon="2.42309">
        <ele>132.91</ele>
        <time>2017-07-02T11:06:35Z</time>
      </trkpt>
      <trkpt lat="48.43181" lon="2.42299">
        <ele>133.25</ele>
        <time>2017-07-02T11:06:37Z</time>
      </trkpt>
      <trkpt lat="48.43174" lon="2.42276">
        <ele>134</ele>
        <time>2017-07-02T11:06:41Z</time>
      </trkpt>
      <trkpt lat="48.43171" lon="2.42265">
        <ele>134</ele>
        <time>2017-07-02T11:06:43Z</time>
      </trkpt>
      <trkpt lat="48.43168" lon="2.42255">
        <ele>134</ele>
        <time>2017-07-02T11:06:45Z</time>
      </trkpt>
      <trkpt lat="48.43164" lon="2.42244">
        <ele>134</ele>
        <time>2017-07-02T11:06:47Z</time>
      </trkpt>
      <trkpt lat="48.4316" lon="2.42233">
        <ele>134</ele>
        <time>2017-07-02T11:06:49Z</time>
      </trkpt>
      <trkpt lat="48.43153" lon="2.42209">
        <ele>134.48</ele>
        <time>2017-07-02T11:06:53Z</time>
      </trkpt>
      <trkpt lat="48.4315" lon="2.42197">
        <ele>134.89</ele>
        <time>2017-07-02T11:06:55Z</time>
      </trkpt>
      <trkpt lat="48.43148" lon="2.42186">
        <ele>135</ele>
        <time>2017-07-02T11:06:57Z</time>
      </trkpt>
      <trkpt lat="48.43145" lon="2.42174">
        <ele>135</ele>
        <time>2017-07-02T11:06:59Z</time>
      </trkpt>
      <trkpt lat="48.43141" lon="2.42162">
        <ele>135</ele>
        <time>2017-07-02T11:07:01Z</time>
      </trkpt>
      <trkpt lat="48.43134" lon="2.42138">
        <ele>134.74</ele>
        <time>2017-07-02T11:07:05Z</time>
      </trkpt>
      <trkpt lat="48.4313" lon="2.42126">
        <ele>133.9</ele>
        <time>2017-07-02T11:07:07Z</time>
      </trkpt>
      <trkpt lat="48.43126" lon="2.42114">
        <ele>133.19</ele>
        <time>2017-07-02T11:07:09Z</time>
      </trkpt>
      <trkpt lat="48.43122" lon="2.42103">
        <ele>133.13</ele>
        <time>2017-07-02T11:07:11Z</time>
      </trkpt>
      <trkpt lat="48.43119" lon="2.42091">
        <ele>133.21</ele>
        <time>2017-07-02T11:07:13Z</time>
      </trkpt>
      <trkpt lat="48.43114" lon="2.42061">
        <ele>133.16</ele>
        <time>2017-07-02T11:07:17Z</time>
      </trkpt>
      <trkpt lat="48.43109" lon="2.4205">
        <ele>132.79</ele>
        <time>2017-07-02T11:07:19Z</time>
      </trkpt>
      <trkpt lat="48.43104" lon="2.42038">
        <ele>132.37</ele>
        <time>2017-07-02T11:07:21Z</time>
      </trkpt>
      <trkpt lat="48.431" lon="2.42027">
        <ele>132.01</ele>
        <time>2017-07-02T11:07:23Z</time>
      </trkpt>
      <trkpt lat="48.43097" lon="2.42015">
        <ele>131.99</ele>
        <time>2017-07-02T11:07:25Z</time>
      </trkpt>
      <trkpt lat="48.43092" lon="2.41987">
        <ele>131.63</ele>
        <time>2017-07-02T11:07:29Z</time>
      </trkpt>
      <trkpt lat="48.4309" lon="2.41973">
        <ele>131.46</ele>
        <time>2017-07-02T11:07:31Z</time>
      </trkpt>
      <trkpt lat="48.4309" lon="2.41961">
        <ele>131.78</ele>
        <time>2017-07-02T11:07:33Z</time>
      </trkpt>
      <trkpt lat="48.4309" lon="2.41945">
        <ele>132.23</ele>
        <time>2017-07-02T11:07:35Z</time>
      </trkpt>
      <trkpt lat="48.43089" lon="2.4193">
        <ele>131.92</ele>
        <time>2017-07-02T11:07:37Z</time>
      </trkpt>
      <trkpt lat="48.43084" lon="2.419">
        <ele>131.09</ele>
        <time>2017-07-02T11:07:41Z</time>
      </trkpt>
      <trkpt lat="48.43084" lon="2.41887">
        <ele>131.06</ele>
        <time>2017-07-02T11:07:43Z</time>
      </trkpt>
      <trkpt lat="48.43044" lon="2.41684">
        <ele>130.74</ele>
        <time>2017-07-02T11:08:13Z</time>
      </trkpt>
      <trkpt lat="48.43038" lon="2.41657">
        <ele>130.87</ele>
        <time>2017-07-02T11:08:17Z</time>
      </trkpt>
      <trkpt lat="48.43033" lon="2.41641">
        <ele>130.84</ele>
        <time>2017-07-02T11:08:19Z</time>
      </trkpt>
      <trkpt lat="48.43032" lon="2.41627">
        <ele>130.85</ele>
        <time>2017-07-02T11:08:21Z</time>
      </trkpt>
      <trkpt lat="48.43025" lon="2.41613">
        <ele>130.99</ele>
        <time>2017-07-02T11:08:23Z</time>
      </trkpt>
      <trkpt lat="48.43023" lon="2.41603">
        <ele>131</ele>
        <time>2017-07-02T11:08:25Z</time>
      </trkpt>
      <trkpt lat="48.43019" lon="2.41584">
        <ele>131</ele>
        <time>2017-07-02T11:08:27Z</time>
      </trkpt>
      <trkpt lat="48.43016" lon="2.41567">
        <ele>130.66</ele>
        <time>2017-07-02T11:08:29Z</time>
      </trkpt>
      <trkpt lat="48.43012" lon="2.41554">
        <ele>130.48</ele>
        <time>2017-07-02T11:08:31Z</time>
      </trkpt>
      <trkpt lat="48.43005" lon="2.41541">
        <ele>129.83</ele>
        <time>2017-07-02T11:08:33Z</time>
      </trkpt>
      <trkpt lat="48.42998" lon="2.41526">
        <ele>128.73</ele>
        <time>2017-07-02T11:08:35Z</time>
      </trkpt>
      <trkpt lat="48.42995" lon="2.41511">
        <ele>127.56</ele>
        <time>2017-07-02T11:08:37Z</time>
      </trkpt>
      <trkpt lat="48.42991" lon="2.41497">
        <ele>126.67</ele>
        <time>2017-07-02T11:08:39Z</time>
      </trkpt>
      <trkpt lat="48.42989" lon="2.41482">
        <ele>126.61</ele>
        <time>2017-07-02T11:08:41Z</time>
      </trkpt>
      <trkpt lat="48.42986" lon="2.41468">
        <ele>126.34</ele>
        <time>2017-07-02T11:08:43Z</time>
      </trkpt>
      <trkpt lat="48.42982" lon="2.41453">
        <ele>125.66</ele>
        <time>2017-07-02T11:08:45Z</time>
      </trkpt>
      <trkpt lat="48.42978" lon="2.41438">
        <ele>125.42</ele>
        <time>2017-07-02T11:08:47Z</time>
      </trkpt>
      <trkpt lat="48.42976" lon="2.41421">
        <ele>125.88</ele>
        <time>2017-07-02T11:08:49Z</time>
      </trkpt>
      <trkpt lat="48.42971" lon="2.41407">
        <ele>125.95</ele>
        <time>2017-07-02T11:08:51Z</time>
      </trkpt>
      <trkpt lat="48.42967" lon="2.41391">
        <ele>125.81</ele>
        <time>2017-07-02T11:08:53Z</time>
      </trkpt>
      <trkpt lat="48.42962" lon="2.41377">
        <ele>125.53</ele>
        <time>2017-07-02T11:08:55Z</time>
      </trkpt>
      <trkpt lat="48.42956" lon="2.41365">
        <ele>125.57</ele>
        <time>2017-07-02T11:08:57Z</time>
      </trkpt>
      <trkpt lat="48.42953" lon="2.41351">
        <ele>126.06</ele>
        <time>2017-07-02T11:08:59Z</time>
      </trkpt>
      <trkpt lat="48.42948" lon="2.41334">
        <ele>126.84</ele>
        <time>2017-07-02T11:09:01Z</time>
      </trkpt>
      <trkpt lat="48.42948" lon="2.41318">
        <ele>126.35</ele>
        <time>2017-07-02T11:09:03Z</time>
      </trkpt>
      <trkpt lat="48.42944" lon="2.41305">
        <ele>125.97</ele>
        <time>2017-07-02T11:09:05Z</time>
      </trkpt>
      <trkpt lat="48.42939" lon="2.41291">
        <ele>125.81</ele>
        <time>2017-07-02T11:09:07Z</time>
      </trkpt>
      <trkpt lat="48.42935" lon="2.41277">
        <ele>125.65</ele>
        <time>2017-07-02T11:09:09Z</time>
      </trkpt>
      <trkpt lat="48.42929" lon="2.41262">
        <ele>125.46</ele>
        <time>2017-07-02T11:09:11Z</time>
      </trkpt>
      <trkpt lat="48.42923" lon="2.41252">
        <ele>125.22</ele>
        <time>2017-07-02T11:09:13Z</time>
      </trkpt>
      <trkpt lat="48.42912" lon="2.41242">
        <ele>126.06</ele>
        <time>2017-07-02T11:09:15Z</time>
      </trkpt>
      <trkpt lat="48.42902" lon="2.41235">
        <ele>127.1</ele>
        <time>2017-07-02T11:09:17Z</time>
      </trkpt>
      <trkpt lat="48.42892" lon="2.41227">
        <ele>127.8</ele>
        <time>2017-07-02T11:09:19Z</time>
      </trkpt>
      <trkpt lat="48.42879" lon="2.41218">
        <ele>127.8</ele>
        <time>2017-07-02T11:09:21Z</time>
      </trkpt>
      <trkpt lat="48.42868" lon="2.41209">
        <ele>127.74</ele>
        <time>2017-07-02T11:09:23Z</time>
      </trkpt>
      <trkpt lat="48.42859" lon="2.41205">
        <ele>127.82</ele>
        <time>2017-07-02T11:09:25Z</time>
      </trkpt>
      <trkpt lat="48.42849" lon="2.41198">
        <ele>128.78</ele>
        <time>2017-07-02T11:09:27Z</time>
      </trkpt>
      <trkpt lat="48.4284" lon="2.41193">
        <ele>129.38</ele>
        <time>2017-07-02T11:09:29Z</time>
      </trkpt>
      <trkpt lat="48.42831" lon="2.4119">
        <ele>129.41</ele>
        <time>2017-07-02T11:09:31Z</time>
      </trkpt>
      <trkpt lat="48.42817" lon="2.41185">
        <ele>128.45</ele>
        <time>2017-07-02T11:09:33Z</time>
      </trkpt>
      <trkpt lat="48.42808" lon="2.41183">
        <ele>127.86</ele>
        <time>2017-07-02T11:09:35Z</time>
      </trkpt>
      <trkpt lat="48.42799" lon="2.41178">
        <ele>128.19</ele>
        <time>2017-07-02T11:09:37Z</time>
      </trkpt>
      <trkpt lat="48.42788" lon="2.41175">
        <ele>129.37</ele>
        <time>2017-07-02T11:09:39Z</time>
      </trkpt>
      <trkpt lat="48.42779" lon="2.41167">
        <ele>129.82</ele>
        <time>2017-07-02T11:09:41Z</time>
      </trkpt>
      <trkpt lat="48.42771" lon="2.41163">
        <ele>130.31</ele>
        <time>2017-07-02T11:09:43Z</time>
      </trkpt>
      <trkpt lat="48.42763" lon="2.41158">
        <ele>130.33</ele>
        <time>2017-07-02T11:09:45Z</time>
      </trkpt>
      <trkpt lat="48.42752" lon="2.41151">
        <ele>130.1</ele>
        <time>2017-07-02T11:09:47Z</time>
      </trkpt>
      <trkpt lat="48.42744" lon="2.41148">
        <ele>129.33</ele>
        <time>2017-07-02T11:09:49Z</time>
      </trkpt>
      <trkpt lat="48.42735" lon="2.41143">
        <ele>128.19</ele>
        <time>2017-07-02T11:09:51Z</time>
      </trkpt>
      <trkpt lat="48.42727" lon="2.41138">
        <ele>127.07</ele>
        <time>2017-07-02T11:09:53Z</time>
      </trkpt>
      <trkpt lat="48.4272" lon="2.41134">
        <ele>126.44</ele>
        <time>2017-07-02T11:09:55Z</time>
      </trkpt>
      <trkpt lat="48.42718" lon="2.41125">
        <ele>125.56</ele>
        <time>2017-07-02T11:09:57Z</time>
      </trkpt>
      <trkpt lat="48.4272" lon="2.41115">
        <ele>124.54</ele>
        <time>2017-07-02T11:09:59Z</time>
      </trkpt>
      <trkpt lat="48.42725" lon="2.41106">
        <ele>123.81</ele>
        <time>2017-07-02T11:10:01Z</time>
      </trkpt>
      <trkpt lat="48.42734" lon="2.41099">
        <ele>123.37</ele>
        <time>2017-07-02T11:10:03Z</time>
      </trkpt>
      <trkpt lat="48.42743" lon="2.41091">
        <ele>122.73</ele>
        <time>2017-07-02T11:10:05Z</time>
      </trkpt>
      <trkpt lat="48.42752" lon="2.41081">
        <ele>121.86</ele>
        <time>2017-07-02T11:10:07Z</time>
      </trkpt>
      <trkpt lat="48.4276" lon="2.41069">
        <ele>120.94</ele>
        <time>2017-07-02T11:10:09Z</time>
      </trkpt>
      <trkpt lat="48.42767" lon="2.41056">
        <ele>119.74</ele>
        <time>2017-07-02T11:10:11Z</time>
      </trkpt>
      <trkpt lat="48.42776" lon="2.41039">
        <ele>117.9</ele>
        <time>2017-07-02T11:10:13Z</time>
      </trkpt>
      <trkpt lat="48.42782" lon="2.4102">
        <ele>117.15</ele>
        <time>2017-07-02T11:10:15Z</time>
      </trkpt>
      <trkpt lat="48.42789" lon="2.41">
        <ele>116.97</ele>
        <time>2017-07-02T11:10:17Z</time>
      </trkpt>
      <trkpt lat="48.42794" lon="2.40976">
        <ele>115.18</ele>
        <time>2017-07-02T11:10:19Z</time>
      </trkpt>
      <trkpt lat="48.42797" lon="2.40951">
        <ele>114.8</ele>
        <time>2017-07-02T11:10:21Z</time>
      </trkpt>
      <trkpt lat="48.42799" lon="2.40925">
        <ele>115.62</ele>
        <time>2017-07-02T11:10:23Z</time>
      </trkpt>
      <trkpt lat="48.42798" lon="2.40898">
        <ele>116.48</ele>
        <time>2017-07-02T11:10:25Z</time>
      </trkpt>
      <trkpt lat="48.42793" lon="2.40871">
        <ele>116.54</ele>
        <time>2017-07-02T11:10:27Z</time>
      </trkpt>
      <trkpt lat="48.42787" lon="2.40845">
        <ele>115.39</ele>
        <time>2017-07-02T11:10:29Z</time>
      </trkpt>
      <trkpt lat="48.42781" lon="2.40817">
        <ele>113.25</ele>
        <time>2017-07-02T11:10:31Z</time>
      </trkpt>
      <trkpt lat="48.42774" lon="2.40788">
        <ele>111.12</ele>
        <time>2017-07-02T11:10:33Z</time>
      </trkpt>
      <trkpt lat="48.42767" lon="2.40757">
        <ele>111.05</ele>
        <time>2017-07-02T11:10:35Z</time>
      </trkpt>
      <trkpt lat="48.42762" lon="2.40727">
        <ele>111.84</ele>
        <time>2017-07-02T11:10:37Z</time>
      </trkpt>
      <trkpt lat="48.42755" lon="2.40696">
        <ele>113.13</ele>
        <time>2017-07-02T11:10:39Z</time>
      </trkpt>
      <trkpt lat="48.42749" lon="2.40666">
        <ele>114</ele>
        <time>2017-07-02T11:10:41Z</time>
      </trkpt>
      <trkpt lat="48.42743" lon="2.40635">
        <ele>113.1</ele>
        <time>2017-07-02T11:10:43Z</time>
      </trkpt>
      <trkpt lat="48.42735" lon="2.40606">
        <ele>109.61</ele>
        <time>2017-07-02T11:10:45Z</time>
      </trkpt>
      <trkpt lat="48.42729" lon="2.40573">
        <ele>103.98</ele>
        <time>2017-07-02T11:10:47Z</time>
      </trkpt>
      <trkpt lat="48.42723" lon="2.4054">
        <ele>98.79</ele>
        <time>2017-07-02T11:10:49Z</time>
      </trkpt>
      <trkpt lat="48.42716" lon="2.40509">
        <ele>95.37</ele>
        <time>2017-07-02T11:10:51Z</time>
      </trkpt>
      <trkpt lat="48.42712" lon="2.40478">
        <ele>92.77</ele>
        <time>2017-07-02T11:10:53Z</time>
      </trkpt>
      <trkpt lat="48.42704" lon="2.40447">
        <ele>90.62</ele>
        <time>2017-07-02T11:10:55Z</time>
      </trkpt>
      <trkpt lat="48.42697" lon="2.40416">
        <ele>86.91</ele>
        <time>2017-07-02T11:10:57Z</time>
      </trkpt>
      <trkpt lat="48.4269" lon="2.40385">
        <ele>83.62</ele>
        <time>2017-07-02T11:10:59Z</time>
      </trkpt>
      <trkpt lat="48.42683" lon="2.40354">
        <ele>80.84</ele>
        <time>2017-07-02T11:11:01Z</time>
      </trkpt>
      <trkpt lat="48.42677" lon="2.40321">
        <ele>80.35</ele>
        <time>2017-07-02T11:11:03Z</time>
      </trkpt>
      <trkpt lat="48.42673" lon="2.40288">
        <ele>78.59</ele>
        <time>2017-07-02T11:11:05Z</time>
      </trkpt>
      <trkpt lat="48.42673" lon="2.40255">
        <ele>76.33</ele>
        <time>2017-07-02T11:11:07Z</time>
      </trkpt>
      <trkpt lat="48.42674" lon="2.40223">
        <ele>74.77</ele>
        <time>2017-07-02T11:11:09Z</time>
      </trkpt>
      <trkpt lat="48.42676" lon="2.4019">
        <ele>72.06</ele>
        <time>2017-07-02T11:11:11Z</time>
      </trkpt>
      <trkpt lat="48.42677" lon="2.40159">
        <ele>69.79</ele>
        <time>2017-07-02T11:11:13Z</time>
      </trkpt>
      <trkpt lat="48.42679" lon="2.40133">
        <ele>68.31</ele>
        <time>2017-07-02T11:11:15Z</time>
      </trkpt>
      <trkpt lat="48.42681" lon="2.4011">
        <ele>67.42</ele>
        <time>2017-07-02T11:11:17Z</time>
      </trkpt>
      <trkpt lat="48.42682" lon="2.40091">
        <ele>66.71</ele>
        <time>2017-07-02T11:11:19Z</time>
      </trkpt>
      <trkpt lat="48.42684" lon="2.40077">
        <ele>66.05</ele>
        <time>2017-07-02T11:11:21Z</time>
      </trkpt>
      <trkpt lat="48.42684" lon="2.40063">
        <ele>65.35</ele>
        <time>2017-07-02T11:11:23Z</time>
      </trkpt>
      <trkpt lat="48.42686" lon="2.40047">
        <ele>62.53</ele>
        <time>2017-07-02T11:11:25Z</time>
      </trkpt>
      <trkpt lat="48.42687" lon="2.4003">
        <ele>57.52</ele>
        <time>2017-07-02T11:11:27Z</time>
      </trkpt>
      <trkpt lat="48.42688" lon="2.40012">
        <ele>57.69</ele>
        <time>2017-07-02T11:11:29Z</time>
      </trkpt>
      <trkpt lat="48.42689" lon="2.39994">
        <ele>58.76</ele>
        <time>2017-07-02T11:11:31Z</time>
      </trkpt>
      <trkpt lat="48.4269" lon="2.39975">
        <ele>61.31</ele>
        <time>2017-07-02T11:11:33Z</time>
      </trkpt>
      <trkpt lat="48.42691" lon="2.39956">
        <ele>61.71</ele>
        <time>2017-07-02T11:11:35Z</time>
      </trkpt>
      <trkpt lat="48.42691" lon="2.39939">
        <ele>61.49</ele>
        <time>2017-07-02T11:11:37Z</time>
      </trkpt>
      <trkpt lat="48.42693" lon="2.39921">
        <ele>61.01</ele>
        <time>2017-07-02T11:11:39Z</time>
      </trkpt>
      <trkpt lat="48.42693" lon="2.39903">
        <ele>60.39</ele>
        <time>2017-07-02T11:11:41Z</time>
      </trkpt>
      <trkpt lat="48.42691" lon="2.39886">
        <ele>59.88</ele>
        <time>2017-07-02T11:11:43Z</time>
      </trkpt>
      <trkpt lat="48.42692" lon="2.39867">
        <ele>59.92</ele>
        <time>2017-07-02T11:11:45Z</time>
      </trkpt>
      <trkpt lat="48.42693" lon="2.3985">
        <ele>60.38</ele>
        <time>2017-07-02T11:11:47Z</time>
      </trkpt>
      <trkpt lat="48.42693" lon="2.39834">
        <ele>60.96</ele>
        <time>2017-07-02T11:11:49Z</time>
      </trkpt>
      <trkpt lat="48.42689" lon="2.39815">
        <ele>62.22</ele>
        <time>2017-07-02T11:11:51Z</time>
      </trkpt>
      <trkpt lat="48.42687" lon="2.39799">
        <ele>63.11</ele>
        <time>2017-07-02T11:11:53Z</time>
      </trkpt>
      <trkpt lat="48.42685" lon="2.39785">
        <ele>63.64</ele>
        <time>2017-07-02T11:11:55Z</time>
      </trkpt>
      <trkpt lat="48.42682" lon="2.39773">
        <ele>63.71</ele>
        <time>2017-07-02T11:11:57Z</time>
      </trkpt>
      <trkpt lat="48.4268" lon="2.39763">
        <ele>63.44</ele>
        <time>2017-07-02T11:11:59Z</time>
      </trkpt>
      <trkpt lat="48.42677" lon="2.39754">
        <ele>62.97</ele>
        <time>2017-07-02T11:12:01Z</time>
      </trkpt>
      <trkpt lat="48.42676" lon="2.39746">
        <ele>62.77</ele>
        <time>2017-07-02T11:12:03Z</time>
      </trkpt>
      <trkpt lat="48.42675" lon="2.39737">
        <ele>62.44</ele>
        <time>2017-07-02T11:12:05Z</time>
      </trkpt>
      <trkpt lat="48.42672" lon="2.3973">
        <ele>61.95</ele>
        <time>2017-07-02T11:12:07Z</time>
      </trkpt>
      <trkpt lat="48.4267" lon="2.39718">
        <ele>61.42</ele>
        <time>2017-07-02T11:12:09Z</time>
      </trkpt>
      <trkpt lat="48.42665" lon="2.39701">
        <ele>60.14</ele>
        <time>2017-07-02T11:12:13Z</time>
      </trkpt>
      <trkpt lat="48.4266" lon="2.39688">
        <ele>59.59</ele>
        <time>2017-07-02T11:12:15Z</time>
      </trkpt>
      <trkpt lat="48.42658" lon="2.39675">
        <ele>59.59</ele>
        <time>2017-07-02T11:12:17Z</time>
      </trkpt>
      <trkpt lat="48.42656" lon="2.39662">
        <ele>59.71</ele>
        <time>2017-07-02T11:12:19Z</time>
      </trkpt>
      <trkpt lat="48.42654" lon="2.39647">
        <ele>59.95</ele>
        <time>2017-07-02T11:12:21Z</time>
      </trkpt>
      <trkpt lat="48.42654" lon="2.39636">
        <ele>60.09</ele>
        <time>2017-07-02T11:12:23Z</time>
      </trkpt>
      <trkpt lat="48.42653" lon="2.3962">
        <ele>60.02</ele>
        <time>2017-07-02T11:12:25Z</time>
      </trkpt>
      <trkpt lat="48.42648" lon="2.39609">
        <ele>59.39</ele>
        <time>2017-07-02T11:12:27Z</time>
      </trkpt>
      <trkpt lat="48.42646" lon="2.39596">
        <ele>59.44</ele>
        <time>2017-07-02T11:12:29Z</time>
      </trkpt>
      <trkpt lat="48.42645" lon="2.39585">
        <ele>59.55</ele>
        <time>2017-07-02T11:12:31Z</time>
      </trkpt>
      <trkpt lat="48.42643" lon="2.39573">
        <ele>59.47</ele>
        <time>2017-07-02T11:12:33Z</time>
      </trkpt>
      <trkpt lat="48.42643" lon="2.39559">
        <ele>59.44</ele>
        <time>2017-07-02T11:12:35Z</time>
      </trkpt>
      <trkpt lat="48.42639" lon="2.39547">
        <ele>59.05</ele>
        <time>2017-07-02T11:12:37Z</time>
      </trkpt>
      <trkpt lat="48.42632" lon="2.39536">
        <ele>58.61</ele>
        <time>2017-07-02T11:12:39Z</time>
      </trkpt>
      <trkpt lat="48.42632" lon="2.39525">
        <ele>58.56</ele>
        <time>2017-07-02T11:12:41Z</time>
      </trkpt>
      <trkpt lat="48.42631" lon="2.3951">
        <ele>58.85</ele>
        <time>2017-07-02T11:12:43Z</time>
      </trkpt>
      <trkpt lat="48.42594" lon="2.39308">
        <ele>61.42</ele>
        <time>2017-07-02T11:13:13Z</time>
      </trkpt>
      <trkpt lat="48.42589" lon="2.39281">
        <ele>60.32</ele>
        <time>2017-07-02T11:13:17Z</time>
      </trkpt>
      <trkpt lat="48.42586" lon="2.39269">
        <ele>59.77</ele>
        <time>2017-07-02T11:13:19Z</time>
      </trkpt>
      <trkpt lat="48.42581" lon="2.39241">
        <ele>58.9</ele>
        <time>2017-07-02T11:13:23Z</time>
      </trkpt>
      <trkpt lat="48.42577" lon="2.39227">
        <ele>58.79</ele>
        <time>2017-07-02T11:13:25Z</time>
      </trkpt>
      <trkpt lat="48.42574" lon="2.39214">
        <ele>58.86</ele>
        <time>2017-07-02T11:13:27Z</time>
      </trkpt>
      <trkpt lat="48.42572" lon="2.392">
        <ele>59.06</ele>
        <time>2017-07-02T11:13:29Z</time>
      </trkpt>
      <trkpt lat="48.42569" lon="2.39187">
        <ele>58.84</ele>
        <time>2017-07-02T11:13:31Z</time>
      </trkpt>
      <trkpt lat="48.42545" lon="2.3911">
        <ele>58</ele>
        <time>2017-07-02T11:13:42Z</time>
      </trkpt>
      <trkpt lat="48.42542" lon="2.39101">
        <ele>58</ele>
        <time>2017-07-02T11:13:45Z</time>
      </trkpt>
      <trkpt lat="48.42544" lon="2.3909">
        <ele>58</ele>
        <time>2017-07-02T11:13:47Z</time>
      </trkpt>
      <trkpt lat="48.42542" lon="2.39078">
        <ele>57.9</ele>
        <time>2017-07-02T11:13:49Z</time>
      </trkpt>
      <trkpt lat="48.42539" lon="2.39066">
        <ele>57.76</ele>
        <time>2017-07-02T11:13:51Z</time>
      </trkpt>
      <trkpt lat="48.42536" lon="2.39053">
        <ele>57.74</ele>
        <time>2017-07-02T11:13:53Z</time>
      </trkpt>
      <trkpt lat="48.42533" lon="2.39039">
        <ele>57.93</ele>
        <time>2017-07-02T11:13:55Z</time>
      </trkpt>
      <trkpt lat="48.4253" lon="2.39026">
        <ele>58.08</ele>
        <time>2017-07-02T11:13:57Z</time>
      </trkpt>
      <trkpt lat="48.42526" lon="2.39013">
        <ele>58.4</ele>
        <time>2017-07-02T11:13:59Z</time>
      </trkpt>
      <trkpt lat="48.42523" lon="2.39">
        <ele>58.47</ele>
        <time>2017-07-02T11:14:01Z</time>
      </trkpt>
      <trkpt lat="48.42519" lon="2.38988">
        <ele>58.67</ele>
        <time>2017-07-02T11:14:03Z</time>
      </trkpt>
      <trkpt lat="48.42516" lon="2.38975">
        <ele>58.96</ele>
        <time>2017-07-02T11:14:05Z</time>
      </trkpt>
      <trkpt lat="48.42511" lon="2.38963">
        <ele>59.84</ele>
        <time>2017-07-02T11:14:07Z</time>
      </trkpt>
      <trkpt lat="48.42507" lon="2.38952">
        <ele>61.1</ele>
        <time>2017-07-02T11:14:09Z</time>
      </trkpt>
      <trkpt lat="48.42502" lon="2.3894">
        <ele>62.38</ele>
        <time>2017-07-02T11:14:11Z</time>
      </trkpt>
      <trkpt lat="48.42497" lon="2.38928">
        <ele>63.31</ele>
        <time>2017-07-02T11:14:13Z</time>
      </trkpt>
      <trkpt lat="48.42493" lon="2.38916">
        <ele>63.56</ele>
        <time>2017-07-02T11:14:15Z</time>
      </trkpt>
      <trkpt lat="48.42491" lon="2.38903">
        <ele>62.48</ele>
        <time>2017-07-02T11:14:17Z</time>
      </trkpt>
      <trkpt lat="48.42487" lon="2.3889">
        <ele>61.57</ele>
        <time>2017-07-02T11:14:19Z</time>
      </trkpt>
      <trkpt lat="48.42484" lon="2.38879">
        <ele>60.95</ele>
        <time>2017-07-02T11:14:21Z</time>
      </trkpt>
      <trkpt lat="48.42483" lon="2.38865">
        <ele>60.51</ele>
        <time>2017-07-02T11:14:23Z</time>
      </trkpt>
      <trkpt lat="48.42486" lon="2.38853">
        <ele>59.62</ele>
        <time>2017-07-02T11:14:25Z</time>
      </trkpt>
      <trkpt lat="48.42482" lon="2.3884">
        <ele>58.02</ele>
        <time>2017-07-02T11:14:27Z</time>
      </trkpt>
      <trkpt lat="48.42476" lon="2.3883">
        <ele>57</ele>
        <time>2017-07-02T11:14:29Z</time>
      </trkpt>
      <trkpt lat="48.42469" lon="2.38824">
        <ele>56.96</ele>
        <time>2017-07-02T11:14:31Z</time>
      </trkpt>
      <trkpt lat="48.42459" lon="2.38823">
        <ele>57.76</ele>
        <time>2017-07-02T11:14:33Z</time>
      </trkpt>
      <trkpt lat="48.42452" lon="2.38813">
        <ele>58.3</ele>
        <time>2017-07-02T11:14:35Z</time>
      </trkpt>
      <trkpt lat="48.42447" lon="2.38797">
        <ele>58.43</ele>
        <time>2017-07-02T11:14:37Z</time>
      </trkpt>
      <trkpt lat="48.42439" lon="2.38785">
        <ele>57.9</ele>
        <time>2017-07-02T11:14:39Z</time>
      </trkpt>
      <trkpt lat="48.42435" lon="2.38772">
        <ele>57.59</ele>
        <time>2017-07-02T11:14:41Z</time>
      </trkpt>
      <trkpt lat="48.4243" lon="2.38758">
        <ele>57.51</ele>
        <time>2017-07-02T11:14:43Z</time>
      </trkpt>
      <trkpt lat="48.42425" lon="2.38745">
        <ele>57.49</ele>
        <time>2017-07-02T11:14:45Z</time>
      </trkpt>
      <trkpt lat="48.42419" lon="2.38734">
        <ele>57.34</ele>
        <time>2017-07-02T11:14:47Z</time>
      </trkpt>
      <trkpt lat="48.42414" lon="2.38723">
        <ele>56.93</ele>
        <time>2017-07-02T11:14:49Z</time>
      </trkpt>
      <trkpt lat="48.42409" lon="2.38713">
        <ele>56.95</ele>
        <time>2017-07-02T11:14:51Z</time>
      </trkpt>
      <trkpt lat="48.42406" lon="2.38702">
        <ele>57.07</ele>
        <time>2017-07-02T11:14:53Z</time>
      </trkpt>
      <trkpt lat="48.42402" lon="2.38692">
        <ele>56.78</ele>
        <time>2017-07-02T11:14:55Z</time>
      </trkpt>
      <trkpt lat="48.42397" lon="2.3868">
        <ele>55.74</ele>
        <time>2017-07-02T11:14:57Z</time>
      </trkpt>
      <trkpt lat="48.42396" lon="2.38672">
        <ele>55.31</ele>
        <time>2017-07-02T11:14:59Z</time>
      </trkpt>
      <trkpt lat="48.42394" lon="2.38665">
        <ele>55.03</ele>
        <time>2017-07-02T11:15:01Z</time>
      </trkpt>
      <trkpt lat="48.42391" lon="2.38652">
        <ele>55.47</ele>
        <time>2017-07-02T11:15:05Z</time>
      </trkpt>
      <trkpt lat="48.4239" lon="2.38643">
        <ele>55.8</ele>
        <time>2017-07-02T11:15:07Z</time>
      </trkpt>
      <trkpt lat="48.42386" lon="2.38637">
        <ele>56.17</ele>
        <time>2017-07-02T11:15:09Z</time>
      </trkpt>
      <trkpt lat="48.42384" lon="2.38629">
        <ele>56.53</ele>
        <time>2017-07-02T11:15:11Z</time>
      </trkpt>
      <trkpt lat="48.42382" lon="2.38622">
        <ele>56.85</ele>
        <time>2017-07-02T11:15:13Z</time>
      </trkpt>
      <trkpt lat="48.4238" lon="2.38614">
        <ele>57.22</ele>
        <time>2017-07-02T11:15:15Z</time>
      </trkpt>
      <trkpt lat="48.42378" lon="2.38607">
        <ele>57.51</ele>
        <time>2017-07-02T11:15:17Z</time>
      </trkpt>
      <trkpt lat="48.42372" lon="2.38596">
        <ele>58.27</ele>
        <time>2017-07-02T11:15:21Z</time>
      </trkpt>
      <trkpt lat="48.4237" lon="2.38588">
        <ele>58.84</ele>
        <time>2017-07-02T11:15:23Z</time>
      </trkpt>
      <trkpt lat="48.42367" lon="2.38581">
        <ele>59.44</ele>
        <time>2017-07-02T11:15:25Z</time>
      </trkpt>
      <trkpt lat="48.42365" lon="2.38574">
        <ele>59.84</ele>
        <time>2017-07-02T11:15:27Z</time>
      </trkpt>
      <trkpt lat="48.42363" lon="2.38568">
        <ele>60.32</ele>
        <time>2017-07-02T11:15:29Z</time>
      </trkpt>
      <trkpt lat="48.42357" lon="2.38555">
        <ele>60.85</ele>
        <time>2017-07-02T11:15:33Z</time>
      </trkpt>
      <trkpt lat="48.42356" lon="2.38546">
        <ele>60.6</ele>
        <time>2017-07-02T11:15:35Z</time>
      </trkpt>
      <trkpt lat="48.42353" lon="2.38539">
        <ele>60.46</ele>
        <time>2017-07-02T11:15:37Z</time>
      </trkpt>
      <trkpt lat="48.42351" lon="2.38531">
        <ele>60.4</ele>
        <time>2017-07-02T11:15:39Z</time>
      </trkpt>
      <trkpt lat="48.42349" lon="2.38523">
        <ele>60.43</ele>
        <time>2017-07-02T11:15:41Z</time>
      </trkpt>
      <trkpt lat="48.42343" lon="2.38507">
        <ele>60.65</ele>
        <time>2017-07-02T11:19:05Z</time>
      </trkpt>
      <trkpt lat="48.42341" lon="2.38499">
        <ele>60.58</ele>
        <time>2017-07-02T11:19:07Z</time>
      </trkpt>
      <trkpt lat="48.42337" lon="2.38491">
        <ele>59.7</ele>
        <time>2017-07-02T11:19:09Z</time>
      </trkpt>
      <trkpt lat="48.42334" lon="2.38481">
        <ele>58.36</ele>
        <time>2017-07-02T11:19:11Z</time>
      </trkpt>
      <trkpt lat="48.42332" lon="2.38472">
        <ele>57.16</ele>
        <time>2017-07-02T11:19:13Z</time>
      </trkpt>
      <trkpt lat="48.4233" lon="2.38463">
        <ele>57.49</ele>
        <time>2017-07-02T11:19:14Z</time>
      </trkpt>
      <trkpt lat="48.42327" lon="2.38452">
        <ele>57.91</ele>
        <time>2017-07-02T11:19:17Z</time>
      </trkpt>
      <trkpt lat="48.42323" lon="2.38439">
        <ele>58.45</ele>
        <time>2017-07-02T11:19:19Z</time>
      </trkpt>
      <trkpt lat="48.4232" lon="2.38426">
        <ele>58.96</ele>
        <time>2017-07-02T11:19:21Z</time>
      </trkpt>
      <trkpt lat="48.42317" lon="2.38412">
        <ele>59.42</ele>
        <time>2017-07-02T11:19:23Z</time>
      </trkpt>
      <trkpt lat="48.42311" lon="2.38393">
        <ele>60.27</ele>
        <time>2017-07-02T11:19:25Z</time>
      </trkpt>
      <trkpt lat="48.42306" lon="2.3835">
        <ele>61.99</ele>
        <time>2017-07-02T11:19:29Z</time>
      </trkpt>
      <trkpt lat="48.42303" lon="2.3833">
        <ele>61.85</ele>
        <time>2017-07-02T11:19:31Z</time>
      </trkpt>
      <trkpt lat="48.42303" lon="2.38301">
        <ele>61.86</ele>
        <time>2017-07-02T11:19:33Z</time>
      </trkpt>
      <trkpt lat="48.42296" lon="2.38281">
        <ele>58.19</ele>
        <time>2017-07-02T11:19:35Z</time>
      </trkpt>
      <trkpt lat="48.42293" lon="2.38258">
        <ele>56.46</ele>
        <time>2017-07-02T11:19:37Z</time>
      </trkpt>
      <trkpt lat="48.42289" lon="2.38234">
        <ele>54.65</ele>
        <time>2017-07-02T11:19:38Z</time>
      </trkpt>
      <trkpt lat="48.42286" lon="2.38212">
        <ele>53.08</ele>
        <time>2017-07-02T11:19:41Z</time>
      </trkpt>
      <trkpt lat="48.42286" lon="2.38191">
        <ele>52.16</ele>
        <time>2017-07-02T11:19:43Z</time>
      </trkpt>
      <trkpt lat="48.42285" lon="2.38173">
        <ele>53.14</ele>
        <time>2017-07-02T11:19:45Z</time>
      </trkpt>
      <trkpt lat="48.42284" lon="2.38158">
        <ele>53.34</ele>
        <time>2017-07-02T11:19:47Z</time>
      </trkpt>
      <trkpt lat="48.42283" lon="2.38142">
        <ele>52.86</ele>
        <time>2017-07-02T11:19:49Z</time>
      </trkpt>
      <trkpt lat="48.4228" lon="2.38041">
        <ele>56.65</ele>
        <time>2017-07-02T11:20:01Z</time>
      </trkpt>
      <trkpt lat="48.42279" lon="2.38018">
        <ele>57.06</ele>
        <time>2017-07-02T11:20:04Z</time>
      </trkpt>
      <trkpt lat="48.42279" lon="2.38003">
        <ele>57.01</ele>
        <time>2017-07-02T11:20:06Z</time>
      </trkpt>
      <trkpt lat="48.4228" lon="2.37987">
        <ele>56.04</ele>
        <time>2017-07-02T11:20:08Z</time>
      </trkpt>
      <trkpt lat="48.4228" lon="2.37972">
        <ele>54.99</ele>
        <time>2017-07-02T11:20:10Z</time>
      </trkpt>
      <trkpt lat="48.4228" lon="2.37957">
        <ele>54.05</ele>
        <time>2017-07-02T11:20:12Z</time>
      </trkpt>
      <trkpt lat="48.42281" lon="2.37942">
        <ele>53.26</ele>
        <time>2017-07-02T11:20:14Z</time>
      </trkpt>
      <trkpt lat="48.4228" lon="2.37928">
        <ele>52.73</ele>
        <time>2017-07-02T11:20:16Z</time>
      </trkpt>
      <trkpt lat="48.4228" lon="2.37915">
        <ele>52.45</ele>
        <time>2017-07-02T11:20:18Z</time>
      </trkpt>
      <trkpt lat="48.4228" lon="2.37903">
        <ele>53.16</ele>
        <time>2017-07-02T11:20:20Z</time>
      </trkpt>
      <trkpt lat="48.42281" lon="2.37887">
        <ele>53.98</ele>
        <time>2017-07-02T11:20:22Z</time>
      </trkpt>
      <trkpt lat="48.4228" lon="2.37873">
        <ele>53.65</ele>
        <time>2017-07-02T11:20:24Z</time>
      </trkpt>
      <trkpt lat="48.4228" lon="2.37861">
        <ele>53.39</ele>
        <time>2017-07-02T11:20:26Z</time>
      </trkpt>
      <trkpt lat="48.42281" lon="2.3785">
        <ele>54.56</ele>
        <time>2017-07-02T11:20:28Z</time>
      </trkpt>
      <trkpt lat="48.42282" lon="2.3784">
        <ele>55.44</ele>
        <time>2017-07-02T11:20:30Z</time>
      </trkpt>
      <trkpt lat="48.42281" lon="2.37826">
        <ele>56.26</ele>
        <time>2017-07-02T11:20:32Z</time>
      </trkpt>
      <trkpt lat="48.42282" lon="2.37814">
        <ele>56.71</ele>
        <time>2017-07-02T11:20:34Z</time>
      </trkpt>
      <trkpt lat="48.42282" lon="2.37803">
        <ele>57.03</ele>
        <time>2017-07-02T11:20:36Z</time>
      </trkpt>
      <trkpt lat="48.42283" lon="2.37793">
        <ele>57.17</ele>
        <time>2017-07-02T11:20:38Z</time>
      </trkpt>
      <trkpt lat="48.42282" lon="2.37782">
        <ele>57.27</ele>
        <time>2017-07-02T11:20:40Z</time>
      </trkpt>
      <trkpt lat="48.42283" lon="2.37771">
        <ele>57.97</ele>
        <time>2017-07-02T11:20:42Z</time>
      </trkpt>
      <trkpt lat="48.42285" lon="2.37759">
        <ele>59.02</ele>
        <time>2017-07-02T11:20:44Z</time>
      </trkpt>
      <trkpt lat="48.42284" lon="2.37749">
        <ele>59.68</ele>
        <time>2017-07-02T11:20:46Z</time>
      </trkpt>
      <trkpt lat="48.42283" lon="2.37736">
        <ele>59.9</ele>
        <time>2017-07-02T11:20:48Z</time>
      </trkpt>
      <trkpt lat="48.42284" lon="2.37726">
        <ele>60.14</ele>
        <time>2017-07-02T11:20:50Z</time>
      </trkpt>
      <trkpt lat="48.42283" lon="2.37713">
        <ele>59.94</ele>
        <time>2017-07-02T11:20:52Z</time>
      </trkpt>
      <trkpt lat="48.42281" lon="2.37702">
        <ele>59.5</ele>
        <time>2017-07-02T11:20:54Z</time>
      </trkpt>
      <trkpt lat="48.4228" lon="2.37692">
        <ele>59.27</ele>
        <time>2017-07-02T11:20:56Z</time>
      </trkpt>
      <trkpt lat="48.42278" lon="2.3768">
        <ele>59.52</ele>
        <time>2017-07-02T11:20:58Z</time>
      </trkpt>
      <trkpt lat="48.42276" lon="2.37669">
        <ele>59.8</ele>
        <time>2017-07-02T11:21:00Z</time>
      </trkpt>
      <trkpt lat="48.42275" lon="2.37658">
        <ele>60.12</ele>
        <time>2017-07-02T11:21:02Z</time>
      </trkpt>
      <trkpt lat="48.42274" lon="2.37646">
        <ele>60.48</ele>
        <time>2017-07-02T11:21:04Z</time>
      </trkpt>
      <trkpt lat="48.42271" lon="2.37632">
        <ele>60.83</ele>
        <time>2017-07-02T11:21:06Z</time>
      </trkpt>
      <trkpt lat="48.4227" lon="2.3762">
        <ele>61.3</ele>
        <time>2017-07-02T11:21:08Z</time>
      </trkpt>
      <trkpt lat="48.42267" lon="2.37608">
        <ele>61.63</ele>
        <time>2017-07-02T11:21:10Z</time>
      </trkpt>
      <trkpt lat="48.42265" lon="2.37595">
        <ele>61.55</ele>
        <time>2017-07-02T11:21:12Z</time>
      </trkpt>
      <trkpt lat="48.42262" lon="2.37584">
        <ele>61.44</ele>
        <time>2017-07-02T11:21:14Z</time>
      </trkpt>
      <trkpt lat="48.42261" lon="2.37571">
        <ele>62.1</ele>
        <time>2017-07-02T11:21:16Z</time>
      </trkpt>
      <trkpt lat="48.42259" lon="2.37561">
        <ele>62.65</ele>
        <time>2017-07-02T11:21:18Z</time>
      </trkpt>
      <trkpt lat="48.42256" lon="2.3755">
        <ele>63</ele>
        <time>2017-07-02T11:21:20Z</time>
      </trkpt>
      <trkpt lat="48.42254" lon="2.3754">
        <ele>63</ele>
        <time>2017-07-02T11:21:22Z</time>
      </trkpt>
      <trkpt lat="48.42251" lon="2.3753">
        <ele>63</ele>
        <time>2017-07-02T11:21:24Z</time>
      </trkpt>
      <trkpt lat="48.42248" lon="2.37519">
        <ele>62.69</ele>
        <time>2017-07-02T11:21:26Z</time>
      </trkpt>
      <trkpt lat="48.42246" lon="2.37506">
        <ele>62.34</ele>
        <time>2017-07-02T11:21:28Z</time>
      </trkpt>
      <trkpt lat="48.42244" lon="2.37496">
        <ele>62.22</ele>
        <time>2017-07-02T11:21:30Z</time>
      </trkpt>
      <trkpt lat="48.42241" lon="2.37488">
        <ele>62.33</ele>
        <time>2017-07-02T11:21:32Z</time>
      </trkpt>
      <trkpt lat="48.4224" lon="2.37476">
        <ele>62.35</ele>
        <time>2017-07-02T11:21:34Z</time>
      </trkpt>
      <trkpt lat="48.42239" lon="2.37466">
        <ele>62.31</ele>
        <time>2017-07-02T11:21:36Z</time>
      </trkpt>
      <trkpt lat="48.42237" lon="2.37455">
        <ele>62.17</ele>
        <time>2017-07-02T11:21:38Z</time>
      </trkpt>
      <trkpt lat="48.42238" lon="2.37447">
        <ele>62.03</ele>
        <time>2017-07-02T11:21:40Z</time>
      </trkpt>
      <trkpt lat="48.42238" lon="2.37437">
        <ele>61.42</ele>
        <time>2017-07-02T11:21:42Z</time>
      </trkpt>
      <trkpt lat="48.4224" lon="2.37427">
        <ele>60.59</ele>
        <time>2017-07-02T11:21:44Z</time>
      </trkpt>
      <trkpt lat="48.42243" lon="2.37417">
        <ele>59.55</ele>
        <time>2017-07-02T11:21:46Z</time>
      </trkpt>
      <trkpt lat="48.42245" lon="2.37405">
        <ele>59.29</ele>
        <time>2017-07-02T11:21:48Z</time>
      </trkpt>
      <trkpt lat="48.42245" lon="2.37395">
        <ele>59.22</ele>
        <time>2017-07-02T11:21:50Z</time>
      </trkpt>
      <trkpt lat="48.42242" lon="2.37386">
        <ele>59.39</ele>
        <time>2017-07-02T11:21:52Z</time>
      </trkpt>
      <trkpt lat="48.42237" lon="2.37376">
        <ele>59.76</ele>
        <time>2017-07-02T11:21:54Z</time>
      </trkpt>
      <trkpt lat="48.4223" lon="2.3737">
        <ele>59.63</ele>
        <time>2017-07-02T11:21:56Z</time>
      </trkpt>
      <trkpt lat="48.42223" lon="2.37369">
        <ele>59.3</ele>
        <time>2017-07-02T11:21:58Z</time>
      </trkpt>
      <trkpt lat="48.42213" lon="2.37368">
        <ele>59.49</ele>
        <time>2017-07-02T11:22:00Z</time>
      </trkpt>
      <trkpt lat="48.42204" lon="2.37368">
        <ele>59.75</ele>
        <time>2017-07-02T11:22:02Z</time>
      </trkpt>
      <trkpt lat="48.42194" lon="2.37368">
        <ele>59.96</ele>
        <time>2017-07-02T11:22:04Z</time>
      </trkpt>
      <trkpt lat="48.42185" lon="2.37368">
        <ele>59.8</ele>
        <time>2017-07-02T11:22:06Z</time>
      </trkpt>
      <trkpt lat="48.42173" lon="2.37372">
        <ele>59.4</ele>
        <time>2017-07-02T11:22:08Z</time>
      </trkpt>
      <trkpt lat="48.42163" lon="2.37375">
        <ele>59.73</ele>
        <time>2017-07-02T11:22:10Z</time>
      </trkpt>
      <trkpt lat="48.42151" lon="2.37376">
        <ele>60.6</ele>
        <time>2017-07-02T11:22:12Z</time>
      </trkpt>
      <trkpt lat="48.42142" lon="2.37375">
        <ele>61.25</ele>
        <time>2017-07-02T11:22:14Z</time>
      </trkpt>
      <trkpt lat="48.42132" lon="2.37373">
        <ele>61.57</ele>
        <time>2017-07-02T11:22:16Z</time>
      </trkpt>
      <trkpt lat="48.42123" lon="2.37371">
        <ele>61.64</ele>
        <time>2017-07-02T11:22:18Z</time>
      </trkpt>
      <trkpt lat="48.42111" lon="2.37372">
        <ele>61.62</ele>
        <time>2017-07-02T11:22:20Z</time>
      </trkpt>
      <trkpt lat="48.42101" lon="2.37375">
        <ele>62.08</ele>
        <time>2017-07-02T11:22:22Z</time>
      </trkpt>
      <trkpt lat="48.42091" lon="2.37373">
        <ele>62.6</ele>
        <time>2017-07-02T11:22:24Z</time>
      </trkpt>
      <trkpt lat="48.4208" lon="2.37374">
        <ele>62.19</ele>
        <time>2017-07-02T11:22:26Z</time>
      </trkpt>
      <trkpt lat="48.42068" lon="2.37375">
        <ele>59.63</ele>
        <time>2017-07-02T11:22:28Z</time>
      </trkpt>
      <trkpt lat="48.42056" lon="2.37375">
        <ele>57.07</ele>
        <time>2017-07-02T11:22:30Z</time>
      </trkpt>
      <trkpt lat="48.42044" lon="2.37374">
        <ele>58.62</ele>
        <time>2017-07-02T11:22:32Z</time>
      </trkpt>
      <trkpt lat="48.42031" lon="2.37374">
        <ele>60.44</ele>
        <time>2017-07-02T11:22:34Z</time>
      </trkpt>
      <trkpt lat="48.42021" lon="2.37376">
        <ele>60.41</ele>
        <time>2017-07-02T11:22:36Z</time>
      </trkpt>
      <trkpt lat="48.42008" lon="2.37376">
        <ele>58.95</ele>
        <time>2017-07-02T11:22:38Z</time>
      </trkpt>
      <trkpt lat="48.41998" lon="2.37377">
        <ele>58.2</ele>
        <time>2017-07-02T11:22:40Z</time>
      </trkpt>
      <trkpt lat="48.41986" lon="2.3738">
        <ele>58.68</ele>
        <time>2017-07-02T11:22:42Z</time>
      </trkpt>
      <trkpt lat="48.41972" lon="2.37384">
        <ele>59</ele>
        <time>2017-07-02T11:22:44Z</time>
      </trkpt>
      <trkpt lat="48.4196" lon="2.37388">
        <ele>58.12</ele>
        <time>2017-07-02T11:22:46Z</time>
      </trkpt>
      <trkpt lat="48.41949" lon="2.37392">
        <ele>57.46</ele>
        <time>2017-07-02T11:22:48Z</time>
      </trkpt>
      <trkpt lat="48.41936" lon="2.37397">
        <ele>56.62</ele>
        <time>2017-07-02T11:22:50Z</time>
      </trkpt>
      <trkpt lat="48.41926" lon="2.37405">
        <ele>55.82</ele>
        <time>2017-07-02T11:22:52Z</time>
      </trkpt>
      <trkpt lat="48.41915" lon="2.37412">
        <ele>55.15</ele>
        <time>2017-07-02T11:22:54Z</time>
      </trkpt>
      <trkpt lat="48.41903" lon="2.37421">
        <ele>56.52</ele>
        <time>2017-07-02T11:22:56Z</time>
      </trkpt>
      <trkpt lat="48.41891" lon="2.37429">
        <ele>56.65</ele>
        <time>2017-07-02T11:22:58Z</time>
      </trkpt>
      <trkpt lat="48.41879" lon="2.37434">
        <ele>56.28</ele>
        <time>2017-07-02T11:23:00Z</time>
      </trkpt>
      <trkpt lat="48.41868" lon="2.37442">
        <ele>56.5</ele>
        <time>2017-07-02T11:23:02Z</time>
      </trkpt>
      <trkpt lat="48.41858" lon="2.3745">
        <ele>56.22</ele>
        <time>2017-07-02T11:23:04Z</time>
      </trkpt>
      <trkpt lat="48.41847" lon="2.37453">
        <ele>54.86</ele>
        <time>2017-07-02T11:23:06Z</time>
      </trkpt>
      <trkpt lat="48.41835" lon="2.37458">
        <ele>53.65</ele>
        <time>2017-07-02T11:23:08Z</time>
      </trkpt>
      <trkpt lat="48.41822" lon="2.37463">
        <ele>53.39</ele>
        <time>2017-07-02T11:23:10Z</time>
      </trkpt>
      <trkpt lat="48.4181" lon="2.3747">
        <ele>53.14</ele>
        <time>2017-07-02T11:23:12Z</time>
      </trkpt>
      <trkpt lat="48.418" lon="2.37477">
        <ele>54.01</ele>
        <time>2017-07-02T11:23:14Z</time>
      </trkpt>
      <trkpt lat="48.41786" lon="2.37485">
        <ele>55.52</ele>
        <time>2017-07-02T11:23:16Z</time>
      </trkpt>
      <trkpt lat="48.41775" lon="2.37489">
        <ele>56.11</ele>
        <time>2017-07-02T11:23:18Z</time>
      </trkpt>
      <trkpt lat="48.41764" lon="2.37496">
        <ele>56.84</ele>
        <time>2017-07-02T11:23:20Z</time>
      </trkpt>
      <trkpt lat="48.41753" lon="2.37505">
        <ele>57.98</ele>
        <time>2017-07-02T11:23:22Z</time>
      </trkpt>
      <trkpt lat="48.4174" lon="2.3751">
        <ele>58.34</ele>
        <time>2017-07-02T11:23:24Z</time>
      </trkpt>
      <trkpt lat="48.41727" lon="2.37516">
        <ele>58.58</ele>
        <time>2017-07-02T11:23:26Z</time>
      </trkpt>
      <trkpt lat="48.41715" lon="2.37522">
        <ele>58.8</ele>
        <time>2017-07-02T11:23:28Z</time>
      </trkpt>
      <trkpt lat="48.41704" lon="2.37529">
        <ele>59.06</ele>
        <time>2017-07-02T11:23:30Z</time>
      </trkpt>
      <trkpt lat="48.41692" lon="2.37535">
        <ele>59.15</ele>
        <time>2017-07-02T11:23:32Z</time>
      </trkpt>
      <trkpt lat="48.41681" lon="2.37541">
        <ele>58.74</ele>
        <time>2017-07-02T11:23:34Z</time>
      </trkpt>
      <trkpt lat="48.41669" lon="2.37547">
        <ele>58.5</ele>
        <time>2017-07-02T11:23:36Z</time>
      </trkpt>
      <trkpt lat="48.41658" lon="2.37552">
        <ele>57.61</ele>
        <time>2017-07-02T11:23:38Z</time>
      </trkpt>
      <trkpt lat="48.41647" lon="2.37558">
        <ele>56.27</ele>
        <time>2017-07-02T11:23:40Z</time>
      </trkpt>
      <trkpt lat="48.41636" lon="2.37564">
        <ele>55.88</ele>
        <time>2017-07-02T11:23:42Z</time>
      </trkpt>
      <trkpt lat="48.41624" lon="2.37571">
        <ele>56.48</ele>
        <time>2017-07-02T11:23:44Z</time>
      </trkpt>
      <trkpt lat="48.41612" lon="2.37578">
        <ele>55.83</ele>
        <time>2017-07-02T11:23:46Z</time>
      </trkpt>
      <trkpt lat="48.416" lon="2.37586">
        <ele>55.89</ele>
        <time>2017-07-02T11:23:48Z</time>
      </trkpt>
      <trkpt lat="48.4159" lon="2.37593">
        <ele>56.51</ele>
        <time>2017-07-02T11:23:50Z</time>
      </trkpt>
      <trkpt lat="48.41579" lon="2.37602">
        <ele>56.28</ele>
        <time>2017-07-02T11:23:52Z</time>
      </trkpt>
      <trkpt lat="48.41569" lon="2.37611">
        <ele>56.01</ele>
        <time>2017-07-02T11:23:54Z</time>
      </trkpt>
      <trkpt lat="48.4156" lon="2.37624">
        <ele>55.81</ele>
        <time>2017-07-02T11:23:56Z</time>
      </trkpt>
      <trkpt lat="48.41548" lon="2.37636">
        <ele>54.8</ele>
        <time>2017-07-02T11:23:58Z</time>
      </trkpt>
      <trkpt lat="48.41539" lon="2.37648">
        <ele>54.76</ele>
        <time>2017-07-02T11:24:00Z</time>
      </trkpt>
      <trkpt lat="48.4153" lon="2.37657">
        <ele>54.71</ele>
        <time>2017-07-02T11:24:02Z</time>
      </trkpt>
      <trkpt lat="48.41519" lon="2.37668">
        <ele>54.39</ele>
        <time>2017-07-02T11:24:04Z</time>
      </trkpt>
      <trkpt lat="48.4151" lon="2.37681">
        <ele>54.21</ele>
        <time>2017-07-02T11:24:06Z</time>
      </trkpt>
      <trkpt lat="48.415" lon="2.37693">
        <ele>53.94</ele>
        <time>2017-07-02T11:24:08Z</time>
      </trkpt>
      <trkpt lat="48.41488" lon="2.37708">
        <ele>55.43</ele>
        <time>2017-07-02T11:24:10Z</time>
      </trkpt>
      <trkpt lat="48.41478" lon="2.37719">
        <ele>56.57</ele>
        <time>2017-07-02T11:24:12Z</time>
      </trkpt>
      <trkpt lat="48.41466" lon="2.37731">
        <ele>57.77</ele>
        <time>2017-07-02T11:24:14Z</time>
      </trkpt>
      <trkpt lat="48.41456" lon="2.37742">
        <ele>58.6</ele>
        <time>2017-07-02T11:24:16Z</time>
      </trkpt>
      <trkpt lat="48.41446" lon="2.37753">
        <ele>59.23</ele>
        <time>2017-07-02T11:24:18Z</time>
      </trkpt>
      <trkpt lat="48.41435" lon="2.37765">
        <ele>60.09</ele>
        <time>2017-07-02T11:24:20Z</time>
      </trkpt>
      <trkpt lat="48.41424" lon="2.37776">
        <ele>60.86</ele>
        <time>2017-07-02T11:24:22Z</time>
      </trkpt>
      <trkpt lat="48.41412" lon="2.37786">
        <ele>61.92</ele>
        <time>2017-07-02T11:24:24Z</time>
      </trkpt>
      <trkpt lat="48.41402" lon="2.378">
        <ele>64.13</ele>
        <time>2017-07-02T11:24:26Z</time>
      </trkpt>
      <trkpt lat="48.41391" lon="2.37814">
        <ele>67.53</ele>
        <time>2017-07-02T11:24:28Z</time>
      </trkpt>
      <trkpt lat="48.41383" lon="2.37822">
        <ele>70.48</ele>
        <time>2017-07-02T11:24:30Z</time>
      </trkpt>
      <trkpt lat="48.41373" lon="2.37836">
        <ele>73.07</ele>
        <time>2017-07-02T11:24:32Z</time>
      </trkpt>
      <trkpt lat="48.41363" lon="2.37847">
        <ele>73.67</ele>
        <time>2017-07-02T11:24:34Z</time>
      </trkpt>
      <trkpt lat="48.41353" lon="2.37857">
        <ele>72.13</ele>
        <time>2017-07-02T11:24:36Z</time>
      </trkpt>
      <trkpt lat="48.41343" lon="2.37866">
        <ele>69.65</ele>
        <time>2017-07-02T11:24:38Z</time>
      </trkpt>
      <trkpt lat="48.41335" lon="2.37876">
        <ele>67.05</ele>
        <time>2017-07-02T11:24:40Z</time>
      </trkpt>
      <trkpt lat="48.41324" lon="2.37883">
        <ele>64.59</ele>
        <time>2017-07-02T11:24:42Z</time>
      </trkpt>
      <trkpt lat="48.41314" lon="2.37887">
        <ele>63.04</ele>
        <time>2017-07-02T11:24:44Z</time>
      </trkpt>
      <trkpt lat="48.41304" lon="2.37894">
        <ele>62.04</ele>
        <time>2017-07-02T11:24:46Z</time>
      </trkpt>
      <trkpt lat="48.41295" lon="2.37899">
        <ele>61.24</ele>
        <time>2017-07-02T11:24:48Z</time>
      </trkpt>
      <trkpt lat="48.41285" lon="2.37906">
        <ele>60.39</ele>
        <time>2017-07-02T11:24:50Z</time>
      </trkpt>
      <trkpt lat="48.41276" lon="2.37912">
        <ele>59.67</ele>
        <time>2017-07-02T11:24:52Z</time>
      </trkpt>
      <trkpt lat="48.41266" lon="2.37917">
        <ele>58.74</ele>
        <time>2017-07-02T11:24:54Z</time>
      </trkpt>
      <trkpt lat="48.41253" lon="2.37921">
        <ele>57.46</ele>
        <time>2017-07-02T11:24:56Z</time>
      </trkpt>
      <trkpt lat="48.41243" lon="2.37924">
        <ele>57.54</ele>
        <time>2017-07-02T11:24:58Z</time>
      </trkpt>
      <trkpt lat="48.41233" lon="2.37931">
        <ele>58.13</ele>
        <time>2017-07-02T11:25:00Z</time>
      </trkpt>
      <trkpt lat="48.41222" lon="2.37938">
        <ele>58.78</ele>
        <time>2017-07-02T11:25:02Z</time>
      </trkpt>
      <trkpt lat="48.41209" lon="2.37946">
        <ele>58.97</ele>
        <time>2017-07-02T11:25:04Z</time>
      </trkpt>
      <trkpt lat="48.41196" lon="2.37951">
        <ele>58.99</ele>
        <time>2017-07-02T11:25:06Z</time>
      </trkpt>
      <trkpt lat="48.41184" lon="2.3796">
        <ele>58.35</ele>
        <time>2017-07-02T11:25:08Z</time>
      </trkpt>
      <trkpt lat="48.41111" lon="2.37989">
        <ele>54.37</ele>
        <time>2017-07-02T11:25:20Z</time>
      </trkpt>
      <trkpt lat="48.41098" lon="2.37993">
        <ele>53.52</ele>
        <time>2017-07-02T11:25:23Z</time>
      </trkpt>
      <trkpt lat="48.41083" lon="2.37995">
        <ele>52.83</ele>
        <time>2017-07-02T11:25:25Z</time>
      </trkpt>
      <trkpt lat="48.4107" lon="2.37998">
        <ele>52.88</ele>
        <time>2017-07-02T11:25:27Z</time>
      </trkpt>
      <trkpt lat="48.41056" lon="2.38">
        <ele>52.95</ele>
        <time>2017-07-02T11:25:29Z</time>
      </trkpt>
      <trkpt lat="48.41041" lon="2.38001">
        <ele>48.71</ele>
        <time>2017-07-02T11:25:31Z</time>
      </trkpt>
      <trkpt lat="48.41018" lon="2.38008">
        <ele>44.58</ele>
        <time>2017-07-02T11:25:35Z</time>
      </trkpt>
      <trkpt lat="48.41006" lon="2.38012">
        <ele>44.08</ele>
        <time>2017-07-02T11:25:37Z</time>
      </trkpt>
      <trkpt lat="48.40992" lon="2.38013">
        <ele>44.12</ele>
        <time>2017-07-02T11:25:39Z</time>
      </trkpt>
      <trkpt lat="48.40981" lon="2.38016">
        <ele>43.48</ele>
        <time>2017-07-02T11:25:41Z</time>
      </trkpt>
      <trkpt lat="48.4097" lon="2.38019">
        <ele>43.89</ele>
        <time>2017-07-02T11:25:43Z</time>
      </trkpt>
      <trkpt lat="48.40943" lon="2.38022">
        <ele>50.88</ele>
        <time>2017-07-02T11:25:47Z</time>
      </trkpt>
      <trkpt lat="48.4093" lon="2.38022">
        <ele>56.18</ele>
        <time>2017-07-02T11:25:49Z</time>
      </trkpt>
      <trkpt lat="48.40918" lon="2.38021">
        <ele>60.57</ele>
        <time>2017-07-02T11:25:51Z</time>
      </trkpt>
      <trkpt lat="48.40907" lon="2.38018">
        <ele>62.08</ele>
        <time>2017-07-02T11:25:53Z</time>
      </trkpt>
      <trkpt lat="48.40894" lon="2.38011">
        <ele>63.07</ele>
        <time>2017-07-02T11:25:55Z</time>
      </trkpt>
      <trkpt lat="48.4087" lon="2.38">
        <ele>63.01</ele>
        <time>2017-07-02T11:25:59Z</time>
      </trkpt>
      <trkpt lat="48.40858" lon="2.37994">
        <ele>62.99</ele>
        <time>2017-07-02T11:26:01Z</time>
      </trkpt>
      <trkpt lat="48.40845" lon="2.37989">
        <ele>61.26</ele>
        <time>2017-07-02T11:26:03Z</time>
      </trkpt>
      <trkpt lat="48.4083" lon="2.37986">
        <ele>59.25</ele>
        <time>2017-07-02T11:26:05Z</time>
      </trkpt>
      <trkpt lat="48.40816" lon="2.37983">
        <ele>60.05</ele>
        <time>2017-07-02T11:26:07Z</time>
      </trkpt>
      <trkpt lat="48.40791" lon="2.37973">
        <ele>61.53</ele>
        <time>2017-07-02T11:26:11Z</time>
      </trkpt>
      <trkpt lat="48.40781" lon="2.37967">
        <ele>62.09</ele>
        <time>2017-07-02T11:26:13Z</time>
      </trkpt>
      <trkpt lat="48.40768" lon="2.37962">
        <ele>61.27</ele>
        <time>2017-07-02T11:26:15Z</time>
      </trkpt>
      <trkpt lat="48.40759" lon="2.37954">
        <ele>61.45</ele>
        <time>2017-07-02T11:26:17Z</time>
      </trkpt>
      <trkpt lat="48.40746" lon="2.37952">
        <ele>61.34</ele>
        <time>2017-07-02T11:26:19Z</time>
      </trkpt>
      <trkpt lat="48.40736" lon="2.37949">
        <ele>62</ele>
        <time>2017-07-02T11:26:20Z</time>
      </trkpt>
      <trkpt lat="48.40723" lon="2.37945">
        <ele>62.85</ele>
        <time>2017-07-02T11:26:23Z</time>
      </trkpt>
      <trkpt lat="48.4071" lon="2.37943">
        <ele>61.6</ele>
        <time>2017-07-02T11:26:25Z</time>
      </trkpt>
      <trkpt lat="48.40697" lon="2.3794">
        <ele>60.06</ele>
        <time>2017-07-02T11:26:27Z</time>
      </trkpt>
      <trkpt lat="48.40684" lon="2.37938">
        <ele>59.95</ele>
        <time>2017-07-02T11:26:29Z</time>
      </trkpt>
      <trkpt lat="48.40671" lon="2.37934">
        <ele>59.82</ele>
        <time>2017-07-02T11:26:31Z</time>
      </trkpt>
      <trkpt lat="48.40657" lon="2.37932">
        <ele>59.44</ele>
        <time>2017-07-02T11:26:33Z</time>
      </trkpt>
      <trkpt lat="48.40634" lon="2.37925">
        <ele>59.41</ele>
        <time>2017-07-02T11:26:37Z</time>
      </trkpt>
      <trkpt lat="48.4062" lon="2.37922">
        <ele>60.47</ele>
        <time>2017-07-02T11:26:39Z</time>
      </trkpt>
      <trkpt lat="48.40607" lon="2.3792">
        <ele>62.11</ele>
        <time>2017-07-02T11:26:41Z</time>
      </trkpt>
      <trkpt lat="48.40596" lon="2.37914">
        <ele>64.71</ele>
        <time>2017-07-02T11:26:43Z</time>
      </trkpt>
      <trkpt lat="48.40584" lon="2.37911">
        <ele>67.14</ele>
        <time>2017-07-02T11:26:45Z</time>
      </trkpt>
      <trkpt lat="48.40562" lon="2.37908">
        <ele>63.57</ele>
        <time>2017-07-02T11:26:49Z</time>
      </trkpt>
      <trkpt lat="48.4055" lon="2.37906">
        <ele>61.5</ele>
        <time>2017-07-02T11:26:51Z</time>
      </trkpt>
      <trkpt lat="48.40539" lon="2.37905">
        <ele>60.68</ele>
        <time>2017-07-02T11:26:53Z</time>
      </trkpt>
      <trkpt lat="48.40528" lon="2.37904">
        <ele>60</ele>
        <time>2017-07-02T11:26:55Z</time>
      </trkpt>
      <trkpt lat="48.40454" lon="2.37891">
        <ele>58.04</ele>
        <time>2017-07-02T11:27:07Z</time>
      </trkpt>
      <trkpt lat="48.40442" lon="2.37887">
        <ele>57.14</ele>
        <time>2017-07-02T11:27:10Z</time>
      </trkpt>
      <trkpt lat="48.4043" lon="2.37886">
        <ele>57.52</ele>
        <time>2017-07-02T11:27:12Z</time>
      </trkpt>
      <trkpt lat="48.40419" lon="2.37882">
        <ele>57.7</ele>
        <time>2017-07-02T11:27:14Z</time>
      </trkpt>
      <trkpt lat="48.40408" lon="2.3788">
        <ele>57.05</ele>
        <time>2017-07-02T11:27:16Z</time>
      </trkpt>
      <trkpt lat="48.40397" lon="2.37876">
        <ele>56.38</ele>
        <time>2017-07-02T11:27:18Z</time>
      </trkpt>
      <trkpt lat="48.40327" lon="2.37856">
        <ele>58.45</ele>
        <time>2017-07-02T11:27:30Z</time>
      </trkpt>
      <trkpt lat="48.40311" lon="2.37852">
        <ele>58.52</ele>
        <time>2017-07-02T11:27:33Z</time>
      </trkpt>
      <trkpt lat="48.40299" lon="2.37851">
        <ele>60.73</ele>
        <time>2017-07-02T11:27:35Z</time>
      </trkpt>
      <trkpt lat="48.40287" lon="2.37848">
        <ele>64.05</ele>
        <time>2017-07-02T11:27:37Z</time>
      </trkpt>
      <trkpt lat="48.40276" lon="2.37846">
        <ele>66.53</ele>
        <time>2017-07-02T11:27:39Z</time>
      </trkpt>
      <trkpt lat="48.40264" lon="2.37843">
        <ele>67.17</ele>
        <time>2017-07-02T11:27:41Z</time>
      </trkpt>
      <trkpt lat="48.40252" lon="2.3784">
        <ele>68.12</ele>
        <time>2017-07-02T11:27:43Z</time>
      </trkpt>
      <trkpt lat="48.4024" lon="2.37837">
        <ele>68.59</ele>
        <time>2017-07-02T11:27:45Z</time>
      </trkpt>
      <trkpt lat="48.40229" lon="2.37837">
        <ele>68.66</ele>
        <time>2017-07-02T11:27:47Z</time>
      </trkpt>
      <trkpt lat="48.40217" lon="2.37834">
        <ele>69.27</ele>
        <time>2017-07-02T11:27:49Z</time>
      </trkpt>
      <trkpt lat="48.40207" lon="2.3783">
        <ele>70.37</ele>
        <time>2017-07-02T11:27:51Z</time>
      </trkpt>
      <trkpt lat="48.40197" lon="2.37825">
        <ele>71.68</ele>
        <time>2017-07-02T11:27:53Z</time>
      </trkpt>
      <trkpt lat="48.40187" lon="2.37822">
        <ele>71.95</ele>
        <time>2017-07-02T11:27:55Z</time>
      </trkpt>
      <trkpt lat="48.40177" lon="2.37817">
        <ele>72.14</ele>
        <time>2017-07-02T11:27:57Z</time>
      </trkpt>
      <trkpt lat="48.40168" lon="2.3781">
        <ele>72.55</ele>
        <time>2017-07-02T11:27:59Z</time>
      </trkpt>
      <trkpt lat="48.4016" lon="2.37803">
        <ele>72.35</ele>
        <time>2017-07-02T11:28:01Z</time>
      </trkpt>
      <trkpt lat="48.40152" lon="2.37796">
        <ele>71.6</ele>
        <time>2017-07-02T11:28:03Z</time>
      </trkpt>
      <trkpt lat="48.40143" lon="2.37789">
        <ele>71.13</ele>
        <time>2017-07-02T11:28:05Z</time>
      </trkpt>
      <trkpt lat="48.40135" lon="2.37781">
        <ele>71.1</ele>
        <time>2017-07-02T11:28:07Z</time>
      </trkpt>
      <trkpt lat="48.40128" lon="2.37774">
        <ele>71.29</ele>
        <time>2017-07-02T11:28:09Z</time>
      </trkpt>
      <trkpt lat="48.4012" lon="2.37767">
        <ele>71.28</ele>
        <time>2017-07-02T11:28:11Z</time>
      </trkpt>
      <trkpt lat="48.40112" lon="2.3776">
        <ele>71.34</ele>
        <time>2017-07-02T11:28:13Z</time>
      </trkpt>
      <trkpt lat="48.40106" lon="2.37754">
        <ele>70.94</ele>
        <time>2017-07-02T11:28:15Z</time>
      </trkpt>
      <trkpt lat="48.40098" lon="2.37744">
        <ele>70.21</ele>
        <time>2017-07-02T11:28:17Z</time>
      </trkpt>
      <trkpt lat="48.40092" lon="2.37737">
        <ele>69.52</ele>
        <time>2017-07-02T11:28:19Z</time>
      </trkpt>
      <trkpt lat="48.40084" lon="2.3773">
        <ele>68.62</ele>
        <time>2017-07-02T11:28:21Z</time>
      </trkpt>
      <trkpt lat="48.40077" lon="2.37723">
        <ele>68.26</ele>
        <time>2017-07-02T11:28:23Z</time>
      </trkpt>
      <trkpt lat="48.40069" lon="2.37715">
        <ele>68.26</ele>
        <time>2017-07-02T11:28:25Z</time>
      </trkpt>
      <trkpt lat="48.40062" lon="2.37708">
        <ele>68.26</ele>
        <time>2017-07-02T11:28:27Z</time>
      </trkpt>
      <trkpt lat="48.40055" lon="2.37701">
        <ele>68.18</ele>
        <time>2017-07-02T11:28:29Z</time>
      </trkpt>
      <trkpt lat="48.40047" lon="2.37695">
        <ele>67.41</ele>
        <time>2017-07-02T11:28:31Z</time>
      </trkpt>
      <trkpt lat="48.4004" lon="2.37688">
        <ele>67.6</ele>
        <time>2017-07-02T11:28:33Z</time>
      </trkpt>
      <trkpt lat="48.40033" lon="2.37681">
        <ele>68.46</ele>
        <time>2017-07-02T11:28:35Z</time>
      </trkpt>
      <trkpt lat="48.40026" lon="2.37673">
        <ele>69.89</ele>
        <time>2017-07-02T11:28:37Z</time>
      </trkpt>
      <trkpt lat="48.40019" lon="2.37666">
        <ele>71.36</ele>
        <time>2017-07-02T11:28:39Z</time>
      </trkpt>
      <trkpt lat="48.40011" lon="2.3766">
        <ele>72.11</ele>
        <time>2017-07-02T11:28:41Z</time>
      </trkpt>
      <trkpt lat="48.40004" lon="2.37653">
        <ele>72.86</ele>
        <time>2017-07-02T11:28:43Z</time>
      </trkpt>
      <trkpt lat="48.39997" lon="2.37646">
        <ele>73.55</ele>
        <time>2017-07-02T11:28:45Z</time>
      </trkpt>
      <trkpt lat="48.3999" lon="2.37639">
        <ele>73.98</ele>
        <time>2017-07-02T11:28:47Z</time>
      </trkpt>
      <trkpt lat="48.39982" lon="2.37632">
        <ele>74.61</ele>
        <time>2017-07-02T11:28:49Z</time>
      </trkpt>
      <trkpt lat="48.39975" lon="2.37626">
        <ele>75.37</ele>
        <time>2017-07-02T11:28:51Z</time>
      </trkpt>
      <trkpt lat="48.39967" lon="2.3762">
        <ele>76.54</ele>
        <time>2017-07-02T11:28:53Z</time>
      </trkpt>
      <trkpt lat="48.3996" lon="2.37615">
        <ele>77.92</ele>
        <time>2017-07-02T11:28:55Z</time>
      </trkpt>
      <trkpt lat="48.39952" lon="2.37611">
        <ele>79.24</ele>
        <time>2017-07-02T11:28:57Z</time>
      </trkpt>
      <trkpt lat="48.39943" lon="2.37608">
        <ele>79.82</ele>
        <time>2017-07-02T11:28:59Z</time>
      </trkpt>
      <trkpt lat="48.39935" lon="2.37605">
        <ele>78.79</ele>
        <time>2017-07-02T11:29:01Z</time>
      </trkpt>
      <trkpt lat="48.39927" lon="2.37603">
        <ele>77.88</ele>
        <time>2017-07-02T11:29:03Z</time>
      </trkpt>
      <trkpt lat="48.39919" lon="2.37599">
        <ele>77.1</ele>
        <time>2017-07-02T11:29:05Z</time>
      </trkpt>
      <trkpt lat="48.39914" lon="2.376">
        <ele>76.82</ele>
        <time>2017-07-02T11:29:07Z</time>
      </trkpt>
      <trkpt lat="48.39908" lon="2.37598">
        <ele>76.92</ele>
        <time>2017-07-02T11:29:09Z</time>
      </trkpt>
      <trkpt lat="48.39901" lon="2.37597">
        <ele>77.03</ele>
        <time>2017-07-02T11:29:11Z</time>
      </trkpt>
      <trkpt lat="48.39894" lon="2.37595">
        <ele>77.13</ele>
        <time>2017-07-02T11:29:13Z</time>
      </trkpt>
      <trkpt lat="48.39887" lon="2.37594">
        <ele>77.2</ele>
        <time>2017-07-02T11:29:15Z</time>
      </trkpt>
      <trkpt lat="48.3988" lon="2.37592">
        <ele>77.06</ele>
        <time>2017-07-02T11:29:17Z</time>
      </trkpt>
      <trkpt lat="48.39872" lon="2.3759">
        <ele>76.92</ele>
        <time>2017-07-02T11:29:19Z</time>
      </trkpt>
      <trkpt lat="48.39865" lon="2.37588">
        <ele>76.79</ele>
        <time>2017-07-02T11:29:21Z</time>
      </trkpt>
      <trkpt lat="48.39858" lon="2.37587">
        <ele>76.74</ele>
        <time>2017-07-02T11:29:23Z</time>
      </trkpt>
      <trkpt lat="48.39851" lon="2.37587">
        <ele>76.81</ele>
        <time>2017-07-02T11:29:25Z</time>
      </trkpt>
      <trkpt lat="48.39844" lon="2.37586">
        <ele>76.87</ele>
        <time>2017-07-02T11:29:27Z</time>
      </trkpt>
      <trkpt lat="48.39837" lon="2.37585">
        <ele>76.92</ele>
        <time>2017-07-02T11:29:29Z</time>
      </trkpt>
      <trkpt lat="48.3983" lon="2.37585">
        <ele>76.93</ele>
        <time>2017-07-02T11:29:31Z</time>
      </trkpt>
      <trkpt lat="48.39823" lon="2.37585">
        <ele>76.9</ele>
        <time>2017-07-02T11:29:33Z</time>
      </trkpt>
      <trkpt lat="48.39815" lon="2.37585">
        <ele>76.88</ele>
        <time>2017-07-02T11:29:35Z</time>
      </trkpt>
      <trkpt lat="48.39807" lon="2.37586">
        <ele>76.78</ele>
        <time>2017-07-02T11:29:37Z</time>
      </trkpt>
      <trkpt lat="48.398" lon="2.37588">
        <ele>77.31</ele>
        <time>2017-07-02T11:29:39Z</time>
      </trkpt>
      <trkpt lat="48.39784" lon="2.37588">
        <ele>78.82</ele>
        <time>2017-07-02T11:29:41Z</time>
      </trkpt>
      <trkpt lat="48.39777" lon="2.3759">
        <ele>79.29</ele>
        <time>2017-07-02T11:29:43Z</time>
      </trkpt>
      <trkpt lat="48.39767" lon="2.37593">
        <ele>79.67</ele>
        <time>2017-07-02T11:29:45Z</time>
      </trkpt>
      <trkpt lat="48.39753" lon="2.37592">
        <ele>80.85</ele>
        <time>2017-07-02T11:29:47Z</time>
      </trkpt>
      <trkpt lat="48.39743" lon="2.37592">
        <ele>80.42</ele>
        <time>2017-07-02T11:29:49Z</time>
      </trkpt>
      <trkpt lat="48.3973" lon="2.37594">
        <ele>79.25</ele>
        <time>2017-07-02T11:29:51Z</time>
      </trkpt>
      <trkpt lat="48.39717" lon="2.37596">
        <ele>78</ele>
        <time>2017-07-02T11:29:53Z</time>
      </trkpt>
      <trkpt lat="48.39705" lon="2.37596">
        <ele>76.72</ele>
        <time>2017-07-02T11:29:55Z</time>
      </trkpt>
      <trkpt lat="48.39693" lon="2.37595">
        <ele>75.5</ele>
        <time>2017-07-02T11:29:57Z</time>
      </trkpt>
      <trkpt lat="48.3968" lon="2.37595">
        <ele>74.87</ele>
        <time>2017-07-02T11:29:59Z</time>
      </trkpt>
      <trkpt lat="48.39668" lon="2.37595">
        <ele>74.22</ele>
        <time>2017-07-02T11:30:01Z</time>
      </trkpt>
      <trkpt lat="48.39656" lon="2.37594">
        <ele>73.73</ele>
        <time>2017-07-02T11:30:03Z</time>
      </trkpt>
      <trkpt lat="48.39643" lon="2.37593">
        <ele>73.19</ele>
        <time>2017-07-02T11:30:05Z</time>
      </trkpt>
      <trkpt lat="48.39631" lon="2.37592">
        <ele>72.02</ele>
        <time>2017-07-02T11:30:07Z</time>
      </trkpt>
      <trkpt lat="48.39618" lon="2.37592">
        <ele>70.46</ele>
        <time>2017-07-02T11:30:09Z</time>
      </trkpt>
      <trkpt lat="48.39605" lon="2.3759">
        <ele>69.35</ele>
        <time>2017-07-02T11:30:11Z</time>
      </trkpt>
      <trkpt lat="48.39591" lon="2.37588">
        <ele>68.5</ele>
        <time>2017-07-02T11:30:13Z</time>
      </trkpt>
      <trkpt lat="48.39577" lon="2.37587">
        <ele>67.97</ele>
        <time>2017-07-02T11:30:15Z</time>
      </trkpt>
      <trkpt lat="48.39564" lon="2.37586">
        <ele>67.95</ele>
        <time>2017-07-02T11:30:17Z</time>
      </trkpt>
      <trkpt lat="48.39551" lon="2.37585">
        <ele>68.28</ele>
        <time>2017-07-02T11:30:19Z</time>
      </trkpt>
      <trkpt lat="48.39537" lon="2.37583">
        <ele>69.33</ele>
        <time>2017-07-02T11:30:21Z</time>
      </trkpt>
      <trkpt lat="48.39524" lon="2.37582">
        <ele>70.7</ele>
        <time>2017-07-02T11:30:23Z</time>
      </trkpt>
      <trkpt lat="48.3951" lon="2.37582">
        <ele>72.78</ele>
        <time>2017-07-02T11:30:25Z</time>
      </trkpt>
      <trkpt lat="48.39496" lon="2.3758">
        <ele>74.48</ele>
        <time>2017-07-02T11:30:27Z</time>
      </trkpt>
      <trkpt lat="48.39484" lon="2.37579">
        <ele>75.02</ele>
        <time>2017-07-02T11:30:29Z</time>
      </trkpt>
      <trkpt lat="48.39473" lon="2.37579">
        <ele>75.51</ele>
        <time>2017-07-02T11:30:31Z</time>
      </trkpt>
      <trkpt lat="48.39462" lon="2.37578">
        <ele>75.41</ele>
        <time>2017-07-02T11:30:33Z</time>
      </trkpt>
      <trkpt lat="48.39453" lon="2.37579">
        <ele>75.27</ele>
        <time>2017-07-02T11:30:35Z</time>
      </trkpt>
      <trkpt lat="48.39443" lon="2.37579">
        <ele>75.03</ele>
        <time>2017-07-02T11:30:37Z</time>
      </trkpt>
      <trkpt lat="48.39435" lon="2.37578">
        <ele>74.24</ele>
        <time>2017-07-02T11:30:39Z</time>
      </trkpt>
      <trkpt lat="48.39427" lon="2.37577">
        <ele>73.5</ele>
        <time>2017-07-02T11:30:41Z</time>
      </trkpt>
      <trkpt lat="48.39421" lon="2.37573">
        <ele>73.12</ele>
        <time>2017-07-02T11:30:43Z</time>
      </trkpt>
      <trkpt lat="48.39415" lon="2.37574">
        <ele>72.46</ele>
        <time>2017-07-02T11:30:45Z</time>
      </trkpt>
      <trkpt lat="48.39405" lon="2.37574">
        <ele>71.09</ele>
        <time>2017-07-02T11:30:49Z</time>
      </trkpt>
      <trkpt lat="48.3939" lon="2.37575">
        <ele>69.11</ele>
        <time>2017-07-02T11:30:51Z</time>
      </trkpt>
      <trkpt lat="48.3938" lon="2.37575">
        <ele>69.57</ele>
        <time>2017-07-02T11:30:53Z</time>
      </trkpt>
      <trkpt lat="48.39371" lon="2.37572">
        <ele>70.52</ele>
        <time>2017-07-02T11:30:55Z</time>
      </trkpt>
      <trkpt lat="48.39358" lon="2.37571">
        <ele>71.46</ele>
        <time>2017-07-02T11:30:57Z</time>
      </trkpt>
      <trkpt lat="48.39348" lon="2.37569">
        <ele>72.44</ele>
        <time>2017-07-02T11:30:59Z</time>
      </trkpt>
      <trkpt lat="48.39337" lon="2.37568">
        <ele>73.54</ele>
        <time>2017-07-02T11:31:01Z</time>
      </trkpt>
      <trkpt lat="48.39328" lon="2.37564">
        <ele>73.79</ele>
        <time>2017-07-02T11:31:03Z</time>
      </trkpt>
      <trkpt lat="48.39318" lon="2.3756">
        <ele>73.13</ele>
        <time>2017-07-02T11:31:05Z</time>
      </trkpt>
      <trkpt lat="48.39307" lon="2.37559">
        <ele>71.82</ele>
        <time>2017-07-02T11:31:07Z</time>
      </trkpt>
      <trkpt lat="48.39297" lon="2.37557">
        <ele>70.37</ele>
        <time>2017-07-02T11:31:09Z</time>
      </trkpt>
      <trkpt lat="48.39286" lon="2.37553">
        <ele>68.74</ele>
        <time>2017-07-02T11:31:11Z</time>
      </trkpt>
      <trkpt lat="48.39276" lon="2.37551">
        <ele>67.46</ele>
        <time>2017-07-02T11:31:13Z</time>
      </trkpt>
      <trkpt lat="48.39265" lon="2.37549">
        <ele>67.38</ele>
        <time>2017-07-02T11:31:15Z</time>
      </trkpt>
      <trkpt lat="48.39255" lon="2.37546">
        <ele>67.45</ele>
        <time>2017-07-02T11:31:17Z</time>
      </trkpt>
      <trkpt lat="48.39244" lon="2.37542">
        <ele>67.84</ele>
        <time>2017-07-02T11:31:19Z</time>
      </trkpt>
      <trkpt lat="48.39233" lon="2.37538">
        <ele>68.07</ele>
        <time>2017-07-02T11:31:21Z</time>
      </trkpt>
      <trkpt lat="48.39219" lon="2.37536">
        <ele>67.99</ele>
        <time>2017-07-02T11:31:23Z</time>
      </trkpt>
      <trkpt lat="48.39209" lon="2.37534">
        <ele>67.71</ele>
        <time>2017-07-02T11:31:25Z</time>
      </trkpt>
      <trkpt lat="48.39198" lon="2.37531">
        <ele>67.62</ele>
        <time>2017-07-02T11:31:27Z</time>
      </trkpt>
      <trkpt lat="48.39186" lon="2.37525">
        <ele>67.64</ele>
        <time>2017-07-02T11:31:29Z</time>
      </trkpt>
      <trkpt lat="48.39176" lon="2.37521">
        <ele>67.03</ele>
        <time>2017-07-02T11:31:31Z</time>
      </trkpt>
      <trkpt lat="48.39165" lon="2.3752">
        <ele>66.23</ele>
        <time>2017-07-02T11:31:33Z</time>
      </trkpt>
      <trkpt lat="48.39154" lon="2.37516">
        <ele>65.96</ele>
        <time>2017-07-02T11:31:35Z</time>
      </trkpt>
      <trkpt lat="48.39143" lon="2.37513">
        <ele>65.67</ele>
        <time>2017-07-02T11:31:37Z</time>
      </trkpt>
      <trkpt lat="48.39132" lon="2.3751">
        <ele>64.86</ele>
        <time>2017-07-02T11:31:39Z</time>
      </trkpt>
      <trkpt lat="48.39121" lon="2.37508">
        <ele>64.31</ele>
        <time>2017-07-02T11:31:41Z</time>
      </trkpt>
      <trkpt lat="48.3911" lon="2.37505">
        <ele>64.3</ele>
        <time>2017-07-02T11:31:43Z</time>
      </trkpt>
      <trkpt lat="48.391" lon="2.37502">
        <ele>65.64</ele>
        <time>2017-07-02T11:31:45Z</time>
      </trkpt>
      <trkpt lat="48.39089" lon="2.37497">
        <ele>66.22</ele>
        <time>2017-07-02T11:31:47Z</time>
      </trkpt>
      <trkpt lat="48.39079" lon="2.37495">
        <ele>66.49</ele>
        <time>2017-07-02T11:31:49Z</time>
      </trkpt>
      <trkpt lat="48.39069" lon="2.37492">
        <ele>66.54</ele>
        <time>2017-07-02T11:31:51Z</time>
      </trkpt>
      <trkpt lat="48.39059" lon="2.3749">
        <ele>66.47</ele>
        <time>2017-07-02T11:31:53Z</time>
      </trkpt>
      <trkpt lat="48.3905" lon="2.37487">
        <ele>67.27</ele>
        <time>2017-07-02T11:31:55Z</time>
      </trkpt>
      <trkpt lat="48.39042" lon="2.37485">
        <ele>68.53</ele>
        <time>2017-07-02T11:31:57Z</time>
      </trkpt>
      <trkpt lat="48.39034" lon="2.37483">
        <ele>69.7</ele>
        <time>2017-07-02T11:31:59Z</time>
      </trkpt>
      <trkpt lat="48.39027" lon="2.37482">
        <ele>70.74</ele>
        <time>2017-07-02T11:32:01Z</time>
      </trkpt>
      <trkpt lat="48.3902" lon="2.37479">
        <ele>71.39</ele>
        <time>2017-07-02T11:32:03Z</time>
      </trkpt>
      <trkpt lat="48.39013" lon="2.37477">
        <ele>71.99</ele>
        <time>2017-07-02T11:32:05Z</time>
      </trkpt>
      <trkpt lat="48.39006" lon="2.37475">
        <ele>72.53</ele>
        <time>2017-07-02T11:32:07Z</time>
      </trkpt>
      <trkpt lat="48.39" lon="2.37473">
        <ele>73.07</ele>
        <time>2017-07-02T11:32:09Z</time>
      </trkpt>
      <trkpt lat="48.38993" lon="2.37472">
        <ele>74.02</ele>
        <time>2017-07-02T11:32:11Z</time>
      </trkpt>
      <trkpt lat="48.38986" lon="2.37471">
        <ele>74.84</ele>
        <time>2017-07-02T11:32:13Z</time>
      </trkpt>
      <trkpt lat="48.38981" lon="2.37469">
        <ele>75.42</ele>
        <time>2017-07-02T11:32:15Z</time>
      </trkpt>
      <trkpt lat="48.38976" lon="2.37468">
        <ele>75.95</ele>
        <time>2017-07-02T11:32:17Z</time>
      </trkpt>
      <trkpt lat="48.38971" lon="2.37466">
        <ele>76.33</ele>
        <time>2017-07-02T11:32:19Z</time>
      </trkpt>
      <trkpt lat="48.38966" lon="2.37464">
        <ele>76.28</ele>
        <time>2017-07-02T11:32:21Z</time>
      </trkpt>
      <trkpt lat="48.38961" lon="2.37463">
        <ele>76.25</ele>
        <time>2017-07-02T11:32:23Z</time>
      </trkpt>
      <trkpt lat="48.38955" lon="2.37461">
        <ele>76.21</ele>
        <time>2017-07-02T11:32:25Z</time>
      </trkpt>
      <trkpt lat="48.3895" lon="2.3746">
        <ele>76.13</ele>
        <time>2017-07-02T11:32:27Z</time>
      </trkpt>
      <trkpt lat="48.38945" lon="2.37458">
        <ele>75.97</ele>
        <time>2017-07-02T11:32:29Z</time>
      </trkpt>
      <trkpt lat="48.3894" lon="2.37457">
        <ele>76.81</ele>
        <time>2017-07-02T11:32:31Z</time>
      </trkpt>
      <trkpt lat="48.38934" lon="2.37455">
        <ele>77.79</ele>
        <time>2017-07-02T11:32:33Z</time>
      </trkpt>
      <trkpt lat="48.38929" lon="2.37454">
        <ele>78.79</ele>
        <time>2017-07-02T11:32:35Z</time>
      </trkpt>
      <trkpt lat="48.38925" lon="2.37453">
        <ele>79.7</ele>
        <time>2017-07-02T11:32:36Z</time>
      </trkpt>
      <trkpt lat="48.38919" lon="2.37451">
        <ele>80.82</ele>
        <time>2017-07-02T11:32:39Z</time>
      </trkpt>
      <trkpt lat="48.38914" lon="2.3745">
        <ele>81.61</ele>
        <time>2017-07-02T11:32:41Z</time>
      </trkpt>
      <trkpt lat="48.38909" lon="2.37449">
        <ele>82.06</ele>
        <time>2017-07-02T11:32:43Z</time>
      </trkpt>
      <trkpt lat="48.38904" lon="2.37449">
        <ele>82.58</ele>
        <time>2017-07-02T11:32:45Z</time>
      </trkpt>
      <trkpt lat="48.38899" lon="2.3745">
        <ele>83.17</ele>
        <time>2017-07-02T11:32:47Z</time>
      </trkpt>
      <trkpt lat="48.38894" lon="2.37453">
        <ele>83.8</ele>
        <time>2017-07-02T11:32:48Z</time>
      </trkpt>
      <trkpt lat="48.38888" lon="2.37455">
        <ele>84.46</ele>
        <time>2017-07-02T11:32:51Z</time>
      </trkpt>
      <trkpt lat="48.38884" lon="2.37457">
        <ele>85.32</ele>
        <time>2017-07-02T11:32:53Z</time>
      </trkpt>
      <trkpt lat="48.38878" lon="2.37459">
        <ele>86.19</ele>
        <time>2017-07-02T11:32:55Z</time>
      </trkpt>
      <trkpt lat="48.38874" lon="2.37462">
        <ele>86.9</ele>
        <time>2017-07-02T11:32:57Z</time>
      </trkpt>
      <trkpt lat="48.3887" lon="2.37464">
        <ele>87.71</ele>
        <time>2017-07-02T11:32:59Z</time>
      </trkpt>
      <trkpt lat="48.38869" lon="2.37471">
        <ele>87.88</ele>
        <time>2017-07-02T11:33:00Z</time>
      </trkpt>
      <trkpt lat="48.38866" lon="2.37478">
        <ele>88.25</ele>
        <time>2017-07-02T11:33:03Z</time>
      </trkpt>
      <trkpt lat="48.38862" lon="2.37484">
        <ele>88.45</ele>
        <time>2017-07-02T11:33:05Z</time>
      </trkpt>
      <trkpt lat="48.38859" lon="2.3749">
        <ele>88.51</ele>
        <time>2017-07-02T11:33:07Z</time>
      </trkpt>
      <trkpt lat="48.38855" lon="2.37498">
        <ele>88.49</ele>
        <time>2017-07-02T11:33:09Z</time>
      </trkpt>
      <trkpt lat="48.38852" lon="2.37505">
        <ele>88.28</ele>
        <time>2017-07-02T11:33:11Z</time>
      </trkpt>
      <trkpt lat="48.38849" lon="2.37513">
        <ele>87.8</ele>
        <time>2017-07-02T11:33:12Z</time>
      </trkpt>
      <trkpt lat="48.38842" lon="2.37527">
        <ele>86.36</ele>
        <time>2017-07-02T11:33:17Z</time>
      </trkpt>
      <trkpt lat="48.38838" lon="2.37534">
        <ele>86.03</ele>
        <time>2017-07-02T11:33:19Z</time>
      </trkpt>
      <trkpt lat="48.38835" lon="2.37541">
        <ele>85.62</ele>
        <time>2017-07-02T11:33:21Z</time>
      </trkpt>
      <trkpt lat="48.38832" lon="2.37549">
        <ele>85.45</ele>
        <time>2017-07-02T11:33:23Z</time>
      </trkpt>
      <trkpt lat="48.38829" lon="2.37557">
        <ele>85.55</ele>
        <time>2017-07-02T11:33:24Z</time>
      </trkpt>
      <trkpt lat="48.38826" lon="2.37565">
        <ele>86.08</ele>
        <time>2017-07-02T11:33:27Z</time>
      </trkpt>
      <trkpt lat="48.38821" lon="2.37572">
        <ele>86.46</ele>
        <time>2017-07-02T11:33:29Z</time>
      </trkpt>
      <trkpt lat="48.38817" lon="2.37579">
        <ele>86.46</ele>
        <time>2017-07-02T11:33:31Z</time>
      </trkpt>
      <trkpt lat="48.38811" lon="2.37586">
        <ele>86.11</ele>
        <time>2017-07-02T11:33:33Z</time>
      </trkpt>
      <trkpt lat="48.38805" lon="2.37593">
        <ele>85.66</ele>
        <time>2017-07-02T11:33:35Z</time>
      </trkpt>
      <trkpt lat="48.38797" lon="2.37599">
        <ele>85.13</ele>
        <time>2017-07-02T11:33:36Z</time>
      </trkpt>
      <trkpt lat="48.38789" lon="2.37606">
        <ele>84.57</ele>
        <time>2017-07-02T11:33:39Z</time>
      </trkpt>
      <trkpt lat="48.3878" lon="2.37611">
        <ele>84.1</ele>
        <time>2017-07-02T11:33:41Z</time>
      </trkpt>
      <trkpt lat="48.38771" lon="2.37614">
        <ele>82.64</ele>
        <time>2017-07-02T11:33:43Z</time>
      </trkpt>
      <trkpt lat="48.38762" lon="2.37617">
        <ele>80.93</ele>
        <time>2017-07-02T11:33:45Z</time>
      </trkpt>
      <trkpt lat="48.38753" lon="2.37619">
        <ele>79.23</ele>
        <time>2017-07-02T11:33:47Z</time>
      </trkpt>
      <trkpt lat="48.38737" lon="2.3762">
        <ele>77.3</ele>
        <time>2017-07-02T11:33:48Z</time>
      </trkpt>
      <trkpt lat="48.38724" lon="2.37619">
        <ele>75.9</ele>
        <time>2017-07-02T11:33:51Z</time>
      </trkpt>
      <trkpt lat="48.38713" lon="2.37621">
        <ele>74.93</ele>
        <time>2017-07-02T11:33:53Z</time>
      </trkpt>
      <trkpt lat="48.38699" lon="2.37623">
        <ele>73.63</ele>
        <time>2017-07-02T11:33:55Z</time>
      </trkpt>
      <trkpt lat="48.38686" lon="2.37624">
        <ele>73.11</ele>
        <time>2017-07-02T11:33:57Z</time>
      </trkpt>
      <trkpt lat="48.38671" lon="2.37626">
        <ele>72.93</ele>
        <time>2017-07-02T11:33:59Z</time>
      </trkpt>
      <trkpt lat="48.38587" lon="2.37642">
        <ele>65.6</ele>
        <time>2017-07-02T11:34:11Z</time>
      </trkpt>
      <trkpt lat="48.38584" lon="2.37653">
        <ele>64.47</ele>
        <time>2017-07-02T11:34:14Z</time>
      </trkpt>
      <trkpt lat="48.38585" lon="2.37664">
        <ele>63.43</ele>
        <time>2017-07-02T11:34:16Z</time>
      </trkpt>
      <trkpt lat="48.38584" lon="2.37681">
        <ele>64.09</ele>
        <time>2017-07-02T11:34:18Z</time>
      </trkpt>
      <trkpt lat="48.38582" lon="2.377">
        <ele>65.26</ele>
        <time>2017-07-02T11:34:20Z</time>
      </trkpt>
      <trkpt lat="48.3858" lon="2.37719">
        <ele>65.7</ele>
        <time>2017-07-02T11:34:22Z</time>
      </trkpt>
      <trkpt lat="48.38569" lon="2.37836">
        <ele>62.53</ele>
        <time>2017-07-02T11:34:34Z</time>
      </trkpt>
      <trkpt lat="48.38569" lon="2.3787">
        <ele>59.82</ele>
        <time>2017-07-02T11:34:37Z</time>
      </trkpt>
      <trkpt lat="48.38562" lon="2.37879">
        <ele>60.47</ele>
        <time>2017-07-02T11:34:39Z</time>
      </trkpt>
      <trkpt lat="48.38552" lon="2.37878">
        <ele>60</ele>
        <time>2017-07-02T11:34:41Z</time>
      </trkpt>
      <trkpt lat="48.38543" lon="2.37877">
        <ele>58.93</ele>
        <time>2017-07-02T11:34:43Z</time>
      </trkpt>
      <trkpt lat="48.38534" lon="2.37877">
        <ele>57.77</ele>
        <time>2017-07-02T11:34:45Z</time>
      </trkpt>
      <trkpt lat="48.38525" lon="2.37877">
        <ele>57.1</ele>
        <time>2017-07-02T11:34:47Z</time>
      </trkpt>
      <trkpt lat="48.38516" lon="2.37877">
        <ele>57.44</ele>
        <time>2017-07-02T11:34:49Z</time>
      </trkpt>
      <trkpt lat="48.38508" lon="2.37878">
        <ele>57.72</ele>
        <time>2017-07-02T11:34:51Z</time>
      </trkpt>
      <trkpt lat="48.385" lon="2.37878">
        <ele>57.99</ele>
        <time>2017-07-02T11:34:53Z</time>
      </trkpt>
      <trkpt lat="48.38494" lon="2.37876">
        <ele>58.14</ele>
        <time>2017-07-02T11:34:55Z</time>
      </trkpt>
      <trkpt lat="48.38488" lon="2.37877">
        <ele>58.34</ele>
        <time>2017-07-02T11:34:57Z</time>
      </trkpt>
      <trkpt lat="48.38483" lon="2.37878">
        <ele>58.52</ele>
        <time>2017-07-02T11:34:59Z</time>
      </trkpt>
      <trkpt lat="48.38478" lon="2.37879">
        <ele>58.78</ele>
        <time>2017-07-02T11:35:01Z</time>
      </trkpt>
      <trkpt lat="48.38472" lon="2.3788">
        <ele>58.98</ele>
        <time>2017-07-02T11:35:03Z</time>
      </trkpt>
      <trkpt lat="48.38467" lon="2.37879">
        <ele>59.48</ele>
        <time>2017-07-02T11:35:05Z</time>
      </trkpt>
      <trkpt lat="48.3846" lon="2.37878">
        <ele>60.16</ele>
        <time>2017-07-02T11:35:07Z</time>
      </trkpt>
      <trkpt lat="48.38453" lon="2.37878">
        <ele>60.88</ele>
        <time>2017-07-02T11:35:09Z</time>
      </trkpt>
      <trkpt lat="48.38445" lon="2.37877">
        <ele>61.65</ele>
        <time>2017-07-02T11:35:11Z</time>
      </trkpt>
      <trkpt lat="48.38436" lon="2.37876">
        <ele>60.27</ele>
        <time>2017-07-02T11:35:13Z</time>
      </trkpt>
      <trkpt lat="48.38428" lon="2.37875">
        <ele>58.81</ele>
        <time>2017-07-02T11:35:15Z</time>
      </trkpt>
      <trkpt lat="48.38419" lon="2.37874">
        <ele>57.33</ele>
        <time>2017-07-02T11:35:17Z</time>
      </trkpt>
      <trkpt lat="48.38411" lon="2.37874">
        <ele>56.78</ele>
        <time>2017-07-02T11:35:19Z</time>
      </trkpt>
      <trkpt lat="48.38402" lon="2.37873">
        <ele>56.68</ele>
        <time>2017-07-02T11:35:21Z</time>
      </trkpt>
      <trkpt lat="48.38394" lon="2.37873">
        <ele>56.49</ele>
        <time>2017-07-02T11:35:23Z</time>
      </trkpt>
      <trkpt lat="48.38386" lon="2.37872">
        <ele>56.67</ele>
        <time>2017-07-02T11:35:25Z</time>
      </trkpt>
      <trkpt lat="48.38377" lon="2.37871">
        <ele>57.47</ele>
        <time>2017-07-02T11:35:27Z</time>
      </trkpt>
      <trkpt lat="48.38369" lon="2.37869">
        <ele>58.17</ele>
        <time>2017-07-02T11:35:29Z</time>
      </trkpt>
      <trkpt lat="48.38361" lon="2.37866">
        <ele>58.73</ele>
        <time>2017-07-02T11:35:31Z</time>
      </trkpt>
      <trkpt lat="48.38353" lon="2.37864">
        <ele>58.33</ele>
        <time>2017-07-02T11:35:33Z</time>
      </trkpt>
      <trkpt lat="48.38346" lon="2.37863">
        <ele>58.11</ele>
        <time>2017-07-02T11:35:35Z</time>
      </trkpt>
      <trkpt lat="48.3834" lon="2.37863">
        <ele>58.05</ele>
        <time>2017-07-02T11:35:37Z</time>
      </trkpt>
      <trkpt lat="48.38333" lon="2.37863">
        <ele>57.98</ele>
        <time>2017-07-02T11:35:39Z</time>
      </trkpt>
      <trkpt lat="48.38325" lon="2.37862">
        <ele>57.71</ele>
        <time>2017-07-02T11:35:41Z</time>
      </trkpt>
      <trkpt lat="48.38318" lon="2.37862">
        <ele>57.44</ele>
        <time>2017-07-02T11:35:43Z</time>
      </trkpt>
      <trkpt lat="48.38311" lon="2.3786">
        <ele>57.2</ele>
        <time>2017-07-02T11:35:45Z</time>
      </trkpt>
      <trkpt lat="48.38304" lon="2.37859">
        <ele>56.96</ele>
        <time>2017-07-02T11:35:47Z</time>
      </trkpt>
      <trkpt lat="48.38297" lon="2.37858">
        <ele>56.68</ele>
        <time>2017-07-02T11:35:49Z</time>
      </trkpt>
      <trkpt lat="48.3829" lon="2.37857">
        <ele>56.37</ele>
        <time>2017-07-02T11:35:51Z</time>
      </trkpt>
      <trkpt lat="48.38283" lon="2.37855">
        <ele>56</ele>
        <time>2017-07-02T11:35:53Z</time>
      </trkpt>
      <trkpt lat="48.38276" lon="2.37851">
        <ele>55.7</ele>
        <time>2017-07-02T11:35:55Z</time>
      </trkpt>
      <trkpt lat="48.38273" lon="2.37844">
        <ele>55.65</ele>
        <time>2017-07-02T11:35:57Z</time>
      </trkpt>
      <trkpt lat="48.38275" lon="2.37836">
        <ele>55.3</ele>
        <time>2017-07-02T11:35:59Z</time>
      </trkpt>
      <trkpt lat="48.38278" lon="2.37829">
        <ele>55.05</ele>
        <time>2017-07-02T11:36:01Z</time>
      </trkpt>
      <trkpt lat="48.38282" lon="2.37823">
        <ele>55.32</ele>
        <time>2017-07-02T11:36:03Z</time>
      </trkpt>
      <trkpt lat="48.38286" lon="2.37814">
        <ele>55.83</ele>
        <time>2017-07-02T11:36:07Z</time>
      </trkpt>
      <trkpt lat="48.38291" lon="2.37806">
        <ele>56.39</ele>
        <time>2017-07-02T11:36:11Z</time>
      </trkpt>
      <trkpt lat="48.38294" lon="2.3781">
        <ele>56.66</ele>
        <time>2017-07-02T11:45:46Z</time>
      </trkpt>
      <trkpt lat="48.3829" lon="2.37807">
        <ele>56.29</ele>
        <time>2017-07-02T11:48:04Z</time>
      </trkpt>
      <trkpt lat="48.38295" lon="2.3781">
        <ele>56.73</ele>
        <time>2017-07-02T11:48:36Z</time>
      </trkpt>
      <trkpt lat="48.38298" lon="2.37802">
        <ele>57.09</ele>
        <time>2017-07-02T11:59:29Z</time>
      </trkpt>
      <trkpt lat="48.38303" lon="2.37797">
        <ele>57.64</ele>
        <time>2017-07-02T11:59:33Z</time>
      </trkpt>
      <trkpt lat="48.38308" lon="2.37795">
        <ele>58</ele>
        <time>2017-07-02T11:59:37Z</time>
      </trkpt>
      <trkpt lat="48.38312" lon="2.37798">
        <ele>58</ele>
        <time>2017-07-02T11:59:41Z</time>
      </trkpt>
      <trkpt lat="48.38313" lon="2.3779">
        <ele>58</ele>
        <time>2017-07-02T12:00:01Z</time>
      </trkpt>
      <trkpt lat="48.38309" lon="2.37785">
        <ele>58</ele>
        <time>2017-07-02T12:09:23Z</time>
      </trkpt>
      <trkpt lat="48.38306" lon="2.37793">
        <ele>58</ele>
        <time>2017-07-02T12:09:31Z</time>
      </trkpt>
      <trkpt lat="48.38307" lon="2.37802">
        <ele>58</ele>
        <time>2017-07-02T12:09:35Z</time>
      </trkpt>
      <trkpt lat="48.38308" lon="2.37813">
        <ele>57.72</ele>
        <time>2017-07-02T12:09:39Z</time>
      </trkpt>
      <trkpt lat="48.38309" lon="2.37824">
        <ele>57.33</ele>
        <time>2017-07-02T12:09:43Z</time>
      </trkpt>
      <trkpt lat="48.38312" lon="2.37834">
        <ele>57.01</ele>
        <time>2017-07-02T12:09:47Z</time>
      </trkpt>
      <trkpt lat="48.38319" lon="2.37841">
        <ele>57.13</ele>
        <time>2017-07-02T12:09:51Z</time>
      </trkpt>
      <trkpt lat="48.38327" lon="2.37845">
        <ele>57.32</ele>
        <time>2017-07-02T12:09:55Z</time>
      </trkpt>
      <trkpt lat="48.38335" lon="2.37847">
        <ele>57.41</ele>
        <time>2017-07-02T12:09:59Z</time>
      </trkpt>
      <trkpt lat="48.38343" lon="2.37846">
        <ele>57.1</ele>
        <time>2017-07-02T12:10:03Z</time>
      </trkpt>
      <trkpt lat="48.38351" lon="2.37847">
        <ele>56.82</ele>
        <time>2017-07-02T12:10:07Z</time>
      </trkpt>
      <trkpt lat="48.38359" lon="2.37845">
        <ele>56.3</ele>
        <time>2017-07-02T12:10:10Z</time>
      </trkpt>
      <trkpt lat="48.38364" lon="2.37845">
        <ele>55.93</ele>
        <time>2017-07-02T12:10:13Z</time>
      </trkpt>
      <trkpt lat="48.38369" lon="2.37846">
        <ele>55.51</ele>
        <time>2017-07-02T12:10:15Z</time>
      </trkpt>
      <trkpt lat="48.38374" lon="2.37847">
        <ele>55.06</ele>
        <time>2017-07-02T12:10:17Z</time>
      </trkpt>
      <trkpt lat="48.38379" lon="2.37846">
        <ele>54.55</ele>
        <time>2017-07-02T12:10:19Z</time>
      </trkpt>
      <trkpt lat="48.38388" lon="2.37845">
        <ele>53.51</ele>
        <time>2017-07-02T12:10:22Z</time>
      </trkpt>
      <trkpt lat="48.38398" lon="2.37842">
        <ele>53.65</ele>
        <time>2017-07-02T12:10:27Z</time>
      </trkpt>
      <trkpt lat="48.38403" lon="2.37843">
        <ele>53.85</ele>
        <time>2017-07-02T12:10:29Z</time>
      </trkpt>
      <trkpt lat="48.38409" lon="2.37843">
        <ele>54.1</ele>
        <time>2017-07-02T12:10:31Z</time>
      </trkpt>
      <trkpt lat="48.38416" lon="2.37845">
        <ele>54.39</ele>
        <time>2017-07-02T12:10:33Z</time>
      </trkpt>
      <trkpt lat="48.38463" lon="2.37835">
        <ele>56.15</ele>
        <time>2017-07-02T12:10:45Z</time>
      </trkpt>
      <trkpt lat="48.38471" lon="2.37837">
        <ele>56.88</ele>
        <time>2017-07-02T12:10:48Z</time>
      </trkpt>
      <trkpt lat="48.38478" lon="2.37838">
        <ele>57.21</ele>
        <time>2017-07-02T12:10:52Z</time>
      </trkpt>
      <trkpt lat="48.38475" lon="2.37842">
        <ele>57.08</ele>
        <time>2017-07-02T12:11:10Z</time>
      </trkpt>
      <trkpt lat="48.38471" lon="2.37837">
        <ele>56.93</ele>
        <time>2017-07-02T12:14:37Z</time>
      </trkpt>
      <trkpt lat="48.38468" lon="2.37833">
        <ele>56.49</ele>
        <time>2017-07-02T12:14:45Z</time>
      </trkpt>
      <trkpt lat="48.38471" lon="2.37838">
        <ele>56.89</ele>
        <time>2017-07-02T12:19:48Z</time>
      </trkpt>
      <trkpt lat="48.38476" lon="2.37839">
        <ele>57.12</ele>
        <time>2017-07-02T12:19:54Z</time>
      </trkpt>
      <trkpt lat="48.38474" lon="2.37846">
        <ele>57.05</ele>
        <time>2017-07-02T12:30:01Z</time>
      </trkpt>
      <trkpt lat="48.38469" lon="2.37845">
        <ele>56.94</ele>
        <time>2017-07-02T12:32:05Z</time>
      </trkpt>
      <trkpt lat="48.38468" lon="2.37838">
        <ele>56.71</ele>
        <time>2017-07-02T12:34:35Z</time>
      </trkpt>
    </trkseg>
  </trk>
</gpx>